<?xml version="1.0" encoding="UTF-8" standalone="no" ?>
<gpx xmlns="http://www.topografix.com/GPX/1/1" xmlns:xsi="http://www.w3.org/2001/XMLSchema-instance" xsi:schemaLocation="http://www.topografix.com/GPX/1/1 http://www.topografix.com/GPX/1/1/gpx.xsd" version="1.1" creator="VisuGPX - https://www.visugpx.com">
  <metadata>
    <name>La Jasserie depuis Larajasse</name>
    <desc><![CDATA[La Jasserie du Pilat depuis Larajasse en passant par Saint Chamond]]></desc>
  </metadata>
  <trk>
    <name><![CDATA[Larajasse - Jasserie]]></name>
    <trkseg>
      <trkpt lat="45.56927" lon="4.50682">
        <ele>885.9921875</ele>
        <time>2010-08-15T06:48:26Z</time>
      </trkpt>
      <trkpt lat="45.56927" lon="4.5068">
        <ele>885.03100585938</ele>
        <time>2010-08-15T06:48:34Z</time>
      </trkpt>
      <trkpt lat="45.56928" lon="4.50681">
        <ele>884.06958007812</ele>
        <time>2010-08-15T06:48:42Z</time>
      </trkpt>
      <trkpt lat="45.56929" lon="4.50681">
        <ele>883.10815429688</ele>
        <time>2010-08-15T06:48:59Z</time>
      </trkpt>
      <trkpt lat="45.56928" lon="4.5068">
        <ele>882.62768554688</ele>
        <time>2010-08-15T06:49:07Z</time>
      </trkpt>
      <trkpt lat="45.56927" lon="4.50667">
        <ele>882.62768554688</ele>
        <time>2010-08-15T06:49:14Z</time>
      </trkpt>
      <trkpt lat="45.56924" lon="4.50643">
        <ele>882.14697265625</ele>
        <time>2010-08-15T06:49:21Z</time>
      </trkpt>
      <trkpt lat="45.56918" lon="4.5061">
        <ele>880.22436523438</ele>
        <time>2010-08-15T06:49:27Z</time>
      </trkpt>
      <trkpt lat="45.56909" lon="4.50559">
        <ele>876.85986328125</ele>
        <time>2010-08-15T06:49:34Z</time>
      </trkpt>
      <trkpt lat="45.56907" lon="4.50552">
        <ele>876.37915039062</ele>
        <time>2010-08-15T06:49:35Z</time>
      </trkpt>
      <trkpt lat="45.56895" lon="4.50503">
        <ele>871.091796875</ele>
        <time>2010-08-15T06:49:42Z</time>
      </trkpt>
      <trkpt lat="45.56889" lon="4.50471">
        <ele>867.24658203125</ele>
        <time>2010-08-15T06:49:47Z</time>
      </trkpt>
      <trkpt lat="45.56886" lon="4.50459">
        <ele>865.32397460938</ele>
        <time>2010-08-15T06:49:49Z</time>
      </trkpt>
      <trkpt lat="45.56883" lon="4.50443">
        <ele>862.92065429688</ele>
        <time>2010-08-15T06:49:52Z</time>
      </trkpt>
      <trkpt lat="45.56882" lon="4.50426">
        <ele>859.0751953125</ele>
        <time>2010-08-15T06:49:56Z</time>
      </trkpt>
      <trkpt lat="45.56879" lon="4.5039">
        <ele>853.7880859375</ele>
        <time>2010-08-15T06:50:03Z</time>
      </trkpt>
      <trkpt lat="45.56875" lon="4.50358">
        <ele>849.46215820312</ele>
        <time>2010-08-15T06:50:07Z</time>
      </trkpt>
      <trkpt lat="45.56874" lon="4.5033">
        <ele>847.05883789062</ele>
        <time>2010-08-15T06:50:10Z</time>
      </trkpt>
      <trkpt lat="45.56875" lon="4.50289">
        <ele>842.73291015625</ele>
        <time>2010-08-15T06:50:15Z</time>
      </trkpt>
      <trkpt lat="45.56872" lon="4.50259">
        <ele>840.32958984375</ele>
        <time>2010-08-15T06:50:19Z</time>
      </trkpt>
      <trkpt lat="45.56865" lon="4.50233">
        <ele>838.8876953125</ele>
        <time>2010-08-15T06:50:24Z</time>
      </trkpt>
      <trkpt lat="45.56858" lon="4.50213">
        <ele>837.44555664062</ele>
        <time>2010-08-15T06:50:30Z</time>
      </trkpt>
      <trkpt lat="45.56852" lon="4.50202">
        <ele>836.484375</ele>
        <time>2010-08-15T06:50:33Z</time>
      </trkpt>
      <trkpt lat="45.56838" lon="4.50178">
        <ele>836.00366210938</ele>
        <time>2010-08-15T06:50:38Z</time>
      </trkpt>
      <trkpt lat="45.5682" lon="4.50146">
        <ele>835.04248046875</ele>
        <time>2010-08-15T06:50:44Z</time>
      </trkpt>
      <trkpt lat="45.56817" lon="4.50139">
        <ele>834.56176757812</ele>
        <time>2010-08-15T06:50:45Z</time>
      </trkpt>
      <trkpt lat="45.56806" lon="4.50122">
        <ele>833.60034179688</ele>
        <time>2010-08-15T06:50:48Z</time>
      </trkpt>
      <trkpt lat="45.56792" lon="4.50098">
        <ele>832.63916015625</ele>
        <time>2010-08-15T06:50:52Z</time>
      </trkpt>
      <trkpt lat="45.56779" lon="4.50073">
        <ele>832.15844726562</ele>
        <time>2010-08-15T06:50:57Z</time>
      </trkpt>
      <trkpt lat="45.56775" lon="4.50056">
        <ele>831.677734375</ele>
        <time>2010-08-15T06:51:02Z</time>
      </trkpt>
      <trkpt lat="45.56775" lon="4.50056">
        <ele>831.677734375</ele>
        <time>2010-08-15T06:51:08Z</time>
      </trkpt>
      <trkpt lat="45.56773" lon="4.50054">
        <ele>830.23583984375</ele>
        <time>2010-08-15T06:51:31Z</time>
      </trkpt>
      <trkpt lat="45.56773" lon="4.5005">
        <ele>829.2744140625</ele>
        <time>2010-08-15T06:51:41Z</time>
      </trkpt>
      <trkpt lat="45.56773" lon="4.50051">
        <ele>829.75512695312</ele>
        <time>2010-08-15T06:51:46Z</time>
      </trkpt>
      <trkpt lat="45.56773" lon="4.50043">
        <ele>828.7939453125</ele>
        <time>2010-08-15T06:51:51Z</time>
      </trkpt>
      <trkpt lat="45.56773" lon="4.50015">
        <ele>828.31323242188</ele>
        <time>2010-08-15T06:51:58Z</time>
      </trkpt>
      <trkpt lat="45.56773" lon="4.49982">
        <ele>827.35180664062</ele>
        <time>2010-08-15T06:52:04Z</time>
      </trkpt>
      <trkpt lat="45.56764" lon="4.49967">
        <ele>827.35180664062</ele>
        <time>2010-08-15T06:52:07Z</time>
      </trkpt>
      <trkpt lat="45.56756" lon="4.49963">
        <ele>827.83227539062</ele>
        <time>2010-08-15T06:52:09Z</time>
      </trkpt>
      <trkpt lat="45.56726" lon="4.49948">
        <ele>828.7939453125</ele>
        <time>2010-08-15T06:52:18Z</time>
      </trkpt>
      <trkpt lat="45.56697" lon="4.49934">
        <ele>829.2744140625</ele>
        <time>2010-08-15T06:52:26Z</time>
      </trkpt>
      <trkpt lat="45.56678" lon="4.49919">
        <ele>830.23583984375</ele>
        <time>2010-08-15T06:52:32Z</time>
      </trkpt>
      <trkpt lat="45.56668" lon="4.49894">
        <ele>831.677734375</ele>
        <time>2010-08-15T06:52:38Z</time>
      </trkpt>
      <trkpt lat="45.56654" lon="4.49857">
        <ele>836.00366210938</ele>
        <time>2010-08-15T06:52:48Z</time>
      </trkpt>
      <trkpt lat="45.56643" lon="4.49823">
        <ele>839.3681640625</ele>
        <time>2010-08-15T06:52:58Z</time>
      </trkpt>
      <trkpt lat="45.56636" lon="4.49795">
        <ele>841.771484375</ele>
        <time>2010-08-15T06:53:06Z</time>
      </trkpt>
      <trkpt lat="45.56629" lon="4.49767">
        <ele>844.17504882812</ele>
        <time>2010-08-15T06:53:14Z</time>
      </trkpt>
      <trkpt lat="45.5662" lon="4.49737">
        <ele>846.57836914062</ele>
        <time>2010-08-15T06:53:23Z</time>
      </trkpt>
      <trkpt lat="45.56612" lon="4.49715">
        <ele>847.53955078125</ele>
        <time>2010-08-15T06:53:30Z</time>
      </trkpt>
      <trkpt lat="45.56604" lon="4.497">
        <ele>847.53955078125</ele>
        <time>2010-08-15T06:53:36Z</time>
      </trkpt>
      <trkpt lat="45.56598" lon="4.49689">
        <ele>848.02026367188</ele>
        <time>2010-08-15T06:53:41Z</time>
      </trkpt>
      <trkpt lat="45.5659" lon="4.49668">
        <ele>848.02026367188</ele>
        <time>2010-08-15T06:53:47Z</time>
      </trkpt>
      <trkpt lat="45.5658" lon="4.49638">
        <ele>848.9814453125</ele>
        <time>2010-08-15T06:53:55Z</time>
      </trkpt>
      <trkpt lat="45.56567" lon="4.49605">
        <ele>849.46215820312</ele>
        <time>2010-08-15T06:54:03Z</time>
      </trkpt>
      <trkpt lat="45.56554" lon="4.49577">
        <ele>848.9814453125</ele>
        <time>2010-08-15T06:54:09Z</time>
      </trkpt>
      <trkpt lat="45.56545" lon="4.49548">
        <ele>848.02026367188</ele>
        <time>2010-08-15T06:54:14Z</time>
      </trkpt>
      <trkpt lat="45.56541" lon="4.49518">
        <ele>847.05883789062</ele>
        <time>2010-08-15T06:54:19Z</time>
      </trkpt>
      <trkpt lat="45.56542" lon="4.49501">
        <ele>846.57836914062</ele>
        <time>2010-08-15T06:54:22Z</time>
      </trkpt>
      <trkpt lat="45.56544" lon="4.49472">
        <ele>844.65551757812</ele>
        <time>2010-08-15T06:54:27Z</time>
      </trkpt>
      <trkpt lat="45.56549" lon="4.49443">
        <ele>843.21337890625</ele>
        <time>2010-08-15T06:54:31Z</time>
      </trkpt>
      <trkpt lat="45.56545" lon="4.49403">
        <ele>841.29077148438</ele>
        <time>2010-08-15T06:54:36Z</time>
      </trkpt>
      <trkpt lat="45.56542" lon="4.49396">
        <ele>840.81005859375</ele>
        <time>2010-08-15T06:54:37Z</time>
      </trkpt>
      <trkpt lat="45.5652" lon="4.49352">
        <ele>838.8876953125</ele>
        <time>2010-08-15T06:54:43Z</time>
      </trkpt>
      <trkpt lat="45.56507" lon="4.49343">
        <ele>837.44555664062</ele>
        <time>2010-08-15T06:54:46Z</time>
      </trkpt>
      <trkpt lat="45.56495" lon="4.49355">
        <ele>836.484375</ele>
        <time>2010-08-15T06:54:48Z</time>
      </trkpt>
      <trkpt lat="45.56491" lon="4.49365">
        <ele>835.52294921875</ele>
        <time>2010-08-15T06:54:49Z</time>
      </trkpt>
      <trkpt lat="45.56475" lon="4.49405">
        <ele>832.15844726562</ele>
        <time>2010-08-15T06:54:53Z</time>
      </trkpt>
      <trkpt lat="45.56445" lon="4.49444">
        <ele>828.31323242188</ele>
        <time>2010-08-15T06:54:58Z</time>
      </trkpt>
      <trkpt lat="45.56401" lon="4.49476">
        <ele>827.35180664062</ele>
        <time>2010-08-15T06:55:05Z</time>
      </trkpt>
      <trkpt lat="45.56372" lon="4.49491">
        <ele>827.83227539062</ele>
        <time>2010-08-15T06:55:11Z</time>
      </trkpt>
      <trkpt lat="45.56349" lon="4.49496">
        <ele>829.2744140625</ele>
        <time>2010-08-15T06:55:17Z</time>
      </trkpt>
      <trkpt lat="45.56316" lon="4.49504">
        <ele>832.63916015625</ele>
        <time>2010-08-15T06:55:26Z</time>
      </trkpt>
      <trkpt lat="45.56289" lon="4.49517">
        <ele>834.0810546875</ele>
        <time>2010-08-15T06:55:34Z</time>
      </trkpt>
      <trkpt lat="45.56263" lon="4.49541">
        <ele>835.04248046875</ele>
        <time>2010-08-15T06:55:42Z</time>
      </trkpt>
      <trkpt lat="45.56237" lon="4.49573">
        <ele>836.484375</ele>
        <time>2010-08-15T06:55:50Z</time>
      </trkpt>
      <trkpt lat="45.56231" lon="4.4958">
        <ele>836.96484375</ele>
        <time>2010-08-15T06:55:52Z</time>
      </trkpt>
      <trkpt lat="45.56213" lon="4.49584">
        <ele>836.484375</ele>
        <time>2010-08-15T06:55:57Z</time>
      </trkpt>
      <trkpt lat="45.56209" lon="4.49581">
        <ele>836.484375</ele>
        <time>2010-08-15T06:55:58Z</time>
      </trkpt>
      <trkpt lat="45.56171" lon="4.4955">
        <ele>836.96484375</ele>
        <time>2010-08-15T06:56:09Z</time>
      </trkpt>
      <trkpt lat="45.56138" lon="4.49522">
        <ele>838.8876953125</ele>
        <time>2010-08-15T06:56:19Z</time>
      </trkpt>
      <trkpt lat="45.56102" lon="4.49495">
        <ele>840.81005859375</ele>
        <time>2010-08-15T06:56:29Z</time>
      </trkpt>
      <trkpt lat="45.56068" lon="4.4948">
        <ele>842.25219726562</ele>
        <time>2010-08-15T06:56:38Z</time>
      </trkpt>
      <trkpt lat="45.56034" lon="4.49476">
        <ele>843.69409179688</ele>
        <time>2010-08-15T06:56:47Z</time>
      </trkpt>
      <trkpt lat="45.56016" lon="4.49483">
        <ele>845.13623046875</ele>
        <time>2010-08-15T06:56:52Z</time>
      </trkpt>
      <trkpt lat="45.55984" lon="4.49486">
        <ele>846.57836914062</ele>
        <time>2010-08-15T06:57:01Z</time>
      </trkpt>
      <trkpt lat="45.5596" lon="4.49485">
        <ele>846.57836914062</ele>
        <time>2010-08-15T06:57:09Z</time>
      </trkpt>
      <trkpt lat="45.55934" lon="4.49486">
        <ele>846.57836914062</ele>
        <time>2010-08-15T06:57:16Z</time>
      </trkpt>
      <trkpt lat="45.55906" lon="4.49495">
        <ele>847.05883789062</ele>
        <time>2010-08-15T06:57:24Z</time>
      </trkpt>
      <trkpt lat="45.55884" lon="4.49502">
        <ele>847.53955078125</ele>
        <time>2010-08-15T06:57:31Z</time>
      </trkpt>
      <trkpt lat="45.55864" lon="4.49517">
        <ele>849.46215820312</ele>
        <time>2010-08-15T06:57:38Z</time>
      </trkpt>
      <trkpt lat="45.55844" lon="4.49534">
        <ele>851.384765625</ele>
        <time>2010-08-15T06:57:45Z</time>
      </trkpt>
      <trkpt lat="45.55818" lon="4.49553">
        <ele>852.82666015625</ele>
        <time>2010-08-15T06:57:54Z</time>
      </trkpt>
      <trkpt lat="45.55795" lon="4.49573">
        <ele>854.26879882812</ele>
        <time>2010-08-15T06:58:02Z</time>
      </trkpt>
      <trkpt lat="45.55773" lon="4.49587">
        <ele>856.671875</ele>
        <time>2010-08-15T06:58:10Z</time>
      </trkpt>
      <trkpt lat="45.55753" lon="4.49591">
        <ele>858.11401367188</ele>
        <time>2010-08-15T06:58:18Z</time>
      </trkpt>
      <trkpt lat="45.55735" lon="4.49592">
        <ele>859.0751953125</ele>
        <time>2010-08-15T06:58:26Z</time>
      </trkpt>
      <trkpt lat="45.55717" lon="4.49593">
        <ele>860.51733398438</ele>
        <time>2010-08-15T06:58:34Z</time>
      </trkpt>
      <trkpt lat="45.557" lon="4.49594">
        <ele>861.95947265625</ele>
        <time>2010-08-15T06:58:42Z</time>
      </trkpt>
      <trkpt lat="45.55682" lon="4.49597">
        <ele>863.4013671875</ele>
        <time>2010-08-15T06:58:50Z</time>
      </trkpt>
      <trkpt lat="45.55664" lon="4.49597">
        <ele>864.36254882812</ele>
        <time>2010-08-15T06:58:58Z</time>
      </trkpt>
      <trkpt lat="45.55637" lon="4.49597">
        <ele>865.8046875</ele>
        <time>2010-08-15T06:59:09Z</time>
      </trkpt>
      <trkpt lat="45.55616" lon="4.49591">
        <ele>866.76586914062</ele>
        <time>2010-08-15T06:59:17Z</time>
      </trkpt>
      <trkpt lat="45.5559" lon="4.4958">
        <ele>867.24658203125</ele>
        <time>2010-08-15T06:59:26Z</time>
      </trkpt>
      <trkpt lat="45.55564" lon="4.49568">
        <ele>866.76586914062</ele>
        <time>2010-08-15T06:59:34Z</time>
      </trkpt>
      <trkpt lat="45.55529" lon="4.49548">
        <ele>865.32397460938</ele>
        <time>2010-08-15T06:59:43Z</time>
      </trkpt>
      <trkpt lat="45.55501" lon="4.49535">
        <ele>865.32397460938</ele>
        <time>2010-08-15T06:59:50Z</time>
      </trkpt>
      <trkpt lat="45.55471" lon="4.49523">
        <ele>865.32397460938</ele>
        <time>2010-08-15T06:59:57Z</time>
      </trkpt>
      <trkpt lat="45.5543" lon="4.49509">
        <ele>865.32397460938</ele>
        <time>2010-08-15T07:00:06Z</time>
      </trkpt>
      <trkpt lat="45.55412" lon="4.49499">
        <ele>864.84326171875</ele>
        <time>2010-08-15T07:00:10Z</time>
      </trkpt>
      <trkpt lat="45.55388" lon="4.49472">
        <ele>864.36254882812</ele>
        <time>2010-08-15T07:00:16Z</time>
      </trkpt>
      <trkpt lat="45.55367" lon="4.49461">
        <ele>863.4013671875</ele>
        <time>2010-08-15T07:00:21Z</time>
      </trkpt>
      <trkpt lat="45.55309" lon="4.49451">
        <ele>862.92065429688</ele>
        <time>2010-08-15T07:00:32Z</time>
      </trkpt>
      <trkpt lat="45.5527" lon="4.49441">
        <ele>863.4013671875</ele>
        <time>2010-08-15T07:00:40Z</time>
      </trkpt>
      <trkpt lat="45.55247" lon="4.49438">
        <ele>862.43994140625</ele>
        <time>2010-08-15T07:00:45Z</time>
      </trkpt>
      <trkpt lat="45.55212" lon="4.49425">
        <ele>861.95947265625</ele>
        <time>2010-08-15T07:00:52Z</time>
      </trkpt>
      <trkpt lat="45.55183" lon="4.49418">
        <ele>860.03662109375</ele>
        <time>2010-08-15T07:00:57Z</time>
      </trkpt>
      <trkpt lat="45.55166" lon="4.4942">
        <ele>857.63330078125</ele>
        <time>2010-08-15T07:01:00Z</time>
      </trkpt>
      <trkpt lat="45.5513" lon="4.49428">
        <ele>853.7880859375</ele>
        <time>2010-08-15T07:01:06Z</time>
      </trkpt>
      <trkpt lat="45.55103" lon="4.4944">
        <ele>849.94287109375</ele>
        <time>2010-08-15T07:01:11Z</time>
      </trkpt>
      <trkpt lat="45.55072" lon="4.49474">
        <ele>843.21337890625</ele>
        <time>2010-08-15T07:01:17Z</time>
      </trkpt>
      <trkpt lat="45.55036" lon="4.49521">
        <ele>834.0810546875</ele>
        <time>2010-08-15T07:01:24Z</time>
      </trkpt>
      <trkpt lat="45.55015" lon="4.49539">
        <ele>829.2744140625</ele>
        <time>2010-08-15T07:01:29Z</time>
      </trkpt>
      <trkpt lat="45.54993" lon="4.49565">
        <ele>823.02587890625</ele>
        <time>2010-08-15T07:01:35Z</time>
      </trkpt>
      <trkpt lat="45.54982" lon="4.49577">
        <ele>820.62255859375</ele>
        <time>2010-08-15T07:01:38Z</time>
      </trkpt>
      <trkpt lat="45.54955" lon="4.49604">
        <ele>812.93212890625</ele>
        <time>2010-08-15T07:01:44Z</time>
      </trkpt>
      <trkpt lat="45.54949" lon="4.4961">
        <ele>811.48999023438</ele>
        <time>2010-08-15T07:01:45Z</time>
      </trkpt>
      <trkpt lat="45.54924" lon="4.49627">
        <ele>805.24145507812</ele>
        <time>2010-08-15T07:01:50Z</time>
      </trkpt>
      <trkpt lat="45.54919" lon="4.4963">
        <ele>804.2802734375</ele>
        <time>2010-08-15T07:01:51Z</time>
      </trkpt>
      <trkpt lat="45.54881" lon="4.49644">
        <ele>797.0703125</ele>
        <time>2010-08-15T07:01:58Z</time>
      </trkpt>
      <trkpt lat="45.54849" lon="4.4965">
        <ele>791.30224609375</ele>
        <time>2010-08-15T07:02:04Z</time>
      </trkpt>
      <trkpt lat="45.54824" lon="4.49656">
        <ele>787.93774414062</ele>
        <time>2010-08-15T07:02:09Z</time>
      </trkpt>
      <trkpt lat="45.54796" lon="4.49657">
        <ele>785.05395507812</ele>
        <time>2010-08-15T07:02:13Z</time>
      </trkpt>
      <trkpt lat="45.54776" lon="4.49657">
        <ele>782.65063476562</ele>
        <time>2010-08-15T07:02:16Z</time>
      </trkpt>
      <trkpt lat="45.54764" lon="4.49658">
        <ele>781.20874023438</ele>
        <time>2010-08-15T07:02:18Z</time>
      </trkpt>
      <trkpt lat="45.54752" lon="4.49658">
        <ele>779.76635742188</ele>
        <time>2010-08-15T07:02:20Z</time>
      </trkpt>
      <trkpt lat="45.54732" lon="4.49659">
        <ele>776.88256835938</ele>
        <time>2010-08-15T07:02:23Z</time>
      </trkpt>
      <trkpt lat="45.54687" lon="4.49654">
        <ele>773.99853515625</ele>
        <time>2010-08-15T07:02:30Z</time>
      </trkpt>
      <trkpt lat="45.54664" lon="4.4966">
        <ele>773.51806640625</ele>
        <time>2010-08-15T07:02:34Z</time>
      </trkpt>
      <trkpt lat="45.5465" lon="4.49666">
        <ele>774.9599609375</ele>
        <time>2010-08-15T07:02:38Z</time>
      </trkpt>
      <trkpt lat="45.54634" lon="4.49662">
        <ele>775.4404296875</ele>
        <time>2010-08-15T07:02:45Z</time>
      </trkpt>
      <trkpt lat="45.54618" lon="4.49654">
        <ele>775.4404296875</ele>
        <time>2010-08-15T07:02:52Z</time>
      </trkpt>
      <trkpt lat="45.54612" lon="4.49654">
        <ele>775.92114257812</ele>
        <time>2010-08-15T07:02:56Z</time>
      </trkpt>
      <trkpt lat="45.54603" lon="4.49653">
        <ele>775.92114257812</ele>
        <time>2010-08-15T07:03:01Z</time>
      </trkpt>
      <trkpt lat="45.54583" lon="4.49651">
        <ele>775.4404296875</ele>
        <time>2010-08-15T07:03:10Z</time>
      </trkpt>
      <trkpt lat="45.54563" lon="4.49651">
        <ele>774.9599609375</ele>
        <time>2010-08-15T07:03:17Z</time>
      </trkpt>
      <trkpt lat="45.54533" lon="4.4965">
        <ele>774.47924804688</ele>
        <time>2010-08-15T07:03:25Z</time>
      </trkpt>
      <trkpt lat="45.54496" lon="4.49649">
        <ele>773.51806640625</ele>
        <time>2010-08-15T07:03:33Z</time>
      </trkpt>
      <trkpt lat="45.54459" lon="4.49639">
        <ele>772.556640625</ele>
        <time>2010-08-15T07:03:40Z</time>
      </trkpt>
      <trkpt lat="45.54439" lon="4.49627">
        <ele>772.07592773438</ele>
        <time>2010-08-15T07:03:44Z</time>
      </trkpt>
      <trkpt lat="45.54413" lon="4.49616">
        <ele>772.07592773438</ele>
        <time>2010-08-15T07:03:49Z</time>
      </trkpt>
      <trkpt lat="45.54393" lon="4.49602">
        <ele>772.07592773438</ele>
        <time>2010-08-15T07:03:54Z</time>
      </trkpt>
      <trkpt lat="45.54361" lon="4.4957">
        <ele>772.556640625</ele>
        <time>2010-08-15T07:04:03Z</time>
      </trkpt>
      <trkpt lat="45.54326" lon="4.49538">
        <ele>773.51806640625</ele>
        <time>2010-08-15T07:04:13Z</time>
      </trkpt>
      <trkpt lat="45.54305" lon="4.49521">
        <ele>775.4404296875</ele>
        <time>2010-08-15T07:04:20Z</time>
      </trkpt>
      <trkpt lat="45.54292" lon="4.49505">
        <ele>775.92114257812</ele>
        <time>2010-08-15T07:04:25Z</time>
      </trkpt>
      <trkpt lat="45.54265" lon="4.49471">
        <ele>775.92114257812</ele>
        <time>2010-08-15T07:04:33Z</time>
      </trkpt>
      <trkpt lat="45.54243" lon="4.49445">
        <ele>776.40185546875</ele>
        <time>2010-08-15T07:04:40Z</time>
      </trkpt>
      <trkpt lat="45.54212" lon="4.49411">
        <ele>776.40185546875</ele>
        <time>2010-08-15T07:04:50Z</time>
      </trkpt>
      <trkpt lat="45.54195" lon="4.49393">
        <ele>776.40185546875</ele>
        <time>2010-08-15T07:04:56Z</time>
      </trkpt>
      <trkpt lat="45.54166" lon="4.49365">
        <ele>776.40185546875</ele>
        <time>2010-08-15T07:05:06Z</time>
      </trkpt>
      <trkpt lat="45.54139" lon="4.49341">
        <ele>775.92114257812</ele>
        <time>2010-08-15T07:05:14Z</time>
      </trkpt>
      <trkpt lat="45.54104" lon="4.49308">
        <ele>775.92114257812</ele>
        <time>2010-08-15T07:05:24Z</time>
      </trkpt>
      <trkpt lat="45.54073" lon="4.4928">
        <ele>775.92114257812</ele>
        <time>2010-08-15T07:05:32Z</time>
      </trkpt>
      <trkpt lat="45.54044" lon="4.49263">
        <ele>775.92114257812</ele>
        <time>2010-08-15T07:05:39Z</time>
      </trkpt>
      <trkpt lat="45.54016" lon="4.4924">
        <ele>776.88256835938</ele>
        <time>2010-08-15T07:05:47Z</time>
      </trkpt>
      <trkpt lat="45.53997" lon="4.49223">
        <ele>777.36328125</ele>
        <time>2010-08-15T07:05:53Z</time>
      </trkpt>
      <trkpt lat="45.5397" lon="4.49199">
        <ele>777.84375</ele>
        <time>2010-08-15T07:06:01Z</time>
      </trkpt>
      <trkpt lat="45.53951" lon="4.49181">
        <ele>778.80517578125</ele>
        <time>2010-08-15T07:06:07Z</time>
      </trkpt>
      <trkpt lat="45.5393" lon="4.49162">
        <ele>780.72802734375</ele>
        <time>2010-08-15T07:06:14Z</time>
      </trkpt>
      <trkpt lat="45.53907" lon="4.4914">
        <ele>782.169921875</ele>
        <time>2010-08-15T07:06:22Z</time>
      </trkpt>
      <trkpt lat="45.53888" lon="4.49121">
        <ele>783.61181640625</ele>
        <time>2010-08-15T07:06:29Z</time>
      </trkpt>
      <trkpt lat="45.53866" lon="4.491">
        <ele>782.65063476562</ele>
        <time>2010-08-15T07:06:36Z</time>
      </trkpt>
      <trkpt lat="45.53843" lon="4.49078">
        <ele>780.24731445312</ele>
        <time>2010-08-15T07:06:42Z</time>
      </trkpt>
      <trkpt lat="45.53809" lon="4.49049">
        <ele>775.4404296875</ele>
        <time>2010-08-15T07:06:49Z</time>
      </trkpt>
      <trkpt lat="45.53769" lon="4.49026">
        <ele>768.71142578125</ele>
        <time>2010-08-15T07:06:56Z</time>
      </trkpt>
      <trkpt lat="45.53723" lon="4.48994">
        <ele>766.78881835938</ele>
        <time>2010-08-15T07:07:04Z</time>
      </trkpt>
      <trkpt lat="45.537" lon="4.48974">
        <ele>767.26953125</ele>
        <time>2010-08-15T07:07:08Z</time>
      </trkpt>
      <trkpt lat="45.53674" lon="4.48936">
        <ele>769.19213867188</ele>
        <time>2010-08-15T07:07:14Z</time>
      </trkpt>
      <trkpt lat="45.53671" lon="4.48931">
        <ele>769.6728515625</ele>
        <time>2010-08-15T07:07:15Z</time>
      </trkpt>
      <trkpt lat="45.5366" lon="4.48898">
        <ele>766.78881835938</ele>
        <time>2010-08-15T07:07:20Z</time>
      </trkpt>
      <trkpt lat="45.53653" lon="4.48883">
        <ele>764.8662109375</ele>
        <time>2010-08-15T07:07:22Z</time>
      </trkpt>
      <trkpt lat="45.53635" lon="4.48853">
        <ele>761.98217773438</ele>
        <time>2010-08-15T07:07:26Z</time>
      </trkpt>
      <trkpt lat="45.53617" lon="4.48837">
        <ele>761.02075195312</ele>
        <time>2010-08-15T07:07:29Z</time>
      </trkpt>
      <trkpt lat="45.536" lon="4.4882">
        <ele>759.57885742188</ele>
        <time>2010-08-15T07:07:32Z</time>
      </trkpt>
      <trkpt lat="45.53564" lon="4.48772">
        <ele>754.77221679688</ele>
        <time>2010-08-15T07:07:39Z</time>
      </trkpt>
      <trkpt lat="45.53548" lon="4.48744">
        <ele>752.849609375</ele>
        <time>2010-08-15T07:07:43Z</time>
      </trkpt>
      <trkpt lat="45.53546" lon="4.48739">
        <ele>752.36889648438</ele>
        <time>2010-08-15T07:07:44Z</time>
      </trkpt>
      <trkpt lat="45.53539" lon="4.48731">
        <ele>752.849609375</ele>
        <time>2010-08-15T07:07:47Z</time>
      </trkpt>
      <trkpt lat="45.53523" lon="4.48712">
        <ele>752.849609375</ele>
        <time>2010-08-15T07:07:54Z</time>
      </trkpt>
      <trkpt lat="45.53503" lon="4.48692">
        <ele>752.849609375</ele>
        <time>2010-08-15T07:08:01Z</time>
      </trkpt>
      <trkpt lat="45.5349" lon="4.48682">
        <ele>753.81103515625</ele>
        <time>2010-08-15T07:08:06Z</time>
      </trkpt>
      <trkpt lat="45.53483" lon="4.48677">
        <ele>754.77221679688</ele>
        <time>2010-08-15T07:08:09Z</time>
      </trkpt>
      <trkpt lat="45.53476" lon="4.48663">
        <ele>757.65625</ele>
        <time>2010-08-15T07:08:16Z</time>
      </trkpt>
      <trkpt lat="45.53469" lon="4.48652">
        <ele>759.57885742188</ele>
        <time>2010-08-15T07:08:22Z</time>
      </trkpt>
      <trkpt lat="45.53458" lon="4.48633">
        <ele>761.50146484375</ele>
        <time>2010-08-15T07:08:31Z</time>
      </trkpt>
      <trkpt lat="45.53443" lon="4.48618">
        <ele>761.98217773438</ele>
        <time>2010-08-15T07:08:39Z</time>
      </trkpt>
      <trkpt lat="45.53434" lon="4.48616">
        <ele>761.98217773438</ele>
        <time>2010-08-15T07:08:44Z</time>
      </trkpt>
      <trkpt lat="45.5342" lon="4.48623">
        <ele>761.98217773438</ele>
        <time>2010-08-15T07:08:52Z</time>
      </trkpt>
      <trkpt lat="45.53411" lon="4.48627">
        <ele>762.46264648438</ele>
        <time>2010-08-15T07:08:57Z</time>
      </trkpt>
      <trkpt lat="45.53397" lon="4.48634">
        <ele>763.90454101562</ele>
        <time>2010-08-15T07:09:04Z</time>
      </trkpt>
      <trkpt lat="45.53387" lon="4.48639">
        <ele>762.943359375</ele>
        <time>2010-08-15T07:09:10Z</time>
      </trkpt>
      <trkpt lat="45.53386" lon="4.4864">
        <ele>761.98217773438</ele>
        <time>2010-08-15T07:09:18Z</time>
      </trkpt>
      <trkpt lat="45.53385" lon="4.48641">
        <ele>761.50146484375</ele>
        <time>2010-08-15T07:09:26Z</time>
      </trkpt>
      <trkpt lat="45.53386" lon="4.48641">
        <ele>761.98217773438</ele>
        <time>2010-08-15T07:09:46Z</time>
      </trkpt>
      <trkpt lat="45.53386" lon="4.48641">
        <ele>762.46264648438</ele>
        <time>2010-08-15T07:10:01Z</time>
      </trkpt>
      <trkpt lat="45.53386" lon="4.48641">
        <ele>763.90454101562</ele>
        <time>2010-08-15T07:10:14Z</time>
      </trkpt>
      <trkpt lat="45.53387" lon="4.48642">
        <ele>762.943359375</ele>
        <time>2010-08-15T07:10:34Z</time>
      </trkpt>
      <trkpt lat="45.53387" lon="4.48643">
        <ele>761.98217773438</ele>
        <time>2010-08-15T07:10:44Z</time>
      </trkpt>
      <trkpt lat="45.53387" lon="4.48642">
        <ele>761.98217773438</ele>
        <time>2010-08-15T07:10:53Z</time>
      </trkpt>
      <trkpt lat="45.53387" lon="4.48642">
        <ele>761.50146484375</ele>
        <time>2010-08-15T07:11:07Z</time>
      </trkpt>
      <trkpt lat="45.53387" lon="4.48643">
        <ele>761.02075195312</ele>
        <time>2010-08-15T07:11:35Z</time>
      </trkpt>
      <trkpt lat="45.53387" lon="4.48643">
        <ele>762.46264648438</ele>
        <time>2010-08-15T07:11:47Z</time>
      </trkpt>
      <trkpt lat="45.53387" lon="4.48643">
        <ele>763.42407226562</ele>
        <time>2010-08-15T07:12:03Z</time>
      </trkpt>
      <trkpt lat="45.53387" lon="4.48643">
        <ele>763.90454101562</ele>
        <time>2010-08-15T07:12:16Z</time>
      </trkpt>
      <trkpt lat="45.53386" lon="4.48642">
        <ele>763.42407226562</ele>
        <time>2010-08-15T07:12:31Z</time>
      </trkpt>
      <trkpt lat="45.53386" lon="4.48642">
        <ele>762.46264648438</ele>
        <time>2010-08-15T07:12:36Z</time>
      </trkpt>
      <trkpt lat="45.53384" lon="4.48642">
        <ele>763.42407226562</ele>
        <time>2010-08-15T07:12:57Z</time>
      </trkpt>
      <trkpt lat="45.53386" lon="4.48643">
        <ele>764.8662109375</ele>
        <time>2010-08-15T07:13:10Z</time>
      </trkpt>
      <trkpt lat="45.53385" lon="4.48646">
        <ele>769.19213867188</ele>
        <time>2010-08-15T07:13:34Z</time>
      </trkpt>
      <trkpt lat="45.53385" lon="4.48646">
        <ele>769.19213867188</ele>
        <time>2010-08-15T07:13:42Z</time>
      </trkpt>
      <trkpt lat="45.53387" lon="4.48646">
        <ele>769.19213867188</ele>
        <time>2010-08-15T07:13:53Z</time>
      </trkpt>
      <trkpt lat="45.53386" lon="4.48646">
        <ele>767.75</ele>
        <time>2010-08-15T07:14:02Z</time>
      </trkpt>
      <trkpt lat="45.53385" lon="4.48645">
        <ele>766.30810546875</ele>
        <time>2010-08-15T07:14:08Z</time>
      </trkpt>
      <trkpt lat="45.53386" lon="4.48646">
        <ele>765.82763671875</ele>
        <time>2010-08-15T07:14:14Z</time>
      </trkpt>
      <trkpt lat="45.53386" lon="4.48645">
        <ele>764.8662109375</ele>
        <time>2010-08-15T07:14:21Z</time>
      </trkpt>
      <trkpt lat="45.53386" lon="4.48643">
        <ele>763.90454101562</ele>
        <time>2010-08-15T07:14:31Z</time>
      </trkpt>
      <trkpt lat="45.53386" lon="4.48643">
        <ele>763.90454101562</ele>
        <time>2010-08-15T07:14:40Z</time>
      </trkpt>
      <trkpt lat="45.53386" lon="4.48643">
        <ele>761.50146484375</ele>
        <time>2010-08-15T07:14:58Z</time>
      </trkpt>
      <trkpt lat="45.53386" lon="4.48643">
        <ele>761.50146484375</ele>
        <time>2010-08-15T07:15:05Z</time>
      </trkpt>
      <trkpt lat="45.53386" lon="4.48642">
        <ele>763.42407226562</ele>
        <time>2010-08-15T07:15:32Z</time>
      </trkpt>
      <trkpt lat="45.53386" lon="4.48639">
        <ele>764.38549804688</ele>
        <time>2010-08-15T07:17:41Z</time>
      </trkpt>
      <trkpt lat="45.53384" lon="4.4864">
        <ele>763.42407226562</ele>
        <time>2010-08-15T07:18:09Z</time>
      </trkpt>
      <trkpt lat="45.53384" lon="4.48641">
        <ele>763.42407226562</ele>
        <time>2010-08-15T07:18:50Z</time>
      </trkpt>
      <trkpt lat="45.53378" lon="4.48645">
        <ele>763.90454101562</ele>
        <time>2010-08-15T07:18:55Z</time>
      </trkpt>
      <trkpt lat="45.53363" lon="4.48657">
        <ele>764.38549804688</ele>
        <time>2010-08-15T07:19:04Z</time>
      </trkpt>
      <trkpt lat="45.53349" lon="4.48674">
        <ele>765.34692382812</ele>
        <time>2010-08-15T07:19:12Z</time>
      </trkpt>
      <trkpt lat="45.53335" lon="4.48698">
        <ele>766.30810546875</ele>
        <time>2010-08-15T07:19:20Z</time>
      </trkpt>
      <trkpt lat="45.5332" lon="4.48732">
        <ele>765.82763671875</ele>
        <time>2010-08-15T07:19:28Z</time>
      </trkpt>
      <trkpt lat="45.53313" lon="4.48751">
        <ele>764.8662109375</ele>
        <time>2010-08-15T07:19:33Z</time>
      </trkpt>
      <trkpt lat="45.53305" lon="4.48769">
        <ele>762.943359375</ele>
        <time>2010-08-15T07:19:39Z</time>
      </trkpt>
      <trkpt lat="45.5329" lon="4.48792">
        <ele>760.5400390625</ele>
        <time>2010-08-15T07:19:44Z</time>
      </trkpt>
      <trkpt lat="45.53271" lon="4.48818">
        <ele>757.17553710938</ele>
        <time>2010-08-15T07:19:49Z</time>
      </trkpt>
      <trkpt lat="45.53236" lon="4.4884">
        <ele>754.29174804688</ele>
        <time>2010-08-15T07:19:55Z</time>
      </trkpt>
      <trkpt lat="45.5319" lon="4.48861">
        <ele>750.92700195312</ele>
        <time>2010-08-15T07:20:02Z</time>
      </trkpt>
      <trkpt lat="45.53143" lon="4.48877">
        <ele>748.52368164062</ele>
        <time>2010-08-15T07:20:08Z</time>
      </trkpt>
      <trkpt lat="45.53099" lon="4.48882">
        <ele>746.12036132812</ele>
        <time>2010-08-15T07:20:14Z</time>
      </trkpt>
      <trkpt lat="45.53071" lon="4.4888">
        <ele>744.67822265625</ele>
        <time>2010-08-15T07:20:18Z</time>
      </trkpt>
      <trkpt lat="45.53025" lon="4.48877">
        <ele>741.31372070312</ele>
        <time>2010-08-15T07:20:25Z</time>
      </trkpt>
      <trkpt lat="45.52982" lon="4.48881">
        <ele>737.46850585938</ele>
        <time>2010-08-15T07:20:31Z</time>
      </trkpt>
      <trkpt lat="45.5296" lon="4.48885">
        <ele>735.0654296875</ele>
        <time>2010-08-15T07:20:34Z</time>
      </trkpt>
      <trkpt lat="45.52908" lon="4.48912">
        <ele>731.70043945312</ele>
        <time>2010-08-15T07:20:41Z</time>
      </trkpt>
      <trkpt lat="45.52868" lon="4.48928">
        <ele>730.7392578125</ele>
        <time>2010-08-15T07:20:47Z</time>
      </trkpt>
      <trkpt lat="45.52831" lon="4.48934">
        <ele>730.7392578125</ele>
        <time>2010-08-15T07:20:53Z</time>
      </trkpt>
      <trkpt lat="45.52791" lon="4.48933">
        <ele>731.21997070312</ele>
        <time>2010-08-15T07:21:00Z</time>
      </trkpt>
      <trkpt lat="45.52771" lon="4.48929">
        <ele>730.7392578125</ele>
        <time>2010-08-15T07:21:04Z</time>
      </trkpt>
      <trkpt lat="45.52731" lon="4.48928">
        <ele>730.25854492188</ele>
        <time>2010-08-15T07:21:12Z</time>
      </trkpt>
      <trkpt lat="45.5271" lon="4.48928">
        <ele>730.7392578125</ele>
        <time>2010-08-15T07:21:17Z</time>
      </trkpt>
      <trkpt lat="45.52689" lon="4.48926">
        <ele>730.7392578125</ele>
        <time>2010-08-15T07:21:24Z</time>
      </trkpt>
      <trkpt lat="45.52669" lon="4.48922">
        <ele>731.70043945312</ele>
        <time>2010-08-15T07:21:31Z</time>
      </trkpt>
      <trkpt lat="45.52652" lon="4.48916">
        <ele>732.662109375</ele>
        <time>2010-08-15T07:21:38Z</time>
      </trkpt>
      <trkpt lat="45.52637" lon="4.48911">
        <ele>732.662109375</ele>
        <time>2010-08-15T07:21:45Z</time>
      </trkpt>
      <trkpt lat="45.52625" lon="4.48906">
        <ele>733.142578125</ele>
        <time>2010-08-15T07:21:51Z</time>
      </trkpt>
      <trkpt lat="45.5262" lon="4.48904">
        <ele>734.58471679688</ele>
        <time>2010-08-15T07:21:54Z</time>
      </trkpt>
      <trkpt lat="45.5261" lon="4.489">
        <ele>736.50732421875</ele>
        <time>2010-08-15T07:21:59Z</time>
      </trkpt>
      <trkpt lat="45.52589" lon="4.48892">
        <ele>737.46850585938</ele>
        <time>2010-08-15T07:22:07Z</time>
      </trkpt>
      <trkpt lat="45.52569" lon="4.48884">
        <ele>739.39111328125</ele>
        <time>2010-08-15T07:22:15Z</time>
      </trkpt>
      <trkpt lat="45.52551" lon="4.48877">
        <ele>740.8330078125</ele>
        <time>2010-08-15T07:22:22Z</time>
      </trkpt>
      <trkpt lat="45.52523" lon="4.48867">
        <ele>741.79443359375</ele>
        <time>2010-08-15T07:22:32Z</time>
      </trkpt>
      <trkpt lat="45.52505" lon="4.4886">
        <ele>743.236328125</ele>
        <time>2010-08-15T07:22:39Z</time>
      </trkpt>
      <trkpt lat="45.52486" lon="4.48859">
        <ele>746.60107421875</ele>
        <time>2010-08-15T07:22:47Z</time>
      </trkpt>
      <trkpt lat="45.52472" lon="4.48862">
        <ele>748.04321289062</ele>
        <time>2010-08-15T07:22:53Z</time>
      </trkpt>
      <trkpt lat="45.52458" lon="4.48869">
        <ele>750.44653320312</ele>
        <time>2010-08-15T07:23:00Z</time>
      </trkpt>
      <trkpt lat="45.52443" lon="4.48878">
        <ele>753.33032226562</ele>
        <time>2010-08-15T07:23:08Z</time>
      </trkpt>
      <trkpt lat="45.52423" lon="4.48888">
        <ele>755.73364257812</ele>
        <time>2010-08-15T07:23:17Z</time>
      </trkpt>
      <trkpt lat="45.52403" lon="4.48889">
        <ele>756.69482421875</ele>
        <time>2010-08-15T07:23:24Z</time>
      </trkpt>
      <trkpt lat="45.52375" lon="4.48878">
        <ele>757.17553710938</ele>
        <time>2010-08-15T07:23:32Z</time>
      </trkpt>
      <trkpt lat="45.52339" lon="4.48864">
        <ele>756.21411132812</ele>
        <time>2010-08-15T07:23:41Z</time>
      </trkpt>
      <trkpt lat="45.52299" lon="4.4886">
        <ele>754.29174804688</ele>
        <time>2010-08-15T07:23:49Z</time>
      </trkpt>
      <trkpt lat="45.52267" lon="4.48849">
        <ele>753.33032226562</ele>
        <time>2010-08-15T07:23:55Z</time>
      </trkpt>
      <trkpt lat="45.52239" lon="4.48831">
        <ele>753.81103515625</ele>
        <time>2010-08-15T07:24:01Z</time>
      </trkpt>
      <trkpt lat="45.52224" lon="4.4882">
        <ele>753.33032226562</ele>
        <time>2010-08-15T07:24:06Z</time>
      </trkpt>
      <trkpt lat="45.52204" lon="4.48808">
        <ele>753.33032226562</ele>
        <time>2010-08-15T07:24:13Z</time>
      </trkpt>
      <trkpt lat="45.52179" lon="4.48803">
        <ele>752.36889648438</ele>
        <time>2010-08-15T07:24:20Z</time>
      </trkpt>
      <trkpt lat="45.52165" lon="4.48802">
        <ele>752.36889648438</ele>
        <time>2010-08-15T07:24:25Z</time>
      </trkpt>
      <trkpt lat="45.52162" lon="4.48803">
        <ele>753.33032226562</ele>
        <time>2010-08-15T07:24:29Z</time>
      </trkpt>
      <trkpt lat="45.52156" lon="4.48805">
        <ele>753.81103515625</ele>
        <time>2010-08-15T07:24:35Z</time>
      </trkpt>
      <trkpt lat="45.5214" lon="4.48809">
        <ele>754.29174804688</ele>
        <time>2010-08-15T07:24:42Z</time>
      </trkpt>
      <trkpt lat="45.52116" lon="4.48814">
        <ele>754.29174804688</ele>
        <time>2010-08-15T07:24:51Z</time>
      </trkpt>
      <trkpt lat="45.52095" lon="4.48819">
        <ele>756.21411132812</ele>
        <time>2010-08-15T07:24:59Z</time>
      </trkpt>
      <trkpt lat="45.52076" lon="4.48826">
        <ele>758.13696289062</ele>
        <time>2010-08-15T07:25:07Z</time>
      </trkpt>
      <trkpt lat="45.5206" lon="4.48834">
        <ele>758.13696289062</ele>
        <time>2010-08-15T07:25:13Z</time>
      </trkpt>
      <trkpt lat="45.52041" lon="4.48841">
        <ele>758.61743164062</ele>
        <time>2010-08-15T07:25:20Z</time>
      </trkpt>
      <trkpt lat="45.52019" lon="4.48849">
        <ele>762.46264648438</ele>
        <time>2010-08-15T07:25:28Z</time>
      </trkpt>
      <trkpt lat="45.51998" lon="4.48858">
        <ele>766.30810546875</ele>
        <time>2010-08-15T07:25:36Z</time>
      </trkpt>
      <trkpt lat="45.51982" lon="4.48865">
        <ele>768.71142578125</ele>
        <time>2010-08-15T07:25:43Z</time>
      </trkpt>
      <trkpt lat="45.5197" lon="4.48869">
        <ele>771.11474609375</ele>
        <time>2010-08-15T07:25:49Z</time>
      </trkpt>
      <trkpt lat="45.51957" lon="4.48879">
        <ele>775.4404296875</ele>
        <time>2010-08-15T07:25:56Z</time>
      </trkpt>
      <trkpt lat="45.51943" lon="4.48891">
        <ele>778.80517578125</ele>
        <time>2010-08-15T07:26:04Z</time>
      </trkpt>
      <trkpt lat="45.51926" lon="4.48906">
        <ele>778.32446289062</ele>
        <time>2010-08-15T07:26:12Z</time>
      </trkpt>
      <trkpt lat="45.51902" lon="4.48921">
        <ele>776.88256835938</ele>
        <time>2010-08-15T07:26:18Z</time>
      </trkpt>
      <trkpt lat="45.51873" lon="4.48937">
        <ele>777.84375</ele>
        <time>2010-08-15T07:26:24Z</time>
      </trkpt>
      <trkpt lat="45.51854" lon="4.48955">
        <ele>778.32446289062</ele>
        <time>2010-08-15T07:26:30Z</time>
      </trkpt>
      <trkpt lat="45.5184" lon="4.48969">
        <ele>779.28564453125</ele>
        <time>2010-08-15T07:26:36Z</time>
      </trkpt>
      <trkpt lat="45.51834" lon="4.48976">
        <ele>780.24731445312</ele>
        <time>2010-08-15T07:26:39Z</time>
      </trkpt>
      <trkpt lat="45.5183" lon="4.48977">
        <ele>780.72802734375</ele>
        <time>2010-08-15T07:26:42Z</time>
      </trkpt>
      <trkpt lat="45.51823" lon="4.48975">
        <ele>780.72802734375</ele>
        <time>2010-08-15T07:26:47Z</time>
      </trkpt>
      <trkpt lat="45.5182" lon="4.48977">
        <ele>780.72802734375</ele>
        <time>2010-08-15T07:26:50Z</time>
      </trkpt>
      <trkpt lat="45.51807" lon="4.48981">
        <ele>781.20874023438</ele>
        <time>2010-08-15T07:27:00Z</time>
      </trkpt>
      <trkpt lat="45.51796" lon="4.48984">
        <ele>782.169921875</ele>
        <time>2010-08-15T07:27:06Z</time>
      </trkpt>
      <trkpt lat="45.51772" lon="4.48985">
        <ele>785.05395507812</ele>
        <time>2010-08-15T07:27:17Z</time>
      </trkpt>
      <trkpt lat="45.51752" lon="4.48985">
        <ele>787.45703125</ele>
        <time>2010-08-15T07:27:25Z</time>
      </trkpt>
      <trkpt lat="45.51735" lon="4.48985">
        <ele>788.89916992188</ele>
        <time>2010-08-15T07:27:33Z</time>
      </trkpt>
      <trkpt lat="45.51714" lon="4.48985">
        <ele>790.82153320312</ele>
        <time>2010-08-15T07:27:43Z</time>
      </trkpt>
      <trkpt lat="45.51699" lon="4.48985">
        <ele>791.78295898438</ele>
        <time>2010-08-15T07:27:50Z</time>
      </trkpt>
      <trkpt lat="45.51676" lon="4.4899">
        <ele>794.18627929688</ele>
        <time>2010-08-15T07:28:00Z</time>
      </trkpt>
      <trkpt lat="45.51655" lon="4.48998">
        <ele>795.62817382812</ele>
        <time>2010-08-15T07:28:09Z</time>
      </trkpt>
      <trkpt lat="45.51637" lon="4.49012">
        <ele>795.62817382812</ele>
        <time>2010-08-15T07:28:17Z</time>
      </trkpt>
      <trkpt lat="45.51632" lon="4.49012">
        <ele>795.1474609375</ele>
        <time>2010-08-15T07:28:22Z</time>
      </trkpt>
      <trkpt lat="45.5163" lon="4.49012">
        <ele>795.1474609375</ele>
        <time>2010-08-15T07:28:24Z</time>
      </trkpt>
      <trkpt lat="45.51624" lon="4.49012">
        <ele>794.18627929688</ele>
        <time>2010-08-15T07:28:30Z</time>
      </trkpt>
      <trkpt lat="45.51609" lon="4.49005">
        <ele>792.263671875</ele>
        <time>2010-08-15T07:28:34Z</time>
      </trkpt>
      <trkpt lat="45.51595" lon="4.48993">
        <ele>790.34106445312</ele>
        <time>2010-08-15T07:28:38Z</time>
      </trkpt>
      <trkpt lat="45.5159" lon="4.48991">
        <ele>789.37963867188</ele>
        <time>2010-08-15T07:28:40Z</time>
      </trkpt>
      <trkpt lat="45.51588" lon="4.49013">
        <ele>787.45703125</ele>
        <time>2010-08-15T07:28:44Z</time>
      </trkpt>
      <trkpt lat="45.51588" lon="4.4903">
        <ele>786.97631835938</ele>
        <time>2010-08-15T07:28:46Z</time>
      </trkpt>
      <trkpt lat="45.51588" lon="4.49057">
        <ele>785.53442382812</ele>
        <time>2010-08-15T07:28:49Z</time>
      </trkpt>
      <trkpt lat="45.51586" lon="4.49076">
        <ele>786.01513671875</ele>
        <time>2010-08-15T07:28:51Z</time>
      </trkpt>
      <trkpt lat="45.51572" lon="4.4911">
        <ele>780.24731445312</ele>
        <time>2010-08-15T07:28:55Z</time>
      </trkpt>
      <trkpt lat="45.51563" lon="4.49125">
        <ele>774.9599609375</ele>
        <time>2010-08-15T07:28:57Z</time>
      </trkpt>
      <trkpt lat="45.51554" lon="4.4914">
        <ele>768.71142578125</ele>
        <time>2010-08-15T07:28:59Z</time>
      </trkpt>
      <trkpt lat="45.51532" lon="4.49184">
        <ele>754.77221679688</ele>
        <time>2010-08-15T07:29:04Z</time>
      </trkpt>
      <trkpt lat="45.51514" lon="4.49215">
        <ele>746.60107421875</ele>
        <time>2010-08-15T07:29:08Z</time>
      </trkpt>
      <trkpt lat="45.51502" lon="4.4924">
        <ele>743.236328125</ele>
        <time>2010-08-15T07:29:11Z</time>
      </trkpt>
      <trkpt lat="45.51481" lon="4.49296">
        <ele>736.98779296875</ele>
        <time>2010-08-15T07:29:17Z</time>
      </trkpt>
      <trkpt lat="45.51466" lon="4.49333">
        <ele>738.42993164062</ele>
        <time>2010-08-15T07:29:21Z</time>
      </trkpt>
      <trkpt lat="45.51461" lon="4.49347">
        <ele>739.87182617188</ele>
        <time>2010-08-15T07:29:23Z</time>
      </trkpt>
      <trkpt lat="45.51457" lon="4.49374">
        <ele>739.87182617188</ele>
        <time>2010-08-15T07:29:28Z</time>
      </trkpt>
      <trkpt lat="45.51458" lon="4.49383">
        <ele>741.31372070312</ele>
        <time>2010-08-15T07:29:31Z</time>
      </trkpt>
      <trkpt lat="45.51454" lon="4.49391">
        <ele>744.19775390625</ele>
        <time>2010-08-15T07:29:38Z</time>
      </trkpt>
      <trkpt lat="45.51453" lon="4.49392">
        <ele>747.56225585938</ele>
        <time>2010-08-15T07:29:46Z</time>
      </trkpt>
      <trkpt lat="45.51449" lon="4.49393">
        <ele>748.04321289062</ele>
        <time>2010-08-15T07:29:54Z</time>
      </trkpt>
      <trkpt lat="45.51435" lon="4.49394">
        <ele>746.60107421875</ele>
        <time>2010-08-15T07:29:59Z</time>
      </trkpt>
      <trkpt lat="45.51423" lon="4.49414">
        <ele>741.79443359375</ele>
        <time>2010-08-15T07:30:03Z</time>
      </trkpt>
      <trkpt lat="45.51406" lon="4.49428">
        <ele>736.50732421875</ele>
        <time>2010-08-15T07:30:06Z</time>
      </trkpt>
      <trkpt lat="45.51389" lon="4.49441">
        <ele>728.81665039062</ele>
        <time>2010-08-15T07:30:09Z</time>
      </trkpt>
      <trkpt lat="45.5138" lon="4.49454">
        <ele>725.45190429688</ele>
        <time>2010-08-15T07:30:11Z</time>
      </trkpt>
      <trkpt lat="45.51363" lon="4.49477">
        <ele>720.6455078125</ele>
        <time>2010-08-15T07:30:16Z</time>
      </trkpt>
      <trkpt lat="45.5134" lon="4.49494">
        <ele>713.435546875</ele>
        <time>2010-08-15T07:30:21Z</time>
      </trkpt>
      <trkpt lat="45.51325" lon="4.49502">
        <ele>711.51293945312</ele>
        <time>2010-08-15T07:30:24Z</time>
      </trkpt>
      <trkpt lat="45.51313" lon="4.49514">
        <ele>709.59033203125</ele>
        <time>2010-08-15T07:30:28Z</time>
      </trkpt>
      <trkpt lat="45.51311" lon="4.49519">
        <ele>708.62890625</ele>
        <time>2010-08-15T07:30:35Z</time>
      </trkpt>
      <trkpt lat="45.51309" lon="4.49522">
        <ele>708.1484375</ele>
        <time>2010-08-15T07:30:37Z</time>
      </trkpt>
      <trkpt lat="45.51298" lon="4.49536">
        <ele>707.66772460938</ele>
        <time>2010-08-15T07:30:42Z</time>
      </trkpt>
      <trkpt lat="45.51295" lon="4.49539">
        <ele>707.18701171875</ele>
        <time>2010-08-15T07:30:43Z</time>
      </trkpt>
      <trkpt lat="45.51282" lon="4.49565">
        <ele>705.26440429688</ele>
        <time>2010-08-15T07:30:49Z</time>
      </trkpt>
      <trkpt lat="45.51269" lon="4.49586">
        <ele>703.341796875</ele>
        <time>2010-08-15T07:30:53Z</time>
      </trkpt>
      <trkpt lat="45.51244" lon="4.49607">
        <ele>698.05444335938</ele>
        <time>2010-08-15T07:30:58Z</time>
      </trkpt>
      <trkpt lat="45.51231" lon="4.49623">
        <ele>695.17041015625</ele>
        <time>2010-08-15T07:31:01Z</time>
      </trkpt>
      <trkpt lat="45.51224" lon="4.49632">
        <ele>693.728515625</ele>
        <time>2010-08-15T07:31:03Z</time>
      </trkpt>
      <trkpt lat="45.51216" lon="4.49642">
        <ele>691.80590820312</ele>
        <time>2010-08-15T07:31:05Z</time>
      </trkpt>
      <trkpt lat="45.51208" lon="4.49657">
        <ele>688.92211914062</ele>
        <time>2010-08-15T07:31:07Z</time>
      </trkpt>
      <trkpt lat="45.51183" lon="4.49684">
        <ele>683.63452148438</ele>
        <time>2010-08-15T07:31:12Z</time>
      </trkpt>
      <trkpt lat="45.51159" lon="4.49712">
        <ele>678.34741210938</ele>
        <time>2010-08-15T07:31:17Z</time>
      </trkpt>
      <trkpt lat="45.51147" lon="4.49726">
        <ele>675.94409179688</ele>
        <time>2010-08-15T07:31:19Z</time>
      </trkpt>
      <trkpt lat="45.51124" lon="4.49756">
        <ele>672.09887695312</ele>
        <time>2010-08-15T07:31:23Z</time>
      </trkpt>
      <trkpt lat="45.51104" lon="4.49786">
        <ele>665.85034179688</ele>
        <time>2010-08-15T07:31:28Z</time>
      </trkpt>
      <trkpt lat="45.51083" lon="4.49803">
        <ele>662.00512695312</ele>
        <time>2010-08-15T07:31:32Z</time>
      </trkpt>
      <trkpt lat="45.51071" lon="4.49811">
        <ele>659.12109375</ele>
        <time>2010-08-15T07:31:36Z</time>
      </trkpt>
      <trkpt lat="45.51054" lon="4.49819">
        <ele>655.75659179688</ele>
        <time>2010-08-15T07:31:41Z</time>
      </trkpt>
      <trkpt lat="45.51044" lon="4.49826">
        <ele>652.39184570312</ele>
        <time>2010-08-15T07:31:44Z</time>
      </trkpt>
      <trkpt lat="45.51024" lon="4.49835">
        <ele>646.6240234375</ele>
        <time>2010-08-15T07:31:50Z</time>
      </trkpt>
      <trkpt lat="45.51011" lon="4.49843">
        <ele>642.29809570312</ele>
        <time>2010-08-15T07:31:54Z</time>
      </trkpt>
      <trkpt lat="45.51003" lon="4.4985">
        <ele>639.89477539062</ele>
        <time>2010-08-15T07:31:57Z</time>
      </trkpt>
      <trkpt lat="45.50988" lon="4.49857">
        <ele>636.5302734375</ele>
        <time>2010-08-15T07:32:02Z</time>
      </trkpt>
      <trkpt lat="45.50974" lon="4.49871">
        <ele>631.24291992188</ele>
        <time>2010-08-15T07:32:06Z</time>
      </trkpt>
      <trkpt lat="45.50959" lon="4.49885">
        <ele>627.39770507812</ele>
        <time>2010-08-15T07:32:10Z</time>
      </trkpt>
      <trkpt lat="45.50956" lon="4.49889">
        <ele>626.9169921875</ele>
        <time>2010-08-15T07:32:11Z</time>
      </trkpt>
      <trkpt lat="45.50943" lon="4.49898">
        <ele>623.07177734375</ele>
        <time>2010-08-15T07:32:15Z</time>
      </trkpt>
      <trkpt lat="45.50932" lon="4.49902">
        <ele>619.22631835938</ele>
        <time>2010-08-15T07:32:19Z</time>
      </trkpt>
      <trkpt lat="45.50916" lon="4.49913">
        <ele>615.38110351562</ele>
        <time>2010-08-15T07:32:25Z</time>
      </trkpt>
      <trkpt lat="45.50913" lon="4.49914">
        <ele>613.93896484375</ele>
        <time>2010-08-15T07:32:26Z</time>
      </trkpt>
      <trkpt lat="45.50904" lon="4.49931">
        <ele>610.57446289062</ele>
        <time>2010-08-15T07:32:31Z</time>
      </trkpt>
      <trkpt lat="45.509" lon="4.49936">
        <ele>608.65185546875</ele>
        <time>2010-08-15T07:32:33Z</time>
      </trkpt>
      <trkpt lat="45.50888" lon="4.49941">
        <ele>606.24853515625</ele>
        <time>2010-08-15T07:32:37Z</time>
      </trkpt>
      <trkpt lat="45.50877" lon="4.49964">
        <ele>601.92260742188</ele>
        <time>2010-08-15T07:32:43Z</time>
      </trkpt>
      <trkpt lat="45.50871" lon="4.49974">
        <ele>600.48071289062</ele>
        <time>2010-08-15T07:32:46Z</time>
      </trkpt>
      <trkpt lat="45.50872" lon="4.49978">
        <ele>600</ele>
        <time>2010-08-15T07:32:51Z</time>
      </trkpt>
      <trkpt lat="45.50872" lon="4.49979">
        <ele>600.48071289062</ele>
        <time>2010-08-15T07:32:56Z</time>
      </trkpt>
      <trkpt lat="45.50872" lon="4.4998">
        <ele>600.48071289062</ele>
        <time>2010-08-15T07:33:03Z</time>
      </trkpt>
      <trkpt lat="45.50872" lon="4.4998">
        <ele>600</ele>
        <time>2010-08-15T07:33:09Z</time>
      </trkpt>
      <trkpt lat="45.50871" lon="4.4998">
        <ele>600</ele>
        <time>2010-08-15T07:33:19Z</time>
      </trkpt>
      <trkpt lat="45.50871" lon="4.49981">
        <ele>599.51928710938</ele>
        <time>2010-08-15T07:33:25Z</time>
      </trkpt>
      <trkpt lat="45.50872" lon="4.49982">
        <ele>599.03857421875</ele>
        <time>2010-08-15T07:33:36Z</time>
      </trkpt>
      <trkpt lat="45.50874" lon="4.49982">
        <ele>599.03857421875</ele>
        <time>2010-08-15T07:33:41Z</time>
      </trkpt>
      <trkpt lat="45.50887" lon="4.49986">
        <ele>597.5966796875</ele>
        <time>2010-08-15T07:33:46Z</time>
      </trkpt>
      <trkpt lat="45.50918" lon="4.49996">
        <ele>594.71264648438</ele>
        <time>2010-08-15T07:33:52Z</time>
      </trkpt>
      <trkpt lat="45.50929" lon="4.5">
        <ele>593.75146484375</ele>
        <time>2010-08-15T07:33:54Z</time>
      </trkpt>
      <trkpt lat="45.50959" lon="4.50016">
        <ele>591.34814453125</ele>
        <time>2010-08-15T07:33:59Z</time>
      </trkpt>
      <trkpt lat="45.50982" lon="4.50032">
        <ele>588.94506835938</ele>
        <time>2010-08-15T07:34:03Z</time>
      </trkpt>
      <trkpt lat="45.50991" lon="4.50039">
        <ele>587.50268554688</ele>
        <time>2010-08-15T07:34:05Z</time>
      </trkpt>
      <trkpt lat="45.51004" lon="4.50059">
        <ele>583.1767578125</ele>
        <time>2010-08-15T07:34:11Z</time>
      </trkpt>
      <trkpt lat="45.50993" lon="4.50067">
        <ele>582.21557617188</ele>
        <time>2010-08-15T07:34:14Z</time>
      </trkpt>
      <trkpt lat="45.50981" lon="4.50077">
        <ele>583.65747070312</ele>
        <time>2010-08-15T07:34:17Z</time>
      </trkpt>
      <trkpt lat="45.50961" lon="4.501">
        <ele>586.54150390625</ele>
        <time>2010-08-15T07:34:24Z</time>
      </trkpt>
      <trkpt lat="45.50941" lon="4.50128">
        <ele>586.54150390625</ele>
        <time>2010-08-15T07:34:31Z</time>
      </trkpt>
      <trkpt lat="45.50924" lon="4.50159">
        <ele>586.06079101562</ele>
        <time>2010-08-15T07:34:38Z</time>
      </trkpt>
      <trkpt lat="45.50914" lon="4.50185">
        <ele>587.02197265625</ele>
        <time>2010-08-15T07:34:44Z</time>
      </trkpt>
      <trkpt lat="45.5091" lon="4.50216">
        <ele>588.46435546875</ele>
        <time>2010-08-15T07:34:51Z</time>
      </trkpt>
      <trkpt lat="45.50909" lon="4.50247">
        <ele>589.42553710938</ele>
        <time>2010-08-15T07:34:58Z</time>
      </trkpt>
      <trkpt lat="45.50911" lon="4.50283">
        <ele>588.94506835938</ele>
        <time>2010-08-15T07:35:05Z</time>
      </trkpt>
      <trkpt lat="45.50918" lon="4.50315">
        <ele>588.46435546875</ele>
        <time>2010-08-15T07:35:11Z</time>
      </trkpt>
      <trkpt lat="45.50929" lon="4.50333">
        <ele>589.42553710938</ele>
        <time>2010-08-15T07:35:16Z</time>
      </trkpt>
      <trkpt lat="45.50947" lon="4.50345">
        <ele>588.94506835938</ele>
        <time>2010-08-15T07:35:22Z</time>
      </trkpt>
      <trkpt lat="45.5097" lon="4.50352">
        <ele>587.50268554688</ele>
        <time>2010-08-15T07:35:28Z</time>
      </trkpt>
      <trkpt lat="45.50994" lon="4.50358">
        <ele>585.580078125</ele>
        <time>2010-08-15T07:35:33Z</time>
      </trkpt>
      <trkpt lat="45.51006" lon="4.50362">
        <ele>585.099609375</ele>
        <time>2010-08-15T07:35:35Z</time>
      </trkpt>
      <trkpt lat="45.51027" lon="4.50382">
        <ele>582.21557617188</ele>
        <time>2010-08-15T07:35:40Z</time>
      </trkpt>
      <trkpt lat="45.5104" lon="4.50397">
        <ele>580.29296875</ele>
        <time>2010-08-15T07:35:43Z</time>
      </trkpt>
      <trkpt lat="45.51067" lon="4.50414">
        <ele>577.4091796875</ele>
        <time>2010-08-15T07:35:48Z</time>
      </trkpt>
      <trkpt lat="45.51078" lon="4.50428">
        <ele>575.486328125</ele>
        <time>2010-08-15T07:35:51Z</time>
      </trkpt>
      <trkpt lat="45.51076" lon="4.5044">
        <ele>575.486328125</ele>
        <time>2010-08-15T07:35:54Z</time>
      </trkpt>
      <trkpt lat="45.5107" lon="4.50445">
        <ele>576.44775390625</ele>
        <time>2010-08-15T07:35:56Z</time>
      </trkpt>
      <trkpt lat="45.51052" lon="4.50463">
        <ele>579.81225585938</ele>
        <time>2010-08-15T07:36:03Z</time>
      </trkpt>
      <trkpt lat="45.51038" lon="4.50478">
        <ele>583.1767578125</ele>
        <time>2010-08-15T07:36:09Z</time>
      </trkpt>
      <trkpt lat="45.51034" lon="4.50497">
        <ele>586.06079101562</ele>
        <time>2010-08-15T07:36:15Z</time>
      </trkpt>
      <trkpt lat="45.51038" lon="4.50515">
        <ele>588.94506835938</ele>
        <time>2010-08-15T07:36:21Z</time>
      </trkpt>
      <trkpt lat="45.51046" lon="4.50531">
        <ele>590.86743164062</ele>
        <time>2010-08-15T07:36:28Z</time>
      </trkpt>
      <trkpt lat="45.51057" lon="4.50549">
        <ele>593.27075195312</ele>
        <time>2010-08-15T07:36:37Z</time>
      </trkpt>
      <trkpt lat="45.51063" lon="4.50567">
        <ele>594.23217773438</ele>
        <time>2010-08-15T07:36:44Z</time>
      </trkpt>
      <trkpt lat="45.51064" lon="4.50584">
        <ele>594.71264648438</ele>
        <time>2010-08-15T07:36:50Z</time>
      </trkpt>
      <trkpt lat="45.51065" lon="4.50607">
        <ele>596.15478515625</ele>
        <time>2010-08-15T07:36:58Z</time>
      </trkpt>
      <trkpt lat="45.51063" lon="4.50632">
        <ele>598.07739257812</ele>
        <time>2010-08-15T07:37:07Z</time>
      </trkpt>
      <trkpt lat="45.51061" lon="4.5066">
        <ele>600.96118164062</ele>
        <time>2010-08-15T07:37:16Z</time>
      </trkpt>
      <trkpt lat="45.51059" lon="4.50687">
        <ele>602.8837890625</ele>
        <time>2010-08-15T07:37:24Z</time>
      </trkpt>
      <trkpt lat="45.51059" lon="4.50709">
        <ele>602.8837890625</ele>
        <time>2010-08-15T07:37:30Z</time>
      </trkpt>
      <trkpt lat="45.5106" lon="4.50748">
        <ele>601.92260742188</ele>
        <time>2010-08-15T07:37:38Z</time>
      </trkpt>
      <trkpt lat="45.51067" lon="4.50775">
        <ele>600</ele>
        <time>2010-08-15T07:37:44Z</time>
      </trkpt>
      <trkpt lat="45.51068" lon="4.50788">
        <ele>599.03857421875</ele>
        <time>2010-08-15T07:37:48Z</time>
      </trkpt>
      <trkpt lat="45.51065" lon="4.50791">
        <ele>598.07739257812</ele>
        <time>2010-08-15T07:37:51Z</time>
      </trkpt>
      <trkpt lat="45.51056" lon="4.50794">
        <ele>597.11596679688</ele>
        <time>2010-08-15T07:37:56Z</time>
      </trkpt>
      <trkpt lat="45.51039" lon="4.5081">
        <ele>594.71264648438</ele>
        <time>2010-08-15T07:38:02Z</time>
      </trkpt>
      <trkpt lat="45.51022" lon="4.50826">
        <ele>591.82885742188</ele>
        <time>2010-08-15T07:38:07Z</time>
      </trkpt>
      <trkpt lat="45.51017" lon="4.5083">
        <ele>590.86743164062</ele>
        <time>2010-08-15T07:38:08Z</time>
      </trkpt>
      <trkpt lat="45.50985" lon="4.50849">
        <ele>588.46435546875</ele>
        <time>2010-08-15T07:38:13Z</time>
      </trkpt>
      <trkpt lat="45.50971" lon="4.50865">
        <ele>587.9833984375</ele>
        <time>2010-08-15T07:38:18Z</time>
      </trkpt>
      <trkpt lat="45.50962" lon="4.50891">
        <ele>586.06079101562</ele>
        <time>2010-08-15T07:38:24Z</time>
      </trkpt>
      <trkpt lat="45.50957" lon="4.50927">
        <ele>583.1767578125</ele>
        <time>2010-08-15T07:38:28Z</time>
      </trkpt>
      <trkpt lat="45.5095" lon="4.5099">
        <ele>578.37036132812</ele>
        <time>2010-08-15T07:38:33Z</time>
      </trkpt>
      <trkpt lat="45.50945" lon="4.51034">
        <ele>575.005859375</ele>
        <time>2010-08-15T07:38:37Z</time>
      </trkpt>
      <trkpt lat="45.50943" lon="4.5104">
        <ele>575.005859375</ele>
        <time>2010-08-15T07:38:38Z</time>
      </trkpt>
      <trkpt lat="45.50937" lon="4.51072">
        <ele>573.08325195312</ele>
        <time>2010-08-15T07:38:43Z</time>
      </trkpt>
      <trkpt lat="45.50928" lon="4.5111">
        <ele>569.71850585938</ele>
        <time>2010-08-15T07:38:47Z</time>
      </trkpt>
      <trkpt lat="45.50914" lon="4.5116">
        <ele>564.91186523438</ele>
        <time>2010-08-15T07:38:51Z</time>
      </trkpt>
      <trkpt lat="45.50888" lon="4.5122">
        <ele>559.62475585938</ele>
        <time>2010-08-15T07:38:56Z</time>
      </trkpt>
      <trkpt lat="45.50853" lon="4.51289">
        <ele>553.85668945312</ele>
        <time>2010-08-15T07:39:02Z</time>
      </trkpt>
      <trkpt lat="45.50832" lon="4.5134">
        <ele>550.01147460938</ele>
        <time>2010-08-15T07:39:06Z</time>
      </trkpt>
      <trkpt lat="45.50825" lon="4.51354">
        <ele>548.5693359375</ele>
        <time>2010-08-15T07:39:08Z</time>
      </trkpt>
      <trkpt lat="45.50809" lon="4.51376">
        <ele>546.16625976562</ele>
        <time>2010-08-15T07:39:14Z</time>
      </trkpt>
      <trkpt lat="45.50798" lon="4.51391">
        <ele>544.72424316406</ele>
        <time>2010-08-15T07:39:19Z</time>
      </trkpt>
      <trkpt lat="45.50782" lon="4.51416">
        <ele>542.80151367188</ele>
        <time>2010-08-15T07:39:24Z</time>
      </trkpt>
      <trkpt lat="45.50778" lon="4.51421">
        <ele>542.80151367188</ele>
        <time>2010-08-15T07:39:25Z</time>
      </trkpt>
      <trkpt lat="45.50751" lon="4.51436">
        <ele>539.91760253906</ele>
        <time>2010-08-15T07:39:30Z</time>
      </trkpt>
      <trkpt lat="45.50699" lon="4.51456">
        <ele>533.6689453125</ele>
        <time>2010-08-15T07:39:37Z</time>
      </trkpt>
      <trkpt lat="45.50642" lon="4.51481">
        <ele>526.93981933594</ele>
        <time>2010-08-15T07:39:44Z</time>
      </trkpt>
      <trkpt lat="45.50594" lon="4.51509">
        <ele>520.69128417969</ele>
        <time>2010-08-15T07:39:50Z</time>
      </trkpt>
      <trkpt lat="45.50544" lon="4.51523">
        <ele>514.92333984375</ele>
        <time>2010-08-15T07:39:55Z</time>
      </trkpt>
      <trkpt lat="45.50533" lon="4.51524">
        <ele>513.4814453125</ele>
        <time>2010-08-15T07:39:56Z</time>
      </trkpt>
      <trkpt lat="45.5047" lon="4.51519">
        <ele>505.79089355469</ele>
        <time>2010-08-15T07:40:01Z</time>
      </trkpt>
      <trkpt lat="45.50377" lon="4.51518">
        <ele>496.65832519531</ele>
        <time>2010-08-15T07:40:08Z</time>
      </trkpt>
      <trkpt lat="45.50313" lon="4.51535">
        <ele>492.33239746094</ele>
        <time>2010-08-15T07:40:13Z</time>
      </trkpt>
      <trkpt lat="45.50267" lon="4.51554">
        <ele>489.44836425781</ele>
        <time>2010-08-15T07:40:17Z</time>
      </trkpt>
      <trkpt lat="45.50206" lon="4.51563">
        <ele>485.12243652344</ele>
        <time>2010-08-15T07:40:23Z</time>
      </trkpt>
      <trkpt lat="45.50162" lon="4.51579">
        <ele>481.7578125</ele>
        <time>2010-08-15T07:40:28Z</time>
      </trkpt>
      <trkpt lat="45.50121" lon="4.51595">
        <ele>476.47058105469</ele>
        <time>2010-08-15T07:40:33Z</time>
      </trkpt>
      <trkpt lat="45.50098" lon="4.51602">
        <ele>473.10607910156</ele>
        <time>2010-08-15T07:40:37Z</time>
      </trkpt>
      <trkpt lat="45.50093" lon="4.51603">
        <ele>472.62536621094</ele>
        <time>2010-08-15T07:40:38Z</time>
      </trkpt>
      <trkpt lat="45.50088" lon="4.51616">
        <ele>471.66394042969</ele>
        <time>2010-08-15T07:40:41Z</time>
      </trkpt>
      <trkpt lat="45.50097" lon="4.51625">
        <ele>472.14465332031</ele>
        <time>2010-08-15T07:40:44Z</time>
      </trkpt>
      <trkpt lat="45.50103" lon="4.51627">
        <ele>472.62536621094</ele>
        <time>2010-08-15T07:40:46Z</time>
      </trkpt>
      <trkpt lat="45.50121" lon="4.51633">
        <ele>474.06726074219</ele>
        <time>2010-08-15T07:40:53Z</time>
      </trkpt>
      <trkpt lat="45.50146" lon="4.5164">
        <ele>475.50927734375</ele>
        <time>2010-08-15T07:41:03Z</time>
      </trkpt>
      <trkpt lat="45.50167" lon="4.51648">
        <ele>476.47058105469</ele>
        <time>2010-08-15T07:41:11Z</time>
      </trkpt>
      <trkpt lat="45.50182" lon="4.51656">
        <ele>476.47058105469</ele>
        <time>2010-08-15T07:41:17Z</time>
      </trkpt>
      <trkpt lat="45.50179" lon="4.51674">
        <ele>475.50927734375</ele>
        <time>2010-08-15T07:41:21Z</time>
      </trkpt>
      <trkpt lat="45.50156" lon="4.51721">
        <ele>471.18334960938</ele>
        <time>2010-08-15T07:41:28Z</time>
      </trkpt>
      <trkpt lat="45.50132" lon="4.51768">
        <ele>467.33813476562</ele>
        <time>2010-08-15T07:41:33Z</time>
      </trkpt>
      <trkpt lat="45.50107" lon="4.51827">
        <ele>463.49279785156</ele>
        <time>2010-08-15T07:41:38Z</time>
      </trkpt>
      <trkpt lat="45.50072" lon="4.51897">
        <ele>460.12817382812</ele>
        <time>2010-08-15T07:41:44Z</time>
      </trkpt>
      <trkpt lat="45.50033" lon="4.51963">
        <ele>458.68615722656</ele>
        <time>2010-08-15T07:41:51Z</time>
      </trkpt>
      <trkpt lat="45.50011" lon="4.51997">
        <ele>457.24426269531</ele>
        <time>2010-08-15T07:41:55Z</time>
      </trkpt>
      <trkpt lat="45.49992" lon="4.52053">
        <ele>453.87963867188</ele>
        <time>2010-08-15T07:42:00Z</time>
      </trkpt>
      <trkpt lat="45.49966" lon="4.52138">
        <ele>449.07299804688</ele>
        <time>2010-08-15T07:42:07Z</time>
      </trkpt>
      <trkpt lat="45.49961" lon="4.52151">
        <ele>448.59240722656</ele>
        <time>2010-08-15T07:42:08Z</time>
      </trkpt>
      <trkpt lat="45.4993" lon="4.52216">
        <ele>444.7470703125</ele>
        <time>2010-08-15T07:42:14Z</time>
      </trkpt>
      <trkpt lat="45.49894" lon="4.52258">
        <ele>439.9404296875</ele>
        <time>2010-08-15T07:42:19Z</time>
      </trkpt>
      <trkpt lat="45.49844" lon="4.5231">
        <ele>433.69189453125</ele>
        <time>2010-08-15T07:42:25Z</time>
      </trkpt>
      <trkpt lat="45.49804" lon="4.52352">
        <ele>428.88537597656</ele>
        <time>2010-08-15T07:42:31Z</time>
      </trkpt>
      <trkpt lat="45.49778" lon="4.52383">
        <ele>425.52075195312</ele>
        <time>2010-08-15T07:42:36Z</time>
      </trkpt>
      <trkpt lat="45.49767" lon="4.52397">
        <ele>424.07873535156</ele>
        <time>2010-08-15T07:42:39Z</time>
      </trkpt>
      <trkpt lat="45.49733" lon="4.52442">
        <ele>420.2333984375</ele>
        <time>2010-08-15T07:42:47Z</time>
      </trkpt>
      <trkpt lat="45.49716" lon="4.52464">
        <ele>418.79150390625</ele>
        <time>2010-08-15T07:42:50Z</time>
      </trkpt>
      <trkpt lat="45.49669" lon="4.52507">
        <ele>413.98486328125</ele>
        <time>2010-08-15T07:42:56Z</time>
      </trkpt>
      <trkpt lat="45.49621" lon="4.52541">
        <ele>409.65905761719</ele>
        <time>2010-08-15T07:43:01Z</time>
      </trkpt>
      <trkpt lat="45.49596" lon="4.52555">
        <ele>407.736328125</ele>
        <time>2010-08-15T07:43:04Z</time>
      </trkpt>
      <trkpt lat="45.4959" lon="4.52559">
        <ele>407.736328125</ele>
        <time>2010-08-15T07:43:05Z</time>
      </trkpt>
      <trkpt lat="45.49583" lon="4.52569">
        <ele>407.736328125</ele>
        <time>2010-08-15T07:43:10Z</time>
      </trkpt>
      <trkpt lat="45.49584" lon="4.52573">
        <ele>407.736328125</ele>
        <time>2010-08-15T07:43:12Z</time>
      </trkpt>
      <trkpt lat="45.49586" lon="4.52582">
        <ele>407.25561523438</ele>
        <time>2010-08-15T07:43:17Z</time>
      </trkpt>
      <trkpt lat="45.49586" lon="4.52582">
        <ele>407.25561523438</ele>
        <time>2010-08-15T07:43:24Z</time>
      </trkpt>
      <trkpt lat="45.49586" lon="4.52583">
        <ele>407.736328125</ele>
        <time>2010-08-15T07:43:37Z</time>
      </trkpt>
      <trkpt lat="45.49587" lon="4.52583">
        <ele>407.736328125</ele>
        <time>2010-08-15T07:43:42Z</time>
      </trkpt>
      <trkpt lat="45.49587" lon="4.52583">
        <ele>407.25561523438</ele>
        <time>2010-08-15T07:43:48Z</time>
      </trkpt>
      <trkpt lat="45.49587" lon="4.52584">
        <ele>406.29431152344</ele>
        <time>2010-08-15T07:43:56Z</time>
      </trkpt>
      <trkpt lat="45.49587" lon="4.52584">
        <ele>406.29431152344</ele>
        <time>2010-08-15T07:44:05Z</time>
      </trkpt>
      <trkpt lat="45.49588" lon="4.52584">
        <ele>406.77490234375</ele>
        <time>2010-08-15T07:44:15Z</time>
      </trkpt>
      <trkpt lat="45.49588" lon="4.52585">
        <ele>406.29431152344</ele>
        <time>2010-08-15T07:44:21Z</time>
      </trkpt>
      <trkpt lat="45.49588" lon="4.52586">
        <ele>407.25561523438</ele>
        <time>2010-08-15T07:44:29Z</time>
      </trkpt>
      <trkpt lat="45.49588" lon="4.52586">
        <ele>408.21704101562</ele>
        <time>2010-08-15T07:44:38Z</time>
      </trkpt>
      <trkpt lat="45.49588" lon="4.52585">
        <ele>407.25561523438</ele>
        <time>2010-08-15T07:44:45Z</time>
      </trkpt>
      <trkpt lat="45.49589" lon="4.52584">
        <ele>406.77490234375</ele>
        <time>2010-08-15T07:44:53Z</time>
      </trkpt>
      <trkpt lat="45.49588" lon="4.52584">
        <ele>407.25561523438</ele>
        <time>2010-08-15T07:45:00Z</time>
      </trkpt>
      <trkpt lat="45.49588" lon="4.52582">
        <ele>406.29431152344</ele>
        <time>2010-08-15T07:45:18Z</time>
      </trkpt>
      <trkpt lat="45.4959" lon="4.52582">
        <ele>404.85229492188</ele>
        <time>2010-08-15T07:45:30Z</time>
      </trkpt>
      <trkpt lat="45.4959" lon="4.52582">
        <ele>404.85229492188</ele>
        <time>2010-08-15T07:45:53Z</time>
      </trkpt>
      <trkpt lat="45.4959" lon="4.52582">
        <ele>405.3330078125</ele>
        <time>2010-08-15T07:46:06Z</time>
      </trkpt>
      <trkpt lat="45.4959" lon="4.52582">
        <ele>404.37170410156</ele>
        <time>2010-08-15T07:46:19Z</time>
      </trkpt>
      <trkpt lat="45.49589" lon="4.52582">
        <ele>405.81372070312</ele>
        <time>2010-08-15T07:46:25Z</time>
      </trkpt>
      <trkpt lat="45.49586" lon="4.52583">
        <ele>409.17834472656</ele>
        <time>2010-08-15T07:46:37Z</time>
      </trkpt>
      <trkpt lat="45.49586" lon="4.52585">
        <ele>410.62023925781</ele>
        <time>2010-08-15T07:46:44Z</time>
      </trkpt>
      <trkpt lat="45.49593" lon="4.52602">
        <ele>410.1396484375</ele>
        <time>2010-08-15T07:46:51Z</time>
      </trkpt>
      <trkpt lat="45.49602" lon="4.52627">
        <ele>408.69763183594</ele>
        <time>2010-08-15T07:46:58Z</time>
      </trkpt>
      <trkpt lat="45.49612" lon="4.52651">
        <ele>406.77490234375</ele>
        <time>2010-08-15T07:47:04Z</time>
      </trkpt>
      <trkpt lat="45.49626" lon="4.52684">
        <ele>404.85229492188</ele>
        <time>2010-08-15T07:47:11Z</time>
      </trkpt>
      <trkpt lat="45.49628" lon="4.52707">
        <ele>403.89111328125</ele>
        <time>2010-08-15T07:47:15Z</time>
      </trkpt>
      <trkpt lat="45.49625" lon="4.52712">
        <ele>403.89111328125</ele>
        <time>2010-08-15T07:47:16Z</time>
      </trkpt>
      <trkpt lat="45.49609" lon="4.52728">
        <ele>403.41040039062</ele>
        <time>2010-08-15T07:47:20Z</time>
      </trkpt>
      <trkpt lat="45.49583" lon="4.5274">
        <ele>402.9296875</ele>
        <time>2010-08-15T07:47:25Z</time>
      </trkpt>
      <trkpt lat="45.49557" lon="4.52732">
        <ele>402.9296875</ele>
        <time>2010-08-15T07:47:30Z</time>
      </trkpt>
      <trkpt lat="45.49538" lon="4.5273">
        <ele>401.96850585938</ele>
        <time>2010-08-15T07:47:34Z</time>
      </trkpt>
      <trkpt lat="45.49524" lon="4.52745">
        <ele>401.00708007812</ele>
        <time>2010-08-15T07:47:38Z</time>
      </trkpt>
      <trkpt lat="45.49496" lon="4.52775">
        <ele>400.52648925781</ele>
        <time>2010-08-15T07:47:45Z</time>
      </trkpt>
      <trkpt lat="45.49481" lon="4.52775">
        <ele>400.52648925781</ele>
        <time>2010-08-15T07:47:48Z</time>
      </trkpt>
      <trkpt lat="45.49438" lon="4.52758">
        <ele>400.0458984375</ele>
        <time>2010-08-15T07:47:57Z</time>
      </trkpt>
      <trkpt lat="45.49396" lon="4.52741">
        <ele>399.08435058594</ele>
        <time>2010-08-15T07:48:06Z</time>
      </trkpt>
      <trkpt lat="45.49351" lon="4.52714">
        <ele>398.12316894531</ele>
        <time>2010-08-15T07:48:16Z</time>
      </trkpt>
      <trkpt lat="45.49318" lon="4.52682">
        <ele>397.16174316406</ele>
        <time>2010-08-15T07:48:24Z</time>
      </trkpt>
      <trkpt lat="45.49284" lon="4.52636">
        <ele>395.23913574219</ele>
        <time>2010-08-15T07:48:32Z</time>
      </trkpt>
      <trkpt lat="45.49259" lon="4.52591">
        <ele>394.75854492188</ele>
        <time>2010-08-15T07:48:38Z</time>
      </trkpt>
      <trkpt lat="45.49225" lon="4.52524">
        <ele>393.31652832031</ele>
        <time>2010-08-15T07:48:46Z</time>
      </trkpt>
      <trkpt lat="45.49217" lon="4.52508">
        <ele>392.8359375</ele>
        <time>2010-08-15T07:48:48Z</time>
      </trkpt>
      <trkpt lat="45.49202" lon="4.52506">
        <ele>391.87451171875</ele>
        <time>2010-08-15T07:48:51Z</time>
      </trkpt>
      <trkpt lat="45.49197" lon="4.52512">
        <ele>391.87451171875</ele>
        <time>2010-08-15T07:48:52Z</time>
      </trkpt>
      <trkpt lat="45.49173" lon="4.52519">
        <ele>391.87451171875</ele>
        <time>2010-08-15T07:48:56Z</time>
      </trkpt>
      <trkpt lat="45.49128" lon="4.52514">
        <ele>393.31652832031</ele>
        <time>2010-08-15T07:49:05Z</time>
      </trkpt>
      <trkpt lat="45.49099" lon="4.52513">
        <ele>394.27795410156</ele>
        <time>2010-08-15T07:49:12Z</time>
      </trkpt>
      <trkpt lat="45.4907" lon="4.5251">
        <ele>396.68115234375</ele>
        <time>2010-08-15T07:49:20Z</time>
      </trkpt>
      <trkpt lat="45.49034" lon="4.52507">
        <ele>400.52648925781</ele>
        <time>2010-08-15T07:49:30Z</time>
      </trkpt>
      <trkpt lat="45.49006" lon="4.52509">
        <ele>402.9296875</ele>
        <time>2010-08-15T07:49:38Z</time>
      </trkpt>
      <trkpt lat="45.48981" lon="4.5251">
        <ele>402.9296875</ele>
        <time>2010-08-15T07:49:46Z</time>
      </trkpt>
      <trkpt lat="45.48956" lon="4.52511">
        <ele>401.00708007812</ele>
        <time>2010-08-15T07:49:52Z</time>
      </trkpt>
      <trkpt lat="45.48923" lon="4.52508">
        <ele>396.68115234375</ele>
        <time>2010-08-15T07:49:57Z</time>
      </trkpt>
      <trkpt lat="45.48898" lon="4.52506">
        <ele>393.79724121094</ele>
        <time>2010-08-15T07:50:00Z</time>
      </trkpt>
      <trkpt lat="45.48862" lon="4.52522">
        <ele>388.99060058594</ele>
        <time>2010-08-15T07:50:04Z</time>
      </trkpt>
      <trkpt lat="45.48807" lon="4.52553">
        <ele>381.78063964844</ele>
        <time>2010-08-15T07:50:09Z</time>
      </trkpt>
      <trkpt lat="45.48744" lon="4.52579">
        <ele>375.05151367188</ele>
        <time>2010-08-15T07:50:14Z</time>
      </trkpt>
      <trkpt lat="45.48674" lon="4.52618">
        <ele>371.20629882812</ele>
        <time>2010-08-15T07:50:20Z</time>
      </trkpt>
      <trkpt lat="45.48609" lon="4.52648">
        <ele>368.80297851562</ele>
        <time>2010-08-15T07:50:26Z</time>
      </trkpt>
      <trkpt lat="45.48576" lon="4.52651">
        <ele>369.76428222656</ele>
        <time>2010-08-15T07:50:30Z</time>
      </trkpt>
      <trkpt lat="45.48531" lon="4.52652">
        <ele>369.28369140625</ele>
        <time>2010-08-15T07:50:37Z</time>
      </trkpt>
      <trkpt lat="45.48481" lon="4.5266">
        <ele>367.36096191406</ele>
        <time>2010-08-15T07:50:45Z</time>
      </trkpt>
      <trkpt lat="45.48441" lon="4.52664">
        <ele>363.51574707031</ele>
        <time>2010-08-15T07:50:51Z</time>
      </trkpt>
      <trkpt lat="45.48406" lon="4.52651">
        <ele>360.15112304688</ele>
        <time>2010-08-15T07:50:56Z</time>
      </trkpt>
      <trkpt lat="45.48376" lon="4.52638">
        <ele>355.8251953125</ele>
        <time>2010-08-15T07:51:00Z</time>
      </trkpt>
      <trkpt lat="45.48353" lon="4.52616">
        <ele>352.94116210938</ele>
        <time>2010-08-15T07:51:04Z</time>
      </trkpt>
      <trkpt lat="45.48339" lon="4.52618">
        <ele>350.53784179688</ele>
        <time>2010-08-15T07:51:08Z</time>
      </trkpt>
      <trkpt lat="45.48336" lon="4.52632">
        <ele>350.05725097656</ele>
        <time>2010-08-15T07:51:10Z</time>
      </trkpt>
      <trkpt lat="45.48331" lon="4.52686">
        <ele>351.01843261719</ele>
        <time>2010-08-15T07:51:18Z</time>
      </trkpt>
      <trkpt lat="45.48323" lon="4.52733">
        <ele>351.49914550781</ele>
        <time>2010-08-15T07:51:26Z</time>
      </trkpt>
      <trkpt lat="45.48316" lon="4.52776">
        <ele>349.57653808594</ele>
        <time>2010-08-15T07:51:32Z</time>
      </trkpt>
      <trkpt lat="45.48307" lon="4.52837">
        <ele>346.69262695312</ele>
        <time>2010-08-15T07:51:38Z</time>
      </trkpt>
      <trkpt lat="45.483" lon="4.52885">
        <ele>344.28942871094</ele>
        <time>2010-08-15T07:51:43Z</time>
      </trkpt>
      <trkpt lat="45.48298" lon="4.52897">
        <ele>343.80859375</ele>
        <time>2010-08-15T07:51:46Z</time>
      </trkpt>
      <trkpt lat="45.48289" lon="4.52914">
        <ele>343.32788085938</ele>
        <time>2010-08-15T07:51:51Z</time>
      </trkpt>
      <trkpt lat="45.48289" lon="4.52927">
        <ele>343.32788085938</ele>
        <time>2010-08-15T07:51:53Z</time>
      </trkpt>
      <trkpt lat="45.4828" lon="4.53">
        <ele>343.32788085938</ele>
        <time>2010-08-15T07:52:03Z</time>
      </trkpt>
      <trkpt lat="45.48263" lon="4.53071">
        <ele>343.32788085938</ele>
        <time>2010-08-15T07:52:13Z</time>
      </trkpt>
      <trkpt lat="45.48251" lon="4.5309">
        <ele>341.88598632812</ele>
        <time>2010-08-15T07:52:17Z</time>
      </trkpt>
      <trkpt lat="45.48246" lon="4.53091">
        <ele>341.88598632812</ele>
        <time>2010-08-15T07:52:18Z</time>
      </trkpt>
      <trkpt lat="45.48226" lon="4.53107">
        <ele>341.4052734375</ele>
        <time>2010-08-15T07:52:24Z</time>
      </trkpt>
      <trkpt lat="45.48223" lon="4.53112">
        <ele>341.88598632812</ele>
        <time>2010-08-15T07:52:25Z</time>
      </trkpt>
      <trkpt lat="45.4822" lon="4.53123">
        <ele>341.88598632812</ele>
        <time>2010-08-15T07:52:27Z</time>
      </trkpt>
      <trkpt lat="45.48205" lon="4.53156">
        <ele>342.84729003906</ele>
        <time>2010-08-15T07:52:34Z</time>
      </trkpt>
      <trkpt lat="45.48193" lon="4.53185">
        <ele>343.80859375</ele>
        <time>2010-08-15T07:52:41Z</time>
      </trkpt>
      <trkpt lat="45.48184" lon="4.53217">
        <ele>345.73132324219</ele>
        <time>2010-08-15T07:52:49Z</time>
      </trkpt>
      <trkpt lat="45.48182" lon="4.53238">
        <ele>345.25061035156</ele>
        <time>2010-08-15T07:52:54Z</time>
      </trkpt>
      <trkpt lat="45.48181" lon="4.53276">
        <ele>347.65393066406</ele>
        <time>2010-08-15T07:53:03Z</time>
      </trkpt>
      <trkpt lat="45.48184" lon="4.53308">
        <ele>348.615234375</ele>
        <time>2010-08-15T07:53:11Z</time>
      </trkpt>
      <trkpt lat="45.4819" lon="4.53342">
        <ele>350.05725097656</ele>
        <time>2010-08-15T07:53:20Z</time>
      </trkpt>
      <trkpt lat="45.48201" lon="4.53376">
        <ele>351.49914550781</ele>
        <time>2010-08-15T07:53:29Z</time>
      </trkpt>
      <trkpt lat="45.48211" lon="4.53405">
        <ele>352.94116210938</ele>
        <time>2010-08-15T07:53:37Z</time>
      </trkpt>
      <trkpt lat="45.48218" lon="4.53436">
        <ele>354.86376953125</ele>
        <time>2010-08-15T07:53:45Z</time>
      </trkpt>
      <trkpt lat="45.48217" lon="4.53466">
        <ele>356.78637695312</ele>
        <time>2010-08-15T07:53:53Z</time>
      </trkpt>
      <trkpt lat="45.4821" lon="4.53495">
        <ele>357.74780273438</ele>
        <time>2010-08-15T07:54:01Z</time>
      </trkpt>
      <trkpt lat="45.48195" lon="4.53522">
        <ele>359.67041015625</ele>
        <time>2010-08-15T07:54:10Z</time>
      </trkpt>
      <trkpt lat="45.4818" lon="4.53532">
        <ele>361.11242675781</ele>
        <time>2010-08-15T07:54:16Z</time>
      </trkpt>
      <trkpt lat="45.48159" lon="4.53539">
        <ele>363.51574707031</ele>
        <time>2010-08-15T07:54:24Z</time>
      </trkpt>
      <trkpt lat="45.4813" lon="4.53544">
        <ele>366.39953613281</ele>
        <time>2010-08-15T07:54:35Z</time>
      </trkpt>
      <trkpt lat="45.48102" lon="4.53549">
        <ele>368.322265625</ele>
        <time>2010-08-15T07:54:45Z</time>
      </trkpt>
      <trkpt lat="45.48072" lon="4.53552">
        <ele>371.68688964844</ele>
        <time>2010-08-15T07:54:55Z</time>
      </trkpt>
      <trkpt lat="45.48055" lon="4.53553">
        <ele>373.12890625</ele>
        <time>2010-08-15T07:55:01Z</time>
      </trkpt>
      <trkpt lat="45.48037" lon="4.53546">
        <ele>375.05151367188</ele>
        <time>2010-08-15T07:55:07Z</time>
      </trkpt>
      <trkpt lat="45.48018" lon="4.53542">
        <ele>376.97424316406</ele>
        <time>2010-08-15T07:55:13Z</time>
      </trkpt>
      <trkpt lat="45.47997" lon="4.53558">
        <ele>376.49353027344</ele>
        <time>2010-08-15T07:55:19Z</time>
      </trkpt>
      <trkpt lat="45.47967" lon="4.53579">
        <ele>376.97424316406</ele>
        <time>2010-08-15T07:55:27Z</time>
      </trkpt>
      <trkpt lat="45.47938" lon="4.53598">
        <ele>377.45483398438</ele>
        <time>2010-08-15T07:55:35Z</time>
      </trkpt>
      <trkpt lat="45.4791" lon="4.53617">
        <ele>378.41613769531</ele>
        <time>2010-08-15T07:55:43Z</time>
      </trkpt>
      <trkpt lat="45.47866" lon="4.53647">
        <ele>379.37744140625</ele>
        <time>2010-08-15T07:55:55Z</time>
      </trkpt>
      <trkpt lat="45.47839" lon="4.53665">
        <ele>380.33874511719</ele>
        <time>2010-08-15T07:56:03Z</time>
      </trkpt>
      <trkpt lat="45.47805" lon="4.53677">
        <ele>381.30004882812</ele>
        <time>2010-08-15T07:56:11Z</time>
      </trkpt>
      <trkpt lat="45.47776" lon="4.53676">
        <ele>380.81945800781</ele>
        <time>2010-08-15T07:56:18Z</time>
      </trkpt>
      <trkpt lat="45.47737" lon="4.53669">
        <ele>380.33874511719</ele>
        <time>2010-08-15T07:56:28Z</time>
      </trkpt>
      <trkpt lat="45.47718" lon="4.53666">
        <ele>379.37744140625</ele>
        <time>2010-08-15T07:56:34Z</time>
      </trkpt>
      <trkpt lat="45.47695" lon="4.53671">
        <ele>378.89685058594</ele>
        <time>2010-08-15T07:56:40Z</time>
      </trkpt>
      <trkpt lat="45.4766" lon="4.53683">
        <ele>377.45483398438</ele>
        <time>2010-08-15T07:56:48Z</time>
      </trkpt>
      <trkpt lat="45.47633" lon="4.53694">
        <ele>375.05151367188</ele>
        <time>2010-08-15T07:56:52Z</time>
      </trkpt>
      <trkpt lat="45.47601" lon="4.53706">
        <ele>376.49353027344</ele>
        <time>2010-08-15T07:56:57Z</time>
      </trkpt>
      <trkpt lat="45.47579" lon="4.53714">
        <ele>378.41613769531</ele>
        <time>2010-08-15T07:57:02Z</time>
      </trkpt>
      <trkpt lat="45.47547" lon="4.53725">
        <ele>380.81945800781</ele>
        <time>2010-08-15T07:57:11Z</time>
      </trkpt>
      <trkpt lat="45.47524" lon="4.53733">
        <ele>383.22265625</ele>
        <time>2010-08-15T07:57:18Z</time>
      </trkpt>
      <trkpt lat="45.47502" lon="4.53741">
        <ele>385.14538574219</ele>
        <time>2010-08-15T07:57:25Z</time>
      </trkpt>
      <trkpt lat="45.4748" lon="4.53748">
        <ele>387.06799316406</ele>
        <time>2010-08-15T07:57:32Z</time>
      </trkpt>
      <trkpt lat="45.47452" lon="4.53742">
        <ele>388.51000976562</ele>
        <time>2010-08-15T07:57:40Z</time>
      </trkpt>
      <trkpt lat="45.47426" lon="4.53725">
        <ele>388.99060058594</ele>
        <time>2010-08-15T07:57:48Z</time>
      </trkpt>
      <trkpt lat="45.47398" lon="4.53696">
        <ele>389.95190429688</ele>
        <time>2010-08-15T07:57:58Z</time>
      </trkpt>
      <trkpt lat="45.47365" lon="4.53666">
        <ele>390.91320800781</ele>
        <time>2010-08-15T07:58:09Z</time>
      </trkpt>
      <trkpt lat="45.47333" lon="4.53652">
        <ele>391.39379882812</ele>
        <time>2010-08-15T07:58:18Z</time>
      </trkpt>
      <trkpt lat="45.47297" lon="4.53648">
        <ele>391.87451171875</ele>
        <time>2010-08-15T07:58:28Z</time>
      </trkpt>
      <trkpt lat="45.47261" lon="4.53643">
        <ele>393.31652832031</ele>
        <time>2010-08-15T07:58:38Z</time>
      </trkpt>
      <trkpt lat="45.47232" lon="4.5364">
        <ele>394.27795410156</ele>
        <time>2010-08-15T07:58:47Z</time>
      </trkpt>
      <trkpt lat="45.47208" lon="4.53636">
        <ele>395.23913574219</ele>
        <time>2010-08-15T07:58:54Z</time>
      </trkpt>
      <trkpt lat="45.47174" lon="4.53631">
        <ele>396.20056152344</ele>
        <time>2010-08-15T07:59:04Z</time>
      </trkpt>
      <trkpt lat="45.47146" lon="4.53626">
        <ele>397.16174316406</ele>
        <time>2010-08-15T07:59:12Z</time>
      </trkpt>
      <trkpt lat="45.47117" lon="4.5361">
        <ele>398.12316894531</ele>
        <time>2010-08-15T07:59:21Z</time>
      </trkpt>
      <trkpt lat="45.47084" lon="4.53576">
        <ele>398.60375976562</ele>
        <time>2010-08-15T07:59:32Z</time>
      </trkpt>
      <trkpt lat="45.47056" lon="4.53547">
        <ele>398.60375976562</ele>
        <time>2010-08-15T07:59:41Z</time>
      </trkpt>
      <trkpt lat="45.47021" lon="4.53511">
        <ele>400.0458984375</ele>
        <time>2010-08-15T07:59:52Z</time>
      </trkpt>
      <trkpt lat="45.4699" lon="4.53479">
        <ele>402.44909667969</ele>
        <time>2010-08-15T08:00:02Z</time>
      </trkpt>
      <trkpt lat="45.46965" lon="4.53456">
        <ele>404.37170410156</ele>
        <time>2010-08-15T08:00:10Z</time>
      </trkpt>
      <trkpt lat="45.4694" lon="4.53429">
        <ele>404.85229492188</ele>
        <time>2010-08-15T08:00:18Z</time>
      </trkpt>
      <trkpt lat="45.46916" lon="4.53402">
        <ele>406.29431152344</ele>
        <time>2010-08-15T08:00:27Z</time>
      </trkpt>
      <trkpt lat="45.46891" lon="4.53375">
        <ele>407.736328125</ele>
        <time>2010-08-15T08:00:37Z</time>
      </trkpt>
      <trkpt lat="45.46863" lon="4.53345">
        <ele>408.21704101562</ele>
        <time>2010-08-15T08:00:47Z</time>
      </trkpt>
      <trkpt lat="45.46842" lon="4.53321">
        <ele>407.25561523438</ele>
        <time>2010-08-15T08:00:55Z</time>
      </trkpt>
      <trkpt lat="45.46828" lon="4.53297">
        <ele>405.81372070312</ele>
        <time>2010-08-15T08:01:01Z</time>
      </trkpt>
      <trkpt lat="45.46829" lon="4.53271">
        <ele>405.3330078125</ele>
        <time>2010-08-15T08:01:06Z</time>
      </trkpt>
      <trkpt lat="45.46836" lon="4.53226">
        <ele>404.85229492188</ele>
        <time>2010-08-15T08:01:15Z</time>
      </trkpt>
      <trkpt lat="45.46848" lon="4.53165">
        <ele>405.3330078125</ele>
        <time>2010-08-15T08:01:25Z</time>
      </trkpt>
      <trkpt lat="45.46852" lon="4.53147">
        <ele>405.3330078125</ele>
        <time>2010-08-15T08:01:28Z</time>
      </trkpt>
      <trkpt lat="45.46861" lon="4.53124">
        <ele>405.3330078125</ele>
        <time>2010-08-15T08:01:33Z</time>
      </trkpt>
      <trkpt lat="45.46863" lon="4.53101">
        <ele>404.37170410156</ele>
        <time>2010-08-15T08:01:39Z</time>
      </trkpt>
      <trkpt lat="45.46859" lon="4.53083">
        <ele>404.85229492188</ele>
        <time>2010-08-15T08:01:43Z</time>
      </trkpt>
      <trkpt lat="45.4685" lon="4.53043">
        <ele>405.81372070312</ele>
        <time>2010-08-15T08:01:51Z</time>
      </trkpt>
      <trkpt lat="45.46839" lon="4.52995">
        <ele>405.81372070312</ele>
        <time>2010-08-15T08:02:01Z</time>
      </trkpt>
      <trkpt lat="45.46829" lon="4.52949">
        <ele>406.77490234375</ele>
        <time>2010-08-15T08:02:10Z</time>
      </trkpt>
      <trkpt lat="45.4682" lon="4.52913">
        <ele>407.25561523438</ele>
        <time>2010-08-15T08:02:17Z</time>
      </trkpt>
      <trkpt lat="45.46808" lon="4.52863">
        <ele>407.736328125</ele>
        <time>2010-08-15T08:02:26Z</time>
      </trkpt>
      <trkpt lat="45.468" lon="4.52823">
        <ele>407.25561523438</ele>
        <time>2010-08-15T08:02:33Z</time>
      </trkpt>
      <trkpt lat="45.46784" lon="4.52765">
        <ele>408.21704101562</ele>
        <time>2010-08-15T08:02:42Z</time>
      </trkpt>
      <trkpt lat="45.46782" lon="4.52752">
        <ele>408.21704101562</ele>
        <time>2010-08-15T08:02:44Z</time>
      </trkpt>
      <trkpt lat="45.46781" lon="4.52726">
        <ele>408.21704101562</ele>
        <time>2010-08-15T08:02:48Z</time>
      </trkpt>
      <trkpt lat="45.46789" lon="4.5267">
        <ele>409.17834472656</ele>
        <time>2010-08-15T08:02:57Z</time>
      </trkpt>
      <trkpt lat="45.46792" lon="4.52613">
        <ele>410.1396484375</ele>
        <time>2010-08-15T08:03:06Z</time>
      </trkpt>
      <trkpt lat="45.46787" lon="4.52548">
        <ele>411.58166503906</ele>
        <time>2010-08-15T08:03:16Z</time>
      </trkpt>
      <trkpt lat="45.46787" lon="4.52542">
        <ele>411.58166503906</ele>
        <time>2010-08-15T08:03:17Z</time>
      </trkpt>
      <trkpt lat="45.46782" lon="4.52477">
        <ele>413.98486328125</ele>
        <time>2010-08-15T08:03:27Z</time>
      </trkpt>
      <trkpt lat="45.46777" lon="4.52418">
        <ele>413.98486328125</ele>
        <time>2010-08-15T08:03:36Z</time>
      </trkpt>
      <trkpt lat="45.46772" lon="4.52372">
        <ele>413.98486328125</ele>
        <time>2010-08-15T08:03:43Z</time>
      </trkpt>
      <trkpt lat="45.46758" lon="4.52322">
        <ele>415.42687988281</ele>
        <time>2010-08-15T08:03:51Z</time>
      </trkpt>
      <trkpt lat="45.46745" lon="4.52274">
        <ele>416.38818359375</ele>
        <time>2010-08-15T08:03:59Z</time>
      </trkpt>
      <trkpt lat="45.4674" lon="4.52244">
        <ele>416.86889648438</ele>
        <time>2010-08-15T08:04:05Z</time>
      </trkpt>
      <trkpt lat="45.46736" lon="4.522">
        <ele>416.86889648438</ele>
        <time>2010-08-15T08:04:12Z</time>
      </trkpt>
      <trkpt lat="45.46733" lon="4.52172">
        <ele>416.86889648438</ele>
        <time>2010-08-15T08:04:16Z</time>
      </trkpt>
      <trkpt lat="45.46713" lon="4.52118">
        <ele>417.83020019531</ele>
        <time>2010-08-15T08:04:24Z</time>
      </trkpt>
      <trkpt lat="45.46689" lon="4.52054">
        <ele>418.79150390625</ele>
        <time>2010-08-15T08:04:33Z</time>
      </trkpt>
      <trkpt lat="45.46683" lon="4.51989">
        <ele>417.83020019531</ele>
        <time>2010-08-15T08:04:42Z</time>
      </trkpt>
      <trkpt lat="45.46682" lon="4.51983">
        <ele>417.83020019531</ele>
        <time>2010-08-15T08:04:43Z</time>
      </trkpt>
      <trkpt lat="45.46681" lon="4.51963">
        <ele>416.86889648438</ele>
        <time>2010-08-15T08:04:46Z</time>
      </trkpt>
      <trkpt lat="45.46675" lon="4.51901">
        <ele>418.79150390625</ele>
        <time>2010-08-15T08:04:56Z</time>
      </trkpt>
      <trkpt lat="45.4667" lon="4.51829">
        <ele>419.27221679688</ele>
        <time>2010-08-15T08:05:07Z</time>
      </trkpt>
      <trkpt lat="45.46664" lon="4.51785">
        <ele>420.2333984375</ele>
        <time>2010-08-15T08:05:15Z</time>
      </trkpt>
      <trkpt lat="45.46661" lon="4.51758">
        <ele>420.71411132812</ele>
        <time>2010-08-15T08:05:22Z</time>
      </trkpt>
      <trkpt lat="45.46654" lon="4.51722">
        <ele>419.75280761719</ele>
        <time>2010-08-15T08:05:30Z</time>
      </trkpt>
      <trkpt lat="45.46649" lon="4.51683">
        <ele>419.27221679688</ele>
        <time>2010-08-15T08:05:37Z</time>
      </trkpt>
      <trkpt lat="45.46645" lon="4.5163">
        <ele>418.79150390625</ele>
        <time>2010-08-15T08:05:45Z</time>
      </trkpt>
      <trkpt lat="45.46644" lon="4.51564">
        <ele>417.349609375</ele>
        <time>2010-08-15T08:05:53Z</time>
      </trkpt>
      <trkpt lat="45.46641" lon="4.51498">
        <ele>416.38818359375</ele>
        <time>2010-08-15T08:06:00Z</time>
      </trkpt>
      <trkpt lat="45.46632" lon="4.51436">
        <ele>416.38818359375</ele>
        <time>2010-08-15T08:06:07Z</time>
      </trkpt>
      <trkpt lat="45.46621" lon="4.51413">
        <ele>416.86889648438</ele>
        <time>2010-08-15T08:06:11Z</time>
      </trkpt>
      <trkpt lat="45.46612" lon="4.51414">
        <ele>417.349609375</ele>
        <time>2010-08-15T08:06:13Z</time>
      </trkpt>
      <trkpt lat="45.46593" lon="4.5142">
        <ele>419.27221679688</ele>
        <time>2010-08-15T08:06:18Z</time>
      </trkpt>
      <trkpt lat="45.46569" lon="4.51425">
        <ele>423.59802246094</ele>
        <time>2010-08-15T08:06:25Z</time>
      </trkpt>
      <trkpt lat="45.46546" lon="4.51431">
        <ele>426.00134277344</ele>
        <time>2010-08-15T08:06:32Z</time>
      </trkpt>
      <trkpt lat="45.46536" lon="4.51432">
        <ele>426.48205566406</ele>
        <time>2010-08-15T08:06:35Z</time>
      </trkpt>
      <trkpt lat="45.4653" lon="4.51415">
        <ele>426.00134277344</ele>
        <time>2010-08-15T08:06:39Z</time>
      </trkpt>
      <trkpt lat="45.46527" lon="4.51376">
        <ele>425.04016113281</ele>
        <time>2010-08-15T08:06:46Z</time>
      </trkpt>
      <trkpt lat="45.46523" lon="4.51342">
        <ele>424.55944824219</ele>
        <time>2010-08-15T08:06:52Z</time>
      </trkpt>
      <trkpt lat="45.46521" lon="4.51337">
        <ele>424.55944824219</ele>
        <time>2010-08-15T08:06:53Z</time>
      </trkpt>
      <trkpt lat="45.46503" lon="4.5132">
        <ele>424.55944824219</ele>
        <time>2010-08-15T08:06:58Z</time>
      </trkpt>
      <trkpt lat="45.46487" lon="4.51322">
        <ele>425.52075195312</ele>
        <time>2010-08-15T08:07:02Z</time>
      </trkpt>
      <trkpt lat="45.46461" lon="4.51341">
        <ele>429.36596679688</ele>
        <time>2010-08-15T08:07:11Z</time>
      </trkpt>
      <trkpt lat="45.46438" lon="4.51361">
        <ele>430.32727050781</ele>
        <time>2010-08-15T08:07:19Z</time>
      </trkpt>
      <trkpt lat="45.46417" lon="4.5138">
        <ele>432.25</ele>
        <time>2010-08-15T08:07:27Z</time>
      </trkpt>
      <trkpt lat="45.46398" lon="4.51399">
        <ele>435.61450195312</ele>
        <time>2010-08-15T08:07:35Z</time>
      </trkpt>
      <trkpt lat="45.46376" lon="4.51422">
        <ele>439.45971679688</ele>
        <time>2010-08-15T08:07:45Z</time>
      </trkpt>
      <trkpt lat="45.46361" lon="4.51441">
        <ele>441.86315917969</ele>
        <time>2010-08-15T08:07:53Z</time>
      </trkpt>
      <trkpt lat="45.46346" lon="4.51465">
        <ele>444.7470703125</ele>
        <time>2010-08-15T08:08:02Z</time>
      </trkpt>
      <trkpt lat="45.46335" lon="4.51464">
        <ele>445.70837402344</ele>
        <time>2010-08-15T08:08:07Z</time>
      </trkpt>
      <trkpt lat="45.46325" lon="4.51447">
        <ele>444.7470703125</ele>
        <time>2010-08-15T08:08:13Z</time>
      </trkpt>
      <trkpt lat="45.46313" lon="4.51416">
        <ele>443.78576660156</ele>
        <time>2010-08-15T08:08:20Z</time>
      </trkpt>
      <trkpt lat="45.46296" lon="4.51378">
        <ele>442.34387207031</ele>
        <time>2010-08-15T08:08:27Z</time>
      </trkpt>
      <trkpt lat="45.46273" lon="4.5134">
        <ele>439.9404296875</ele>
        <time>2010-08-15T08:08:34Z</time>
      </trkpt>
      <trkpt lat="45.46245" lon="4.51324">
        <ele>439.45971679688</ele>
        <time>2010-08-15T08:08:39Z</time>
      </trkpt>
      <trkpt lat="45.4624" lon="4.51322">
        <ele>439.45971679688</ele>
        <time>2010-08-15T08:08:40Z</time>
      </trkpt>
      <trkpt lat="45.46227" lon="4.5132">
        <ele>440.42126464844</ele>
        <time>2010-08-15T08:08:43Z</time>
      </trkpt>
      <trkpt lat="45.4622" lon="4.51319">
        <ele>440.90185546875</ele>
        <time>2010-08-15T08:08:45Z</time>
      </trkpt>
      <trkpt lat="45.46216" lon="4.51322">
        <ele>441.38244628906</ele>
        <time>2010-08-15T08:08:49Z</time>
      </trkpt>
      <trkpt lat="45.46222" lon="4.51323">
        <ele>440.90185546875</ele>
        <time>2010-08-15T08:08:53Z</time>
      </trkpt>
      <trkpt lat="45.46222" lon="4.51322">
        <ele>441.38244628906</ele>
        <time>2010-08-15T08:09:05Z</time>
      </trkpt>
      <trkpt lat="45.46223" lon="4.51322">
        <ele>441.38244628906</ele>
        <time>2010-08-15T08:09:07Z</time>
      </trkpt>
      <trkpt lat="45.46229" lon="4.51319">
        <ele>441.38244628906</ele>
        <time>2010-08-15T08:09:11Z</time>
      </trkpt>
      <trkpt lat="45.46246" lon="4.51309">
        <ele>439.45971679688</ele>
        <time>2010-08-15T08:09:17Z</time>
      </trkpt>
      <trkpt lat="45.46277" lon="4.51293">
        <ele>436.57592773438</ele>
        <time>2010-08-15T08:09:23Z</time>
      </trkpt>
      <trkpt lat="45.46299" lon="4.5128">
        <ele>433.69189453125</ele>
        <time>2010-08-15T08:09:27Z</time>
      </trkpt>
      <trkpt lat="45.46315" lon="4.51277">
        <ele>431.76916503906</ele>
        <time>2010-08-15T08:09:31Z</time>
      </trkpt>
      <trkpt lat="45.46318" lon="4.51273">
        <ele>431.28857421875</ele>
        <time>2010-08-15T08:09:34Z</time>
      </trkpt>
      <trkpt lat="45.46319" lon="4.51272">
        <ele>431.28857421875</ele>
        <time>2010-08-15T08:09:39Z</time>
      </trkpt>
      <trkpt lat="45.46321" lon="4.51274">
        <ele>431.76916503906</ele>
        <time>2010-08-15T08:09:42Z</time>
      </trkpt>
      <trkpt lat="45.46318" lon="4.51278">
        <ele>431.76916503906</ele>
        <time>2010-08-15T08:09:46Z</time>
      </trkpt>
      <trkpt lat="45.46318" lon="4.51271">
        <ele>430.80798339844</ele>
        <time>2010-08-15T08:09:49Z</time>
      </trkpt>
      <trkpt lat="45.4632" lon="4.51266">
        <ele>429.84655761719</ele>
        <time>2010-08-15T08:09:51Z</time>
      </trkpt>
      <trkpt lat="45.46322" lon="4.51241">
        <ele>425.52075195312</ele>
        <time>2010-08-15T08:09:56Z</time>
      </trkpt>
      <trkpt lat="45.46325" lon="4.51205">
        <ele>417.349609375</ele>
        <time>2010-08-15T08:10:02Z</time>
      </trkpt>
      <trkpt lat="45.46326" lon="4.51195">
        <ele>414.94616699219</ele>
        <time>2010-08-15T08:10:05Z</time>
      </trkpt>
      <trkpt lat="45.4632" lon="4.51177">
        <ele>409.65905761719</ele>
        <time>2010-08-15T08:10:11Z</time>
      </trkpt>
      <trkpt lat="45.46309" lon="4.51154">
        <ele>403.89111328125</ele>
        <time>2010-08-15T08:10:17Z</time>
      </trkpt>
      <trkpt lat="45.46301" lon="4.51159">
        <ele>402.44909667969</ele>
        <time>2010-08-15T08:10:22Z</time>
      </trkpt>
      <trkpt lat="45.46296" lon="4.51163">
        <ele>401.96850585938</ele>
        <time>2010-08-15T08:10:25Z</time>
      </trkpt>
      <trkpt lat="45.46295" lon="4.51163">
        <ele>402.44909667969</ele>
        <time>2010-08-15T08:10:31Z</time>
      </trkpt>
      <trkpt lat="45.46295" lon="4.51164">
        <ele>402.44909667969</ele>
        <time>2010-08-15T08:10:36Z</time>
      </trkpt>
      <trkpt lat="45.46292" lon="4.51162">
        <ele>401.96850585938</ele>
        <time>2010-08-15T08:10:46Z</time>
      </trkpt>
      <trkpt lat="45.46289" lon="4.51158">
        <ele>403.41040039062</ele>
        <time>2010-08-15T08:10:52Z</time>
      </trkpt>
      <trkpt lat="45.46284" lon="4.51156">
        <ele>403.89111328125</ele>
        <time>2010-08-15T08:10:56Z</time>
      </trkpt>
      <trkpt lat="45.46276" lon="4.51154">
        <ele>403.89111328125</ele>
        <time>2010-08-15T08:11:02Z</time>
      </trkpt>
      <trkpt lat="45.46274" lon="4.51147">
        <ele>404.37170410156</ele>
        <time>2010-08-15T08:11:08Z</time>
      </trkpt>
      <trkpt lat="45.46268" lon="4.51143">
        <ele>405.3330078125</ele>
        <time>2010-08-15T08:11:15Z</time>
      </trkpt>
      <trkpt lat="45.46264" lon="4.5114">
        <ele>405.3330078125</ele>
        <time>2010-08-15T08:11:21Z</time>
      </trkpt>
      <trkpt lat="45.46255" lon="4.51138">
        <ele>406.29431152344</ele>
        <time>2010-08-15T08:11:27Z</time>
      </trkpt>
      <trkpt lat="45.4625" lon="4.51136">
        <ele>408.21704101562</ele>
        <time>2010-08-15T08:11:32Z</time>
      </trkpt>
      <trkpt lat="45.46248" lon="4.51134">
        <ele>408.69763183594</ele>
        <time>2010-08-15T08:11:34Z</time>
      </trkpt>
      <trkpt lat="45.46245" lon="4.51133">
        <ele>409.17834472656</ele>
        <time>2010-08-15T08:11:42Z</time>
      </trkpt>
      <trkpt lat="45.46242" lon="4.51134">
        <ele>409.17834472656</ele>
        <time>2010-08-15T08:11:48Z</time>
      </trkpt>
      <trkpt lat="45.46237" lon="4.51134">
        <ele>410.1396484375</ele>
        <time>2010-08-15T08:11:53Z</time>
      </trkpt>
      <trkpt lat="45.46225" lon="4.51134">
        <ele>412.06225585938</ele>
        <time>2010-08-15T08:12:00Z</time>
      </trkpt>
      <trkpt lat="45.46217" lon="4.51134">
        <ele>413.02355957031</ele>
        <time>2010-08-15T08:12:05Z</time>
      </trkpt>
      <trkpt lat="45.46206" lon="4.51133">
        <ele>414.94616699219</ele>
        <time>2010-08-15T08:12:13Z</time>
      </trkpt>
      <trkpt lat="45.46204" lon="4.51133">
        <ele>415.90747070312</ele>
        <time>2010-08-15T08:12:17Z</time>
      </trkpt>
      <trkpt lat="45.462" lon="4.51133">
        <ele>416.86889648438</ele>
        <time>2010-08-15T08:12:23Z</time>
      </trkpt>
      <trkpt lat="45.46196" lon="4.51134">
        <ele>418.31079101562</ele>
        <time>2010-08-15T08:12:29Z</time>
      </trkpt>
      <trkpt lat="45.46194" lon="4.51135">
        <ele>418.79150390625</ele>
        <time>2010-08-15T08:12:31Z</time>
      </trkpt>
      <trkpt lat="45.46181" lon="4.51139">
        <ele>421.19482421875</ele>
        <time>2010-08-15T08:12:38Z</time>
      </trkpt>
      <trkpt lat="45.46175" lon="4.51139">
        <ele>422.15600585938</ele>
        <time>2010-08-15T08:12:42Z</time>
      </trkpt>
      <trkpt lat="45.46154" lon="4.51142">
        <ele>425.04016113281</ele>
        <time>2010-08-15T08:12:50Z</time>
      </trkpt>
      <trkpt lat="45.46132" lon="4.51153">
        <ele>426.00134277344</ele>
        <time>2010-08-15T08:12:57Z</time>
      </trkpt>
      <trkpt lat="45.4611" lon="4.51169">
        <ele>426.96276855469</ele>
        <time>2010-08-15T08:13:04Z</time>
      </trkpt>
      <trkpt lat="45.46093" lon="4.51188">
        <ele>427.92395019531</ele>
        <time>2010-08-15T08:13:11Z</time>
      </trkpt>
      <trkpt lat="45.46071" lon="4.51206">
        <ele>428.88537597656</ele>
        <time>2010-08-15T08:13:18Z</time>
      </trkpt>
      <trkpt lat="45.46049" lon="4.51221">
        <ele>430.32727050781</ele>
        <time>2010-08-15T08:13:24Z</time>
      </trkpt>
      <trkpt lat="45.46039" lon="4.51231">
        <ele>430.32727050781</ele>
        <time>2010-08-15T08:13:27Z</time>
      </trkpt>
      <trkpt lat="45.46016" lon="4.51257">
        <ele>430.80798339844</ele>
        <time>2010-08-15T08:13:35Z</time>
      </trkpt>
      <trkpt lat="45.45999" lon="4.51274">
        <ele>432.25</ele>
        <time>2010-08-15T08:13:42Z</time>
      </trkpt>
      <trkpt lat="45.45978" lon="4.51289">
        <ele>434.6533203125</ele>
        <time>2010-08-15T08:13:50Z</time>
      </trkpt>
      <trkpt lat="45.45963" lon="4.51291">
        <ele>435.61450195312</ele>
        <time>2010-08-15T08:13:56Z</time>
      </trkpt>
      <trkpt lat="45.45942" lon="4.51286">
        <ele>437.537109375</ele>
        <time>2010-08-15T08:14:05Z</time>
      </trkpt>
      <trkpt lat="45.45921" lon="4.51275">
        <ele>439.9404296875</ele>
        <time>2010-08-15T08:14:14Z</time>
      </trkpt>
      <trkpt lat="45.45906" lon="4.51265">
        <ele>441.86315917969</ele>
        <time>2010-08-15T08:14:21Z</time>
      </trkpt>
      <trkpt lat="45.45893" lon="4.51257">
        <ele>442.82446289062</ele>
        <time>2010-08-15T08:14:28Z</time>
      </trkpt>
      <trkpt lat="45.45879" lon="4.51248">
        <ele>444.26647949219</ele>
        <time>2010-08-15T08:14:35Z</time>
      </trkpt>
      <trkpt lat="45.45868" lon="4.51242">
        <ele>445.22766113281</ele>
        <time>2010-08-15T08:14:41Z</time>
      </trkpt>
      <trkpt lat="45.45853" lon="4.51237">
        <ele>445.70837402344</ele>
        <time>2010-08-15T08:14:48Z</time>
      </trkpt>
      <trkpt lat="45.45832" lon="4.5123">
        <ele>446.18908691406</ele>
        <time>2010-08-15T08:14:57Z</time>
      </trkpt>
      <trkpt lat="45.45811" lon="4.51223">
        <ele>446.66967773438</ele>
        <time>2010-08-15T08:15:05Z</time>
      </trkpt>
      <trkpt lat="45.45789" lon="4.51217">
        <ele>447.15026855469</ele>
        <time>2010-08-15T08:15:13Z</time>
      </trkpt>
      <trkpt lat="45.45768" lon="4.51214">
        <ele>447.15026855469</ele>
        <time>2010-08-15T08:15:21Z</time>
      </trkpt>
      <trkpt lat="45.45749" lon="4.51213">
        <ele>448.11181640625</ele>
        <time>2010-08-15T08:15:28Z</time>
      </trkpt>
      <trkpt lat="45.45731" lon="4.51213">
        <ele>448.11181640625</ele>
        <time>2010-08-15T08:15:35Z</time>
      </trkpt>
      <trkpt lat="45.45723" lon="4.51211">
        <ele>447.63098144531</ele>
        <time>2010-08-15T08:15:40Z</time>
      </trkpt>
      <trkpt lat="45.45723" lon="4.51211">
        <ele>447.63098144531</ele>
        <time>2010-08-15T08:15:45Z</time>
      </trkpt>
      <trkpt lat="45.45723" lon="4.51212">
        <ele>448.59240722656</ele>
        <time>2010-08-15T08:15:57Z</time>
      </trkpt>
      <trkpt lat="45.45723" lon="4.51214">
        <ele>449.5537109375</ele>
        <time>2010-08-15T08:16:03Z</time>
      </trkpt>
      <trkpt lat="45.45722" lon="4.51213">
        <ele>451.47631835938</ele>
        <time>2010-08-15T08:16:12Z</time>
      </trkpt>
      <trkpt lat="45.4572" lon="4.51209">
        <ele>457.72497558594</ele>
        <time>2010-08-15T08:16:34Z</time>
      </trkpt>
      <trkpt lat="45.45719" lon="4.51208">
        <ele>459.64758300781</ele>
        <time>2010-08-15T08:16:52Z</time>
      </trkpt>
      <trkpt lat="45.45718" lon="4.51205">
        <ele>459.16687011719</ele>
        <time>2010-08-15T08:16:57Z</time>
      </trkpt>
      <trkpt lat="45.45722" lon="4.51185">
        <ele>456.28295898438</ele>
        <time>2010-08-15T08:17:02Z</time>
      </trkpt>
      <trkpt lat="45.4573" lon="4.5115">
        <ele>452.43762207031</ele>
        <time>2010-08-15T08:17:07Z</time>
      </trkpt>
      <trkpt lat="45.4574" lon="4.51096">
        <ele>447.15026855469</ele>
        <time>2010-08-15T08:17:13Z</time>
      </trkpt>
      <trkpt lat="45.45751" lon="4.51046">
        <ele>442.34387207031</ele>
        <time>2010-08-15T08:17:19Z</time>
      </trkpt>
      <trkpt lat="45.45758" lon="4.51028">
        <ele>439.9404296875</ele>
        <time>2010-08-15T08:17:22Z</time>
      </trkpt>
      <trkpt lat="45.45757" lon="4.51003">
        <ele>437.05651855469</ele>
        <time>2010-08-15T08:17:26Z</time>
      </trkpt>
      <trkpt lat="45.45744" lon="4.50971">
        <ele>434.6533203125</ele>
        <time>2010-08-15T08:17:30Z</time>
      </trkpt>
      <trkpt lat="45.45721" lon="4.50941">
        <ele>431.28857421875</ele>
        <time>2010-08-15T08:17:34Z</time>
      </trkpt>
      <trkpt lat="45.45679" lon="4.50905">
        <ele>424.55944824219</ele>
        <time>2010-08-15T08:17:39Z</time>
      </trkpt>
      <trkpt lat="45.45647" lon="4.50865">
        <ele>419.27221679688</ele>
        <time>2010-08-15T08:17:43Z</time>
      </trkpt>
      <trkpt lat="45.45603" lon="4.50807">
        <ele>413.98486328125</ele>
        <time>2010-08-15T08:17:48Z</time>
      </trkpt>
      <trkpt lat="45.45594" lon="4.50796">
        <ele>413.50427246094</ele>
        <time>2010-08-15T08:17:49Z</time>
      </trkpt>
      <trkpt lat="45.45565" lon="4.50743">
        <ele>410.62023925781</ele>
        <time>2010-08-15T08:17:54Z</time>
      </trkpt>
      <trkpt lat="45.4556" lon="4.50736">
        <ele>410.1396484375</ele>
        <time>2010-08-15T08:17:55Z</time>
      </trkpt>
      <trkpt lat="45.45541" lon="4.50689">
        <ele>410.1396484375</ele>
        <time>2010-08-15T08:18:02Z</time>
      </trkpt>
      <trkpt lat="45.45539" lon="4.50683">
        <ele>410.1396484375</ele>
        <time>2010-08-15T08:18:03Z</time>
      </trkpt>
      <trkpt lat="45.45534" lon="4.50646">
        <ele>409.65905761719</ele>
        <time>2010-08-15T08:18:08Z</time>
      </trkpt>
      <trkpt lat="45.45535" lon="4.50639">
        <ele>409.65905761719</ele>
        <time>2010-08-15T08:18:09Z</time>
      </trkpt>
      <trkpt lat="45.45539" lon="4.50578">
        <ele>410.62023925781</ele>
        <time>2010-08-15T08:18:18Z</time>
      </trkpt>
      <trkpt lat="45.45545" lon="4.50536">
        <ele>410.62023925781</ele>
        <time>2010-08-15T08:18:26Z</time>
      </trkpt>
      <trkpt lat="45.45552" lon="4.50483">
        <ele>410.1396484375</ele>
        <time>2010-08-15T08:18:35Z</time>
      </trkpt>
      <trkpt lat="45.45557" lon="4.50458">
        <ele>409.65905761719</ele>
        <time>2010-08-15T08:18:40Z</time>
      </trkpt>
      <trkpt lat="45.45558" lon="4.50456">
        <ele>409.17834472656</ele>
        <time>2010-08-15T08:18:41Z</time>
      </trkpt>
      <trkpt lat="45.45553" lon="4.50449">
        <ele>409.65905761719</ele>
        <time>2010-08-15T08:18:45Z</time>
      </trkpt>
      <trkpt lat="45.45547" lon="4.50447">
        <ele>409.65905761719</ele>
        <time>2010-08-15T08:18:47Z</time>
      </trkpt>
      <trkpt lat="45.45515" lon="4.50446">
        <ele>411.58166503906</ele>
        <time>2010-08-15T08:18:56Z</time>
      </trkpt>
      <trkpt lat="45.45482" lon="4.50447">
        <ele>413.02355957031</ele>
        <time>2010-08-15T08:19:05Z</time>
      </trkpt>
      <trkpt lat="45.45464" lon="4.50449">
        <ele>413.50427246094</ele>
        <time>2010-08-15T08:19:10Z</time>
      </trkpt>
      <trkpt lat="45.45432" lon="4.50454">
        <ele>414.46545410156</ele>
        <time>2010-08-15T08:19:19Z</time>
      </trkpt>
      <trkpt lat="45.45404" lon="4.50459">
        <ele>416.38818359375</ele>
        <time>2010-08-15T08:19:27Z</time>
      </trkpt>
      <trkpt lat="45.45384" lon="4.50452">
        <ele>418.79150390625</ele>
        <time>2010-08-15T08:19:34Z</time>
      </trkpt>
      <trkpt lat="45.45366" lon="4.50445">
        <ele>419.75280761719</ele>
        <time>2010-08-15T08:19:41Z</time>
      </trkpt>
      <trkpt lat="45.45348" lon="4.50431">
        <ele>421.67541503906</ele>
        <time>2010-08-15T08:19:48Z</time>
      </trkpt>
      <trkpt lat="45.45327" lon="4.50409">
        <ele>423.11743164062</ele>
        <time>2010-08-15T08:19:57Z</time>
      </trkpt>
      <trkpt lat="45.45306" lon="4.50395">
        <ele>426.96276855469</ele>
        <time>2010-08-15T08:20:05Z</time>
      </trkpt>
      <trkpt lat="45.45294" lon="4.50379">
        <ele>425.04016113281</ele>
        <time>2010-08-15T08:20:11Z</time>
      </trkpt>
      <trkpt lat="45.45279" lon="4.50371">
        <ele>425.52075195312</ele>
        <time>2010-08-15T08:20:18Z</time>
      </trkpt>
      <trkpt lat="45.45274" lon="4.50368">
        <ele>426.00134277344</ele>
        <time>2010-08-15T08:20:21Z</time>
      </trkpt>
      <trkpt lat="45.45273" lon="4.50358">
        <ele>425.52075195312</ele>
        <time>2010-08-15T08:20:26Z</time>
      </trkpt>
      <trkpt lat="45.45272" lon="4.50354">
        <ele>425.52075195312</ele>
        <time>2010-08-15T08:20:28Z</time>
      </trkpt>
      <trkpt lat="45.45271" lon="4.50339">
        <ele>430.80798339844</ele>
        <time>2010-08-15T08:20:35Z</time>
      </trkpt>
      <trkpt lat="45.4527" lon="4.50334">
        <ele>431.28857421875</ele>
        <time>2010-08-15T08:20:38Z</time>
      </trkpt>
      <trkpt lat="45.45267" lon="4.50333">
        <ele>434.6533203125</ele>
        <time>2010-08-15T08:20:48Z</time>
      </trkpt>
      <trkpt lat="45.45268" lon="4.50334">
        <ele>437.537109375</ele>
        <time>2010-08-15T08:20:59Z</time>
      </trkpt>
      <trkpt lat="45.45267" lon="4.50332">
        <ele>441.38244628906</ele>
        <time>2010-08-15T08:21:10Z</time>
      </trkpt>
      <trkpt lat="45.45266" lon="4.50332">
        <ele>443.30505371094</ele>
        <time>2010-08-15T08:21:23Z</time>
      </trkpt>
      <trkpt lat="45.45266" lon="4.50334">
        <ele>439.9404296875</ele>
        <time>2010-08-15T08:21:37Z</time>
      </trkpt>
      <trkpt lat="45.45263" lon="4.50338">
        <ele>436.57592773438</ele>
        <time>2010-08-15T08:21:51Z</time>
      </trkpt>
      <trkpt lat="45.45264" lon="4.50337">
        <ele>437.05651855469</ele>
        <time>2010-08-15T08:21:56Z</time>
      </trkpt>
      <trkpt lat="45.45266" lon="4.50333">
        <ele>436.09521484375</ele>
        <time>2010-08-15T08:22:07Z</time>
      </trkpt>
      <trkpt lat="45.45264" lon="4.5033">
        <ele>436.09521484375</ele>
        <time>2010-08-15T08:22:16Z</time>
      </trkpt>
      <trkpt lat="45.45257" lon="4.50316">
        <ele>435.13391113281</ele>
        <time>2010-08-15T08:22:25Z</time>
      </trkpt>
      <trkpt lat="45.45252" lon="4.50304">
        <ele>436.57592773438</ele>
        <time>2010-08-15T08:22:31Z</time>
      </trkpt>
      <trkpt lat="45.45251" lon="4.50303">
        <ele>436.57592773438</ele>
        <time>2010-08-15T08:22:32Z</time>
      </trkpt>
      <trkpt lat="45.45247" lon="4.50294">
        <ele>438.01782226562</ele>
        <time>2010-08-15T08:22:37Z</time>
      </trkpt>
      <trkpt lat="45.45238" lon="4.50281">
        <ele>442.34387207031</ele>
        <time>2010-08-15T08:22:45Z</time>
      </trkpt>
      <trkpt lat="45.45233" lon="4.50272">
        <ele>445.22766113281</ele>
        <time>2010-08-15T08:22:52Z</time>
      </trkpt>
      <trkpt lat="45.45232" lon="4.5027">
        <ele>445.22766113281</ele>
        <time>2010-08-15T08:22:53Z</time>
      </trkpt>
      <trkpt lat="45.45219" lon="4.50267">
        <ele>446.66967773438</ele>
        <time>2010-08-15T08:23:00Z</time>
      </trkpt>
      <trkpt lat="45.45204" lon="4.50275">
        <ele>447.15026855469</ele>
        <time>2010-08-15T08:23:07Z</time>
      </trkpt>
      <trkpt lat="45.45191" lon="4.50285">
        <ele>450.03442382812</ele>
        <time>2010-08-15T08:23:14Z</time>
      </trkpt>
      <trkpt lat="45.4518" lon="4.50296">
        <ele>450.51501464844</ele>
        <time>2010-08-15T08:23:21Z</time>
      </trkpt>
      <trkpt lat="45.45171" lon="4.50304">
        <ele>453.39892578125</ele>
        <time>2010-08-15T08:23:26Z</time>
      </trkpt>
      <trkpt lat="45.45161" lon="4.50317">
        <ele>455.80224609375</ele>
        <time>2010-08-15T08:23:34Z</time>
      </trkpt>
      <trkpt lat="45.45152" lon="4.50327">
        <ele>457.72497558594</ele>
        <time>2010-08-15T08:23:40Z</time>
      </trkpt>
      <trkpt lat="45.45132" lon="4.50337">
        <ele>458.68615722656</ele>
        <time>2010-08-15T08:23:48Z</time>
      </trkpt>
      <trkpt lat="45.45117" lon="4.50338">
        <ele>455.32153320312</ele>
        <time>2010-08-15T08:23:54Z</time>
      </trkpt>
      <trkpt lat="45.45093" lon="4.50331">
        <ele>454.8408203125</ele>
        <time>2010-08-15T08:24:03Z</time>
      </trkpt>
      <trkpt lat="45.45075" lon="4.50324">
        <ele>455.32153320312</ele>
        <time>2010-08-15T08:24:10Z</time>
      </trkpt>
      <trkpt lat="45.45055" lon="4.50321">
        <ele>456.28295898438</ele>
        <time>2010-08-15T08:24:17Z</time>
      </trkpt>
      <trkpt lat="45.45033" lon="4.50319">
        <ele>455.32153320312</ele>
        <time>2010-08-15T08:24:25Z</time>
      </trkpt>
      <trkpt lat="45.4502" lon="4.50317">
        <ele>455.80224609375</ele>
        <time>2010-08-15T08:24:30Z</time>
      </trkpt>
      <trkpt lat="45.45007" lon="4.50307">
        <ele>456.76354980469</ele>
        <time>2010-08-15T08:24:36Z</time>
      </trkpt>
      <trkpt lat="45.44992" lon="4.50294">
        <ele>460.12817382812</ele>
        <time>2010-08-15T08:24:44Z</time>
      </trkpt>
      <trkpt lat="45.44975" lon="4.50274">
        <ele>464.4541015625</ele>
        <time>2010-08-15T08:24:55Z</time>
      </trkpt>
      <trkpt lat="45.4496" lon="4.50262">
        <ele>466.857421875</ele>
        <time>2010-08-15T08:25:04Z</time>
      </trkpt>
      <trkpt lat="45.44946" lon="4.50253">
        <ele>468.29931640625</ele>
        <time>2010-08-15T08:25:12Z</time>
      </trkpt>
      <trkpt lat="45.44925" lon="4.50242">
        <ele>470.22192382812</ele>
        <time>2010-08-15T08:25:23Z</time>
      </trkpt>
      <trkpt lat="45.44912" lon="4.50235">
        <ele>470.70263671875</ele>
        <time>2010-08-15T08:25:31Z</time>
      </trkpt>
      <trkpt lat="45.44907" lon="4.5023">
        <ele>470.70263671875</ele>
        <time>2010-08-15T08:25:35Z</time>
      </trkpt>
      <trkpt lat="45.44911" lon="4.50223">
        <ele>473.10607910156</ele>
        <time>2010-08-15T08:25:39Z</time>
      </trkpt>
      <trkpt lat="45.44927" lon="4.50217">
        <ele>476.95129394531</ele>
        <time>2010-08-15T08:25:48Z</time>
      </trkpt>
      <trkpt lat="45.44938" lon="4.50212">
        <ele>478.87390136719</ele>
        <time>2010-08-15T08:25:56Z</time>
      </trkpt>
      <trkpt lat="45.44943" lon="4.50207">
        <ele>479.3544921875</ele>
        <time>2010-08-15T08:26:02Z</time>
      </trkpt>
      <trkpt lat="45.44949" lon="4.50206">
        <ele>480.31591796875</ele>
        <time>2010-08-15T08:26:08Z</time>
      </trkpt>
      <trkpt lat="45.44949" lon="4.50205">
        <ele>480.31591796875</ele>
        <time>2010-08-15T08:26:16Z</time>
      </trkpt>
      <trkpt lat="45.44951" lon="4.50204">
        <ele>481.7578125</ele>
        <time>2010-08-15T08:27:04Z</time>
      </trkpt>
      <trkpt lat="45.44951" lon="4.50205">
        <ele>484.1611328125</ele>
        <time>2010-08-15T08:27:23Z</time>
      </trkpt>
      <trkpt lat="45.44952" lon="4.50207">
        <ele>486.08374023438</ele>
        <time>2010-08-15T08:27:33Z</time>
      </trkpt>
      <trkpt lat="45.4495" lon="4.50206">
        <ele>488.9677734375</ele>
        <time>2010-08-15T08:27:50Z</time>
      </trkpt>
      <trkpt lat="45.44947" lon="4.50207">
        <ele>488.9677734375</ele>
        <time>2010-08-15T08:28:09Z</time>
      </trkpt>
      <trkpt lat="45.44944" lon="4.50208">
        <ele>488.48718261719</ele>
        <time>2010-08-15T08:28:11Z</time>
      </trkpt>
      <trkpt lat="45.44935" lon="4.50206">
        <ele>486.564453125</ele>
        <time>2010-08-15T08:28:16Z</time>
      </trkpt>
      <trkpt lat="45.44912" lon="4.50206">
        <ele>484.64184570312</ele>
        <time>2010-08-15T08:28:25Z</time>
      </trkpt>
      <trkpt lat="45.44891" lon="4.50207">
        <ele>483.68041992188</ele>
        <time>2010-08-15T08:28:32Z</time>
      </trkpt>
      <trkpt lat="45.44866" lon="4.50206">
        <ele>482.71923828125</ele>
        <time>2010-08-15T08:28:40Z</time>
      </trkpt>
      <trkpt lat="45.44846" lon="4.50201">
        <ele>482.71923828125</ele>
        <time>2010-08-15T08:28:47Z</time>
      </trkpt>
      <trkpt lat="45.44831" lon="4.50198">
        <ele>483.19982910156</ele>
        <time>2010-08-15T08:28:54Z</time>
      </trkpt>
      <trkpt lat="45.44818" lon="4.502">
        <ele>483.68041992188</ele>
        <time>2010-08-15T08:29:01Z</time>
      </trkpt>
      <trkpt lat="45.44802" lon="4.50204">
        <ele>484.1611328125</ele>
        <time>2010-08-15T08:29:08Z</time>
      </trkpt>
      <trkpt lat="45.44785" lon="4.50206">
        <ele>484.1611328125</ele>
        <time>2010-08-15T08:29:16Z</time>
      </trkpt>
      <trkpt lat="45.4477" lon="4.50201">
        <ele>485.12243652344</ele>
        <time>2010-08-15T08:29:23Z</time>
      </trkpt>
      <trkpt lat="45.44759" lon="4.50198">
        <ele>485.60302734375</ele>
        <time>2010-08-15T08:29:29Z</time>
      </trkpt>
      <trkpt lat="45.44747" lon="4.50199">
        <ele>486.564453125</ele>
        <time>2010-08-15T08:29:35Z</time>
      </trkpt>
      <trkpt lat="45.44731" lon="4.50201">
        <ele>488.48718261719</ele>
        <time>2010-08-15T08:29:41Z</time>
      </trkpt>
      <trkpt lat="45.44713" lon="4.50205">
        <ele>488.9677734375</ele>
        <time>2010-08-15T08:29:48Z</time>
      </trkpt>
      <trkpt lat="45.44698" lon="4.50209">
        <ele>490.40979003906</ele>
        <time>2010-08-15T08:29:55Z</time>
      </trkpt>
      <trkpt lat="45.44673" lon="4.50218">
        <ele>490.89038085938</ele>
        <time>2010-08-15T08:30:05Z</time>
      </trkpt>
      <trkpt lat="45.44657" lon="4.50223">
        <ele>491.85168457031</ele>
        <time>2010-08-15T08:30:12Z</time>
      </trkpt>
      <trkpt lat="45.44641" lon="4.50229">
        <ele>492.81298828125</ele>
        <time>2010-08-15T08:30:19Z</time>
      </trkpt>
      <trkpt lat="45.44619" lon="4.50235">
        <ele>494.73559570312</ele>
        <time>2010-08-15T08:30:28Z</time>
      </trkpt>
      <trkpt lat="45.44596" lon="4.50239">
        <ele>496.65832519531</ele>
        <time>2010-08-15T08:30:37Z</time>
      </trkpt>
      <trkpt lat="45.4458" lon="4.50242">
        <ele>498.10034179688</ele>
        <time>2010-08-15T08:30:44Z</time>
      </trkpt>
      <trkpt lat="45.44566" lon="4.50248">
        <ele>498.10034179688</ele>
        <time>2010-08-15T08:30:51Z</time>
      </trkpt>
      <trkpt lat="45.44552" lon="4.50255">
        <ele>498.58093261719</ele>
        <time>2010-08-15T08:30:58Z</time>
      </trkpt>
      <trkpt lat="45.44532" lon="4.50267">
        <ele>500.02294921875</ele>
        <time>2010-08-15T08:31:08Z</time>
      </trkpt>
      <trkpt lat="45.44521" lon="4.50273">
        <ele>500.98413085938</ele>
        <time>2010-08-15T08:31:14Z</time>
      </trkpt>
      <trkpt lat="45.44508" lon="4.5028">
        <ele>503.38745117188</ele>
        <time>2010-08-15T08:31:20Z</time>
      </trkpt>
      <trkpt lat="45.44492" lon="4.50288">
        <ele>504.82946777344</ele>
        <time>2010-08-15T08:31:27Z</time>
      </trkpt>
      <trkpt lat="45.44476" lon="4.50294">
        <ele>507.23278808594</ele>
        <time>2010-08-15T08:31:34Z</time>
      </trkpt>
      <trkpt lat="45.44459" lon="4.50303">
        <ele>507.71350097656</ele>
        <time>2010-08-15T08:31:41Z</time>
      </trkpt>
      <trkpt lat="45.44452" lon="4.50319">
        <ele>508.67468261719</ele>
        <time>2010-08-15T08:31:46Z</time>
      </trkpt>
      <trkpt lat="45.44441" lon="4.5035">
        <ele>509.63610839844</ele>
        <time>2010-08-15T08:31:54Z</time>
      </trkpt>
      <trkpt lat="45.44433" lon="4.50378">
        <ele>510.11669921875</ele>
        <time>2010-08-15T08:32:02Z</time>
      </trkpt>
      <trkpt lat="45.44427" lon="4.50398">
        <ele>511.55871582031</ele>
        <time>2010-08-15T08:32:08Z</time>
      </trkpt>
      <trkpt lat="45.44421" lon="4.50417">
        <ele>510.59729003906</ele>
        <time>2010-08-15T08:32:14Z</time>
      </trkpt>
      <trkpt lat="45.44414" lon="4.50438">
        <ele>511.07800292969</ele>
        <time>2010-08-15T08:32:20Z</time>
      </trkpt>
      <trkpt lat="45.44405" lon="4.50461">
        <ele>513.96203613281</ele>
        <time>2010-08-15T08:32:26Z</time>
      </trkpt>
      <trkpt lat="45.44396" lon="4.50486">
        <ele>515.88464355469</ele>
        <time>2010-08-15T08:32:33Z</time>
      </trkpt>
      <trkpt lat="45.44386" lon="4.50504">
        <ele>516.84594726562</ele>
        <time>2010-08-15T08:32:39Z</time>
      </trkpt>
      <trkpt lat="45.44375" lon="4.5052">
        <ele>518.28784179688</ele>
        <time>2010-08-15T08:32:45Z</time>
      </trkpt>
      <trkpt lat="45.44363" lon="4.5053">
        <ele>520.21057128906</ele>
        <time>2010-08-15T08:32:51Z</time>
      </trkpt>
      <trkpt lat="45.4435" lon="4.50539">
        <ele>521.17199707031</ele>
        <time>2010-08-15T08:32:57Z</time>
      </trkpt>
      <trkpt lat="45.44337" lon="4.50549">
        <ele>522.61389160156</ele>
        <time>2010-08-15T08:33:04Z</time>
      </trkpt>
      <trkpt lat="45.44334" lon="4.50551">
        <ele>524.05578613281</ele>
        <time>2010-08-15T08:33:06Z</time>
      </trkpt>
      <trkpt lat="45.4432" lon="4.50564">
        <ele>525.49780273438</ele>
        <time>2010-08-15T08:33:12Z</time>
      </trkpt>
      <trkpt lat="45.44312" lon="4.50569">
        <ele>527.90100097656</ele>
        <time>2010-08-15T08:33:16Z</time>
      </trkpt>
      <trkpt lat="45.4431" lon="4.50569">
        <ele>528.3818359375</ele>
        <time>2010-08-15T08:33:17Z</time>
      </trkpt>
      <trkpt lat="45.44302" lon="4.50575">
        <ele>529.82373046875</ele>
        <time>2010-08-15T08:33:21Z</time>
      </trkpt>
      <trkpt lat="45.44292" lon="4.50585">
        <ele>533.18835449219</ele>
        <time>2010-08-15T08:33:27Z</time>
      </trkpt>
      <trkpt lat="45.44291" lon="4.50589">
        <ele>537.03369140625</ele>
        <time>2010-08-15T08:33:31Z</time>
      </trkpt>
      <trkpt lat="45.44288" lon="4.50594">
        <ele>536.07238769531</ele>
        <time>2010-08-15T08:33:36Z</time>
      </trkpt>
      <trkpt lat="45.44282" lon="4.50597">
        <ele>535.59155273438</ele>
        <time>2010-08-15T08:33:40Z</time>
      </trkpt>
      <trkpt lat="45.44276" lon="4.50599">
        <ele>536.07238769531</ele>
        <time>2010-08-15T08:33:43Z</time>
      </trkpt>
      <trkpt lat="45.44271" lon="4.50607">
        <ele>533.6689453125</ele>
        <time>2010-08-15T08:33:47Z</time>
      </trkpt>
      <trkpt lat="45.44255" lon="4.5062">
        <ele>532.22705078125</ele>
        <time>2010-08-15T08:33:52Z</time>
      </trkpt>
      <trkpt lat="45.44245" lon="4.50629">
        <ele>530.30444335938</ele>
        <time>2010-08-15T08:33:56Z</time>
      </trkpt>
      <trkpt lat="45.44233" lon="4.50639">
        <ele>528.3818359375</ele>
        <time>2010-08-15T08:34:03Z</time>
      </trkpt>
      <trkpt lat="45.4423" lon="4.5064">
        <ele>528.3818359375</ele>
        <time>2010-08-15T08:34:05Z</time>
      </trkpt>
      <trkpt lat="45.44225" lon="4.5064">
        <ele>528.3818359375</ele>
        <time>2010-08-15T08:34:08Z</time>
      </trkpt>
      <trkpt lat="45.44218" lon="4.50643">
        <ele>530.78515625</ele>
        <time>2010-08-15T08:34:12Z</time>
      </trkpt>
      <trkpt lat="45.44209" lon="4.50645">
        <ele>534.63037109375</ele>
        <time>2010-08-15T08:34:18Z</time>
      </trkpt>
      <trkpt lat="45.44201" lon="4.50647">
        <ele>536.07238769531</ele>
        <time>2010-08-15T08:34:24Z</time>
      </trkpt>
      <trkpt lat="45.44201" lon="4.50647">
        <ele>536.55310058594</ele>
        <time>2010-08-15T08:34:25Z</time>
      </trkpt>
      <trkpt lat="45.44191" lon="4.50646">
        <ele>539.91760253906</ele>
        <time>2010-08-15T08:34:31Z</time>
      </trkpt>
      <trkpt lat="45.4418" lon="4.50649">
        <ele>543.28210449219</ele>
        <time>2010-08-15T08:34:38Z</time>
      </trkpt>
      <trkpt lat="45.44174" lon="4.50653">
        <ele>545.685546875</ele>
        <time>2010-08-15T08:34:45Z</time>
      </trkpt>
      <trkpt lat="45.44165" lon="4.50654">
        <ele>549.05004882812</ele>
        <time>2010-08-15T08:35:07Z</time>
      </trkpt>
      <trkpt lat="45.44164" lon="4.50654">
        <ele>547.60815429688</ele>
        <time>2010-08-15T08:35:17Z</time>
      </trkpt>
      <trkpt lat="45.44162" lon="4.50654">
        <ele>545.685546875</ele>
        <time>2010-08-15T08:35:27Z</time>
      </trkpt>
      <trkpt lat="45.44164" lon="4.50655">
        <ele>546.64685058594</ele>
        <time>2010-08-15T08:35:40Z</time>
      </trkpt>
      <trkpt lat="45.44161" lon="4.50651">
        <ele>545.685546875</ele>
        <time>2010-08-15T08:36:07Z</time>
      </trkpt>
      <trkpt lat="45.44161" lon="4.50651">
        <ele>544.24365234375</ele>
        <time>2010-08-15T08:36:15Z</time>
      </trkpt>
      <trkpt lat="45.4416" lon="4.50651">
        <ele>545.20483398438</ele>
        <time>2010-08-15T08:36:24Z</time>
      </trkpt>
      <trkpt lat="45.44157" lon="4.50661">
        <ele>545.685546875</ele>
        <time>2010-08-15T08:36:37Z</time>
      </trkpt>
      <trkpt lat="45.44149" lon="4.5068">
        <ele>543.76281738281</ele>
        <time>2010-08-15T08:36:41Z</time>
      </trkpt>
      <trkpt lat="45.44138" lon="4.50695">
        <ele>542.32092285156</ele>
        <time>2010-08-15T08:36:45Z</time>
      </trkpt>
      <trkpt lat="45.44124" lon="4.50705">
        <ele>541.35949707031</ele>
        <time>2010-08-15T08:36:49Z</time>
      </trkpt>
      <trkpt lat="45.44103" lon="4.50716">
        <ele>540.87890625</ele>
        <time>2010-08-15T08:36:55Z</time>
      </trkpt>
      <trkpt lat="45.4409" lon="4.50726">
        <ele>541.84020996094</ele>
        <time>2010-08-15T08:36:59Z</time>
      </trkpt>
      <trkpt lat="45.44079" lon="4.50731">
        <ele>543.76281738281</ele>
        <time>2010-08-15T08:37:02Z</time>
      </trkpt>
      <trkpt lat="45.44061" lon="4.50739">
        <ele>541.35949707031</ele>
        <time>2010-08-15T08:37:07Z</time>
      </trkpt>
      <trkpt lat="45.44051" lon="4.50744">
        <ele>541.84020996094</ele>
        <time>2010-08-15T08:37:09Z</time>
      </trkpt>
      <trkpt lat="45.44034" lon="4.50753">
        <ele>541.35949707031</ele>
        <time>2010-08-15T08:37:13Z</time>
      </trkpt>
      <trkpt lat="45.44012" lon="4.50762">
        <ele>537.99499511719</ele>
        <time>2010-08-15T08:37:18Z</time>
      </trkpt>
      <trkpt lat="45.43993" lon="4.50766">
        <ele>537.99499511719</ele>
        <time>2010-08-15T08:37:22Z</time>
      </trkpt>
      <trkpt lat="45.43983" lon="4.50766">
        <ele>535.59155273438</ele>
        <time>2010-08-15T08:37:24Z</time>
      </trkpt>
      <trkpt lat="45.4395" lon="4.50756">
        <ele>534.14965820312</ele>
        <time>2010-08-15T08:37:31Z</time>
      </trkpt>
      <trkpt lat="45.43936" lon="4.50746">
        <ele>533.18835449219</ele>
        <time>2010-08-15T08:37:34Z</time>
      </trkpt>
      <trkpt lat="45.43911" lon="4.5072">
        <ele>530.30444335938</ele>
        <time>2010-08-15T08:37:40Z</time>
      </trkpt>
      <trkpt lat="45.43898" lon="4.50707">
        <ele>528.86254882812</ele>
        <time>2010-08-15T08:37:43Z</time>
      </trkpt>
      <trkpt lat="45.43881" lon="4.50679">
        <ele>525.49780273438</ele>
        <time>2010-08-15T08:37:48Z</time>
      </trkpt>
      <trkpt lat="45.43872" lon="4.50663">
        <ele>525.49780273438</ele>
        <time>2010-08-15T08:37:51Z</time>
      </trkpt>
      <trkpt lat="45.4386" lon="4.50634">
        <ele>527.42041015625</ele>
        <time>2010-08-15T08:37:56Z</time>
      </trkpt>
      <trkpt lat="45.43843" lon="4.50622">
        <ele>527.42041015625</ele>
        <time>2010-08-15T08:38:00Z</time>
      </trkpt>
      <trkpt lat="45.43827" lon="4.50612">
        <ele>527.90100097656</ele>
        <time>2010-08-15T08:38:04Z</time>
      </trkpt>
      <trkpt lat="45.43805" lon="4.50594">
        <ele>527.90100097656</ele>
        <time>2010-08-15T08:38:09Z</time>
      </trkpt>
      <trkpt lat="45.43796" lon="4.50587">
        <ele>526.93981933594</ele>
        <time>2010-08-15T08:38:11Z</time>
      </trkpt>
      <trkpt lat="45.43786" lon="4.50579">
        <ele>525.97839355469</ele>
        <time>2010-08-15T08:38:14Z</time>
      </trkpt>
      <trkpt lat="45.43776" lon="4.50573">
        <ele>525.01721191406</ele>
        <time>2010-08-15T08:38:17Z</time>
      </trkpt>
      <trkpt lat="45.43758" lon="4.50557">
        <ele>524.53649902344</ele>
        <time>2010-08-15T08:38:23Z</time>
      </trkpt>
      <trkpt lat="45.43739" lon="4.50548">
        <ele>523.5751953125</ele>
        <time>2010-08-15T08:38:27Z</time>
      </trkpt>
      <trkpt lat="45.43727" lon="4.50539">
        <ele>522.61389160156</ele>
        <time>2010-08-15T08:38:30Z</time>
      </trkpt>
      <trkpt lat="45.43707" lon="4.50527">
        <ele>521.65258789062</ele>
        <time>2010-08-15T08:38:34Z</time>
      </trkpt>
      <trkpt lat="45.43686" lon="4.50519">
        <ele>520.21057128906</ele>
        <time>2010-08-15T08:38:38Z</time>
      </trkpt>
      <trkpt lat="45.43662" lon="4.50514">
        <ele>520.21057128906</ele>
        <time>2010-08-15T08:38:42Z</time>
      </trkpt>
      <trkpt lat="45.43648" lon="4.50512">
        <ele>517.32666015625</ele>
        <time>2010-08-15T08:38:44Z</time>
      </trkpt>
      <trkpt lat="45.43617" lon="4.50505">
        <ele>514.44262695312</ele>
        <time>2010-08-15T08:38:49Z</time>
      </trkpt>
      <trkpt lat="45.43601" lon="4.50507">
        <ele>517.80725097656</ele>
        <time>2010-08-15T08:38:53Z</time>
      </trkpt>
      <trkpt lat="45.43599" lon="4.50522">
        <ele>521.17199707031</ele>
        <time>2010-08-15T08:38:59Z</time>
      </trkpt>
      <trkpt lat="45.43607" lon="4.50536">
        <ele>521.17199707031</ele>
        <time>2010-08-15T08:39:05Z</time>
      </trkpt>
      <trkpt lat="45.43616" lon="4.50545">
        <ele>518.28784179688</ele>
        <time>2010-08-15T08:39:11Z</time>
      </trkpt>
      <trkpt lat="45.43622" lon="4.50553">
        <ele>518.28784179688</ele>
        <time>2010-08-15T08:39:16Z</time>
      </trkpt>
      <trkpt lat="45.43629" lon="4.50565">
        <ele>518.28784179688</ele>
        <time>2010-08-15T08:39:22Z</time>
      </trkpt>
      <trkpt lat="45.43632" lon="4.50572">
        <ele>518.7685546875</ele>
        <time>2010-08-15T08:39:26Z</time>
      </trkpt>
      <trkpt lat="45.43636" lon="4.50583">
        <ele>520.69128417969</ele>
        <time>2010-08-15T08:39:31Z</time>
      </trkpt>
      <trkpt lat="45.4364" lon="4.50596">
        <ele>521.65258789062</ele>
        <time>2010-08-15T08:39:38Z</time>
      </trkpt>
      <trkpt lat="45.43647" lon="4.50611">
        <ele>522.61389160156</ele>
        <time>2010-08-15T08:39:45Z</time>
      </trkpt>
      <trkpt lat="45.43649" lon="4.5062">
        <ele>523.09460449219</ele>
        <time>2010-08-15T08:39:49Z</time>
      </trkpt>
      <trkpt lat="45.43651" lon="4.50623">
        <ele>524.05578613281</ele>
        <time>2010-08-15T08:39:51Z</time>
      </trkpt>
      <trkpt lat="45.43655" lon="4.50628">
        <ele>525.01721191406</ele>
        <time>2010-08-15T08:39:55Z</time>
      </trkpt>
      <trkpt lat="45.43658" lon="4.50633">
        <ele>526.45910644531</ele>
        <time>2010-08-15T08:39:58Z</time>
      </trkpt>
      <trkpt lat="45.43665" lon="4.50647">
        <ele>529.82373046875</ele>
        <time>2010-08-15T08:40:06Z</time>
      </trkpt>
      <trkpt lat="45.4367" lon="4.50659">
        <ele>531.74633789062</ele>
        <time>2010-08-15T08:40:12Z</time>
      </trkpt>
      <trkpt lat="45.43673" lon="4.50669">
        <ele>532.22705078125</ele>
        <time>2010-08-15T08:40:17Z</time>
      </trkpt>
      <trkpt lat="45.43675" lon="4.50683">
        <ele>533.18835449219</ele>
        <time>2010-08-15T08:40:24Z</time>
      </trkpt>
      <trkpt lat="45.43676" lon="4.50687">
        <ele>532.70776367188</ele>
        <time>2010-08-15T08:40:26Z</time>
      </trkpt>
      <trkpt lat="45.43678" lon="4.50702">
        <ele>534.14965820312</ele>
        <time>2010-08-15T08:40:33Z</time>
      </trkpt>
      <trkpt lat="45.43678" lon="4.50709">
        <ele>534.63037109375</ele>
        <time>2010-08-15T08:40:37Z</time>
      </trkpt>
      <trkpt lat="45.43677" lon="4.50721">
        <ele>532.70776367188</ele>
        <time>2010-08-15T08:40:45Z</time>
      </trkpt>
      <trkpt lat="45.43677" lon="4.50726">
        <ele>532.70776367188</ele>
        <time>2010-08-15T08:40:48Z</time>
      </trkpt>
      <trkpt lat="45.43678" lon="4.50745">
        <ele>533.18835449219</ele>
        <time>2010-08-15T08:40:57Z</time>
      </trkpt>
      <trkpt lat="45.43679" lon="4.50753">
        <ele>534.14965820312</ele>
        <time>2010-08-15T08:41:01Z</time>
      </trkpt>
      <trkpt lat="45.4368" lon="4.50758">
        <ele>536.07238769531</ele>
        <time>2010-08-15T08:41:09Z</time>
      </trkpt>
      <trkpt lat="45.43681" lon="4.50762">
        <ele>537.99499511719</ele>
        <time>2010-08-15T08:41:17Z</time>
      </trkpt>
      <trkpt lat="45.43681" lon="4.50763">
        <ele>539.91760253906</ele>
        <time>2010-08-15T08:41:25Z</time>
      </trkpt>
      <trkpt lat="45.43682" lon="4.50764">
        <ele>542.32092285156</ele>
        <time>2010-08-15T08:41:36Z</time>
      </trkpt>
      <trkpt lat="45.43681" lon="4.50766">
        <ele>542.32092285156</ele>
        <time>2010-08-15T08:41:50Z</time>
      </trkpt>
      <trkpt lat="45.4368" lon="4.50771">
        <ele>541.84020996094</ele>
        <time>2010-08-15T08:41:56Z</time>
      </trkpt>
      <trkpt lat="45.43679" lon="4.50778">
        <ele>540.87890625</ele>
        <time>2010-08-15T08:42:02Z</time>
      </trkpt>
      <trkpt lat="45.43678" lon="4.50779">
        <ele>539.43688964844</ele>
        <time>2010-08-15T08:42:08Z</time>
      </trkpt>
      <trkpt lat="45.43678" lon="4.5078">
        <ele>539.43688964844</ele>
        <time>2010-08-15T08:42:09Z</time>
      </trkpt>
      <trkpt lat="45.43677" lon="4.50794">
        <ele>540.39831542969</ele>
        <time>2010-08-15T08:42:16Z</time>
      </trkpt>
      <trkpt lat="45.43676" lon="4.50798">
        <ele>541.35949707031</ele>
        <time>2010-08-15T08:42:18Z</time>
      </trkpt>
      <trkpt lat="45.43675" lon="4.50808">
        <ele>541.84020996094</ele>
        <time>2010-08-15T08:42:25Z</time>
      </trkpt>
      <trkpt lat="45.43675" lon="4.50814">
        <ele>543.28210449219</ele>
        <time>2010-08-15T08:42:31Z</time>
      </trkpt>
      <trkpt lat="45.43674" lon="4.50818">
        <ele>544.24365234375</ele>
        <time>2010-08-15T08:42:36Z</time>
      </trkpt>
      <trkpt lat="45.43671" lon="4.50825">
        <ele>543.76281738281</ele>
        <time>2010-08-15T08:42:41Z</time>
      </trkpt>
      <trkpt lat="45.43671" lon="4.50828">
        <ele>544.24365234375</ele>
        <time>2010-08-15T08:42:42Z</time>
      </trkpt>
      <trkpt lat="45.43666" lon="4.50843">
        <ele>548.0888671875</ele>
        <time>2010-08-15T08:42:49Z</time>
      </trkpt>
      <trkpt lat="45.43661" lon="4.50856">
        <ele>550.4921875</ele>
        <time>2010-08-15T08:42:55Z</time>
      </trkpt>
      <trkpt lat="45.43657" lon="4.50864">
        <ele>551.45336914062</ele>
        <time>2010-08-15T08:42:59Z</time>
      </trkpt>
      <trkpt lat="45.4365" lon="4.50882">
        <ele>552.89526367188</ele>
        <time>2010-08-15T08:43:06Z</time>
      </trkpt>
      <trkpt lat="45.4364" lon="4.509">
        <ele>554.81787109375</ele>
        <time>2010-08-15T08:43:13Z</time>
      </trkpt>
      <trkpt lat="45.43629" lon="4.50912">
        <ele>554.81787109375</ele>
        <time>2010-08-15T08:43:19Z</time>
      </trkpt>
      <trkpt lat="45.43618" lon="4.50916">
        <ele>553.85668945312</ele>
        <time>2010-08-15T08:43:24Z</time>
      </trkpt>
      <trkpt lat="45.43613" lon="4.50914">
        <ele>553.85668945312</ele>
        <time>2010-08-15T08:43:27Z</time>
      </trkpt>
      <trkpt lat="45.43612" lon="4.50916">
        <ele>555.29858398438</ele>
        <time>2010-08-15T08:43:35Z</time>
      </trkpt>
      <trkpt lat="45.43612" lon="4.50918">
        <ele>556.74072265625</ele>
        <time>2010-08-15T08:43:43Z</time>
      </trkpt>
      <trkpt lat="45.43612" lon="4.50918">
        <ele>557.22143554688</ele>
        <time>2010-08-15T08:43:52Z</time>
      </trkpt>
      <trkpt lat="45.43612" lon="4.50919">
        <ele>558.18286132812</ele>
        <time>2010-08-15T08:44:01Z</time>
      </trkpt>
      <trkpt lat="45.43612" lon="4.50919">
        <ele>558.18286132812</ele>
        <time>2010-08-15T08:44:09Z</time>
      </trkpt>
      <trkpt lat="45.43608" lon="4.5092">
        <ele>559.14404296875</ele>
        <time>2010-08-15T08:44:40Z</time>
      </trkpt>
      <trkpt lat="45.43593" lon="4.50919">
        <ele>559.62475585938</ele>
        <time>2010-08-15T08:44:48Z</time>
      </trkpt>
      <trkpt lat="45.43575" lon="4.50923">
        <ele>560.10522460938</ele>
        <time>2010-08-15T08:44:56Z</time>
      </trkpt>
      <trkpt lat="45.4355" lon="4.50936">
        <ele>558.18286132812</ele>
        <time>2010-08-15T08:45:04Z</time>
      </trkpt>
      <trkpt lat="45.43526" lon="4.5095">
        <ele>556.26000976562</ele>
        <time>2010-08-15T08:45:11Z</time>
      </trkpt>
      <trkpt lat="45.435" lon="4.50962">
        <ele>554.33740234375</ele>
        <time>2010-08-15T08:45:19Z</time>
      </trkpt>
      <trkpt lat="45.43475" lon="4.50972">
        <ele>553.3759765625</ele>
        <time>2010-08-15T08:45:26Z</time>
      </trkpt>
      <trkpt lat="45.43449" lon="4.50979">
        <ele>554.33740234375</ele>
        <time>2010-08-15T08:45:33Z</time>
      </trkpt>
      <trkpt lat="45.43426" lon="4.50992">
        <ele>557.7021484375</ele>
        <time>2010-08-15T08:45:39Z</time>
      </trkpt>
      <trkpt lat="45.43422" lon="4.50994">
        <ele>559.62475585938</ele>
        <time>2010-08-15T08:45:40Z</time>
      </trkpt>
      <trkpt lat="45.43394" lon="4.51009">
        <ele>563.95043945312</ele>
        <time>2010-08-15T08:45:48Z</time>
      </trkpt>
      <trkpt lat="45.43382" lon="4.51018">
        <ele>564.43115234375</ele>
        <time>2010-08-15T08:45:53Z</time>
      </trkpt>
      <trkpt lat="45.43367" lon="4.51025">
        <ele>561.54736328125</ele>
        <time>2010-08-15T08:45:59Z</time>
      </trkpt>
      <trkpt lat="45.43352" lon="4.51034">
        <ele>563.95043945312</ele>
        <time>2010-08-15T08:46:04Z</time>
      </trkpt>
      <trkpt lat="45.4334" lon="4.51042">
        <ele>567.31518554688</ele>
        <time>2010-08-15T08:46:10Z</time>
      </trkpt>
      <trkpt lat="45.43327" lon="4.51047">
        <ele>568.75708007812</ele>
        <time>2010-08-15T08:46:15Z</time>
      </trkpt>
      <trkpt lat="45.43306" lon="4.51055">
        <ele>572.12182617188</ele>
        <time>2010-08-15T08:46:22Z</time>
      </trkpt>
      <trkpt lat="45.43285" lon="4.51053">
        <ele>572.6025390625</ele>
        <time>2010-08-15T08:46:29Z</time>
      </trkpt>
      <trkpt lat="45.4326" lon="4.51048">
        <ele>574.04443359375</ele>
        <time>2010-08-15T08:46:38Z</time>
      </trkpt>
      <trkpt lat="45.43235" lon="4.5104">
        <ele>577.4091796875</ele>
        <time>2010-08-15T08:46:48Z</time>
      </trkpt>
      <trkpt lat="45.43214" lon="4.51031">
        <ele>579.81225585938</ele>
        <time>2010-08-15T08:46:57Z</time>
      </trkpt>
      <trkpt lat="45.432" lon="4.51026">
        <ele>581.73486328125</ele>
        <time>2010-08-15T08:47:03Z</time>
      </trkpt>
      <trkpt lat="45.43187" lon="4.51022">
        <ele>584.13818359375</ele>
        <time>2010-08-15T08:47:09Z</time>
      </trkpt>
      <trkpt lat="45.43176" lon="4.51019">
        <ele>586.06079101562</ele>
        <time>2010-08-15T08:47:15Z</time>
      </trkpt>
      <trkpt lat="45.43159" lon="4.51015">
        <ele>587.9833984375</ele>
        <time>2010-08-15T08:47:22Z</time>
      </trkpt>
      <trkpt lat="45.43144" lon="4.51012">
        <ele>588.94506835938</ele>
        <time>2010-08-15T08:47:29Z</time>
      </trkpt>
      <trkpt lat="45.43124" lon="4.51011">
        <ele>591.34814453125</ele>
        <time>2010-08-15T08:47:38Z</time>
      </trkpt>
      <trkpt lat="45.43101" lon="4.51007">
        <ele>592.3095703125</ele>
        <time>2010-08-15T08:47:48Z</time>
      </trkpt>
      <trkpt lat="45.43084" lon="4.51005">
        <ele>594.23217773438</ele>
        <time>2010-08-15T08:47:56Z</time>
      </trkpt>
      <trkpt lat="45.43065" lon="4.50999">
        <ele>597.5966796875</ele>
        <time>2010-08-15T08:48:06Z</time>
      </trkpt>
      <trkpt lat="45.43046" lon="4.5099">
        <ele>600.48071289062</ele>
        <time>2010-08-15T08:48:16Z</time>
      </trkpt>
      <trkpt lat="45.4303" lon="4.50984">
        <ele>602.40307617188</ele>
        <time>2010-08-15T08:48:24Z</time>
      </trkpt>
      <trkpt lat="45.43018" lon="4.50979">
        <ele>603.36450195312</ele>
        <time>2010-08-15T08:48:30Z</time>
      </trkpt>
      <trkpt lat="45.43007" lon="4.50975">
        <ele>603.84521484375</ele>
        <time>2010-08-15T08:48:37Z</time>
      </trkpt>
      <trkpt lat="45.42992" lon="4.50974">
        <ele>605.76806640625</ele>
        <time>2010-08-15T08:48:44Z</time>
      </trkpt>
      <trkpt lat="45.4298" lon="4.50977">
        <ele>607.69067382812</ele>
        <time>2010-08-15T08:48:50Z</time>
      </trkpt>
      <trkpt lat="45.42968" lon="4.50983">
        <ele>607.69067382812</ele>
        <time>2010-08-15T08:48:56Z</time>
      </trkpt>
      <trkpt lat="45.42956" lon="4.50999">
        <ele>606.72924804688</ele>
        <time>2010-08-15T08:49:03Z</time>
      </trkpt>
      <trkpt lat="45.42948" lon="4.5102">
        <ele>608.17138671875</ele>
        <time>2010-08-15T08:49:10Z</time>
      </trkpt>
      <trkpt lat="45.42941" lon="4.51053">
        <ele>609.61328125</ele>
        <time>2010-08-15T08:49:20Z</time>
      </trkpt>
      <trkpt lat="45.42933" lon="4.51085">
        <ele>610.57446289062</ele>
        <time>2010-08-15T08:49:29Z</time>
      </trkpt>
      <trkpt lat="45.42929" lon="4.51095">
        <ele>611.53588867188</ele>
        <time>2010-08-15T08:49:33Z</time>
      </trkpt>
      <trkpt lat="45.42923" lon="4.51106">
        <ele>612.4970703125</ele>
        <time>2010-08-15T08:49:38Z</time>
      </trkpt>
      <trkpt lat="45.42915" lon="4.51119">
        <ele>612.4970703125</ele>
        <time>2010-08-15T08:49:44Z</time>
      </trkpt>
      <trkpt lat="45.42904" lon="4.51134">
        <ele>612.97778320312</ele>
        <time>2010-08-15T08:49:51Z</time>
      </trkpt>
      <trkpt lat="45.42884" lon="4.51153">
        <ele>612.97778320312</ele>
        <time>2010-08-15T08:49:59Z</time>
      </trkpt>
      <trkpt lat="45.4286" lon="4.51169">
        <ele>612.4970703125</ele>
        <time>2010-08-15T08:50:07Z</time>
      </trkpt>
      <trkpt lat="45.4283" lon="4.51177">
        <ele>612.0166015625</ele>
        <time>2010-08-15T08:50:16Z</time>
      </trkpt>
      <trkpt lat="45.42806" lon="4.51177">
        <ele>612.4970703125</ele>
        <time>2010-08-15T08:50:24Z</time>
      </trkpt>
      <trkpt lat="45.42789" lon="4.51175">
        <ele>612.4970703125</ele>
        <time>2010-08-15T08:50:30Z</time>
      </trkpt>
      <trkpt lat="45.42766" lon="4.51166">
        <ele>612.0166015625</ele>
        <time>2010-08-15T08:50:38Z</time>
      </trkpt>
      <trkpt lat="45.42747" lon="4.51152">
        <ele>611.53588867188</ele>
        <time>2010-08-15T08:50:44Z</time>
      </trkpt>
      <trkpt lat="45.42732" lon="4.51134">
        <ele>610.57446289062</ele>
        <time>2010-08-15T08:50:49Z</time>
      </trkpt>
      <trkpt lat="45.42699" lon="4.51101">
        <ele>610.09375</ele>
        <time>2010-08-15T08:50:58Z</time>
      </trkpt>
      <trkpt lat="45.42667" lon="4.51069">
        <ele>609.13256835938</ele>
        <time>2010-08-15T08:51:07Z</time>
      </trkpt>
      <trkpt lat="45.42644" lon="4.51044">
        <ele>609.61328125</ele>
        <time>2010-08-15T08:51:15Z</time>
      </trkpt>
      <trkpt lat="45.42635" lon="4.51032">
        <ele>610.57446289062</ele>
        <time>2010-08-15T08:51:21Z</time>
      </trkpt>
      <trkpt lat="45.42627" lon="4.51019">
        <ele>612.0166015625</ele>
        <time>2010-08-15T08:51:26Z</time>
      </trkpt>
      <trkpt lat="45.42617" lon="4.50998">
        <ele>613.93896484375</ele>
        <time>2010-08-15T08:51:33Z</time>
      </trkpt>
      <trkpt lat="45.42604" lon="4.50976">
        <ele>614.900390625</ele>
        <time>2010-08-15T08:51:40Z</time>
      </trkpt>
      <trkpt lat="45.4259" lon="4.50958">
        <ele>616.82299804688</ele>
        <time>2010-08-15T08:51:46Z</time>
      </trkpt>
      <trkpt lat="45.42572" lon="4.50938">
        <ele>617.7841796875</ele>
        <time>2010-08-15T08:51:52Z</time>
      </trkpt>
      <trkpt lat="45.42553" lon="4.50918">
        <ele>617.3037109375</ele>
        <time>2010-08-15T08:51:59Z</time>
      </trkpt>
      <trkpt lat="45.42535" lon="4.50902">
        <ele>618.26489257812</ele>
        <time>2010-08-15T08:52:06Z</time>
      </trkpt>
      <trkpt lat="45.42518" lon="4.50894">
        <ele>618.26489257812</ele>
        <time>2010-08-15T08:52:11Z</time>
      </trkpt>
      <trkpt lat="45.42492" lon="4.50894">
        <ele>617.3037109375</ele>
        <time>2010-08-15T08:52:18Z</time>
      </trkpt>
      <trkpt lat="45.42465" lon="4.50901">
        <ele>617.3037109375</ele>
        <time>2010-08-15T08:52:26Z</time>
      </trkpt>
      <trkpt lat="45.42449" lon="4.50901">
        <ele>619.22631835938</ele>
        <time>2010-08-15T08:52:32Z</time>
      </trkpt>
      <trkpt lat="45.42436" lon="4.50901">
        <ele>620.66845703125</ele>
        <time>2010-08-15T08:52:38Z</time>
      </trkpt>
      <trkpt lat="45.42425" lon="4.50901">
        <ele>621.14916992188</ele>
        <time>2010-08-15T08:52:44Z</time>
      </trkpt>
      <trkpt lat="45.42415" lon="4.50902">
        <ele>623.55249023438</ele>
        <time>2010-08-15T08:52:49Z</time>
      </trkpt>
      <trkpt lat="45.42403" lon="4.50906">
        <ele>625.95556640625</ele>
        <time>2010-08-15T08:52:56Z</time>
      </trkpt>
      <trkpt lat="45.42395" lon="4.5091">
        <ele>626.9169921875</ele>
        <time>2010-08-15T08:53:02Z</time>
      </trkpt>
      <trkpt lat="45.42384" lon="4.50915">
        <ele>626.43627929688</ele>
        <time>2010-08-15T08:53:08Z</time>
      </trkpt>
      <trkpt lat="45.42374" lon="4.50918">
        <ele>627.87817382812</ele>
        <time>2010-08-15T08:53:14Z</time>
      </trkpt>
      <trkpt lat="45.42364" lon="4.50922">
        <ele>628.35888671875</ele>
        <time>2010-08-15T08:53:20Z</time>
      </trkpt>
      <trkpt lat="45.42354" lon="4.50922">
        <ele>629.32006835938</ele>
        <time>2010-08-15T08:53:26Z</time>
      </trkpt>
      <trkpt lat="45.42354" lon="4.50923">
        <ele>630.28149414062</ele>
        <time>2010-08-15T08:53:35Z</time>
      </trkpt>
      <trkpt lat="45.42352" lon="4.50923">
        <ele>630.76220703125</ele>
        <time>2010-08-15T08:53:51Z</time>
      </trkpt>
      <trkpt lat="45.42344" lon="4.50915">
        <ele>631.72338867188</ele>
        <time>2010-08-15T08:53:56Z</time>
      </trkpt>
      <trkpt lat="45.42336" lon="4.50885">
        <ele>632.68481445312</ele>
        <time>2010-08-15T08:54:05Z</time>
      </trkpt>
      <trkpt lat="45.42333" lon="4.50858">
        <ele>634.12670898438</ele>
        <time>2010-08-15T08:54:12Z</time>
      </trkpt>
      <trkpt lat="45.42338" lon="4.50846">
        <ele>635.56860351562</ele>
        <time>2010-08-15T08:54:16Z</time>
      </trkpt>
      <trkpt lat="45.42341" lon="4.50832">
        <ele>637.0107421875</ele>
        <time>2010-08-15T08:54:21Z</time>
      </trkpt>
      <trkpt lat="45.4234" lon="4.50807">
        <ele>637.0107421875</ele>
        <time>2010-08-15T08:54:27Z</time>
      </trkpt>
      <trkpt lat="45.42335" lon="4.50772">
        <ele>637.49145507812</ele>
        <time>2010-08-15T08:54:36Z</time>
      </trkpt>
      <trkpt lat="45.42329" lon="4.50757">
        <ele>638.45288085938</ele>
        <time>2010-08-15T08:54:41Z</time>
      </trkpt>
      <trkpt lat="45.42316" lon="4.50743">
        <ele>637.97216796875</ele>
        <time>2010-08-15T08:54:46Z</time>
      </trkpt>
      <trkpt lat="45.42297" lon="4.50732">
        <ele>638.93359375</ele>
        <time>2010-08-15T08:54:52Z</time>
      </trkpt>
      <trkpt lat="45.42276" lon="4.50721">
        <ele>640.37548828125</ele>
        <time>2010-08-15T08:54:58Z</time>
      </trkpt>
      <trkpt lat="45.42256" lon="4.50707">
        <ele>640.37548828125</ele>
        <time>2010-08-15T08:55:05Z</time>
      </trkpt>
      <trkpt lat="45.42246" lon="4.507">
        <ele>642.29809570312</ele>
        <time>2010-08-15T08:55:09Z</time>
      </trkpt>
      <trkpt lat="45.42231" lon="4.50689">
        <ele>644.220703125</ele>
        <time>2010-08-15T08:55:15Z</time>
      </trkpt>
      <trkpt lat="45.42216" lon="4.50679">
        <ele>645.66259765625</ele>
        <time>2010-08-15T08:55:21Z</time>
      </trkpt>
      <trkpt lat="45.42206" lon="4.50671">
        <ele>646.6240234375</ele>
        <time>2010-08-15T08:55:25Z</time>
      </trkpt>
      <trkpt lat="45.42193" lon="4.50673">
        <ele>647.1044921875</ele>
        <time>2010-08-15T08:55:30Z</time>
      </trkpt>
      <trkpt lat="45.42186" lon="4.50681">
        <ele>648.06591796875</ele>
        <time>2010-08-15T08:55:34Z</time>
      </trkpt>
      <trkpt lat="45.42177" lon="4.50699">
        <ele>648.54638671875</ele>
        <time>2010-08-15T08:55:42Z</time>
      </trkpt>
      <trkpt lat="45.42168" lon="4.50711">
        <ele>651.9111328125</ele>
        <time>2010-08-15T08:55:48Z</time>
      </trkpt>
      <trkpt lat="45.42159" lon="4.50722">
        <ele>654.79516601562</ele>
        <time>2010-08-15T08:55:54Z</time>
      </trkpt>
      <trkpt lat="45.42149" lon="4.50733">
        <ele>656.23706054688</ele>
        <time>2010-08-15T08:56:00Z</time>
      </trkpt>
      <trkpt lat="45.42138" lon="4.50742">
        <ele>657.19848632812</ele>
        <time>2010-08-15T08:56:07Z</time>
      </trkpt>
      <trkpt lat="45.42125" lon="4.50745">
        <ele>657.19848632812</ele>
        <time>2010-08-15T08:56:14Z</time>
      </trkpt>
      <trkpt lat="45.42116" lon="4.50745">
        <ele>657.67919921875</ele>
        <time>2010-08-15T08:56:19Z</time>
      </trkpt>
      <trkpt lat="45.42102" lon="4.50744">
        <ele>658.64038085938</ele>
        <time>2010-08-15T08:56:27Z</time>
      </trkpt>
      <trkpt lat="45.42088" lon="4.50742">
        <ele>659.60180664062</ele>
        <time>2010-08-15T08:56:34Z</time>
      </trkpt>
      <trkpt lat="45.42072" lon="4.50737">
        <ele>661.5244140625</ele>
        <time>2010-08-15T08:56:43Z</time>
      </trkpt>
      <trkpt lat="45.42057" lon="4.50731">
        <ele>662.48559570312</ele>
        <time>2010-08-15T08:56:51Z</time>
      </trkpt>
      <trkpt lat="45.42043" lon="4.5072">
        <ele>663.44702148438</ele>
        <time>2010-08-15T08:56:58Z</time>
      </trkpt>
      <trkpt lat="45.42027" lon="4.50709">
        <ele>664.408203125</ele>
        <time>2010-08-15T08:57:06Z</time>
      </trkpt>
      <trkpt lat="45.42006" lon="4.50698">
        <ele>666.33081054688</ele>
        <time>2010-08-15T08:57:16Z</time>
      </trkpt>
      <trkpt lat="45.41989" lon="4.50688">
        <ele>668.25366210938</ele>
        <time>2010-08-15T08:57:25Z</time>
      </trkpt>
      <trkpt lat="45.41976" lon="4.50681">
        <ele>669.21508789062</ele>
        <time>2010-08-15T08:57:32Z</time>
      </trkpt>
      <trkpt lat="45.41956" lon="4.50669">
        <ele>671.1376953125</ele>
        <time>2010-08-15T08:57:42Z</time>
      </trkpt>
      <trkpt lat="45.41942" lon="4.50661">
        <ele>673.06030273438</ele>
        <time>2010-08-15T08:57:50Z</time>
      </trkpt>
      <trkpt lat="45.41929" lon="4.50656">
        <ele>674.98291015625</ele>
        <time>2010-08-15T08:57:57Z</time>
      </trkpt>
      <trkpt lat="45.41915" lon="4.50653">
        <ele>676.4248046875</ele>
        <time>2010-08-15T08:58:04Z</time>
      </trkpt>
      <trkpt lat="45.419" lon="4.50654">
        <ele>678.828125</ele>
        <time>2010-08-15T08:58:12Z</time>
      </trkpt>
      <trkpt lat="45.41882" lon="4.50658">
        <ele>679.78930664062</ele>
        <time>2010-08-15T08:58:20Z</time>
      </trkpt>
      <trkpt lat="45.41864" lon="4.50661">
        <ele>680.75073242188</ele>
        <time>2010-08-15T08:58:28Z</time>
      </trkpt>
      <trkpt lat="45.41848" lon="4.50665">
        <ele>680.75073242188</ele>
        <time>2010-08-15T08:58:36Z</time>
      </trkpt>
      <trkpt lat="45.41835" lon="4.50666">
        <ele>681.7119140625</ele>
        <time>2010-08-15T08:58:43Z</time>
      </trkpt>
      <trkpt lat="45.41822" lon="4.50669">
        <ele>683.15380859375</ele>
        <time>2010-08-15T08:58:50Z</time>
      </trkpt>
      <trkpt lat="45.41809" lon="4.50669">
        <ele>683.63452148438</ele>
        <time>2010-08-15T08:58:57Z</time>
      </trkpt>
      <trkpt lat="45.41799" lon="4.50669">
        <ele>685.55737304688</ele>
        <time>2010-08-15T08:59:03Z</time>
      </trkpt>
      <trkpt lat="45.41788" lon="4.50671">
        <ele>686.51879882812</ele>
        <time>2010-08-15T08:59:10Z</time>
      </trkpt>
      <trkpt lat="45.41777" lon="4.50672">
        <ele>686.99926757812</ele>
        <time>2010-08-15T08:59:16Z</time>
      </trkpt>
      <trkpt lat="45.41763" lon="4.50676">
        <ele>689.88330078125</ele>
        <time>2010-08-15T08:59:24Z</time>
      </trkpt>
      <trkpt lat="45.41748" lon="4.50677">
        <ele>690.84448242188</ele>
        <time>2010-08-15T08:59:32Z</time>
      </trkpt>
      <trkpt lat="45.41729" lon="4.50677">
        <ele>689.88330078125</ele>
        <time>2010-08-15T08:59:42Z</time>
      </trkpt>
      <trkpt lat="45.41713" lon="4.50674">
        <ele>690.84448242188</ele>
        <time>2010-08-15T08:59:51Z</time>
      </trkpt>
      <trkpt lat="45.417" lon="4.50669">
        <ele>692.28662109375</ele>
        <time>2010-08-15T08:59:59Z</time>
      </trkpt>
      <trkpt lat="45.41689" lon="4.50663">
        <ele>694.20922851562</ele>
        <time>2010-08-15T09:00:06Z</time>
      </trkpt>
      <trkpt lat="45.41677" lon="4.50656">
        <ele>695.17041015625</ele>
        <time>2010-08-15T09:00:13Z</time>
      </trkpt>
      <trkpt lat="45.41665" lon="4.5065">
        <ele>695.17041015625</ele>
        <time>2010-08-15T09:00:20Z</time>
      </trkpt>
      <trkpt lat="45.41656" lon="4.50644">
        <ele>695.65112304688</ele>
        <time>2010-08-15T09:00:26Z</time>
      </trkpt>
      <trkpt lat="45.4164" lon="4.50632">
        <ele>696.1318359375</ele>
        <time>2010-08-15T09:00:35Z</time>
      </trkpt>
      <trkpt lat="45.4162" lon="4.50616">
        <ele>696.61254882812</ele>
        <time>2010-08-15T09:00:45Z</time>
      </trkpt>
      <trkpt lat="45.416" lon="4.506">
        <ele>697.57373046875</ele>
        <time>2010-08-15T09:00:54Z</time>
      </trkpt>
      <trkpt lat="45.41581" lon="4.50583">
        <ele>699.015625</ele>
        <time>2010-08-15T09:01:03Z</time>
      </trkpt>
      <trkpt lat="45.41558" lon="4.50564">
        <ele>700.9384765625</ele>
        <time>2010-08-15T09:01:14Z</time>
      </trkpt>
      <trkpt lat="45.41544" lon="4.50547">
        <ele>702.86108398438</ele>
        <time>2010-08-15T09:01:23Z</time>
      </trkpt>
      <trkpt lat="45.41542" lon="4.50541">
        <ele>702.86108398438</ele>
        <time>2010-08-15T09:01:26Z</time>
      </trkpt>
      <trkpt lat="45.41542" lon="4.50542">
        <ele>702.86108398438</ele>
        <time>2010-08-15T09:01:34Z</time>
      </trkpt>
      <trkpt lat="45.41542" lon="4.50541">
        <ele>703.341796875</ele>
        <time>2010-08-15T09:01:43Z</time>
      </trkpt>
      <trkpt lat="45.41541" lon="4.50542">
        <ele>704.78369140625</ele>
        <time>2010-08-15T09:01:51Z</time>
      </trkpt>
      <trkpt lat="45.41541" lon="4.50542">
        <ele>705.26440429688</ele>
        <time>2010-08-15T09:02:06Z</time>
      </trkpt>
      <trkpt lat="45.41542" lon="4.50542">
        <ele>705.7451171875</ele>
        <time>2010-08-15T09:02:13Z</time>
      </trkpt>
      <trkpt lat="45.41541" lon="4.50542">
        <ele>707.18701171875</ele>
        <time>2010-08-15T09:02:33Z</time>
      </trkpt>
      <trkpt lat="45.4154" lon="4.50542">
        <ele>709.59033203125</ele>
        <time>2010-08-15T09:02:54Z</time>
      </trkpt>
      <trkpt lat="45.41541" lon="4.50544">
        <ele>708.62890625</ele>
        <time>2010-08-15T09:03:11Z</time>
      </trkpt>
      <trkpt lat="45.41541" lon="4.50547">
        <ele>708.62890625</ele>
        <time>2010-08-15T09:03:38Z</time>
      </trkpt>
      <trkpt lat="45.4154" lon="4.50547">
        <ele>709.10961914062</ele>
        <time>2010-08-15T09:03:50Z</time>
      </trkpt>
      <trkpt lat="45.4154" lon="4.50547">
        <ele>708.1484375</ele>
        <time>2010-08-15T09:04:02Z</time>
      </trkpt>
      <trkpt lat="45.41539" lon="4.50545">
        <ele>706.70629882812</ele>
        <time>2010-08-15T09:04:13Z</time>
      </trkpt>
      <trkpt lat="45.41538" lon="4.50544">
        <ele>706.70629882812</ele>
        <time>2010-08-15T09:04:14Z</time>
      </trkpt>
      <trkpt lat="45.41534" lon="4.50537">
        <ele>706.2255859375</ele>
        <time>2010-08-15T09:04:18Z</time>
      </trkpt>
      <trkpt lat="45.41528" lon="4.50514">
        <ele>705.26440429688</ele>
        <time>2010-08-15T09:04:25Z</time>
      </trkpt>
      <trkpt lat="45.41525" lon="4.50486">
        <ele>704.30322265625</ele>
        <time>2010-08-15T09:04:31Z</time>
      </trkpt>
      <trkpt lat="45.41523" lon="4.50452">
        <ele>703.341796875</ele>
        <time>2010-08-15T09:04:37Z</time>
      </trkpt>
      <trkpt lat="45.41526" lon="4.50412">
        <ele>700.4580078125</ele>
        <time>2010-08-15T09:04:43Z</time>
      </trkpt>
      <trkpt lat="45.41526" lon="4.50404">
        <ele>699.97705078125</ele>
        <time>2010-08-15T09:04:44Z</time>
      </trkpt>
      <trkpt lat="45.41531" lon="4.50351">
        <ele>695.17041015625</ele>
        <time>2010-08-15T09:04:49Z</time>
      </trkpt>
      <trkpt lat="45.41534" lon="4.50267">
        <ele>689.88330078125</ele>
        <time>2010-08-15T09:04:55Z</time>
      </trkpt>
      <trkpt lat="45.41537" lon="4.50202">
        <ele>686.0380859375</ele>
        <time>2010-08-15T09:05:00Z</time>
      </trkpt>
      <trkpt lat="45.41541" lon="4.50162">
        <ele>684.11547851562</ele>
        <time>2010-08-15T09:05:03Z</time>
      </trkpt>
      <trkpt lat="45.41543" lon="4.50132">
        <ele>684.11547851562</ele>
        <time>2010-08-15T09:05:05Z</time>
      </trkpt>
      <trkpt lat="45.41528" lon="4.50086">
        <ele>682.67333984375</ele>
        <time>2010-08-15T09:05:10Z</time>
      </trkpt>
      <trkpt lat="45.41507" lon="4.50055">
        <ele>682.67333984375</ele>
        <time>2010-08-15T09:05:16Z</time>
      </trkpt>
      <trkpt lat="45.4149" lon="4.50034">
        <ele>681.2314453125</ele>
        <time>2010-08-15T09:05:21Z</time>
      </trkpt>
      <trkpt lat="45.41475" lon="4.50012">
        <ele>680.27001953125</ele>
        <time>2010-08-15T09:05:25Z</time>
      </trkpt>
      <trkpt lat="45.41451" lon="4.49971">
        <ele>679.30859375</ele>
        <time>2010-08-15T09:05:32Z</time>
      </trkpt>
      <trkpt lat="45.41435" lon="4.49945">
        <ele>679.30859375</ele>
        <time>2010-08-15T09:05:38Z</time>
      </trkpt>
      <trkpt lat="45.4142" lon="4.49918">
        <ele>678.828125</ele>
        <time>2010-08-15T09:05:44Z</time>
      </trkpt>
      <trkpt lat="45.41402" lon="4.49888">
        <ele>677.86669921875</ele>
        <time>2010-08-15T09:05:51Z</time>
      </trkpt>
      <trkpt lat="45.41396" lon="4.49881">
        <ele>677.38623046875</ele>
        <time>2010-08-15T09:05:53Z</time>
      </trkpt>
      <trkpt lat="45.41365" lon="4.49846">
        <ele>675.94409179688</ele>
        <time>2010-08-15T09:06:02Z</time>
      </trkpt>
      <trkpt lat="45.41362" lon="4.49842">
        <ele>675.94409179688</ele>
        <time>2010-08-15T09:06:03Z</time>
      </trkpt>
      <trkpt lat="45.4135" lon="4.49833">
        <ele>675.46337890625</ele>
        <time>2010-08-15T09:06:06Z</time>
      </trkpt>
      <trkpt lat="45.41341" lon="4.49833">
        <ele>676.90551757812</ele>
        <time>2010-08-15T09:06:11Z</time>
      </trkpt>
      <trkpt lat="45.41338" lon="4.49837">
        <ele>677.38623046875</ele>
        <time>2010-08-15T09:06:13Z</time>
      </trkpt>
      <trkpt lat="45.41335" lon="4.49854">
        <ele>681.2314453125</ele>
        <time>2010-08-15T09:06:19Z</time>
      </trkpt>
      <trkpt lat="45.41332" lon="4.49865">
        <ele>683.63452148438</ele>
        <time>2010-08-15T09:06:23Z</time>
      </trkpt>
      <trkpt lat="45.41329" lon="4.49885">
        <ele>687.47998046875</ele>
        <time>2010-08-15T09:06:31Z</time>
      </trkpt>
      <trkpt lat="45.41325" lon="4.49901">
        <ele>690.36401367188</ele>
        <time>2010-08-15T09:06:38Z</time>
      </trkpt>
      <trkpt lat="45.41323" lon="4.4991">
        <ele>692.76733398438</ele>
        <time>2010-08-15T09:06:42Z</time>
      </trkpt>
      <trkpt lat="45.41322" lon="4.49919">
        <ele>696.61254882812</ele>
        <time>2010-08-15T09:06:46Z</time>
      </trkpt>
      <trkpt lat="45.41319" lon="4.49933">
        <ele>699.015625</ele>
        <time>2010-08-15T09:06:53Z</time>
      </trkpt>
      <trkpt lat="45.41314" lon="4.49943">
        <ele>701.41918945312</ele>
        <time>2010-08-15T09:06:58Z</time>
      </trkpt>
      <trkpt lat="45.41305" lon="4.49957">
        <ele>699.97705078125</ele>
        <time>2010-08-15T09:07:06Z</time>
      </trkpt>
      <trkpt lat="45.41297" lon="4.49973">
        <ele>699.49633789062</ele>
        <time>2010-08-15T09:07:14Z</time>
      </trkpt>
      <trkpt lat="45.41288" lon="4.49984">
        <ele>699.015625</ele>
        <time>2010-08-15T09:07:21Z</time>
      </trkpt>
      <trkpt lat="45.41275" lon="4.49995">
        <ele>701.41918945312</ele>
        <time>2010-08-15T09:07:29Z</time>
      </trkpt>
      <trkpt lat="45.41272" lon="4.49996">
        <ele>700.9384765625</ele>
        <time>2010-08-15T09:07:31Z</time>
      </trkpt>
      <trkpt lat="45.4126" lon="4.49996">
        <ele>702.38037109375</ele>
        <time>2010-08-15T09:07:40Z</time>
      </trkpt>
      <trkpt lat="45.41248" lon="4.50002">
        <ele>703.82250976562</ele>
        <time>2010-08-15T09:07:46Z</time>
      </trkpt>
      <trkpt lat="45.41234" lon="4.50007">
        <ele>706.2255859375</ele>
        <time>2010-08-15T09:07:54Z</time>
      </trkpt>
      <trkpt lat="45.41223" lon="4.50013">
        <ele>709.59033203125</ele>
        <time>2010-08-15T09:08:01Z</time>
      </trkpt>
      <trkpt lat="45.41209" lon="4.50023">
        <ele>711.99365234375</ele>
        <time>2010-08-15T09:08:09Z</time>
      </trkpt>
      <trkpt lat="45.41192" lon="4.50034">
        <ele>712.95483398438</ele>
        <time>2010-08-15T09:08:18Z</time>
      </trkpt>
      <trkpt lat="45.41182" lon="4.5004">
        <ele>714.39672851562</ele>
        <time>2010-08-15T09:08:25Z</time>
      </trkpt>
      <trkpt lat="45.41171" lon="4.50043">
        <ele>714.87744140625</ele>
        <time>2010-08-15T09:08:32Z</time>
      </trkpt>
      <trkpt lat="45.41157" lon="4.50051">
        <ele>714.87744140625</ele>
        <time>2010-08-15T09:08:40Z</time>
      </trkpt>
      <trkpt lat="45.41141" lon="4.50057">
        <ele>716.80029296875</ele>
        <time>2010-08-15T09:08:48Z</time>
      </trkpt>
      <trkpt lat="45.41137" lon="4.50058">
        <ele>717.76147460938</ele>
        <time>2010-08-15T09:08:51Z</time>
      </trkpt>
      <trkpt lat="45.41119" lon="4.50066">
        <ele>720.16479492188</ele>
        <time>2010-08-15T09:09:00Z</time>
      </trkpt>
      <trkpt lat="45.41111" lon="4.5007">
        <ele>723.52954101562</ele>
        <time>2010-08-15T09:09:05Z</time>
      </trkpt>
      <trkpt lat="45.41096" lon="4.50082">
        <ele>724.49072265625</ele>
        <time>2010-08-15T09:09:13Z</time>
      </trkpt>
      <trkpt lat="45.41076" lon="4.50089">
        <ele>724.97143554688</ele>
        <time>2010-08-15T09:09:21Z</time>
      </trkpt>
      <trkpt lat="45.41055" lon="4.50089">
        <ele>724.97143554688</ele>
        <time>2010-08-15T09:09:30Z</time>
      </trkpt>
      <trkpt lat="45.41043" lon="4.50084">
        <ele>724.01000976562</ele>
        <time>2010-08-15T09:09:35Z</time>
      </trkpt>
      <trkpt lat="45.41028" lon="4.50074">
        <ele>721.60668945312</ele>
        <time>2010-08-15T09:09:41Z</time>
      </trkpt>
      <trkpt lat="45.41013" lon="4.50057">
        <ele>719.68432617188</ele>
        <time>2010-08-15T09:09:48Z</time>
      </trkpt>
      <trkpt lat="45.41001" lon="4.50041">
        <ele>718.72290039062</ele>
        <time>2010-08-15T09:09:53Z</time>
      </trkpt>
      <trkpt lat="45.40987" lon="4.50023">
        <ele>719.68432617188</ele>
        <time>2010-08-15T09:09:58Z</time>
      </trkpt>
      <trkpt lat="45.40974" lon="4.50011">
        <ele>721.60668945312</ele>
        <time>2010-08-15T09:10:02Z</time>
      </trkpt>
      <trkpt lat="45.40954" lon="4.5">
        <ele>724.97143554688</ele>
        <time>2010-08-15T09:10:07Z</time>
      </trkpt>
      <trkpt lat="45.40946" lon="4.49995">
        <ele>726.41333007812</ele>
        <time>2010-08-15T09:10:09Z</time>
      </trkpt>
      <trkpt lat="45.40926" lon="4.49983">
        <ele>726.41333007812</ele>
        <time>2010-08-15T09:10:14Z</time>
      </trkpt>
      <trkpt lat="45.40915" lon="4.4998">
        <ele>727.85522460938</ele>
        <time>2010-08-15T09:10:17Z</time>
      </trkpt>
      <trkpt lat="45.40895" lon="4.4998">
        <ele>730.25854492188</ele>
        <time>2010-08-15T09:10:23Z</time>
      </trkpt>
      <trkpt lat="45.40874" lon="4.49974">
        <ele>728.81665039062</ele>
        <time>2010-08-15T09:10:28Z</time>
      </trkpt>
      <trkpt lat="45.40852" lon="4.49968">
        <ele>729.77783203125</ele>
        <time>2010-08-15T09:10:34Z</time>
      </trkpt>
      <trkpt lat="45.40833" lon="4.49958">
        <ele>729.77783203125</ele>
        <time>2010-08-15T09:10:39Z</time>
      </trkpt>
      <trkpt lat="45.40817" lon="4.4995">
        <ele>729.77783203125</ele>
        <time>2010-08-15T09:10:43Z</time>
      </trkpt>
      <trkpt lat="45.40796" lon="4.49936">
        <ele>727.37475585938</ele>
        <time>2010-08-15T09:10:49Z</time>
      </trkpt>
      <trkpt lat="45.40775" lon="4.49917">
        <ele>720.16479492188</ele>
        <time>2010-08-15T09:10:54Z</time>
      </trkpt>
      <trkpt lat="45.40771" lon="4.49913">
        <ele>719.20361328125</ele>
        <time>2010-08-15T09:10:55Z</time>
      </trkpt>
      <trkpt lat="45.40755" lon="4.4989">
        <ele>716.31958007812</ele>
        <time>2010-08-15T09:11:00Z</time>
      </trkpt>
      <trkpt lat="45.40743" lon="4.49867">
        <ele>718.2421875</ele>
        <time>2010-08-15T09:11:05Z</time>
      </trkpt>
      <trkpt lat="45.40734" lon="4.49854">
        <ele>719.20361328125</ele>
        <time>2010-08-15T09:11:08Z</time>
      </trkpt>
      <trkpt lat="45.40714" lon="4.49832">
        <ele>722.08740234375</ele>
        <time>2010-08-15T09:11:16Z</time>
      </trkpt>
      <trkpt lat="45.407" lon="4.49826">
        <ele>724.01000976562</ele>
        <time>2010-08-15T09:11:21Z</time>
      </trkpt>
      <trkpt lat="45.40687" lon="4.49824">
        <ele>724.97143554688</ele>
        <time>2010-08-15T09:11:25Z</time>
      </trkpt>
      <trkpt lat="45.4066" lon="4.49816">
        <ele>726.89404296875</ele>
        <time>2010-08-15T09:11:33Z</time>
      </trkpt>
      <trkpt lat="45.40633" lon="4.49804">
        <ele>723.52954101562</ele>
        <time>2010-08-15T09:11:40Z</time>
      </trkpt>
      <trkpt lat="45.40597" lon="4.49783">
        <ele>720.16479492188</ele>
        <time>2010-08-15T09:11:49Z</time>
      </trkpt>
      <trkpt lat="45.40559" lon="4.49754">
        <ele>720.16479492188</ele>
        <time>2010-08-15T09:11:59Z</time>
      </trkpt>
      <trkpt lat="45.40528" lon="4.4972">
        <ele>720.6455078125</ele>
        <time>2010-08-15T09:12:08Z</time>
      </trkpt>
      <trkpt lat="45.40498" lon="4.49678">
        <ele>721.12622070312</ele>
        <time>2010-08-15T09:12:18Z</time>
      </trkpt>
      <trkpt lat="45.4049" lon="4.49664">
        <ele>721.12622070312</ele>
        <time>2010-08-15T09:12:21Z</time>
      </trkpt>
      <trkpt lat="45.40476" lon="4.49616">
        <ele>720.6455078125</ele>
        <time>2010-08-15T09:12:30Z</time>
      </trkpt>
      <trkpt lat="45.40467" lon="4.49562">
        <ele>718.72290039062</ele>
        <time>2010-08-15T09:12:39Z</time>
      </trkpt>
      <trkpt lat="45.40468" lon="4.49504">
        <ele>717.28100585938</ele>
        <time>2010-08-15T09:12:48Z</time>
      </trkpt>
      <trkpt lat="45.40471" lon="4.49441">
        <ele>716.80029296875</ele>
        <time>2010-08-15T09:12:57Z</time>
      </trkpt>
      <trkpt lat="45.40471" lon="4.49386">
        <ele>716.31958007812</ele>
        <time>2010-08-15T09:13:05Z</time>
      </trkpt>
      <trkpt lat="45.40474" lon="4.49336">
        <ele>715.8388671875</ele>
        <time>2010-08-15T09:13:12Z</time>
      </trkpt>
      <trkpt lat="45.40479" lon="4.49276">
        <ele>715.35815429688</ele>
        <time>2010-08-15T09:13:20Z</time>
      </trkpt>
      <trkpt lat="45.40477" lon="4.49218">
        <ele>715.35815429688</ele>
        <time>2010-08-15T09:13:28Z</time>
      </trkpt>
      <trkpt lat="45.40478" lon="4.4919">
        <ele>714.87744140625</ele>
        <time>2010-08-15T09:13:32Z</time>
      </trkpt>
      <trkpt lat="45.40481" lon="4.49164">
        <ele>714.87744140625</ele>
        <time>2010-08-15T09:13:36Z</time>
      </trkpt>
      <trkpt lat="45.40482" lon="4.4915">
        <ele>714.87744140625</ele>
        <time>2010-08-15T09:13:38Z</time>
      </trkpt>
      <trkpt lat="45.40491" lon="4.49088">
        <ele>714.39672851562</ele>
        <time>2010-08-15T09:13:47Z</time>
      </trkpt>
      <trkpt lat="45.40501" lon="4.49034">
        <ele>714.39672851562</ele>
        <time>2010-08-15T09:13:55Z</time>
      </trkpt>
      <trkpt lat="45.40506" lon="4.49008">
        <ele>713.916015625</ele>
        <time>2010-08-15T09:13:59Z</time>
      </trkpt>
      <trkpt lat="45.40513" lon="4.48952">
        <ele>712.95483398438</ele>
        <time>2010-08-15T09:14:07Z</time>
      </trkpt>
      <trkpt lat="45.40516" lon="4.48906">
        <ele>712.47412109375</ele>
        <time>2010-08-15T09:14:14Z</time>
      </trkpt>
      <trkpt lat="45.40516" lon="4.48887">
        <ele>711.99365234375</ele>
        <time>2010-08-15T09:14:17Z</time>
      </trkpt>
      <trkpt lat="45.40505" lon="4.48858">
        <ele>712.47412109375</ele>
        <time>2010-08-15T09:14:23Z</time>
      </trkpt>
      <trkpt lat="45.40501" lon="4.48855">
        <ele>712.95483398438</ele>
        <time>2010-08-15T09:14:24Z</time>
      </trkpt>
      <trkpt lat="45.40474" lon="4.48837">
        <ele>713.916015625</ele>
        <time>2010-08-15T09:14:32Z</time>
      </trkpt>
      <trkpt lat="45.40454" lon="4.48825">
        <ele>716.80029296875</ele>
        <time>2010-08-15T09:14:38Z</time>
      </trkpt>
      <trkpt lat="45.40441" lon="4.48827">
        <ele>718.72290039062</ele>
        <time>2010-08-15T09:14:42Z</time>
      </trkpt>
      <trkpt lat="45.40422" lon="4.48836">
        <ele>719.68432617188</ele>
        <time>2010-08-15T09:14:47Z</time>
      </trkpt>
      <trkpt lat="45.40417" lon="4.48854">
        <ele>718.72290039062</ele>
        <time>2010-08-15T09:14:51Z</time>
      </trkpt>
      <trkpt lat="45.40411" lon="4.48889">
        <ele>723.048828125</ele>
        <time>2010-08-15T09:14:58Z</time>
      </trkpt>
      <trkpt lat="45.404" lon="4.48917">
        <ele>723.048828125</ele>
        <time>2010-08-15T09:15:05Z</time>
      </trkpt>
      <trkpt lat="45.40387" lon="4.48942">
        <ele>724.01000976562</ele>
        <time>2010-08-15T09:15:12Z</time>
      </trkpt>
      <trkpt lat="45.40374" lon="4.48958">
        <ele>725.45190429688</ele>
        <time>2010-08-15T09:15:17Z</time>
      </trkpt>
      <trkpt lat="45.40354" lon="4.48986">
        <ele>727.85522460938</ele>
        <time>2010-08-15T09:15:25Z</time>
      </trkpt>
      <trkpt lat="45.4034" lon="4.49008">
        <ele>729.29711914062</ele>
        <time>2010-08-15T09:15:31Z</time>
      </trkpt>
      <trkpt lat="45.40321" lon="4.49037">
        <ele>731.21997070312</ele>
        <time>2010-08-15T09:15:39Z</time>
      </trkpt>
      <trkpt lat="45.40302" lon="4.49047">
        <ele>733.62329101562</ele>
        <time>2010-08-15T09:15:45Z</time>
      </trkpt>
      <trkpt lat="45.40282" lon="4.49041">
        <ele>734.10400390625</ele>
        <time>2010-08-15T09:15:52Z</time>
      </trkpt>
      <trkpt lat="45.40266" lon="4.4902">
        <ele>735.5458984375</ele>
        <time>2010-08-15T09:15:59Z</time>
      </trkpt>
      <trkpt lat="45.40255" lon="4.48989">
        <ele>737.94921875</ele>
        <time>2010-08-15T09:16:07Z</time>
      </trkpt>
      <trkpt lat="45.40247" lon="4.4896">
        <ele>739.87182617188</ele>
        <time>2010-08-15T09:16:14Z</time>
      </trkpt>
      <trkpt lat="45.40235" lon="4.48915">
        <ele>742.27514648438</ele>
        <time>2010-08-15T09:16:25Z</time>
      </trkpt>
      <trkpt lat="45.40228" lon="4.48886">
        <ele>743.71704101562</ele>
        <time>2010-08-15T09:16:32Z</time>
      </trkpt>
      <trkpt lat="45.40222" lon="4.48862">
        <ele>745.15893554688</ele>
        <time>2010-08-15T09:16:38Z</time>
      </trkpt>
      <trkpt lat="45.40212" lon="4.48842">
        <ele>747.08154296875</ele>
        <time>2010-08-15T09:16:43Z</time>
      </trkpt>
      <trkpt lat="45.40197" lon="4.4882">
        <ele>745.6396484375</ele>
        <time>2010-08-15T09:16:49Z</time>
      </trkpt>
      <trkpt lat="45.40181" lon="4.48801">
        <ele>747.08154296875</ele>
        <time>2010-08-15T09:16:55Z</time>
      </trkpt>
      <trkpt lat="45.40166" lon="4.48784">
        <ele>749.9658203125</ele>
        <time>2010-08-15T09:17:01Z</time>
      </trkpt>
      <trkpt lat="45.40151" lon="4.48768">
        <ele>752.36889648438</ele>
        <time>2010-08-15T09:17:07Z</time>
      </trkpt>
      <trkpt lat="45.40136" lon="4.48751">
        <ele>755.2529296875</ele>
        <time>2010-08-15T09:17:13Z</time>
      </trkpt>
      <trkpt lat="45.40121" lon="4.48734">
        <ele>759.57885742188</ele>
        <time>2010-08-15T09:17:19Z</time>
      </trkpt>
      <trkpt lat="45.40105" lon="4.48716">
        <ele>763.42407226562</ele>
        <time>2010-08-15T09:17:26Z</time>
      </trkpt>
      <trkpt lat="45.4009" lon="4.48702">
        <ele>763.42407226562</ele>
        <time>2010-08-15T09:17:31Z</time>
      </trkpt>
      <trkpt lat="45.4007" lon="4.48692">
        <ele>761.50146484375</ele>
        <time>2010-08-15T09:17:37Z</time>
      </trkpt>
      <trkpt lat="45.40053" lon="4.48697">
        <ele>759.09814453125</ele>
        <time>2010-08-15T09:17:41Z</time>
      </trkpt>
      <trkpt lat="45.40044" lon="4.48716">
        <ele>755.73364257812</ele>
        <time>2010-08-15T09:17:46Z</time>
      </trkpt>
      <trkpt lat="45.40046" lon="4.48743">
        <ele>757.17553710938</ele>
        <time>2010-08-15T09:17:52Z</time>
      </trkpt>
      <trkpt lat="45.40048" lon="4.48771">
        <ele>755.73364257812</ele>
        <time>2010-08-15T09:17:58Z</time>
      </trkpt>
      <trkpt lat="45.40043" lon="4.488">
        <ele>755.73364257812</ele>
        <time>2010-08-15T09:18:04Z</time>
      </trkpt>
      <trkpt lat="45.40028" lon="4.48817">
        <ele>758.13696289062</ele>
        <time>2010-08-15T09:18:10Z</time>
      </trkpt>
      <trkpt lat="45.40004" lon="4.48834">
        <ele>760.05932617188</ele>
        <time>2010-08-15T09:18:18Z</time>
      </trkpt>
      <trkpt lat="45.39993" lon="4.48854">
        <ele>759.57885742188</ele>
        <time>2010-08-15T09:18:23Z</time>
      </trkpt>
      <trkpt lat="45.3999" lon="4.48885">
        <ele>760.05932617188</ele>
        <time>2010-08-15T09:18:29Z</time>
      </trkpt>
      <trkpt lat="45.39984" lon="4.48924">
        <ele>761.50146484375</ele>
        <time>2010-08-15T09:18:37Z</time>
      </trkpt>
      <trkpt lat="45.39968" lon="4.48965">
        <ele>764.8662109375</ele>
        <time>2010-08-15T09:18:47Z</time>
      </trkpt>
      <trkpt lat="45.39952" lon="4.48996">
        <ele>766.78881835938</ele>
        <time>2010-08-15T09:18:55Z</time>
      </trkpt>
      <trkpt lat="45.3994" lon="4.49011">
        <ele>767.75</ele>
        <time>2010-08-15T09:19:01Z</time>
      </trkpt>
      <trkpt lat="45.39934" lon="4.49018">
        <ele>768.23071289062</ele>
        <time>2010-08-15T09:19:07Z</time>
      </trkpt>
      <trkpt lat="45.39934" lon="4.49018">
        <ele>769.19213867188</ele>
        <time>2010-08-15T09:19:13Z</time>
      </trkpt>
      <trkpt lat="45.39935" lon="4.49018">
        <ele>771.11474609375</ele>
        <time>2010-08-15T09:19:19Z</time>
      </trkpt>
      <trkpt lat="45.39936" lon="4.49017">
        <ele>773.03735351562</ele>
        <time>2010-08-15T09:19:25Z</time>
      </trkpt>
      <trkpt lat="45.39935" lon="4.49017">
        <ele>772.556640625</ele>
        <time>2010-08-15T09:19:31Z</time>
      </trkpt>
      <trkpt lat="45.39936" lon="4.49018">
        <ele>772.556640625</ele>
        <time>2010-08-15T09:19:46Z</time>
      </trkpt>
      <trkpt lat="45.39936" lon="4.49019">
        <ele>772.556640625</ele>
        <time>2010-08-15T09:20:05Z</time>
      </trkpt>
      <trkpt lat="45.39936" lon="4.49019">
        <ele>773.03735351562</ele>
        <time>2010-08-15T09:20:14Z</time>
      </trkpt>
      <trkpt lat="45.39937" lon="4.49019">
        <ele>772.556640625</ele>
        <time>2010-08-15T09:20:32Z</time>
      </trkpt>
      <trkpt lat="45.39938" lon="4.49021">
        <ele>771.11474609375</ele>
        <time>2010-08-15T09:20:47Z</time>
      </trkpt>
      <trkpt lat="45.39938" lon="4.4902">
        <ele>770.63403320312</ele>
        <time>2010-08-15T09:20:57Z</time>
      </trkpt>
      <trkpt lat="45.39938" lon="4.49021">
        <ele>770.1533203125</ele>
        <time>2010-08-15T09:21:06Z</time>
      </trkpt>
      <trkpt lat="45.39938" lon="4.4902">
        <ele>769.19213867188</ele>
        <time>2010-08-15T09:21:15Z</time>
      </trkpt>
      <trkpt lat="45.39938" lon="4.49021">
        <ele>766.30810546875</ele>
        <time>2010-08-15T09:22:01Z</time>
      </trkpt>
      <trkpt lat="45.39938" lon="4.4902">
        <ele>765.34692382812</ele>
        <time>2010-08-15T09:22:37Z</time>
      </trkpt>
      <trkpt lat="45.39937" lon="4.4902">
        <ele>765.82763671875</ele>
        <time>2010-08-15T09:22:45Z</time>
      </trkpt>
      <trkpt lat="45.39936" lon="4.49024">
        <ele>765.82763671875</ele>
        <time>2010-08-15T09:22:52Z</time>
      </trkpt>
      <trkpt lat="45.39931" lon="4.49039">
        <ele>764.38549804688</ele>
        <time>2010-08-15T09:22:56Z</time>
      </trkpt>
      <trkpt lat="45.39933" lon="4.49064">
        <ele>761.50146484375</ele>
        <time>2010-08-15T09:22:59Z</time>
      </trkpt>
      <trkpt lat="45.39941" lon="4.4908">
        <ele>757.65625</ele>
        <time>2010-08-15T09:23:01Z</time>
      </trkpt>
      <trkpt lat="45.39967" lon="4.49096">
        <ele>750.44653320312</ele>
        <time>2010-08-15T09:23:05Z</time>
      </trkpt>
      <trkpt lat="45.39974" lon="4.49098">
        <ele>749.00439453125</ele>
        <time>2010-08-15T09:23:06Z</time>
      </trkpt>
      <trkpt lat="45.39991" lon="4.4912">
        <ele>742.755859375</ele>
        <time>2010-08-15T09:23:10Z</time>
      </trkpt>
      <trkpt lat="45.39991" lon="4.49144">
        <ele>738.42993164062</ele>
        <time>2010-08-15T09:23:13Z</time>
      </trkpt>
      <trkpt lat="45.39983" lon="4.49153">
        <ele>735.5458984375</ele>
        <time>2010-08-15T09:23:16Z</time>
      </trkpt>
      <trkpt lat="45.39978" lon="4.49153">
        <ele>733.62329101562</ele>
        <time>2010-08-15T09:23:18Z</time>
      </trkpt>
      <trkpt lat="45.39972" lon="4.49149">
        <ele>733.142578125</ele>
        <time>2010-08-15T09:23:20Z</time>
      </trkpt>
      <trkpt lat="45.39959" lon="4.49143">
        <ele>733.142578125</ele>
        <time>2010-08-15T09:23:25Z</time>
      </trkpt>
      <trkpt lat="45.39943" lon="4.49139">
        <ele>734.10400390625</ele>
        <time>2010-08-15T09:23:31Z</time>
      </trkpt>
      <trkpt lat="45.39922" lon="4.49131">
        <ele>736.98779296875</ele>
        <time>2010-08-15T09:23:37Z</time>
      </trkpt>
      <trkpt lat="45.39905" lon="4.49123">
        <ele>739.39111328125</ele>
        <time>2010-08-15T09:23:44Z</time>
      </trkpt>
      <trkpt lat="45.39882" lon="4.49115">
        <ele>740.3525390625</ele>
        <time>2010-08-15T09:23:52Z</time>
      </trkpt>
      <trkpt lat="45.39862" lon="4.49108">
        <ele>740.3525390625</ele>
        <time>2010-08-15T09:23:57Z</time>
      </trkpt>
      <trkpt lat="45.39844" lon="4.49102">
        <ele>739.87182617188</ele>
        <time>2010-08-15T09:24:00Z</time>
      </trkpt>
      <trkpt lat="45.39817" lon="4.49093">
        <ele>739.39111328125</ele>
        <time>2010-08-15T09:24:04Z</time>
      </trkpt>
      <trkpt lat="45.39798" lon="4.49084">
        <ele>739.39111328125</ele>
        <time>2010-08-15T09:24:07Z</time>
      </trkpt>
      <trkpt lat="45.39786" lon="4.49083">
        <ele>739.39111328125</ele>
        <time>2010-08-15T09:24:09Z</time>
      </trkpt>
      <trkpt lat="45.3978" lon="4.49098">
        <ele>737.94921875</ele>
        <time>2010-08-15T09:24:12Z</time>
      </trkpt>
      <trkpt lat="45.39781" lon="4.49106">
        <ele>738.42993164062</ele>
        <time>2010-08-15T09:24:13Z</time>
      </trkpt>
      <trkpt lat="45.39779" lon="4.49137">
        <ele>738.91064453125</ele>
        <time>2010-08-15T09:24:19Z</time>
      </trkpt>
      <trkpt lat="45.39778" lon="4.49166">
        <ele>736.98779296875</ele>
        <time>2010-08-15T09:24:26Z</time>
      </trkpt>
      <trkpt lat="45.39786" lon="4.49191">
        <ele>738.91064453125</ele>
        <time>2010-08-15T09:24:32Z</time>
      </trkpt>
      <trkpt lat="45.39795" lon="4.49216">
        <ele>738.91064453125</ele>
        <time>2010-08-15T09:24:39Z</time>
      </trkpt>
      <trkpt lat="45.39803" lon="4.49238">
        <ele>738.91064453125</ele>
        <time>2010-08-15T09:24:46Z</time>
      </trkpt>
      <trkpt lat="45.39804" lon="4.49251">
        <ele>736.02661132812</ele>
        <time>2010-08-15T09:24:51Z</time>
      </trkpt>
      <trkpt lat="45.3981" lon="4.49268">
        <ele>732.662109375</ele>
        <time>2010-08-15T09:24:58Z</time>
      </trkpt>
      <trkpt lat="45.39816" lon="4.49282">
        <ele>733.142578125</ele>
        <time>2010-08-15T09:25:03Z</time>
      </trkpt>
      <trkpt lat="45.39823" lon="4.49297">
        <ele>734.58471679688</ele>
        <time>2010-08-15T09:25:08Z</time>
      </trkpt>
      <trkpt lat="45.39833" lon="4.49317">
        <ele>736.98779296875</ele>
        <time>2010-08-15T09:25:15Z</time>
      </trkpt>
      <trkpt lat="45.39837" lon="4.49328">
        <ele>739.39111328125</ele>
        <time>2010-08-15T09:25:19Z</time>
      </trkpt>
      <trkpt lat="45.3984" lon="4.49337">
        <ele>740.8330078125</ele>
        <time>2010-08-15T09:25:23Z</time>
      </trkpt>
      <trkpt lat="45.39843" lon="4.49357">
        <ele>739.39111328125</ele>
        <time>2010-08-15T09:25:31Z</time>
      </trkpt>
      <trkpt lat="45.39845" lon="4.49373">
        <ele>741.79443359375</ele>
        <time>2010-08-15T09:25:37Z</time>
      </trkpt>
      <trkpt lat="45.39844" lon="4.4939">
        <ele>745.15893554688</ele>
        <time>2010-08-15T09:25:44Z</time>
      </trkpt>
      <trkpt lat="45.39843" lon="4.49409">
        <ele>749.00439453125</ele>
        <time>2010-08-15T09:25:51Z</time>
      </trkpt>
      <trkpt lat="45.39843" lon="4.49422">
        <ele>753.33032226562</ele>
        <time>2010-08-15T09:25:56Z</time>
      </trkpt>
      <trkpt lat="45.39842" lon="4.49444">
        <ele>757.65625</ele>
        <time>2010-08-15T09:26:05Z</time>
      </trkpt>
      <trkpt lat="45.39839" lon="4.4946">
        <ele>760.5400390625</ele>
        <time>2010-08-15T09:26:12Z</time>
      </trkpt>
      <trkpt lat="45.39838" lon="4.49475">
        <ele>762.46264648438</ele>
        <time>2010-08-15T09:26:18Z</time>
      </trkpt>
      <trkpt lat="45.39836" lon="4.49492">
        <ele>763.90454101562</ele>
        <time>2010-08-15T09:26:26Z</time>
      </trkpt>
      <trkpt lat="45.39833" lon="4.49503">
        <ele>764.38549804688</ele>
        <time>2010-08-15T09:26:32Z</time>
      </trkpt>
      <trkpt lat="45.3983" lon="4.49522">
        <ele>768.71142578125</ele>
        <time>2010-08-15T09:26:39Z</time>
      </trkpt>
      <trkpt lat="45.3983" lon="4.49532">
        <ele>770.63403320312</ele>
        <time>2010-08-15T09:26:43Z</time>
      </trkpt>
      <trkpt lat="45.39826" lon="4.49533">
        <ele>759.57885742188</ele>
        <time>2010-08-15T09:26:59Z</time>
      </trkpt>
      <trkpt lat="45.39827" lon="4.49533">
        <ele>760.05932617188</ele>
        <time>2010-08-15T09:27:06Z</time>
      </trkpt>
      <trkpt lat="45.39826" lon="4.49536">
        <ele>759.09814453125</ele>
        <time>2010-08-15T09:27:16Z</time>
      </trkpt>
      <trkpt lat="45.39827" lon="4.49538">
        <ele>765.34692382812</ele>
        <time>2010-08-15T09:27:27Z</time>
      </trkpt>
      <trkpt lat="45.39823" lon="4.49539">
        <ele>764.38549804688</ele>
        <time>2010-08-15T09:27:43Z</time>
      </trkpt>
      <trkpt lat="45.39826" lon="4.49539">
        <ele>766.30810546875</ele>
        <time>2010-08-15T09:27:56Z</time>
      </trkpt>
      <trkpt lat="45.39827" lon="4.49538">
        <ele>771.59521484375</ele>
        <time>2010-08-15T09:28:16Z</time>
      </trkpt>
      <trkpt lat="45.39825" lon="4.49534">
        <ele>761.50146484375</ele>
        <time>2010-08-15T09:28:21Z</time>
      </trkpt>
      <trkpt lat="45.39822" lon="4.49529">
        <ele>747.56225585938</ele>
        <time>2010-08-15T09:28:34Z</time>
      </trkpt>
      <trkpt lat="45.39826" lon="4.49536">
        <ele>758.61743164062</ele>
        <time>2010-08-15T09:28:52Z</time>
      </trkpt>
      <trkpt lat="45.39822" lon="4.49536">
        <ele>749.00439453125</ele>
        <time>2010-08-15T09:29:13Z</time>
      </trkpt>
      <trkpt lat="45.39827" lon="4.4954">
        <ele>760.05932617188</ele>
        <time>2010-08-15T09:29:23Z</time>
      </trkpt>
      <trkpt lat="45.3983" lon="4.49548">
        <ele>766.78881835938</ele>
        <time>2010-08-15T09:29:38Z</time>
      </trkpt>
      <trkpt lat="45.39833" lon="4.49563">
        <ele>772.07592773438</ele>
        <time>2010-08-15T09:29:43Z</time>
      </trkpt>
      <trkpt lat="45.3983" lon="4.4959">
        <ele>775.92114257812</ele>
        <time>2010-08-15T09:29:51Z</time>
      </trkpt>
      <trkpt lat="45.39825" lon="4.496">
        <ele>774.9599609375</ele>
        <time>2010-08-15T09:29:55Z</time>
      </trkpt>
      <trkpt lat="45.39818" lon="4.49611">
        <ele>774.47924804688</ele>
        <time>2010-08-15T09:30:00Z</time>
      </trkpt>
      <trkpt lat="45.39807" lon="4.49621">
        <ele>770.63403320312</ele>
        <time>2010-08-15T09:30:06Z</time>
      </trkpt>
      <trkpt lat="45.39796" lon="4.49631">
        <ele>766.30810546875</ele>
        <time>2010-08-15T09:30:11Z</time>
      </trkpt>
      <trkpt lat="45.39787" lon="4.49637">
        <ele>763.90454101562</ele>
        <time>2010-08-15T09:30:16Z</time>
      </trkpt>
      <trkpt lat="45.39772" lon="4.49648">
        <ele>762.46264648438</ele>
        <time>2010-08-15T09:30:22Z</time>
      </trkpt>
      <trkpt lat="45.39755" lon="4.49659">
        <ele>761.98217773438</ele>
        <time>2010-08-15T09:30:28Z</time>
      </trkpt>
      <trkpt lat="45.39744" lon="4.49666">
        <ele>761.02075195312</ele>
        <time>2010-08-15T09:30:33Z</time>
      </trkpt>
      <trkpt lat="45.39724" lon="4.49678">
        <ele>759.09814453125</ele>
        <time>2010-08-15T09:30:40Z</time>
      </trkpt>
      <trkpt lat="45.39705" lon="4.49686">
        <ele>758.61743164062</ele>
        <time>2010-08-15T09:30:46Z</time>
      </trkpt>
      <trkpt lat="45.39691" lon="4.49693">
        <ele>758.13696289062</ele>
        <time>2010-08-15T09:30:51Z</time>
      </trkpt>
      <trkpt lat="45.39672" lon="4.49704">
        <ele>761.98217773438</ele>
        <time>2010-08-15T09:30:58Z</time>
      </trkpt>
      <trkpt lat="45.39658" lon="4.4971">
        <ele>764.38549804688</ele>
        <time>2010-08-15T09:31:04Z</time>
      </trkpt>
      <trkpt lat="45.39645" lon="4.49714">
        <ele>764.38549804688</ele>
        <time>2010-08-15T09:31:09Z</time>
      </trkpt>
      <trkpt lat="45.39631" lon="4.49722">
        <ele>766.30810546875</ele>
        <time>2010-08-15T09:31:15Z</time>
      </trkpt>
      <trkpt lat="45.39616" lon="4.49729">
        <ele>769.6728515625</ele>
        <time>2010-08-15T09:31:21Z</time>
      </trkpt>
      <trkpt lat="45.39601" lon="4.49735">
        <ele>771.11474609375</ele>
        <time>2010-08-15T09:31:28Z</time>
      </trkpt>
      <trkpt lat="45.39589" lon="4.49739">
        <ele>771.59521484375</ele>
        <time>2010-08-15T09:31:33Z</time>
      </trkpt>
      <trkpt lat="45.39569" lon="4.49749">
        <ele>773.51806640625</ele>
        <time>2010-08-15T09:31:41Z</time>
      </trkpt>
      <trkpt lat="45.3956" lon="4.49764">
        <ele>775.4404296875</ele>
        <time>2010-08-15T09:31:47Z</time>
      </trkpt>
      <trkpt lat="45.39554" lon="4.49783">
        <ele>777.84375</ele>
        <time>2010-08-15T09:31:53Z</time>
      </trkpt>
      <trkpt lat="45.39548" lon="4.49814">
        <ele>786.97631835938</ele>
        <time>2010-08-15T09:32:02Z</time>
      </trkpt>
      <trkpt lat="45.39544" lon="4.4984">
        <ele>787.93774414062</ele>
        <time>2010-08-15T09:32:09Z</time>
      </trkpt>
      <trkpt lat="45.39542" lon="4.4987">
        <ele>789.37963867188</ele>
        <time>2010-08-15T09:32:17Z</time>
      </trkpt>
      <trkpt lat="45.39546" lon="4.49896">
        <ele>791.78295898438</ele>
        <time>2010-08-15T09:32:25Z</time>
      </trkpt>
      <trkpt lat="45.39554" lon="4.49919">
        <ele>792.263671875</ele>
        <time>2010-08-15T09:32:32Z</time>
      </trkpt>
      <trkpt lat="45.39554" lon="4.49929">
        <ele>792.263671875</ele>
        <time>2010-08-15T09:32:35Z</time>
      </trkpt>
      <trkpt lat="45.3955" lon="4.49941">
        <ele>790.82153320312</ele>
        <time>2010-08-15T09:32:40Z</time>
      </trkpt>
      <trkpt lat="45.3955" lon="4.49939">
        <ele>793.22485351562</ele>
        <time>2010-08-15T09:33:13Z</time>
      </trkpt>
      <trkpt lat="45.39551" lon="4.49937">
        <ele>793.70556640625</ele>
        <time>2010-08-15T09:33:21Z</time>
      </trkpt>
      <trkpt lat="45.39552" lon="4.49933">
        <ele>794.18627929688</ele>
        <time>2010-08-15T09:33:28Z</time>
      </trkpt>
      <trkpt lat="45.39553" lon="4.49934">
        <ele>793.22485351562</ele>
        <time>2010-08-15T09:33:37Z</time>
      </trkpt>
      <trkpt lat="45.39552" lon="4.49934">
        <ele>792.74438476562</ele>
        <time>2010-08-15T09:33:51Z</time>
      </trkpt>
      <trkpt lat="45.39552" lon="4.49935">
        <ele>793.70556640625</ele>
        <time>2010-08-15T09:34:03Z</time>
      </trkpt>
      <trkpt lat="45.3955" lon="4.49932">
        <ele>789.8603515625</ele>
        <time>2010-08-15T09:34:19Z</time>
      </trkpt>
      <trkpt lat="45.39551" lon="4.49932">
        <ele>791.78295898438</ele>
        <time>2010-08-15T09:34:33Z</time>
      </trkpt>
      <trkpt lat="45.39551" lon="4.49932">
        <ele>792.74438476562</ele>
        <time>2010-08-15T09:34:50Z</time>
      </trkpt>
      <trkpt lat="45.39552" lon="4.4993">
        <ele>793.22485351562</ele>
        <time>2010-08-15T09:34:55Z</time>
      </trkpt>
      <trkpt lat="45.39552" lon="4.49927">
        <ele>793.22485351562</ele>
        <time>2010-08-15T09:35:05Z</time>
      </trkpt>
      <trkpt lat="45.39552" lon="4.49924">
        <ele>792.74438476562</ele>
        <time>2010-08-15T09:35:12Z</time>
      </trkpt>
      <trkpt lat="45.39552" lon="4.49923">
        <ele>792.74438476562</ele>
        <time>2010-08-15T09:35:13Z</time>
      </trkpt>
      <trkpt lat="45.39547" lon="4.49904">
        <ele>791.30224609375</ele>
        <time>2010-08-15T09:35:20Z</time>
      </trkpt>
      <trkpt lat="45.39541" lon="4.49874">
        <ele>788.41845703125</ele>
        <time>2010-08-15T09:35:24Z</time>
      </trkpt>
      <trkpt lat="45.3954" lon="4.49863">
        <ele>787.45703125</ele>
        <time>2010-08-15T09:35:25Z</time>
      </trkpt>
      <trkpt lat="45.39543" lon="4.49832">
        <ele>785.53442382812</ele>
        <time>2010-08-15T09:35:28Z</time>
      </trkpt>
      <trkpt lat="45.39551" lon="4.49797">
        <ele>783.61181640625</ele>
        <time>2010-08-15T09:35:32Z</time>
      </trkpt>
      <trkpt lat="45.3956" lon="4.49772">
        <ele>782.169921875</ele>
        <time>2010-08-15T09:35:35Z</time>
      </trkpt>
      <trkpt lat="45.3958" lon="4.4975">
        <ele>781.68920898438</ele>
        <time>2010-08-15T09:35:39Z</time>
      </trkpt>
      <trkpt lat="45.39602" lon="4.49743">
        <ele>780.72802734375</ele>
        <time>2010-08-15T09:35:42Z</time>
      </trkpt>
      <trkpt lat="45.39643" lon="4.4973">
        <ele>780.72802734375</ele>
        <time>2010-08-15T09:35:48Z</time>
      </trkpt>
      <trkpt lat="45.3966" lon="4.49724">
        <ele>778.80517578125</ele>
        <time>2010-08-15T09:35:51Z</time>
      </trkpt>
      <trkpt lat="45.39693" lon="4.49715">
        <ele>782.169921875</ele>
        <time>2010-08-15T09:35:56Z</time>
      </trkpt>
      <trkpt lat="45.39724" lon="4.49699">
        <ele>782.169921875</ele>
        <time>2010-08-15T09:36:00Z</time>
      </trkpt>
      <trkpt lat="45.39766" lon="4.4967">
        <ele>779.28564453125</ele>
        <time>2010-08-15T09:36:06Z</time>
      </trkpt>
      <trkpt lat="45.39792" lon="4.49652">
        <ele>779.76635742188</ele>
        <time>2010-08-15T09:36:11Z</time>
      </trkpt>
      <trkpt lat="45.39803" lon="4.49646">
        <ele>780.72802734375</ele>
        <time>2010-08-15T09:36:13Z</time>
      </trkpt>
      <trkpt lat="45.39822" lon="4.4961">
        <ele>771.59521484375</ele>
        <time>2010-08-15T09:36:18Z</time>
      </trkpt>
      <trkpt lat="45.39825" lon="4.496">
        <ele>770.1533203125</ele>
        <time>2010-08-15T09:36:19Z</time>
      </trkpt>
      <trkpt lat="45.39843" lon="4.49553">
        <ele>766.30810546875</ele>
        <time>2010-08-15T09:36:24Z</time>
      </trkpt>
      <trkpt lat="45.39845" lon="4.49523">
        <ele>765.82763671875</ele>
        <time>2010-08-15T09:36:28Z</time>
      </trkpt>
      <trkpt lat="45.39843" lon="4.49518">
        <ele>765.82763671875</ele>
        <time>2010-08-15T09:36:29Z</time>
      </trkpt>
      <trkpt lat="45.39841" lon="4.49492">
        <ele>762.943359375</ele>
        <time>2010-08-15T09:36:34Z</time>
      </trkpt>
      <trkpt lat="45.39837" lon="4.49482">
        <ele>762.943359375</ele>
        <time>2010-08-15T09:36:37Z</time>
      </trkpt>
      <trkpt lat="45.39828" lon="4.49459">
        <ele>765.34692382812</ele>
        <time>2010-08-15T09:36:45Z</time>
      </trkpt>
      <trkpt lat="45.39824" lon="4.49439">
        <ele>765.34692382812</ele>
        <time>2010-08-15T09:36:50Z</time>
      </trkpt>
      <trkpt lat="45.39815" lon="4.49406">
        <ele>765.34692382812</ele>
        <time>2010-08-15T09:36:57Z</time>
      </trkpt>
      <trkpt lat="45.39799" lon="4.49367">
        <ele>765.82763671875</ele>
        <time>2010-08-15T09:37:06Z</time>
      </trkpt>
      <trkpt lat="45.39787" lon="4.49346">
        <ele>767.75</ele>
        <time>2010-08-15T09:37:13Z</time>
      </trkpt>
      <trkpt lat="45.39772" lon="4.49324">
        <ele>770.1533203125</ele>
        <time>2010-08-15T09:37:21Z</time>
      </trkpt>
      <trkpt lat="45.39759" lon="4.49307">
        <ele>773.03735351562</ele>
        <time>2010-08-15T09:37:28Z</time>
      </trkpt>
      <trkpt lat="45.3975" lon="4.49298">
        <ele>774.9599609375</ele>
        <time>2010-08-15T09:37:33Z</time>
      </trkpt>
      <trkpt lat="45.39747" lon="4.49294">
        <ele>774.9599609375</ele>
        <time>2010-08-15T09:37:35Z</time>
      </trkpt>
      <trkpt lat="45.3974" lon="4.49286">
        <ele>775.4404296875</ele>
        <time>2010-08-15T09:37:41Z</time>
      </trkpt>
      <trkpt lat="45.39738" lon="4.49288">
        <ele>775.92114257812</ele>
        <time>2010-08-15T09:37:44Z</time>
      </trkpt>
      <trkpt lat="45.39737" lon="4.49292">
        <ele>776.40185546875</ele>
        <time>2010-08-15T09:37:46Z</time>
      </trkpt>
      <trkpt lat="45.39742" lon="4.49307">
        <ele>777.36328125</ele>
        <time>2010-08-15T09:37:53Z</time>
      </trkpt>
      <trkpt lat="45.39745" lon="4.49323">
        <ele>778.80517578125</ele>
        <time>2010-08-15T09:38:01Z</time>
      </trkpt>
      <trkpt lat="45.39748" lon="4.49339">
        <ele>781.20874023438</ele>
        <time>2010-08-15T09:38:09Z</time>
      </trkpt>
      <trkpt lat="45.39751" lon="4.49359">
        <ele>783.61181640625</ele>
        <time>2010-08-15T09:38:19Z</time>
      </trkpt>
      <trkpt lat="45.39753" lon="4.49374">
        <ele>785.05395507812</ele>
        <time>2010-08-15T09:38:26Z</time>
      </trkpt>
      <trkpt lat="45.39754" lon="4.49389">
        <ele>786.01513671875</ele>
        <time>2010-08-15T09:38:33Z</time>
      </trkpt>
      <trkpt lat="45.39754" lon="4.49406">
        <ele>787.93774414062</ele>
        <time>2010-08-15T09:38:41Z</time>
      </trkpt>
      <trkpt lat="45.39754" lon="4.49423">
        <ele>789.8603515625</ele>
        <time>2010-08-15T09:38:49Z</time>
      </trkpt>
      <trkpt lat="45.39752" lon="4.49437">
        <ele>791.30224609375</ele>
        <time>2010-08-15T09:38:56Z</time>
      </trkpt>
      <trkpt lat="45.3975" lon="4.49458">
        <ele>794.18627929688</ele>
        <time>2010-08-15T09:39:06Z</time>
      </trkpt>
      <trkpt lat="45.39748" lon="4.49474">
        <ele>797.0703125</ele>
        <time>2010-08-15T09:39:14Z</time>
      </trkpt>
      <trkpt lat="45.39744" lon="4.49486">
        <ele>798.51220703125</ele>
        <time>2010-08-15T09:39:21Z</time>
      </trkpt>
      <trkpt lat="45.39739" lon="4.495">
        <ele>800.91552734375</ele>
        <time>2010-08-15T09:39:29Z</time>
      </trkpt>
      <trkpt lat="45.39738" lon="4.49504">
        <ele>801.876953125</ele>
        <time>2010-08-15T09:39:31Z</time>
      </trkpt>
      <trkpt lat="45.39736" lon="4.49513">
        <ele>803.31884765625</ele>
        <time>2010-08-15T09:39:36Z</time>
      </trkpt>
      <trkpt lat="45.39729" lon="4.49529">
        <ele>805.72216796875</ele>
        <time>2010-08-15T09:39:46Z</time>
      </trkpt>
      <trkpt lat="45.39721" lon="4.49537">
        <ele>805.72216796875</ele>
        <time>2010-08-15T09:39:53Z</time>
      </trkpt>
      <trkpt lat="45.39719" lon="4.49539">
        <ele>806.68334960938</ele>
        <time>2010-08-15T09:39:55Z</time>
      </trkpt>
      <trkpt lat="45.39712" lon="4.49546">
        <ele>810.52856445312</ele>
        <time>2010-08-15T09:40:01Z</time>
      </trkpt>
      <trkpt lat="45.39711" lon="4.49546">
        <ele>811.00927734375</ele>
        <time>2010-08-15T09:40:02Z</time>
      </trkpt>
      <trkpt lat="45.39709" lon="4.49548">
        <ele>812.93212890625</ele>
        <time>2010-08-15T09:40:04Z</time>
      </trkpt>
      <trkpt lat="45.39701" lon="4.49559">
        <ele>820.62255859375</ele>
        <time>2010-08-15T09:40:12Z</time>
      </trkpt>
      <trkpt lat="45.3969" lon="4.49567">
        <ele>823.50659179688</ele>
        <time>2010-08-15T09:40:20Z</time>
      </trkpt>
      <trkpt lat="45.39682" lon="4.49569">
        <ele>824.94848632812</ele>
        <time>2010-08-15T09:40:26Z</time>
      </trkpt>
      <trkpt lat="45.39672" lon="4.49571">
        <ele>826.39038085938</ele>
        <time>2010-08-15T09:40:34Z</time>
      </trkpt>
      <trkpt lat="45.39666" lon="4.4957">
        <ele>828.31323242188</ele>
        <time>2010-08-15T09:40:40Z</time>
      </trkpt>
      <trkpt lat="45.39657" lon="4.4957">
        <ele>828.31323242188</ele>
        <time>2010-08-15T09:40:47Z</time>
      </trkpt>
      <trkpt lat="45.39647" lon="4.4957">
        <ele>829.75512695312</ele>
        <time>2010-08-15T09:40:55Z</time>
      </trkpt>
      <trkpt lat="45.39634" lon="4.49568">
        <ele>830.71655273438</ele>
        <time>2010-08-15T09:41:05Z</time>
      </trkpt>
      <trkpt lat="45.39623" lon="4.49567">
        <ele>832.15844726562</ele>
        <time>2010-08-15T09:41:14Z</time>
      </trkpt>
      <trkpt lat="45.39617" lon="4.49566">
        <ele>833.60034179688</ele>
        <time>2010-08-15T09:41:20Z</time>
      </trkpt>
      <trkpt lat="45.39606" lon="4.49565">
        <ele>835.52294921875</ele>
        <time>2010-08-15T09:41:28Z</time>
      </trkpt>
      <trkpt lat="45.39596" lon="4.49565">
        <ele>838.40698242188</ele>
        <time>2010-08-15T09:41:36Z</time>
      </trkpt>
      <trkpt lat="45.39587" lon="4.49564">
        <ele>840.81005859375</ele>
        <time>2010-08-15T09:41:43Z</time>
      </trkpt>
      <trkpt lat="45.39582" lon="4.49563">
        <ele>843.69409179688</ele>
        <time>2010-08-15T09:41:48Z</time>
      </trkpt>
      <trkpt lat="45.39574" lon="4.49563">
        <ele>846.09765625</ele>
        <time>2010-08-15T09:41:55Z</time>
      </trkpt>
      <trkpt lat="45.39565" lon="4.49563">
        <ele>848.02026367188</ele>
        <time>2010-08-15T09:42:03Z</time>
      </trkpt>
      <trkpt lat="45.39559" lon="4.49564">
        <ele>848.9814453125</ele>
        <time>2010-08-15T09:42:08Z</time>
      </trkpt>
      <trkpt lat="45.3955" lon="4.49567">
        <ele>853.7880859375</ele>
        <time>2010-08-15T09:42:16Z</time>
      </trkpt>
      <trkpt lat="45.39545" lon="4.49568">
        <ele>855.22998046875</ele>
        <time>2010-08-15T09:42:20Z</time>
      </trkpt>
      <trkpt lat="45.39537" lon="4.49567">
        <ele>854.74926757812</ele>
        <time>2010-08-15T09:42:26Z</time>
      </trkpt>
      <trkpt lat="45.39523" lon="4.4957">
        <ele>856.19116210938</ele>
        <time>2010-08-15T09:42:37Z</time>
      </trkpt>
      <trkpt lat="45.39514" lon="4.4957">
        <ele>858.59448242188</ele>
        <time>2010-08-15T09:42:45Z</time>
      </trkpt>
      <trkpt lat="45.39505" lon="4.49571">
        <ele>861.47875976562</ele>
        <time>2010-08-15T09:42:52Z</time>
      </trkpt>
      <trkpt lat="45.39498" lon="4.49572">
        <ele>861.95947265625</ele>
        <time>2010-08-15T09:42:58Z</time>
      </trkpt>
      <trkpt lat="45.3949" lon="4.49573">
        <ele>863.4013671875</ele>
        <time>2010-08-15T09:43:05Z</time>
      </trkpt>
      <trkpt lat="45.39484" lon="4.49575">
        <ele>866.76586914062</ele>
        <time>2010-08-15T09:43:11Z</time>
      </trkpt>
      <trkpt lat="45.39477" lon="4.49577">
        <ele>866.76586914062</ele>
        <time>2010-08-15T09:43:17Z</time>
      </trkpt>
      <trkpt lat="45.39473" lon="4.49578">
        <ele>866.28515625</ele>
        <time>2010-08-15T09:43:20Z</time>
      </trkpt>
      <trkpt lat="45.39468" lon="4.49577">
        <ele>867.72705078125</ele>
        <time>2010-08-15T09:43:24Z</time>
      </trkpt>
      <trkpt lat="45.3946" lon="4.4958">
        <ele>869.64990234375</ele>
        <time>2010-08-15T09:43:30Z</time>
      </trkpt>
      <trkpt lat="45.39451" lon="4.49579">
        <ele>871.572265625</ele>
        <time>2010-08-15T09:43:36Z</time>
      </trkpt>
      <trkpt lat="45.39442" lon="4.49581">
        <ele>876.85986328125</ele>
        <time>2010-08-15T09:43:43Z</time>
      </trkpt>
      <trkpt lat="45.39428" lon="4.49586">
        <ele>875.41748046875</ele>
        <time>2010-08-15T09:43:50Z</time>
      </trkpt>
      <trkpt lat="45.3942" lon="4.49589">
        <ele>872.05297851562</ele>
        <time>2010-08-15T09:43:55Z</time>
      </trkpt>
      <trkpt lat="45.39412" lon="4.49597">
        <ele>870.61108398438</ele>
        <time>2010-08-15T09:44:03Z</time>
      </trkpt>
      <trkpt lat="45.39408" lon="4.49601">
        <ele>868.20776367188</ele>
        <time>2010-08-15T09:44:07Z</time>
      </trkpt>
      <trkpt lat="45.39399" lon="4.49609">
        <ele>866.76586914062</ele>
        <time>2010-08-15T09:44:15Z</time>
      </trkpt>
      <trkpt lat="45.39392" lon="4.49619">
        <ele>872.05297851562</ele>
        <time>2010-08-15T09:44:21Z</time>
      </trkpt>
      <trkpt lat="45.39391" lon="4.49624">
        <ele>874.93701171875</ele>
        <time>2010-08-15T09:44:23Z</time>
      </trkpt>
      <trkpt lat="45.39383" lon="4.49637">
        <ele>880.705078125</ele>
        <time>2010-08-15T09:44:32Z</time>
      </trkpt>
      <trkpt lat="45.39374" lon="4.49647">
        <ele>882.14697265625</ele>
        <time>2010-08-15T09:44:40Z</time>
      </trkpt>
      <trkpt lat="45.39367" lon="4.49658">
        <ele>885.03100585938</ele>
        <time>2010-08-15T09:44:49Z</time>
      </trkpt>
      <trkpt lat="45.3936" lon="4.49665">
        <ele>887.43408203125</ele>
        <time>2010-08-15T09:44:55Z</time>
      </trkpt>
      <trkpt lat="45.39355" lon="4.49671">
        <ele>888.87622070312</ele>
        <time>2010-08-15T09:45:01Z</time>
      </trkpt>
      <trkpt lat="45.39351" lon="4.49679">
        <ele>890.79858398438</ele>
        <time>2010-08-15T09:45:07Z</time>
      </trkpt>
      <trkpt lat="45.3935" lon="4.4968">
        <ele>890.79858398438</ele>
        <time>2010-08-15T09:45:08Z</time>
      </trkpt>
      <trkpt lat="45.39346" lon="4.49685">
        <ele>891.279296875</ele>
        <time>2010-08-15T09:45:12Z</time>
      </trkpt>
      <trkpt lat="45.39337" lon="4.49694">
        <ele>889.35668945312</ele>
        <time>2010-08-15T09:45:21Z</time>
      </trkpt>
      <trkpt lat="45.39327" lon="4.497">
        <ele>889.83740234375</ele>
        <time>2010-08-15T09:45:28Z</time>
      </trkpt>
      <trkpt lat="45.39324" lon="4.49701">
        <ele>890.79858398438</ele>
        <time>2010-08-15T09:45:30Z</time>
      </trkpt>
      <trkpt lat="45.3932" lon="4.49708">
        <ele>895.12475585938</ele>
        <time>2010-08-15T09:45:36Z</time>
      </trkpt>
      <trkpt lat="45.39317" lon="4.49714">
        <ele>900.892578125</ele>
        <time>2010-08-15T09:45:51Z</time>
      </trkpt>
      <trkpt lat="45.39318" lon="4.49716">
        <ele>902.33447265625</ele>
        <time>2010-08-15T09:46:00Z</time>
      </trkpt>
      <trkpt lat="45.39319" lon="4.4972">
        <ele>903.2958984375</ele>
        <time>2010-08-15T09:46:14Z</time>
      </trkpt>
      <trkpt lat="45.39318" lon="4.49721">
        <ele>904.73779296875</ele>
        <time>2010-08-15T09:46:24Z</time>
      </trkpt>
      <trkpt lat="45.39319" lon="4.49722">
        <ele>910.98657226562</ele>
        <time>2010-08-15T09:46:40Z</time>
      </trkpt>
      <trkpt lat="45.39312" lon="4.49724">
        <ele>911.46728515625</ele>
        <time>2010-08-15T09:46:46Z</time>
      </trkpt>
      <trkpt lat="45.39299" lon="4.49728">
        <ele>909.54467773438</ele>
        <time>2010-08-15T09:46:53Z</time>
      </trkpt>
      <trkpt lat="45.39282" lon="4.49731">
        <ele>907.14111328125</ele>
        <time>2010-08-15T09:47:00Z</time>
      </trkpt>
      <trkpt lat="45.39269" lon="4.49727">
        <ele>906.66040039062</ele>
        <time>2010-08-15T09:47:07Z</time>
      </trkpt>
      <trkpt lat="45.39257" lon="4.49724">
        <ele>907.62182617188</ele>
        <time>2010-08-15T09:47:13Z</time>
      </trkpt>
      <trkpt lat="45.3925" lon="4.49723">
        <ele>907.62182617188</ele>
        <time>2010-08-15T09:47:16Z</time>
      </trkpt>
      <trkpt lat="45.39238" lon="4.49721">
        <ele>909.06396484375</ele>
        <time>2010-08-15T09:47:22Z</time>
      </trkpt>
      <trkpt lat="45.39224" lon="4.49718">
        <ele>910.505859375</ele>
        <time>2010-08-15T09:47:28Z</time>
      </trkpt>
      <trkpt lat="45.39211" lon="4.49717">
        <ele>914.35107421875</ele>
        <time>2010-08-15T09:47:34Z</time>
      </trkpt>
      <trkpt lat="45.39205" lon="4.49718">
        <ele>918.1962890625</ele>
        <time>2010-08-15T09:47:37Z</time>
      </trkpt>
      <trkpt lat="45.39194" lon="4.49715">
        <ele>922.52221679688</ele>
        <time>2010-08-15T09:47:42Z</time>
      </trkpt>
      <trkpt lat="45.39181" lon="4.49712">
        <ele>927.8095703125</ele>
        <time>2010-08-15T09:47:49Z</time>
      </trkpt>
      <trkpt lat="45.39172" lon="4.4971">
        <ele>928.77099609375</ele>
        <time>2010-08-15T09:47:54Z</time>
      </trkpt>
      <trkpt lat="45.39156" lon="4.49704">
        <ele>923.96411132812</ele>
        <time>2010-08-15T09:48:02Z</time>
      </trkpt>
      <trkpt lat="45.39145" lon="4.49699">
        <ele>924.92578125</ele>
        <time>2010-08-15T09:48:09Z</time>
      </trkpt>
      <trkpt lat="45.39135" lon="4.49694">
        <ele>925.88696289062</ele>
        <time>2010-08-15T09:48:14Z</time>
      </trkpt>
      <trkpt lat="45.39123" lon="4.49686">
        <ele>926.84838867188</ele>
        <time>2010-08-15T09:48:20Z</time>
      </trkpt>
      <trkpt lat="45.39111" lon="4.49678">
        <ele>928.29028320312</ele>
        <time>2010-08-15T09:48:27Z</time>
      </trkpt>
      <trkpt lat="45.39098" lon="4.4967">
        <ele>929.25146484375</ele>
        <time>2010-08-15T09:48:33Z</time>
      </trkpt>
      <trkpt lat="45.39082" lon="4.4966">
        <ele>929.73217773438</ele>
        <time>2010-08-15T09:48:41Z</time>
      </trkpt>
      <trkpt lat="45.39062" lon="4.4965">
        <ele>930.212890625</ele>
        <time>2010-08-15T09:48:50Z</time>
      </trkpt>
      <trkpt lat="45.39048" lon="4.49644">
        <ele>931.65478515625</ele>
        <time>2010-08-15T09:48:57Z</time>
      </trkpt>
      <trkpt lat="45.3904" lon="4.4964">
        <ele>933.57739257812</ele>
        <time>2010-08-15T09:49:03Z</time>
      </trkpt>
      <trkpt lat="45.3904" lon="4.49639">
        <ele>934.53881835938</ele>
        <time>2010-08-15T09:49:12Z</time>
      </trkpt>
      <trkpt lat="45.39039" lon="4.49641">
        <ele>936.46142578125</ele>
        <time>2010-08-15T09:49:16Z</time>
      </trkpt>
      <trkpt lat="45.39039" lon="4.49641">
        <ele>938.38403320312</ele>
        <time>2010-08-15T09:49:28Z</time>
      </trkpt>
      <trkpt lat="45.39039" lon="4.49641">
        <ele>937.9033203125</ele>
        <time>2010-08-15T09:49:45Z</time>
      </trkpt>
      <trkpt lat="45.3904" lon="4.49641">
        <ele>938.86474609375</ele>
        <time>2010-08-15T09:49:51Z</time>
      </trkpt>
      <trkpt lat="45.3904" lon="4.4964">
        <ele>937.9033203125</ele>
        <time>2010-08-15T09:49:58Z</time>
      </trkpt>
      <trkpt lat="45.3904" lon="4.49639">
        <ele>935.5</ele>
        <time>2010-08-15T09:50:09Z</time>
      </trkpt>
      <trkpt lat="45.3904" lon="4.49638">
        <ele>935.01953125</ele>
        <time>2010-08-15T09:50:18Z</time>
      </trkpt>
      <trkpt lat="45.3904" lon="4.49639">
        <ele>934.53881835938</ele>
        <time>2010-08-15T09:50:26Z</time>
      </trkpt>
      <trkpt lat="45.3904" lon="4.49638">
        <ele>933.0966796875</ele>
        <time>2010-08-15T09:50:43Z</time>
      </trkpt>
      <trkpt lat="45.39041" lon="4.49638">
        <ele>930.69360351562</ele>
        <time>2010-08-15T09:51:03Z</time>
      </trkpt>
      <trkpt lat="45.3904" lon="4.49636">
        <ele>928.29028320312</ele>
        <time>2010-08-15T09:51:15Z</time>
      </trkpt>
      <trkpt lat="45.39042" lon="4.49636">
        <ele>925.88696289062</ele>
        <time>2010-08-15T09:51:22Z</time>
      </trkpt>
      <trkpt lat="45.39043" lon="4.49636">
        <ele>923.0029296875</ele>
        <time>2010-08-15T09:51:29Z</time>
      </trkpt>
      <trkpt lat="45.39044" lon="4.49634">
        <ele>924.44506835938</ele>
        <time>2010-08-15T09:51:48Z</time>
      </trkpt>
      <trkpt lat="45.39042" lon="4.49624">
        <ele>928.77099609375</ele>
        <time>2010-08-15T09:52:13Z</time>
      </trkpt>
      <trkpt lat="45.39037" lon="4.49625">
        <ele>943.67138671875</ele>
        <time>2010-08-15T09:52:51Z</time>
      </trkpt>
      <trkpt lat="45.39037" lon="4.49631">
        <ele>944.15209960938</ele>
        <time>2010-08-15T09:53:11Z</time>
      </trkpt>
      <trkpt lat="45.39038" lon="4.49633">
        <ele>936.46142578125</ele>
        <time>2010-08-15T09:53:37Z</time>
      </trkpt>
      <trkpt lat="45.39038" lon="4.49633">
        <ele>936.46142578125</ele>
        <time>2010-08-15T09:53:47Z</time>
      </trkpt>
      <trkpt lat="45.39037" lon="4.49636">
        <ele>933.0966796875</ele>
        <time>2010-08-15T09:54:09Z</time>
      </trkpt>
      <trkpt lat="45.39036" lon="4.4964">
        <ele>938.38403320312</ele>
        <time>2010-08-15T09:54:21Z</time>
      </trkpt>
      <trkpt lat="45.39036" lon="4.49642">
        <ele>944.63256835938</ele>
        <time>2010-08-15T09:55:08Z</time>
      </trkpt>
      <trkpt lat="45.39038" lon="4.49645">
        <ele>944.63256835938</ele>
        <time>2010-08-15T09:55:35Z</time>
      </trkpt>
      <trkpt lat="45.39042" lon="4.49653">
        <ele>952.8037109375</ele>
        <time>2010-08-15T09:56:15Z</time>
      </trkpt>
      <trkpt lat="45.3905" lon="4.49647">
        <ele>951.36181640625</ele>
        <time>2010-08-15T09:56:21Z</time>
      </trkpt>
      <trkpt lat="45.39052" lon="4.49648">
        <ele>950.40063476562</ele>
        <time>2010-08-15T09:56:23Z</time>
      </trkpt>
      <trkpt lat="45.39063" lon="4.49652">
        <ele>947.03588867188</ele>
        <time>2010-08-15T09:56:30Z</time>
      </trkpt>
      <trkpt lat="45.39075" lon="4.4965">
        <ele>942.71020507812</ele>
        <time>2010-08-15T09:56:37Z</time>
      </trkpt>
      <trkpt lat="45.39081" lon="4.49646">
        <ele>942.71020507812</ele>
        <time>2010-08-15T09:56:41Z</time>
      </trkpt>
      <trkpt lat="45.39093" lon="4.49644">
        <ele>942.71020507812</ele>
        <time>2010-08-15T09:56:47Z</time>
      </trkpt>
      <trkpt lat="45.39112" lon="4.49642">
        <ele>943.19067382812</ele>
        <time>2010-08-15T09:56:56Z</time>
      </trkpt>
      <trkpt lat="45.39124" lon="4.4964">
        <ele>943.67138671875</ele>
        <time>2010-08-15T09:57:02Z</time>
      </trkpt>
      <trkpt lat="45.39127" lon="4.49639">
        <ele>944.15209960938</ele>
        <time>2010-08-15T09:57:04Z</time>
      </trkpt>
      <trkpt lat="45.39135" lon="4.4964">
        <ele>945.59399414062</ele>
        <time>2010-08-15T09:57:08Z</time>
      </trkpt>
      <trkpt lat="45.39146" lon="4.49638">
        <ele>946.55541992188</ele>
        <time>2010-08-15T09:57:14Z</time>
      </trkpt>
      <trkpt lat="45.39157" lon="4.49638">
        <ele>952.32299804688</ele>
        <time>2010-08-15T09:57:20Z</time>
      </trkpt>
      <trkpt lat="45.39169" lon="4.49632">
        <ele>952.8037109375</ele>
        <time>2010-08-15T09:57:27Z</time>
      </trkpt>
      <trkpt lat="45.39182" lon="4.49622">
        <ele>953.28442382812</ele>
        <time>2010-08-15T09:57:36Z</time>
      </trkpt>
      <trkpt lat="45.39193" lon="4.49614">
        <ele>955.20703125</ele>
        <time>2010-08-15T09:57:43Z</time>
      </trkpt>
      <trkpt lat="45.39202" lon="4.4961">
        <ele>956.64916992188</ele>
        <time>2010-08-15T09:57:49Z</time>
      </trkpt>
      <trkpt lat="45.39212" lon="4.49601">
        <ele>953.76513671875</ele>
        <time>2010-08-15T09:57:56Z</time>
      </trkpt>
      <trkpt lat="45.39222" lon="4.49588">
        <ele>952.8037109375</ele>
        <time>2010-08-15T09:58:04Z</time>
      </trkpt>
      <trkpt lat="45.3923" lon="4.49573">
        <ele>953.76513671875</ele>
        <time>2010-08-15T09:58:11Z</time>
      </trkpt>
      <trkpt lat="45.39235" lon="4.49557">
        <ele>955.20703125</ele>
        <time>2010-08-15T09:58:17Z</time>
      </trkpt>
      <trkpt lat="45.39242" lon="4.49537">
        <ele>959.533203125</ele>
        <time>2010-08-15T09:58:24Z</time>
      </trkpt>
      <trkpt lat="45.39248" lon="4.49515">
        <ele>961.9365234375</ele>
        <time>2010-08-15T09:58:31Z</time>
      </trkpt>
      <trkpt lat="45.39254" lon="4.49497">
        <ele>965.78173828125</ele>
        <time>2010-08-15T09:58:38Z</time>
      </trkpt>
      <trkpt lat="45.39254" lon="4.49479">
        <ele>968.66552734375</ele>
        <time>2010-08-15T09:58:43Z</time>
      </trkpt>
      <trkpt lat="45.39254" lon="4.49455">
        <ele>970.58813476562</ele>
        <time>2010-08-15T09:58:49Z</time>
      </trkpt>
      <trkpt lat="45.39255" lon="4.49435">
        <ele>972.0302734375</ele>
        <time>2010-08-15T09:58:55Z</time>
      </trkpt>
      <trkpt lat="45.39256" lon="4.49416">
        <ele>971.54931640625</ele>
        <time>2010-08-15T09:59:01Z</time>
      </trkpt>
      <trkpt lat="45.39258" lon="4.49398">
        <ele>970.107421875</ele>
        <time>2010-08-15T09:59:07Z</time>
      </trkpt>
      <trkpt lat="45.39257" lon="4.49373">
        <ele>966.74291992188</ele>
        <time>2010-08-15T09:59:16Z</time>
      </trkpt>
      <trkpt lat="45.39258" lon="4.4937">
        <ele>966.74291992188</ele>
        <time>2010-08-15T09:59:17Z</time>
      </trkpt>
      <trkpt lat="45.39258" lon="4.49352">
        <ele>965.78173828125</ele>
        <time>2010-08-15T09:59:23Z</time>
      </trkpt>
      <trkpt lat="45.39259" lon="4.49349">
        <ele>965.78173828125</ele>
        <time>2010-08-15T09:59:24Z</time>
      </trkpt>
      <trkpt lat="45.39256" lon="4.49319">
        <ele>967.7041015625</ele>
        <time>2010-08-15T09:59:33Z</time>
      </trkpt>
      <trkpt lat="45.39253" lon="4.49294">
        <ele>971.54931640625</ele>
        <time>2010-08-15T09:59:40Z</time>
      </trkpt>
      <trkpt lat="45.39249" lon="4.49277">
        <ele>973.95288085938</ele>
        <time>2010-08-15T09:59:46Z</time>
      </trkpt>
      <trkpt lat="45.39246" lon="4.49259">
        <ele>975.39477539062</ele>
        <time>2010-08-15T09:59:52Z</time>
      </trkpt>
      <trkpt lat="45.39242" lon="4.49245">
        <ele>978.27880859375</ele>
        <time>2010-08-15T09:59:58Z</time>
      </trkpt>
      <trkpt lat="45.39237" lon="4.49226">
        <ele>979.23999023438</ele>
        <time>2010-08-15T10:00:05Z</time>
      </trkpt>
      <trkpt lat="45.39232" lon="4.49206">
        <ele>979.720703125</ele>
        <time>2010-08-15T10:00:12Z</time>
      </trkpt>
      <trkpt lat="45.39224" lon="4.49186">
        <ele>980.20141601562</ele>
        <time>2010-08-15T10:00:19Z</time>
      </trkpt>
      <trkpt lat="45.39215" lon="4.49168">
        <ele>983.08520507812</ele>
        <time>2010-08-15T10:00:25Z</time>
      </trkpt>
      <trkpt lat="45.39202" lon="4.49146">
        <ele>985.96923828125</ele>
        <time>2010-08-15T10:00:34Z</time>
      </trkpt>
      <trkpt lat="45.39185" lon="4.49124">
        <ele>990.29541015625</ele>
        <time>2010-08-15T10:00:43Z</time>
      </trkpt>
      <trkpt lat="45.39174" lon="4.49101">
        <ele>993.65991210938</ele>
        <time>2010-08-15T10:00:50Z</time>
      </trkpt>
      <trkpt lat="45.39165" lon="4.49085">
        <ele>995.58251953125</ele>
        <time>2010-08-15T10:00:56Z</time>
      </trkpt>
      <trkpt lat="45.3915" lon="4.49064">
        <ele>998.94702148438</ele>
        <time>2010-08-15T10:01:05Z</time>
      </trkpt>
      <trkpt lat="45.39134" lon="4.49051">
        <ele>1000.8696289062</ele>
        <time>2010-08-15T10:01:12Z</time>
      </trkpt>
      <trkpt lat="45.39112" lon="4.49038">
        <ele>1004.2346191406</ele>
        <time>2010-08-15T10:01:21Z</time>
      </trkpt>
      <trkpt lat="45.39103" lon="4.49029">
        <ele>1004.2346191406</ele>
        <time>2010-08-15T10:01:26Z</time>
      </trkpt>
      <trkpt lat="45.39093" lon="4.49012">
        <ele>1004.7150878906</ele>
        <time>2010-08-15T10:01:32Z</time>
      </trkpt>
      <trkpt lat="45.39085" lon="4.4899">
        <ele>1006.6376953125</ele>
        <time>2010-08-15T10:01:38Z</time>
      </trkpt>
      <trkpt lat="45.39079" lon="4.48973">
        <ele>1008.0798339844</ele>
        <time>2010-08-15T10:01:43Z</time>
      </trkpt>
      <trkpt lat="45.39072" lon="4.4896">
        <ele>1010.9636230469</ele>
        <time>2010-08-15T10:01:48Z</time>
      </trkpt>
      <trkpt lat="45.39067" lon="4.48949">
        <ele>1014.328125</ele>
        <time>2010-08-15T10:01:53Z</time>
      </trkpt>
      <trkpt lat="45.39063" lon="4.4893">
        <ele>1014.328125</ele>
        <time>2010-08-15T10:01:59Z</time>
      </trkpt>
      <trkpt lat="45.39059" lon="4.48916">
        <ele>1014.328125</ele>
        <time>2010-08-15T10:02:04Z</time>
      </trkpt>
      <trkpt lat="45.39054" lon="4.48897">
        <ele>1015.7702636719</ele>
        <time>2010-08-15T10:02:09Z</time>
      </trkpt>
      <trkpt lat="45.39051" lon="4.48885">
        <ele>1017.2121582031</ele>
        <time>2010-08-15T10:02:13Z</time>
      </trkpt>
      <trkpt lat="45.39046" lon="4.48867">
        <ele>1020.0961914062</ele>
        <time>2010-08-15T10:02:18Z</time>
      </trkpt>
      <trkpt lat="45.39043" lon="4.48847">
        <ele>1020.0961914062</ele>
        <time>2010-08-15T10:02:23Z</time>
      </trkpt>
      <trkpt lat="45.39038" lon="4.48824">
        <ele>1022.0187988281</ele>
        <time>2010-08-15T10:02:28Z</time>
      </trkpt>
      <trkpt lat="45.39033" lon="4.48804">
        <ele>1022.9802246094</ele>
        <time>2010-08-15T10:02:33Z</time>
      </trkpt>
      <trkpt lat="45.39028" lon="4.48783">
        <ele>1023.94140625</ele>
        <time>2010-08-15T10:02:38Z</time>
      </trkpt>
      <trkpt lat="45.3902" lon="4.48756">
        <ele>1023.94140625</ele>
        <time>2010-08-15T10:02:44Z</time>
      </trkpt>
      <trkpt lat="45.39011" lon="4.48725">
        <ele>1023.94140625</ele>
        <time>2010-08-15T10:02:51Z</time>
      </trkpt>
      <trkpt lat="45.39005" lon="4.48699">
        <ele>1028.2673339844</ele>
        <time>2010-08-15T10:02:57Z</time>
      </trkpt>
      <trkpt lat="45.38999" lon="4.48669">
        <ele>1026.8254394531</ele>
        <time>2010-08-15T10:03:03Z</time>
      </trkpt>
      <trkpt lat="45.38995" lon="4.48634">
        <ele>1024.4221191406</ele>
        <time>2010-08-15T10:03:10Z</time>
      </trkpt>
      <trkpt lat="45.38992" lon="4.48607">
        <ele>1026.3447265625</ele>
        <time>2010-08-15T10:03:16Z</time>
      </trkpt>
      <trkpt lat="45.38987" lon="4.48582">
        <ele>1028.2673339844</ele>
        <time>2010-08-15T10:03:22Z</time>
      </trkpt>
      <trkpt lat="45.38977" lon="4.48555">
        <ele>1032.1125488281</ele>
        <time>2010-08-15T10:03:28Z</time>
      </trkpt>
      <trkpt lat="45.38961" lon="4.48533">
        <ele>1032.5932617188</ele>
        <time>2010-08-15T10:03:35Z</time>
      </trkpt>
      <trkpt lat="45.38939" lon="4.48502">
        <ele>1031.6318359375</ele>
        <time>2010-08-15T10:03:44Z</time>
      </trkpt>
      <trkpt lat="45.38937" lon="4.48477">
        <ele>1030.1899414062</ele>
        <time>2010-08-15T10:03:49Z</time>
      </trkpt>
      <trkpt lat="45.38946" lon="4.48456">
        <ele>1031.6318359375</ele>
        <time>2010-08-15T10:03:54Z</time>
      </trkpt>
      <trkpt lat="45.38963" lon="4.48446">
        <ele>1033.0737304688</ele>
        <time>2010-08-15T10:03:59Z</time>
      </trkpt>
      <trkpt lat="45.38979" lon="4.48425">
        <ele>1034.5158691406</ele>
        <time>2010-08-15T10:04:05Z</time>
      </trkpt>
      <trkpt lat="45.38988" lon="4.48395">
        <ele>1035.4770507812</ele>
        <time>2010-08-15T10:04:11Z</time>
      </trkpt>
      <trkpt lat="45.38992" lon="4.48354">
        <ele>1035.9577636719</ele>
        <time>2010-08-15T10:04:19Z</time>
      </trkpt>
      <trkpt lat="45.38992" lon="4.48313">
        <ele>1036.9191894531</ele>
        <time>2010-08-15T10:04:28Z</time>
      </trkpt>
      <trkpt lat="45.38984" lon="4.4828">
        <ele>1037.3999023438</ele>
        <time>2010-08-15T10:04:36Z</time>
      </trkpt>
      <trkpt lat="45.38973" lon="4.48252">
        <ele>1038.361328125</ele>
        <time>2010-08-15T10:04:44Z</time>
      </trkpt>
      <trkpt lat="45.38966" lon="4.48244">
        <ele>1038.361328125</ele>
        <time>2010-08-15T10:04:49Z</time>
      </trkpt>
      <trkpt lat="45.38965" lon="4.48246">
        <ele>1039.3225097656</ele>
        <time>2010-08-15T10:04:56Z</time>
      </trkpt>
      <trkpt lat="45.38964" lon="4.48245">
        <ele>1040.2839355469</ele>
        <time>2010-08-15T10:05:11Z</time>
      </trkpt>
      <trkpt lat="45.38964" lon="4.48246">
        <ele>1041.7258300781</ele>
        <time>2010-08-15T10:05:21Z</time>
      </trkpt>
      <trkpt lat="45.38964" lon="4.48246">
        <ele>1043.1677246094</ele>
        <time>2010-08-15T10:05:36Z</time>
      </trkpt>
      <trkpt lat="45.38963" lon="4.48246">
        <ele>1044.6096191406</ele>
        <time>2010-08-15T10:05:51Z</time>
      </trkpt>
      <trkpt lat="45.38963" lon="4.48246">
        <ele>1047.4936523438</ele>
        <time>2010-08-15T10:06:05Z</time>
      </trkpt>
      <trkpt lat="45.38963" lon="4.48246">
        <ele>1047.4936523438</ele>
        <time>2010-08-15T10:06:18Z</time>
      </trkpt>
      <trkpt lat="45.38963" lon="4.48246">
        <ele>1048.935546875</ele>
        <time>2010-08-15T10:06:26Z</time>
      </trkpt>
      <trkpt lat="45.38963" lon="4.48245">
        <ele>1047.9743652344</ele>
        <time>2010-08-15T10:06:35Z</time>
      </trkpt>
      <trkpt lat="45.38964" lon="4.48245">
        <ele>1047.4936523438</ele>
        <time>2010-08-15T10:06:43Z</time>
      </trkpt>
      <trkpt lat="45.38964" lon="4.48244">
        <ele>1046.5324707031</ele>
        <time>2010-08-15T10:06:55Z</time>
      </trkpt>
      <trkpt lat="45.38964" lon="4.48243">
        <ele>1044.6096191406</ele>
        <time>2010-08-15T10:07:03Z</time>
      </trkpt>
      <trkpt lat="45.38964" lon="4.48243">
        <ele>1045.0903320312</ele>
        <time>2010-08-15T10:07:15Z</time>
      </trkpt>
      <trkpt lat="45.38964" lon="4.48243">
        <ele>1043.6484375</ele>
        <time>2010-08-15T10:07:22Z</time>
      </trkpt>
      <trkpt lat="45.38963" lon="4.48243">
        <ele>1042.6872558594</ele>
        <time>2010-08-15T10:07:32Z</time>
      </trkpt>
      <trkpt lat="45.38963" lon="4.48243">
        <ele>1041.7258300781</ele>
        <time>2010-08-15T10:07:42Z</time>
      </trkpt>
      <trkpt lat="45.38964" lon="4.48243">
        <ele>1041.7258300781</ele>
        <time>2010-08-15T10:07:54Z</time>
      </trkpt>
      <trkpt lat="45.38964" lon="4.48244">
        <ele>1041.7258300781</ele>
        <time>2010-08-15T10:08:05Z</time>
      </trkpt>
      <trkpt lat="45.38964" lon="4.48244">
        <ele>1041.7258300781</ele>
        <time>2010-08-15T10:08:26Z</time>
      </trkpt>
      <trkpt lat="45.38966" lon="4.48245">
        <ele>1039.8032226562</ele>
        <time>2010-08-15T10:08:56Z</time>
      </trkpt>
      <trkpt lat="45.38966" lon="4.48245">
        <ele>1039.8032226562</ele>
        <time>2010-08-15T10:09:06Z</time>
      </trkpt>
      <trkpt lat="45.38966" lon="4.48244">
        <ele>1039.8032226562</ele>
        <time>2010-08-15T10:09:13Z</time>
      </trkpt>
      <trkpt lat="45.38966" lon="4.48244">
        <ele>1040.7644042969</ele>
        <time>2010-08-15T10:09:25Z</time>
      </trkpt>
      <trkpt lat="45.38966" lon="4.48243">
        <ele>1040.7644042969</ele>
        <time>2010-08-15T10:09:35Z</time>
      </trkpt>
      <trkpt lat="45.38965" lon="4.48243">
        <ele>1039.3225097656</ele>
        <time>2010-08-15T10:09:42Z</time>
      </trkpt>
      <trkpt lat="45.38964" lon="4.48242">
        <ele>1039.8032226562</ele>
        <time>2010-08-15T10:10:07Z</time>
      </trkpt>
      <trkpt lat="45.38964" lon="4.48243">
        <ele>1039.8032226562</ele>
        <time>2010-08-15T10:10:17Z</time>
      </trkpt>
      <trkpt lat="45.38963" lon="4.48244">
        <ele>1040.2839355469</ele>
        <time>2010-08-15T10:10:24Z</time>
      </trkpt>
      <trkpt lat="45.38964" lon="4.48246">
        <ele>1044.6096191406</ele>
        <time>2010-08-15T10:10:43Z</time>
      </trkpt>
      <trkpt lat="45.38964" lon="4.48246">
        <ele>1045.5710449219</ele>
        <time>2010-08-15T10:11:15Z</time>
      </trkpt>
      <trkpt lat="45.38964" lon="4.48245">
        <ele>1044.1291503906</ele>
        <time>2010-08-15T10:11:30Z</time>
      </trkpt>
      <trkpt lat="45.38964" lon="4.48245">
        <ele>1043.6484375</ele>
        <time>2010-08-15T10:11:35Z</time>
      </trkpt>
      <trkpt lat="45.38965" lon="4.48244">
        <ele>1043.6484375</ele>
        <time>2010-08-15T10:11:50Z</time>
      </trkpt>
      <trkpt lat="45.38965" lon="4.48243">
        <ele>1041.2451171875</ele>
        <time>2010-08-15T10:12:11Z</time>
      </trkpt>
      <trkpt lat="45.38964" lon="4.48244">
        <ele>1041.2451171875</ele>
        <time>2010-08-15T10:12:34Z</time>
      </trkpt>
      <trkpt lat="45.38964" lon="4.48244">
        <ele>1042.6872558594</ele>
        <time>2010-08-15T10:12:39Z</time>
      </trkpt>
      <trkpt lat="45.38963" lon="4.48248">
        <ele>1043.1677246094</ele>
        <time>2010-08-15T10:12:50Z</time>
      </trkpt>
      <trkpt lat="45.38952" lon="4.48263">
        <ele>1044.1291503906</ele>
        <time>2010-08-15T10:12:58Z</time>
      </trkpt>
      <trkpt lat="45.38942" lon="4.48276">
        <ele>1044.6096191406</ele>
        <time>2010-08-15T10:13:06Z</time>
      </trkpt>
      <trkpt lat="45.38934" lon="4.48285">
        <ele>1044.6096191406</ele>
        <time>2010-08-15T10:13:11Z</time>
      </trkpt>
      <trkpt lat="45.3892" lon="4.48301">
        <ele>1045.0903320312</ele>
        <time>2010-08-15T10:13:19Z</time>
      </trkpt>
      <trkpt lat="45.3891" lon="4.48311">
        <ele>1046.0517578125</ele>
        <time>2010-08-15T10:13:24Z</time>
      </trkpt>
      <trkpt lat="45.38897" lon="4.48325">
        <ele>1046.5324707031</ele>
        <time>2010-08-15T10:13:31Z</time>
      </trkpt>
      <trkpt lat="45.38877" lon="4.4835">
        <ele>1047.4936523438</ele>
        <time>2010-08-15T10:13:40Z</time>
      </trkpt>
      <trkpt lat="45.38855" lon="4.48374">
        <ele>1047.9743652344</ele>
        <time>2010-08-15T10:13:49Z</time>
      </trkpt>
      <trkpt lat="45.3884" lon="4.48385">
        <ele>1049.4162597656</ele>
        <time>2010-08-15T10:13:55Z</time>
      </trkpt>
      <trkpt lat="45.38821" lon="4.48389">
        <ele>1050.8581542969</ele>
        <time>2010-08-15T10:14:02Z</time>
      </trkpt>
      <trkpt lat="45.38806" lon="4.48399">
        <ele>1052.7810058594</ele>
        <time>2010-08-15T10:14:08Z</time>
      </trkpt>
      <trkpt lat="45.3879" lon="4.48412">
        <ele>1053.7424316406</ele>
        <time>2010-08-15T10:14:14Z</time>
      </trkpt>
      <trkpt lat="45.38771" lon="4.48423">
        <ele>1055.1843261719</ele>
        <time>2010-08-15T10:14:22Z</time>
      </trkpt>
      <trkpt lat="45.38754" lon="4.48437">
        <ele>1057.5876464844</ele>
        <time>2010-08-15T10:14:30Z</time>
      </trkpt>
      <trkpt lat="45.38744" lon="4.48449">
        <ele>1059.5102539062</ele>
        <time>2010-08-15T10:14:36Z</time>
      </trkpt>
      <trkpt lat="45.3873" lon="4.4846">
        <ele>1061.4328613281</ele>
        <time>2010-08-15T10:14:43Z</time>
      </trkpt>
      <trkpt lat="45.38714" lon="4.48472">
        <ele>1063.35546875</ele>
        <time>2010-08-15T10:14:51Z</time>
      </trkpt>
      <trkpt lat="45.38702" lon="4.48481">
        <ele>1065.2780761719</ele>
        <time>2010-08-15T10:14:57Z</time>
      </trkpt>
      <trkpt lat="45.38692" lon="4.48491">
        <ele>1067.6811523438</ele>
        <time>2010-08-15T10:15:03Z</time>
      </trkpt>
      <trkpt lat="45.38681" lon="4.48504">
        <ele>1070.0847167969</ele>
        <time>2010-08-15T10:15:10Z</time>
      </trkpt>
      <trkpt lat="45.3867" lon="4.48512">
        <ele>1071.5266113281</ele>
        <time>2010-08-15T10:15:17Z</time>
      </trkpt>
      <trkpt lat="45.38656" lon="4.48521">
        <ele>1072.4880371094</ele>
        <time>2010-08-15T10:15:26Z</time>
      </trkpt>
      <trkpt lat="45.38645" lon="4.48531">
        <ele>1074.4106445312</ele>
        <time>2010-08-15T10:15:34Z</time>
      </trkpt>
      <trkpt lat="45.38637" lon="4.48541">
        <ele>1077.7751464844</ele>
        <time>2010-08-15T10:15:40Z</time>
      </trkpt>
      <trkpt lat="45.38631" lon="4.48551">
        <ele>1084.5046386719</ele>
        <time>2010-08-15T10:15:47Z</time>
      </trkpt>
      <trkpt lat="45.38625" lon="4.48561">
        <ele>1084.9853515625</ele>
        <time>2010-08-15T10:15:52Z</time>
      </trkpt>
      <trkpt lat="45.38614" lon="4.48575">
        <ele>1087.869140625</ele>
        <time>2010-08-15T10:15:59Z</time>
      </trkpt>
      <trkpt lat="45.38605" lon="4.48588">
        <ele>1090.2724609375</ele>
        <time>2010-08-15T10:16:05Z</time>
      </trkpt>
      <trkpt lat="45.38596" lon="4.48599">
        <ele>1089.7917480469</ele>
        <time>2010-08-15T10:16:10Z</time>
      </trkpt>
      <trkpt lat="45.38585" lon="4.48613">
        <ele>1092.1950683594</ele>
        <time>2010-08-15T10:16:16Z</time>
      </trkpt>
      <trkpt lat="45.38574" lon="4.48627">
        <ele>1093.6369628906</ele>
        <time>2010-08-15T10:16:22Z</time>
      </trkpt>
      <trkpt lat="45.38562" lon="4.48638">
        <ele>1095.5595703125</ele>
        <time>2010-08-15T10:16:28Z</time>
      </trkpt>
      <trkpt lat="45.38551" lon="4.48648">
        <ele>1096.0402832031</ele>
        <time>2010-08-15T10:16:33Z</time>
      </trkpt>
      <trkpt lat="45.38541" lon="4.48661">
        <ele>1094.1176757812</ele>
        <time>2010-08-15T10:16:38Z</time>
      </trkpt>
      <trkpt lat="45.38528" lon="4.48676">
        <ele>1094.1176757812</ele>
        <time>2010-08-15T10:16:44Z</time>
      </trkpt>
      <trkpt lat="45.3852" lon="4.48694">
        <ele>1092.1950683594</ele>
        <time>2010-08-15T10:16:49Z</time>
      </trkpt>
      <trkpt lat="45.38504" lon="4.48722">
        <ele>1093.15625</ele>
        <time>2010-08-15T10:16:55Z</time>
      </trkpt>
      <trkpt lat="45.38489" lon="4.48748">
        <ele>1094.1176757812</ele>
        <time>2010-08-15T10:17:01Z</time>
      </trkpt>
      <trkpt lat="45.38467" lon="4.48785">
        <ele>1093.6369628906</ele>
        <time>2010-08-15T10:17:10Z</time>
      </trkpt>
      <trkpt lat="45.38452" lon="4.48814">
        <ele>1094.1176757812</ele>
        <time>2010-08-15T10:17:17Z</time>
      </trkpt>
      <trkpt lat="45.38437" lon="4.48846">
        <ele>1094.5981445312</ele>
        <time>2010-08-15T10:17:24Z</time>
      </trkpt>
      <trkpt lat="45.3842" lon="4.48867">
        <ele>1094.1176757812</ele>
        <time>2010-08-15T10:17:30Z</time>
      </trkpt>
      <trkpt lat="45.38406" lon="4.48887">
        <ele>1093.15625</ele>
        <time>2010-08-15T10:17:37Z</time>
      </trkpt>
      <trkpt lat="45.38391" lon="4.48908">
        <ele>1093.15625</ele>
        <time>2010-08-15T10:17:45Z</time>
      </trkpt>
      <trkpt lat="45.3838" lon="4.48924">
        <ele>1093.6369628906</ele>
        <time>2010-08-15T10:17:51Z</time>
      </trkpt>
      <trkpt lat="45.3836" lon="4.48949">
        <ele>1094.1176757812</ele>
        <time>2010-08-15T10:18:00Z</time>
      </trkpt>
      <trkpt lat="45.38344" lon="4.48967">
        <ele>1095.0788574219</ele>
        <time>2010-08-15T10:18:07Z</time>
      </trkpt>
      <trkpt lat="45.38324" lon="4.48985">
        <ele>1096.0402832031</ele>
        <time>2010-08-15T10:18:14Z</time>
      </trkpt>
      <trkpt lat="45.38301" lon="4.49002">
        <ele>1096.0402832031</ele>
        <time>2010-08-15T10:18:21Z</time>
      </trkpt>
      <trkpt lat="45.38281" lon="4.49021">
        <ele>1097.0014648438</ele>
        <time>2010-08-15T10:18:27Z</time>
      </trkpt>
      <trkpt lat="45.38244" lon="4.49049">
        <ele>1099.4047851562</ele>
        <time>2010-08-15T10:18:37Z</time>
      </trkpt>
      <trkpt lat="45.38227" lon="4.49065">
        <ele>1100.8469238281</ele>
        <time>2010-08-15T10:18:42Z</time>
      </trkpt>
      <trkpt lat="45.38203" lon="4.49089">
        <ele>1103.2502441406</ele>
        <time>2010-08-15T10:18:51Z</time>
      </trkpt>
      <trkpt lat="45.38186" lon="4.49103">
        <ele>1103.7309570312</ele>
        <time>2010-08-15T10:18:57Z</time>
      </trkpt>
      <trkpt lat="45.38167" lon="4.49112">
        <ele>1105.1728515625</ele>
        <time>2010-08-15T10:19:04Z</time>
      </trkpt>
      <trkpt lat="45.38148" lon="4.49123">
        <ele>1106.1340332031</ele>
        <time>2010-08-15T10:19:11Z</time>
      </trkpt>
      <trkpt lat="45.38125" lon="4.49132">
        <ele>1107.0954589844</ele>
        <time>2010-08-15T10:19:20Z</time>
      </trkpt>
      <trkpt lat="45.38105" lon="4.49142">
        <ele>1107.576171875</ele>
        <time>2010-08-15T10:19:28Z</time>
      </trkpt>
      <trkpt lat="45.38083" lon="4.49155">
        <ele>1108.5373535156</ele>
        <time>2010-08-15T10:19:35Z</time>
      </trkpt>
      <trkpt lat="45.38059" lon="4.49171">
        <ele>1109.0180664062</ele>
        <time>2010-08-15T10:19:42Z</time>
      </trkpt>
      <trkpt lat="45.3803" lon="4.49189">
        <ele>1109.9792480469</ele>
        <time>2010-08-15T10:19:51Z</time>
      </trkpt>
      <trkpt lat="45.38004" lon="4.49206">
        <ele>1111.4213867188</ele>
        <time>2010-08-15T10:20:00Z</time>
      </trkpt>
      <trkpt lat="45.3798" lon="4.49223">
        <ele>1112.86328125</ele>
        <time>2010-08-15T10:20:09Z</time>
      </trkpt>
      <trkpt lat="45.37957" lon="4.49243">
        <ele>1114.3051757812</ele>
        <time>2010-08-15T10:20:18Z</time>
      </trkpt>
      <trkpt lat="45.37943" lon="4.49259">
        <ele>1115.2666015625</ele>
        <time>2010-08-15T10:20:25Z</time>
      </trkpt>
      <trkpt lat="45.37926" lon="4.49281">
        <ele>1116.2280273438</ele>
        <time>2010-08-15T10:20:34Z</time>
      </trkpt>
      <trkpt lat="45.37917" lon="4.49297">
        <ele>1116.7087402344</ele>
        <time>2010-08-15T10:20:40Z</time>
      </trkpt>
      <trkpt lat="45.37908" lon="4.49315">
        <ele>1117.669921875</ele>
        <time>2010-08-15T10:20:47Z</time>
      </trkpt>
      <trkpt lat="45.37896" lon="4.49336">
        <ele>1120.0732421875</ele>
        <time>2010-08-15T10:20:55Z</time>
      </trkpt>
      <trkpt lat="45.37885" lon="4.49356">
        <ele>1121.9958496094</ele>
        <time>2010-08-15T10:21:03Z</time>
      </trkpt>
      <trkpt lat="45.37874" lon="4.49375">
        <ele>1123.4379882812</ele>
        <time>2010-08-15T10:21:11Z</time>
      </trkpt>
      <trkpt lat="45.37863" lon="4.49391">
        <ele>1124.3991699219</ele>
        <time>2010-08-15T10:21:18Z</time>
      </trkpt>
      <trkpt lat="45.37854" lon="4.49408">
        <ele>1126.3217773438</ele>
        <time>2010-08-15T10:21:26Z</time>
      </trkpt>
      <trkpt lat="45.37844" lon="4.49423">
        <ele>1128.2443847656</ele>
        <time>2010-08-15T10:21:34Z</time>
      </trkpt>
      <trkpt lat="45.37835" lon="4.49438">
        <ele>1129.2055664062</ele>
        <time>2010-08-15T10:21:41Z</time>
      </trkpt>
      <trkpt lat="45.37824" lon="4.49453">
        <ele>1131.1284179688</ele>
        <time>2010-08-15T10:21:48Z</time>
      </trkpt>
      <trkpt lat="45.37809" lon="4.49469">
        <ele>1133.5317382812</ele>
        <time>2010-08-15T10:21:56Z</time>
      </trkpt>
      <trkpt lat="45.378" lon="4.49481">
        <ele>1134.0124511719</ele>
        <time>2010-08-15T10:22:01Z</time>
      </trkpt>
      <trkpt lat="45.37787" lon="4.49497">
        <ele>1134.0124511719</ele>
        <time>2010-08-15T10:22:07Z</time>
      </trkpt>
      <trkpt lat="45.37777" lon="4.49511">
        <ele>1133.0510253906</ele>
        <time>2010-08-15T10:22:12Z</time>
      </trkpt>
      <trkpt lat="45.37764" lon="4.49526">
        <ele>1131.6088867188</ele>
        <time>2010-08-15T10:22:17Z</time>
      </trkpt>
      <trkpt lat="45.37745" lon="4.49555">
        <ele>1131.6088867188</ele>
        <time>2010-08-15T10:22:26Z</time>
      </trkpt>
      <trkpt lat="45.37733" lon="4.49575">
        <ele>1132.08984375</ele>
        <time>2010-08-15T10:22:32Z</time>
      </trkpt>
      <trkpt lat="45.3772" lon="4.49594">
        <ele>1133.5317382812</ele>
        <time>2010-08-15T10:22:39Z</time>
      </trkpt>
      <trkpt lat="45.37714" lon="4.49611">
        <ele>1133.0510253906</ele>
        <time>2010-08-15T10:22:46Z</time>
      </trkpt>
      <trkpt lat="45.37709" lon="4.49624">
        <ele>1133.5317382812</ele>
        <time>2010-08-15T10:22:51Z</time>
      </trkpt>
      <trkpt lat="45.37703" lon="4.49638">
        <ele>1133.5317382812</ele>
        <time>2010-08-15T10:22:56Z</time>
      </trkpt>
      <trkpt lat="45.37696" lon="4.49661">
        <ele>1134.4931640625</ele>
        <time>2010-08-15T10:23:02Z</time>
      </trkpt>
      <trkpt lat="45.37688" lon="4.49683">
        <ele>1134.9738769531</ele>
        <time>2010-08-15T10:23:08Z</time>
      </trkpt>
      <trkpt lat="45.3768" lon="4.49708">
        <ele>1135.4543457031</ele>
        <time>2010-08-15T10:23:15Z</time>
      </trkpt>
      <trkpt lat="45.37671" lon="4.49732">
        <ele>1136.8962402344</ele>
        <time>2010-08-15T10:23:21Z</time>
      </trkpt>
      <trkpt lat="45.37663" lon="4.4976">
        <ele>1140.2609863281</ele>
        <time>2010-08-15T10:23:28Z</time>
      </trkpt>
      <trkpt lat="45.37661" lon="4.49763">
        <ele>1140.7414550781</ele>
        <time>2010-08-15T10:23:29Z</time>
      </trkpt>
      <trkpt lat="45.37656" lon="4.49792">
        <ele>1143.1447753906</ele>
        <time>2010-08-15T10:23:36Z</time>
      </trkpt>
      <trkpt lat="45.37653" lon="4.49815">
        <ele>1144.1062011719</ele>
        <time>2010-08-15T10:23:42Z</time>
      </trkpt>
      <trkpt lat="45.37652" lon="4.49825">
        <ele>1143.6254882812</ele>
        <time>2010-08-15T10:23:45Z</time>
      </trkpt>
      <trkpt lat="45.37649" lon="4.49844">
        <ele>1143.1447753906</ele>
        <time>2010-08-15T10:23:51Z</time>
      </trkpt>
      <trkpt lat="45.37646" lon="4.49859">
        <ele>1138.8190917969</ele>
        <time>2010-08-15T10:23:56Z</time>
      </trkpt>
      <trkpt lat="45.37644" lon="4.49868">
        <ele>1135.4543457031</ele>
        <time>2010-08-15T10:23:59Z</time>
      </trkpt>
      <trkpt lat="45.37638" lon="4.49886">
        <ele>1139.7802734375</ele>
        <time>2010-08-15T10:24:04Z</time>
      </trkpt>
      <trkpt lat="45.37634" lon="4.49905">
        <ele>1145.5480957031</ele>
        <time>2010-08-15T10:24:09Z</time>
      </trkpt>
      <trkpt lat="45.37629" lon="4.49925">
        <ele>1149.8742675781</ele>
        <time>2010-08-15T10:24:14Z</time>
      </trkpt>
      <trkpt lat="45.37619" lon="4.49946">
        <ele>1154.2001953125</ele>
        <time>2010-08-15T10:24:20Z</time>
      </trkpt>
      <trkpt lat="45.37607" lon="4.4997">
        <ele>1157.083984375</ele>
        <time>2010-08-15T10:24:27Z</time>
      </trkpt>
      <trkpt lat="45.37594" lon="4.49988">
        <ele>1160.4484863281</ele>
        <time>2010-08-15T10:24:34Z</time>
      </trkpt>
      <trkpt lat="45.37584" lon="4.50006">
        <ele>1163.8129882812</ele>
        <time>2010-08-15T10:24:40Z</time>
      </trkpt>
      <trkpt lat="45.37574" lon="4.50019">
        <ele>1165.7360839844</ele>
        <time>2010-08-15T10:24:45Z</time>
      </trkpt>
      <trkpt lat="45.37567" lon="4.50034">
        <ele>1164.7746582031</ele>
        <time>2010-08-15T10:24:50Z</time>
      </trkpt>
      <trkpt lat="45.3756" lon="4.50047">
        <ele>1161.4099121094</ele>
        <time>2010-08-15T10:24:55Z</time>
      </trkpt>
      <trkpt lat="45.37547" lon="4.50065">
        <ele>1160.4484863281</ele>
        <time>2010-08-15T10:25:00Z</time>
      </trkpt>
      <trkpt lat="45.3753" lon="4.50087">
        <ele>1159.0065917969</ele>
        <time>2010-08-15T10:25:07Z</time>
      </trkpt>
      <trkpt lat="45.37513" lon="4.5011">
        <ele>1158.5258789062</ele>
        <time>2010-08-15T10:25:14Z</time>
      </trkpt>
      <trkpt lat="45.37501" lon="4.5013">
        <ele>1157.5646972656</ele>
        <time>2010-08-15T10:25:20Z</time>
      </trkpt>
      <trkpt lat="45.3749" lon="4.50149">
        <ele>1157.083984375</ele>
        <time>2010-08-15T10:25:25Z</time>
      </trkpt>
      <trkpt lat="45.37481" lon="4.50169">
        <ele>1157.5646972656</ele>
        <time>2010-08-15T10:25:30Z</time>
      </trkpt>
      <trkpt lat="45.37472" lon="4.50185">
        <ele>1158.0454101562</ele>
        <time>2010-08-15T10:25:34Z</time>
      </trkpt>
      <trkpt lat="45.37463" lon="4.50202">
        <ele>1159.4873046875</ele>
        <time>2010-08-15T10:25:39Z</time>
      </trkpt>
      <trkpt lat="45.37455" lon="4.50218">
        <ele>1161.890625</ele>
        <time>2010-08-15T10:25:44Z</time>
      </trkpt>
      <trkpt lat="45.37447" lon="4.50236">
        <ele>1162.37109375</ele>
        <time>2010-08-15T10:25:50Z</time>
      </trkpt>
      <trkpt lat="45.37438" lon="4.50256">
        <ele>1162.37109375</ele>
        <time>2010-08-15T10:25:55Z</time>
      </trkpt>
      <trkpt lat="45.37421" lon="4.50284">
        <ele>1163.3325195312</ele>
        <time>2010-08-15T10:26:02Z</time>
      </trkpt>
      <trkpt lat="45.37402" lon="4.50311">
        <ele>1167.6584472656</ele>
        <time>2010-08-15T10:26:10Z</time>
      </trkpt>
      <trkpt lat="45.37387" lon="4.50317">
        <ele>1168.6198730469</ele>
        <time>2010-08-15T10:26:15Z</time>
      </trkpt>
      <trkpt lat="45.37379" lon="4.50318">
        <ele>1169.1005859375</ele>
        <time>2010-08-15T10:26:18Z</time>
      </trkpt>
      <trkpt lat="45.37371" lon="4.50342">
        <ele>1171.0231933594</ele>
        <time>2010-08-15T10:26:25Z</time>
      </trkpt>
      <trkpt lat="45.37362" lon="4.50369">
        <ele>1171.0231933594</ele>
        <time>2010-08-15T10:26:32Z</time>
      </trkpt>
      <trkpt lat="45.37345" lon="4.50398">
        <ele>1171.0231933594</ele>
        <time>2010-08-15T10:26:40Z</time>
      </trkpt>
      <trkpt lat="45.37325" lon="4.50428">
        <ele>1171.0231933594</ele>
        <time>2010-08-15T10:26:48Z</time>
      </trkpt>
      <trkpt lat="45.37304" lon="4.50463">
        <ele>1172.4650878906</ele>
        <time>2010-08-15T10:26:57Z</time>
      </trkpt>
      <trkpt lat="45.37294" lon="4.50484">
        <ele>1172.9458007812</ele>
        <time>2010-08-15T10:27:03Z</time>
      </trkpt>
      <trkpt lat="45.37276" lon="4.50516">
        <ele>1175.3488769531</ele>
        <time>2010-08-15T10:27:11Z</time>
      </trkpt>
      <trkpt lat="45.37262" lon="4.50544">
        <ele>1176.791015625</ele>
        <time>2010-08-15T10:27:18Z</time>
      </trkpt>
      <trkpt lat="45.37246" lon="4.50573">
        <ele>1177.7521972656</ele>
        <time>2010-08-15T10:27:25Z</time>
      </trkpt>
      <trkpt lat="45.37236" lon="4.50602">
        <ele>1178.7136230469</ele>
        <time>2010-08-15T10:27:31Z</time>
      </trkpt>
      <trkpt lat="45.37222" lon="4.50643">
        <ele>1180.6364746094</ele>
        <time>2010-08-15T10:27:39Z</time>
      </trkpt>
      <trkpt lat="45.37214" lon="4.50671">
        <ele>1181.1171875</ele>
        <time>2010-08-15T10:27:44Z</time>
      </trkpt>
      <trkpt lat="45.37207" lon="4.50699">
        <ele>1182.0783691406</ele>
        <time>2010-08-15T10:27:49Z</time>
      </trkpt>
      <trkpt lat="45.37201" lon="4.50728">
        <ele>1182.5590820312</ele>
        <time>2010-08-15T10:27:54Z</time>
      </trkpt>
      <trkpt lat="45.37196" lon="4.50771">
        <ele>1184.0009765625</ele>
        <time>2010-08-15T10:28:01Z</time>
      </trkpt>
      <trkpt lat="45.37195" lon="4.50778">
        <ele>1184.4816894531</ele>
        <time>2010-08-15T10:28:02Z</time>
      </trkpt>
      <trkpt lat="45.37195" lon="4.50817">
        <ele>1183.5202636719</ele>
        <time>2010-08-15T10:28:07Z</time>
      </trkpt>
      <trkpt lat="45.372" lon="4.50875">
        <ele>1180.1557617188</ele>
        <time>2010-08-15T10:28:14Z</time>
      </trkpt>
      <trkpt lat="45.37203" lon="4.50899">
        <ele>1179.6748046875</ele>
        <time>2010-08-15T10:28:17Z</time>
      </trkpt>
      <trkpt lat="45.37204" lon="4.50931">
        <ele>1177.7521972656</ele>
        <time>2010-08-15T10:28:21Z</time>
      </trkpt>
      <trkpt lat="45.37199" lon="4.50981">
        <ele>1177.7521972656</ele>
        <time>2010-08-15T10:28:27Z</time>
      </trkpt>
      <trkpt lat="45.3719" lon="4.51047">
        <ele>1178.2329101562</ele>
        <time>2010-08-15T10:28:36Z</time>
      </trkpt>
      <trkpt lat="45.37189" lon="4.51054">
        <ele>1178.2329101562</ele>
        <time>2010-08-15T10:28:37Z</time>
      </trkpt>
      <trkpt lat="45.37174" lon="4.51109">
        <ele>1176.3103027344</ele>
        <time>2010-08-15T10:28:44Z</time>
      </trkpt>
      <trkpt lat="45.37159" lon="4.51158">
        <ele>1171.984375</ele>
        <time>2010-08-15T10:28:49Z</time>
      </trkpt>
      <trkpt lat="45.37141" lon="4.51189">
        <ele>1168.6198730469</ele>
        <time>2010-08-15T10:28:53Z</time>
      </trkpt>
      <trkpt lat="45.37119" lon="4.51221">
        <ele>1166.2165527344</ele>
        <time>2010-08-15T10:28:57Z</time>
      </trkpt>
      <trkpt lat="45.37087" lon="4.51271">
        <ele>1165.2553710938</ele>
        <time>2010-08-15T10:29:03Z</time>
      </trkpt>
      <trkpt lat="45.37082" lon="4.51278">
        <ele>1165.2553710938</ele>
        <time>2010-08-15T10:29:04Z</time>
      </trkpt>
      <trkpt lat="45.37057" lon="4.51294">
        <ele>1165.2553710938</ele>
        <time>2010-08-15T10:29:09Z</time>
      </trkpt>
      <trkpt lat="45.37048" lon="4.51287">
        <ele>1164.7746582031</ele>
        <time>2010-08-15T10:29:12Z</time>
      </trkpt>
      <trkpt lat="45.37034" lon="4.51281">
        <ele>1164.7746582031</ele>
        <time>2010-08-15T10:29:16Z</time>
      </trkpt>
      <trkpt lat="45.37031" lon="4.51289">
        <ele>1165.7360839844</ele>
        <time>2010-08-15T10:29:19Z</time>
      </trkpt>
      <trkpt lat="45.37037" lon="4.51294">
        <ele>1166.2165527344</ele>
        <time>2010-08-15T10:29:23Z</time>
      </trkpt>
      <trkpt lat="45.37045" lon="4.51289">
        <ele>1165.7360839844</ele>
        <time>2010-08-15T10:29:28Z</time>
      </trkpt>
      <trkpt lat="45.37048" lon="4.5129">
        <ele>1165.7360839844</ele>
        <time>2010-08-15T10:29:30Z</time>
      </trkpt>
      <trkpt lat="45.37053" lon="4.51296">
        <ele>1164.7746582031</ele>
        <time>2010-08-15T10:29:34Z</time>
      </trkpt>
      <trkpt lat="45.37054" lon="4.51293">
        <ele>1164.7746582031</ele>
        <time>2010-08-15T10:29:39Z</time>
      </trkpt>
      <trkpt lat="45.37054" lon="4.51293">
        <ele>1164.7746582031</ele>
        <time>2010-08-15T10:29:44Z</time>
      </trkpt>
      <trkpt lat="45.37055" lon="4.51293">
        <ele>1164.7746582031</ele>
        <time>2010-08-15T10:29:50Z</time>
      </trkpt>
      <trkpt lat="45.37056" lon="4.51293">
        <ele>1165.7360839844</ele>
        <time>2010-08-15T10:30:00Z</time>
      </trkpt>
      <trkpt lat="45.37056" lon="4.51292">
        <ele>1165.7360839844</ele>
        <time>2010-08-15T10:30:05Z</time>
      </trkpt>
      <trkpt lat="45.37056" lon="4.51292">
        <ele>1166.2165527344</ele>
        <time>2010-08-15T10:30:12Z</time>
      </trkpt>
      <trkpt lat="45.37053" lon="4.51293">
        <ele>1167.1779785156</ele>
        <time>2010-08-15T10:30:20Z</time>
      </trkpt>
      <trkpt lat="45.37054" lon="4.5129">
        <ele>1167.6584472656</ele>
        <time>2010-08-15T10:30:25Z</time>
      </trkpt>
      <trkpt lat="45.37055" lon="4.51292">
        <ele>1168.1391601562</ele>
        <time>2010-08-15T10:30:31Z</time>
      </trkpt>
      <trkpt lat="45.37054" lon="4.51293">
        <ele>1168.6198730469</ele>
        <time>2010-08-15T10:30:35Z</time>
      </trkpt>
      <trkpt lat="45.37052" lon="4.51281">
        <ele>1167.6584472656</ele>
        <time>2010-08-15T10:30:40Z</time>
      </trkpt>
      <trkpt lat="45.37056" lon="4.51274">
        <ele>1167.1779785156</ele>
        <time>2010-08-15T10:30:42Z</time>
      </trkpt>
      <trkpt lat="45.37077" lon="4.5125">
        <ele>1166.2165527344</ele>
        <time>2010-08-15T10:30:50Z</time>
      </trkpt>
      <trkpt lat="45.37081" lon="4.51242">
        <ele>1165.7360839844</ele>
        <time>2010-08-15T10:30:53Z</time>
      </trkpt>
      <trkpt lat="45.37081" lon="4.51242">
        <ele>1165.7360839844</ele>
        <time>2010-08-15T10:31:00Z</time>
      </trkpt>
      <trkpt lat="45.37082" lon="4.51242">
        <ele>1165.7360839844</ele>
        <time>2010-08-15T10:31:08Z</time>
      </trkpt>
      <trkpt lat="45.37082" lon="4.51242">
        <ele>1163.8129882812</ele>
        <time>2010-08-15T10:31:37Z</time>
      </trkpt>
      <trkpt lat="45.37082" lon="4.51242">
        <ele>1164.7746582031</ele>
        <time>2010-08-15T10:31:45Z</time>
      </trkpt>
      <trkpt lat="45.37082" lon="4.51243">
        <ele>1166.2165527344</ele>
        <time>2010-08-15T10:31:50Z</time>
      </trkpt>
      <trkpt lat="45.37082" lon="4.51242">
        <ele>1168.1391601562</ele>
        <time>2010-08-15T10:32:08Z</time>
      </trkpt>
      <trkpt lat="45.37081" lon="4.51242">
        <ele>1168.1391601562</ele>
        <time>2010-08-15T10:32:14Z</time>
      </trkpt>
      <trkpt lat="45.37082" lon="4.51242">
        <ele>1167.6584472656</ele>
        <time>2010-08-15T10:32:23Z</time>
      </trkpt>
      <trkpt lat="45.37082" lon="4.51242">
        <ele>1167.6584472656</ele>
        <time>2010-08-15T10:32:30Z</time>
      </trkpt>
      <trkpt lat="45.3708" lon="4.51242">
        <ele>1167.6584472656</ele>
        <time>2010-08-15T10:32:37Z</time>
      </trkpt>
      <trkpt lat="45.37071" lon="4.51257">
        <ele>1168.6198730469</ele>
        <time>2010-08-15T10:32:47Z</time>
      </trkpt>
      <trkpt lat="45.37062" lon="4.51267">
        <ele>1169.1005859375</ele>
        <time>2010-08-15T10:32:54Z</time>
      </trkpt>
      <trkpt lat="45.37054" lon="4.51277">
        <ele>1169.5812988281</ele>
        <time>2010-08-15T10:33:00Z</time>
      </trkpt>
      <trkpt lat="45.37051" lon="4.51286">
        <ele>1170.5424804688</ele>
        <time>2010-08-15T10:33:06Z</time>
      </trkpt>
      <trkpt lat="45.37051" lon="4.51287">
        <ele>1170.5424804688</ele>
        <time>2010-08-15T10:33:07Z</time>
      </trkpt>
      <trkpt lat="45.37053" lon="4.51289">
        <ele>1171.0231933594</ele>
        <time>2010-08-15T10:33:14Z</time>
      </trkpt>
      <trkpt lat="45.37053" lon="4.51289">
        <ele>1171.0231933594</ele>
        <time>2010-08-15T10:33:25Z</time>
      </trkpt>
      <trkpt lat="45.37052" lon="4.5129">
        <ele>1173.4265136719</ele>
        <time>2010-08-15T10:33:39Z</time>
      </trkpt>
      <trkpt lat="45.37052" lon="4.5129">
        <ele>1173.4265136719</ele>
        <time>2010-08-15T10:33:45Z</time>
      </trkpt>
      <trkpt lat="45.37053" lon="4.51291">
        <ele>1171.5036621094</ele>
        <time>2010-08-15T10:33:56Z</time>
      </trkpt>
      <trkpt lat="45.37054" lon="4.5129">
        <ele>1170.5424804688</ele>
        <time>2010-08-15T10:34:17Z</time>
      </trkpt>
      <trkpt lat="45.37055" lon="4.51291">
        <ele>1170.0617675781</ele>
        <time>2010-08-15T10:34:29Z</time>
      </trkpt>
      <trkpt lat="45.37054" lon="4.51291">
        <ele>1169.5812988281</ele>
        <time>2010-08-15T10:34:59Z</time>
      </trkpt>
      <trkpt lat="45.37054" lon="4.51291">
        <ele>1170.0617675781</ele>
        <time>2010-08-15T10:35:07Z</time>
      </trkpt>
      <trkpt lat="45.37054" lon="4.51292">
        <ele>1170.5424804688</ele>
        <time>2010-08-15T10:35:18Z</time>
      </trkpt>
      <trkpt lat="45.37054" lon="4.51292">
        <ele>1170.5424804688</ele>
        <time>2010-08-15T10:35:28Z</time>
      </trkpt>
      <trkpt lat="45.37056" lon="4.51292">
        <ele>1170.0617675781</ele>
        <time>2010-08-15T10:35:58Z</time>
      </trkpt>
      <trkpt lat="45.37057" lon="4.51293">
        <ele>1169.5812988281</ele>
        <time>2010-08-15T10:36:10Z</time>
      </trkpt>
      <trkpt lat="45.37057" lon="4.51293">
        <ele>1167.6584472656</ele>
        <time>2010-08-15T10:37:08Z</time>
      </trkpt>
      <trkpt lat="45.37057" lon="4.51292">
        <ele>1167.6584472656</ele>
        <time>2010-08-15T10:37:16Z</time>
      </trkpt>
      <trkpt lat="45.37055" lon="4.51291">
        <ele>1169.5812988281</ele>
        <time>2010-08-15T10:37:25Z</time>
      </trkpt>
      <trkpt lat="45.37054" lon="4.51291">
        <ele>1170.5424804688</ele>
        <time>2010-08-15T10:37:33Z</time>
      </trkpt>
      <trkpt lat="45.37054" lon="4.5129">
        <ele>1171.5036621094</ele>
        <time>2010-08-15T10:37:43Z</time>
      </trkpt>
      <trkpt lat="45.37054" lon="4.51291">
        <ele>1172.4650878906</ele>
        <time>2010-08-15T10:37:53Z</time>
      </trkpt>
      <trkpt lat="45.37054" lon="4.51294">
        <ele>1173.4265136719</ele>
        <time>2010-08-15T10:38:16Z</time>
      </trkpt>
      <trkpt lat="45.37053" lon="4.51297">
        <ele>1174.8684082031</ele>
        <time>2010-08-15T10:38:36Z</time>
      </trkpt>
      <trkpt lat="45.37054" lon="4.51293">
        <ele>1171.5036621094</ele>
        <time>2010-08-15T10:39:14Z</time>
      </trkpt>
      <trkpt lat="45.37054" lon="4.51295">
        <ele>1171.5036621094</ele>
        <time>2010-08-15T10:39:20Z</time>
      </trkpt>
      <trkpt lat="45.37046" lon="4.51303">
        <ele>1171.0231933594</ele>
        <time>2010-08-15T10:39:26Z</time>
      </trkpt>
      <trkpt lat="45.37027" lon="4.51319">
        <ele>1172.9458007812</ele>
        <time>2010-08-15T10:39:35Z</time>
      </trkpt>
      <trkpt lat="45.3701" lon="4.51329">
        <ele>1174.8684082031</ele>
        <time>2010-08-15T10:39:43Z</time>
      </trkpt>
      <trkpt lat="45.36993" lon="4.51341">
        <ele>1176.3103027344</ele>
        <time>2010-08-15T10:39:51Z</time>
      </trkpt>
      <trkpt lat="45.36978" lon="4.51355">
        <ele>1178.2329101562</ele>
        <time>2010-08-15T10:39:58Z</time>
      </trkpt>
      <trkpt lat="45.36965" lon="4.51377">
        <ele>1179.6748046875</ele>
        <time>2010-08-15T10:40:06Z</time>
      </trkpt>
      <trkpt lat="45.36953" lon="4.51402">
        <ele>1181.1171875</ele>
        <time>2010-08-15T10:40:14Z</time>
      </trkpt>
      <trkpt lat="45.36942" lon="4.51427">
        <ele>1182.5590820312</ele>
        <time>2010-08-15T10:40:22Z</time>
      </trkpt>
      <trkpt lat="45.36928" lon="4.51455">
        <ele>1183.0395507812</ele>
        <time>2010-08-15T10:40:30Z</time>
      </trkpt>
      <trkpt lat="45.36915" lon="4.51484">
        <ele>1183.5202636719</ele>
        <time>2010-08-15T10:40:37Z</time>
      </trkpt>
      <trkpt lat="45.36905" lon="4.51525">
        <ele>1181.59765625</ele>
        <time>2010-08-15T10:40:45Z</time>
      </trkpt>
      <trkpt lat="45.36895" lon="4.51563">
        <ele>1180.6364746094</ele>
        <time>2010-08-15T10:40:51Z</time>
      </trkpt>
      <trkpt lat="45.36885" lon="4.5159">
        <ele>1180.1557617188</ele>
        <time>2010-08-15T10:40:56Z</time>
      </trkpt>
      <trkpt lat="45.3688" lon="4.516">
        <ele>1179.6748046875</ele>
        <time>2010-08-15T10:40:58Z</time>
      </trkpt>
      <trkpt lat="45.3686" lon="4.5163">
        <ele>1179.6748046875</ele>
        <time>2010-08-15T10:41:05Z</time>
      </trkpt>
      <trkpt lat="45.36858" lon="4.51633">
        <ele>1180.1557617188</ele>
        <time>2010-08-15T10:41:08Z</time>
      </trkpt>
      <trkpt lat="45.36856" lon="4.51636">
        <ele>1180.1557617188</ele>
        <time>2010-08-15T10:41:15Z</time>
      </trkpt>
      <trkpt lat="45.36855" lon="4.51636">
        <ele>1180.6364746094</ele>
        <time>2010-08-15T10:41:17Z</time>
      </trkpt>
      <trkpt lat="45.36843" lon="4.51637">
        <ele>1180.6364746094</ele>
        <time>2010-08-15T10:41:22Z</time>
      </trkpt>
      <trkpt lat="45.36823" lon="4.51642">
        <ele>1180.6364746094</ele>
        <time>2010-08-15T10:41:27Z</time>
      </trkpt>
      <trkpt lat="45.36803" lon="4.5165">
        <ele>1181.1171875</ele>
        <time>2010-08-15T10:41:32Z</time>
      </trkpt>
      <trkpt lat="45.36794" lon="4.51653">
        <ele>1180.6364746094</ele>
        <time>2010-08-15T10:41:35Z</time>
      </trkpt>
      <trkpt lat="45.36794" lon="4.51655">
        <ele>1179.1940917969</ele>
        <time>2010-08-15T10:41:42Z</time>
      </trkpt>
      <trkpt lat="45.36792" lon="4.51651">
        <ele>1182.0783691406</ele>
        <time>2010-08-15T10:42:10Z</time>
      </trkpt>
      <trkpt lat="45.36791" lon="4.51649">
        <ele>1185.4428710938</ele>
        <time>2010-08-15T10:42:47Z</time>
      </trkpt>
      <trkpt lat="45.36791" lon="4.51648">
        <ele>1184.9624023438</ele>
        <time>2010-08-15T10:42:57Z</time>
      </trkpt>
      <trkpt lat="45.3679" lon="4.51648">
        <ele>1184.4816894531</ele>
        <time>2010-08-15T10:43:04Z</time>
      </trkpt>
      <trkpt lat="45.36791" lon="4.51647">
        <ele>1184.4816894531</ele>
        <time>2010-08-15T10:43:12Z</time>
      </trkpt>
      <trkpt lat="45.3679" lon="4.51648">
        <ele>1181.1171875</ele>
        <time>2010-08-15T10:43:30Z</time>
      </trkpt>
      <trkpt lat="45.3679" lon="4.51648">
        <ele>1180.6364746094</ele>
        <time>2010-08-15T10:43:37Z</time>
      </trkpt>
      <trkpt lat="45.3679" lon="4.51648">
        <ele>1180.1557617188</ele>
        <time>2010-08-15T10:43:46Z</time>
      </trkpt>
      <trkpt lat="45.3679" lon="4.51647">
        <ele>1180.1557617188</ele>
        <time>2010-08-15T10:43:55Z</time>
      </trkpt>
      <trkpt lat="45.3679" lon="4.51647">
        <ele>1179.6748046875</ele>
        <time>2010-08-15T10:44:05Z</time>
      </trkpt>
      <trkpt lat="45.36792" lon="4.51649">
        <ele>1179.6748046875</ele>
        <time>2010-08-15T10:44:14Z</time>
      </trkpt>
      <trkpt lat="45.36795" lon="4.51651">
        <ele>1178.7136230469</ele>
        <time>2010-08-15T10:44:35Z</time>
      </trkpt>
      <trkpt lat="45.36797" lon="4.51651">
        <ele>1178.7136230469</ele>
        <time>2010-08-15T10:44:45Z</time>
      </trkpt>
      <trkpt lat="45.36813" lon="4.51647">
        <ele>1179.6748046875</ele>
        <time>2010-08-15T10:44:53Z</time>
      </trkpt>
      <trkpt lat="45.36826" lon="4.51644">
        <ele>1182.0783691406</ele>
        <time>2010-08-15T10:44:58Z</time>
      </trkpt>
      <trkpt lat="45.36833" lon="4.51643">
        <ele>1182.0783691406</ele>
        <time>2010-08-15T10:45:01Z</time>
      </trkpt>
      <trkpt lat="45.36842" lon="4.51651">
        <ele>1182.5590820312</ele>
        <time>2010-08-15T10:45:06Z</time>
      </trkpt>
      <trkpt lat="45.3684" lon="4.51656">
        <ele>1184.0009765625</ele>
        <time>2010-08-15T10:45:09Z</time>
      </trkpt>
      <trkpt lat="45.36831" lon="4.51679">
        <ele>1183.0395507812</ele>
        <time>2010-08-15T10:45:18Z</time>
      </trkpt>
      <trkpt lat="45.36827" lon="4.517">
        <ele>1184.0009765625</ele>
        <time>2010-08-15T10:45:25Z</time>
      </trkpt>
      <trkpt lat="45.36821" lon="4.5172">
        <ele>1182.5590820312</ele>
        <time>2010-08-15T10:45:32Z</time>
      </trkpt>
      <trkpt lat="45.36815" lon="4.51739">
        <ele>1181.1171875</ele>
        <time>2010-08-15T10:45:39Z</time>
      </trkpt>
      <trkpt lat="45.36808" lon="4.51757">
        <ele>1182.0783691406</ele>
        <time>2010-08-15T10:45:45Z</time>
      </trkpt>
      <trkpt lat="45.368" lon="4.51779">
        <ele>1184.0009765625</ele>
        <time>2010-08-15T10:45:52Z</time>
      </trkpt>
      <trkpt lat="45.36789" lon="4.51806">
        <ele>1186.884765625</ele>
        <time>2010-08-15T10:46:01Z</time>
      </trkpt>
      <trkpt lat="45.3678" lon="4.51829">
        <ele>1190.7299804688</ele>
        <time>2010-08-15T10:46:09Z</time>
      </trkpt>
      <trkpt lat="45.36773" lon="4.51858">
        <ele>1192.6528320312</ele>
        <time>2010-08-15T10:46:17Z</time>
      </trkpt>
      <trkpt lat="45.36766" lon="4.51876">
        <ele>1193.6140136719</ele>
        <time>2010-08-15T10:46:23Z</time>
      </trkpt>
      <trkpt lat="45.3676" lon="4.51891">
        <ele>1195.0559082031</ele>
        <time>2010-08-15T10:46:29Z</time>
      </trkpt>
      <trkpt lat="45.36753" lon="4.51911">
        <ele>1195.5366210938</ele>
        <time>2010-08-15T10:46:35Z</time>
      </trkpt>
      <trkpt lat="45.36748" lon="4.5193">
        <ele>1197.4594726562</ele>
        <time>2010-08-15T10:46:41Z</time>
      </trkpt>
      <trkpt lat="45.36742" lon="4.51949">
        <ele>1198.9013671875</ele>
        <time>2010-08-15T10:46:48Z</time>
      </trkpt>
      <trkpt lat="45.36736" lon="4.51966">
        <ele>1200.3435058594</ele>
        <time>2010-08-15T10:46:54Z</time>
      </trkpt>
      <trkpt lat="45.36728" lon="4.51993">
        <ele>1202.2658691406</ele>
        <time>2010-08-15T10:47:03Z</time>
      </trkpt>
      <trkpt lat="45.36723" lon="4.52012">
        <ele>1205.1499023438</ele>
        <time>2010-08-15T10:47:10Z</time>
      </trkpt>
      <trkpt lat="45.36718" lon="4.52028">
        <ele>1206.591796875</ele>
        <time>2010-08-15T10:47:16Z</time>
      </trkpt>
      <trkpt lat="45.36715" lon="4.52038">
        <ele>1207.0725097656</ele>
        <time>2010-08-15T10:47:20Z</time>
      </trkpt>
      <trkpt lat="45.36713" lon="4.52043">
        <ele>1208.9951171875</ele>
        <time>2010-08-15T10:47:28Z</time>
      </trkpt>
      <trkpt lat="45.36713" lon="4.52045">
        <ele>1209.4758300781</ele>
        <time>2010-08-15T10:47:36Z</time>
      </trkpt>
      <trkpt lat="45.36713" lon="4.52046">
        <ele>1209.4758300781</ele>
        <time>2010-08-15T10:47:43Z</time>
      </trkpt>
      <trkpt lat="45.36712" lon="4.52048">
        <ele>1210.4370117188</ele>
        <time>2010-08-15T10:47:50Z</time>
      </trkpt>
      <trkpt lat="45.36707" lon="4.52063">
        <ele>1212.3598632812</ele>
        <time>2010-08-15T10:47:56Z</time>
      </trkpt>
      <trkpt lat="45.36699" lon="4.52087">
        <ele>1216.6857910156</ele>
        <time>2010-08-15T10:48:05Z</time>
      </trkpt>
      <trkpt lat="45.36691" lon="4.52111">
        <ele>1218.6083984375</ele>
        <time>2010-08-15T10:48:13Z</time>
      </trkpt>
      <trkpt lat="45.36683" lon="4.52133">
        <ele>1221.01171875</ele>
        <time>2010-08-15T10:48:22Z</time>
      </trkpt>
      <trkpt lat="45.36677" lon="4.52152">
        <ele>1223.4150390625</ele>
        <time>2010-08-15T10:48:30Z</time>
      </trkpt>
      <trkpt lat="45.36671" lon="4.52177">
        <ele>1226.7795410156</ele>
        <time>2010-08-15T10:48:40Z</time>
      </trkpt>
      <trkpt lat="45.36666" lon="4.52192">
        <ele>1228.2216796875</ele>
        <time>2010-08-15T10:48:46Z</time>
      </trkpt>
      <trkpt lat="45.3666" lon="4.5221">
        <ele>1230.625</ele>
        <time>2010-08-15T10:48:54Z</time>
      </trkpt>
      <trkpt lat="45.36651" lon="4.52237">
        <ele>1233.5087890625</ele>
        <time>2010-08-15T10:49:04Z</time>
      </trkpt>
      <trkpt lat="45.36644" lon="4.52263">
        <ele>1236.3928222656</ele>
        <time>2010-08-15T10:49:12Z</time>
      </trkpt>
      <trkpt lat="45.36637" lon="4.52286">
        <ele>1238.7961425781</ele>
        <time>2010-08-15T10:49:19Z</time>
      </trkpt>
      <trkpt lat="45.3663" lon="4.52312">
        <ele>1241.19921875</ele>
        <time>2010-08-15T10:49:26Z</time>
      </trkpt>
      <trkpt lat="45.3662" lon="4.5234">
        <ele>1243.6025390625</ele>
        <time>2010-08-15T10:49:35Z</time>
      </trkpt>
      <trkpt lat="45.3661" lon="4.52359">
        <ele>1245.525390625</ele>
        <time>2010-08-15T10:49:43Z</time>
      </trkpt>
      <trkpt lat="45.36607" lon="4.52377">
        <ele>1246.4868164062</ele>
        <time>2010-08-15T10:49:50Z</time>
      </trkpt>
      <trkpt lat="45.36605" lon="4.52382">
        <ele>1246.9672851562</ele>
        <time>2010-08-15T10:49:56Z</time>
      </trkpt>
      <trkpt lat="45.36605" lon="4.52381">
        <ele>1246.9672851562</ele>
        <time>2010-08-15T10:50:02Z</time>
      </trkpt>
      <trkpt lat="45.36605" lon="4.52381">
        <ele>1246.9672851562</ele>
        <time>2010-08-15T10:50:15Z</time>
      </trkpt>
      <trkpt lat="45.36606" lon="4.52381">
        <ele>1246.9672851562</ele>
        <time>2010-08-15T10:50:26Z</time>
      </trkpt>
      <trkpt lat="45.36609" lon="4.52382">
        <ele>1248.4091796875</ele>
        <time>2010-08-15T10:50:43Z</time>
      </trkpt>
      <trkpt lat="45.36609" lon="4.52382">
        <ele>1247.9287109375</ele>
        <time>2010-08-15T10:50:54Z</time>
      </trkpt>
      <trkpt lat="45.36608" lon="4.52383">
        <ele>1247.4479980469</ele>
        <time>2010-08-15T10:51:03Z</time>
      </trkpt>
      <trkpt lat="45.36608" lon="4.52382">
        <ele>1246.9672851562</ele>
        <time>2010-08-15T10:51:20Z</time>
      </trkpt>
      <trkpt lat="45.36608" lon="4.52382">
        <ele>1246.9672851562</ele>
        <time>2010-08-15T10:51:27Z</time>
      </trkpt>
      <trkpt lat="45.36607" lon="4.52382">
        <ele>1246.9672851562</ele>
        <time>2010-08-15T10:51:38Z</time>
      </trkpt>
      <trkpt lat="45.36607" lon="4.52381">
        <ele>1246.4868164062</ele>
        <time>2010-08-15T10:51:50Z</time>
      </trkpt>
      <trkpt lat="45.36607" lon="4.52379">
        <ele>1246.4868164062</ele>
        <time>2010-08-15T10:51:57Z</time>
      </trkpt>
      <trkpt lat="45.36607" lon="4.52379">
        <ele>1247.4479980469</ele>
        <time>2010-08-15T10:52:11Z</time>
      </trkpt>
      <trkpt lat="45.36607" lon="4.52378">
        <ele>1247.4479980469</ele>
        <time>2010-08-15T10:52:18Z</time>
      </trkpt>
      <trkpt lat="45.36607" lon="4.52378">
        <ele>1247.4479980469</ele>
        <time>2010-08-15T10:52:27Z</time>
      </trkpt>
      <trkpt lat="45.36607" lon="4.52378">
        <ele>1248.4091796875</ele>
        <time>2010-08-15T10:52:58Z</time>
      </trkpt>
      <trkpt lat="45.36607" lon="4.52378">
        <ele>1248.4091796875</ele>
        <time>2010-08-15T10:53:18Z</time>
      </trkpt>
      <trkpt lat="45.36607" lon="4.52378">
        <ele>1247.9287109375</ele>
        <time>2010-08-15T10:53:26Z</time>
      </trkpt>
      <trkpt lat="45.36607" lon="4.52378">
        <ele>1247.9287109375</ele>
        <time>2010-08-15T10:53:33Z</time>
      </trkpt>
      <trkpt lat="45.36607" lon="4.52378">
        <ele>1247.9287109375</ele>
        <time>2010-08-15T10:53:41Z</time>
      </trkpt>
      <trkpt lat="45.36608" lon="4.52378">
        <ele>1246.9672851562</ele>
        <time>2010-08-15T10:53:57Z</time>
      </trkpt>
      <trkpt lat="45.36608" lon="4.5238">
        <ele>1246.0061035156</ele>
        <time>2010-08-15T10:54:21Z</time>
      </trkpt>
      <trkpt lat="45.36607" lon="4.52382">
        <ele>1245.525390625</ele>
        <time>2010-08-15T10:54:29Z</time>
      </trkpt>
      <trkpt lat="45.36605" lon="4.52388">
        <ele>1245.525390625</ele>
        <time>2010-08-15T10:54:34Z</time>
      </trkpt>
      <trkpt lat="45.36601" lon="4.52402">
        <ele>1245.525390625</ele>
        <time>2010-08-15T10:54:40Z</time>
      </trkpt>
      <trkpt lat="45.36595" lon="4.52424">
        <ele>1245.0446777344</ele>
        <time>2010-08-15T10:54:47Z</time>
      </trkpt>
      <trkpt lat="45.36588" lon="4.52451">
        <ele>1244.5639648438</ele>
        <time>2010-08-15T10:54:54Z</time>
      </trkpt>
      <trkpt lat="45.36576" lon="4.52492">
        <ele>1243.6025390625</ele>
        <time>2010-08-15T10:55:03Z</time>
      </trkpt>
      <trkpt lat="45.36565" lon="4.52529">
        <ele>1242.6413574219</ele>
        <time>2010-08-15T10:55:11Z</time>
      </trkpt>
      <trkpt lat="45.36556" lon="4.52555">
        <ele>1242.1606445312</ele>
        <time>2010-08-15T10:55:17Z</time>
      </trkpt>
      <trkpt lat="45.36547" lon="4.52584">
        <ele>1242.6413574219</ele>
        <time>2010-08-15T10:55:23Z</time>
      </trkpt>
      <trkpt lat="45.36526" lon="4.52601">
        <ele>1235.912109375</ele>
        <time>2010-08-15T10:55:29Z</time>
      </trkpt>
      <trkpt lat="45.36517" lon="4.52614">
        <ele>1234.9509277344</ele>
        <time>2010-08-15T10:55:33Z</time>
      </trkpt>
      <trkpt lat="45.3651" lon="4.52622">
        <ele>1239.7573242188</ele>
        <time>2010-08-15T10:55:37Z</time>
      </trkpt>
      <trkpt lat="45.36509" lon="4.5263">
        <ele>1241.6799316406</ele>
        <time>2010-08-15T10:55:45Z</time>
      </trkpt>
      <trkpt lat="45.36518" lon="4.52635">
        <ele>1239.7573242188</ele>
        <time>2010-08-15T10:55:49Z</time>
      </trkpt>
      <trkpt lat="45.36546" lon="4.5266">
        <ele>1233.9895019531</ele>
        <time>2010-08-15T10:55:54Z</time>
      </trkpt>
      <trkpt lat="45.36576" lon="4.52687">
        <ele>1229.1828613281</ele>
        <time>2010-08-15T10:55:59Z</time>
      </trkpt>
      <trkpt lat="45.36604" lon="4.5271">
        <ele>1222.9343261719</ele>
        <time>2010-08-15T10:56:04Z</time>
      </trkpt>
      <trkpt lat="45.36642" lon="4.52725">
        <ele>1217.6469726562</ele>
        <time>2010-08-15T10:56:09Z</time>
      </trkpt>
      <trkpt lat="45.36694" lon="4.52753">
        <ele>1211.8791503906</ele>
        <time>2010-08-15T10:56:15Z</time>
      </trkpt>
      <trkpt lat="45.36747" lon="4.52781">
        <ele>1208.0339355469</ele>
        <time>2010-08-15T10:56:21Z</time>
      </trkpt>
      <trkpt lat="45.36771" lon="4.52791">
        <ele>1207.0725097656</ele>
        <time>2010-08-15T10:56:24Z</time>
      </trkpt>
      <trkpt lat="45.36785" lon="4.52795">
        <ele>1206.591796875</ele>
        <time>2010-08-15T10:56:26Z</time>
      </trkpt>
      <trkpt lat="45.36797" lon="4.52808">
        <ele>1205.6306152344</ele>
        <time>2010-08-15T10:56:30Z</time>
      </trkpt>
      <trkpt lat="45.36806" lon="4.52824">
        <ele>1205.1499023438</ele>
        <time>2010-08-15T10:56:35Z</time>
      </trkpt>
      <trkpt lat="45.36812" lon="4.52827">
        <ele>1204.6691894531</ele>
        <time>2010-08-15T10:56:37Z</time>
      </trkpt>
      <trkpt lat="45.36844" lon="4.52836">
        <ele>1203.2272949219</ele>
        <time>2010-08-15T10:56:45Z</time>
      </trkpt>
      <trkpt lat="45.36866" lon="4.52855">
        <ele>1203.2272949219</ele>
        <time>2010-08-15T10:56:51Z</time>
      </trkpt>
      <trkpt lat="45.36868" lon="4.52857">
        <ele>1203.2272949219</ele>
        <time>2010-08-15T10:56:52Z</time>
      </trkpt>
      <trkpt lat="45.36879" lon="4.52878">
        <ele>1204.6691894531</ele>
        <time>2010-08-15T10:57:00Z</time>
      </trkpt>
      <trkpt lat="45.36887" lon="4.52892">
        <ele>1205.1499023438</ele>
        <time>2010-08-15T10:57:07Z</time>
      </trkpt>
      <trkpt lat="45.36896" lon="4.529">
        <ele>1206.1110839844</ele>
        <time>2010-08-15T10:57:13Z</time>
      </trkpt>
      <trkpt lat="45.36901" lon="4.52918">
        <ele>1207.5532226562</ele>
        <time>2010-08-15T10:57:20Z</time>
      </trkpt>
      <trkpt lat="45.36899" lon="4.5294">
        <ele>1208.9951171875</ele>
        <time>2010-08-15T10:57:28Z</time>
      </trkpt>
      <trkpt lat="45.36896" lon="4.52954">
        <ele>1210.4370117188</ele>
        <time>2010-08-15T10:57:34Z</time>
      </trkpt>
      <trkpt lat="45.3689" lon="4.52968">
        <ele>1211.3984375</ele>
        <time>2010-08-15T10:57:41Z</time>
      </trkpt>
      <trkpt lat="45.36889" lon="4.52975">
        <ele>1211.8791503906</ele>
        <time>2010-08-15T10:57:45Z</time>
      </trkpt>
      <trkpt lat="45.36893" lon="4.52984">
        <ele>1213.3212890625</ele>
        <time>2010-08-15T10:57:49Z</time>
      </trkpt>
      <trkpt lat="45.36897" lon="4.52996">
        <ele>1216.205078125</ele>
        <time>2010-08-15T10:57:55Z</time>
      </trkpt>
      <trkpt lat="45.36899" lon="4.53">
        <ele>1217.1665039062</ele>
        <time>2010-08-15T10:57:57Z</time>
      </trkpt>
      <trkpt lat="45.36903" lon="4.53014">
        <ele>1219.0891113281</ele>
        <time>2010-08-15T10:58:04Z</time>
      </trkpt>
      <trkpt lat="45.36903" lon="4.53016">
        <ele>1219.0891113281</ele>
        <time>2010-08-15T10:58:05Z</time>
      </trkpt>
      <trkpt lat="45.36906" lon="4.53029">
        <ele>1221.01171875</ele>
        <time>2010-08-15T10:58:13Z</time>
      </trkpt>
      <trkpt lat="45.36907" lon="4.53044">
        <ele>1223.4150390625</ele>
        <time>2010-08-15T10:58:21Z</time>
      </trkpt>
      <trkpt lat="45.36906" lon="4.53058">
        <ele>1225.3374023438</ele>
        <time>2010-08-15T10:58:28Z</time>
      </trkpt>
      <trkpt lat="45.36904" lon="4.53072">
        <ele>1226.298828125</ele>
        <time>2010-08-15T10:58:35Z</time>
      </trkpt>
      <trkpt lat="45.36904" lon="4.53075">
        <ele>1226.298828125</ele>
        <time>2010-08-15T10:58:36Z</time>
      </trkpt>
      <trkpt lat="45.36909" lon="4.53089">
        <ele>1226.7795410156</ele>
        <time>2010-08-15T10:58:43Z</time>
      </trkpt>
      <trkpt lat="45.36912" lon="4.53106">
        <ele>1230.625</ele>
        <time>2010-08-15T10:58:50Z</time>
      </trkpt>
      <trkpt lat="45.36912" lon="4.53123">
        <ele>1234.4702148438</ele>
        <time>2010-08-15T10:58:57Z</time>
      </trkpt>
      <trkpt lat="45.36912" lon="4.53137">
        <ele>1239.2766113281</ele>
        <time>2010-08-15T10:59:03Z</time>
      </trkpt>
      <trkpt lat="45.36914" lon="4.53152">
        <ele>1239.2766113281</ele>
        <time>2010-08-15T10:59:09Z</time>
      </trkpt>
      <trkpt lat="45.36919" lon="4.53172">
        <ele>1239.2766113281</ele>
        <time>2010-08-15T10:59:17Z</time>
      </trkpt>
      <trkpt lat="45.36925" lon="4.53186">
        <ele>1236.3928222656</ele>
        <time>2010-08-15T10:59:23Z</time>
      </trkpt>
      <trkpt lat="45.3693" lon="4.53205">
        <ele>1236.8732910156</ele>
        <time>2010-08-15T10:59:29Z</time>
      </trkpt>
      <trkpt lat="45.3693" lon="4.53221">
        <ele>1237.3540039062</ele>
        <time>2010-08-15T10:59:34Z</time>
      </trkpt>
      <trkpt lat="45.36931" lon="4.5324">
        <ele>1238.7961425781</ele>
        <time>2010-08-15T10:59:40Z</time>
      </trkpt>
      <trkpt lat="45.36935" lon="4.53261">
        <ele>1240.7185058594</ele>
        <time>2010-08-15T10:59:47Z</time>
      </trkpt>
      <trkpt lat="45.36942" lon="4.53281">
        <ele>1240.2380371094</ele>
        <time>2010-08-15T10:59:54Z</time>
      </trkpt>
      <trkpt lat="45.36947" lon="4.53291">
        <ele>1242.1606445312</ele>
        <time>2010-08-15T10:59:58Z</time>
      </trkpt>
      <trkpt lat="45.36954" lon="4.53311">
        <ele>1242.6413574219</ele>
        <time>2010-08-15T11:00:05Z</time>
      </trkpt>
      <trkpt lat="45.36958" lon="4.53317">
        <ele>1243.6025390625</ele>
        <time>2010-08-15T11:00:08Z</time>
      </trkpt>
      <trkpt lat="45.36964" lon="4.53331">
        <ele>1244.0834960938</ele>
        <time>2010-08-15T11:00:14Z</time>
      </trkpt>
      <trkpt lat="45.36975" lon="4.53357">
        <ele>1247.4479980469</ele>
        <time>2010-08-15T11:00:24Z</time>
      </trkpt>
      <trkpt lat="45.36981" lon="4.53375">
        <ele>1249.3706054688</ele>
        <time>2010-08-15T11:00:30Z</time>
      </trkpt>
      <trkpt lat="45.3699" lon="4.53399">
        <ele>1249.8513183594</ele>
        <time>2010-08-15T11:00:37Z</time>
      </trkpt>
      <trkpt lat="45.36999" lon="4.53421">
        <ele>1248.8898925781</ele>
        <time>2010-08-15T11:00:42Z</time>
      </trkpt>
      <trkpt lat="45.37005" lon="4.53449">
        <ele>1246.9672851562</ele>
        <time>2010-08-15T11:00:47Z</time>
      </trkpt>
      <trkpt lat="45.37014" lon="4.53473">
        <ele>1243.6025390625</ele>
        <time>2010-08-15T11:00:51Z</time>
      </trkpt>
      <trkpt lat="45.37017" lon="4.53479">
        <ele>1242.1606445312</ele>
        <time>2010-08-15T11:00:52Z</time>
      </trkpt>
      <trkpt lat="45.37027" lon="4.53513">
        <ele>1236.8732910156</ele>
        <time>2010-08-15T11:00:56Z</time>
      </trkpt>
      <trkpt lat="45.37028" lon="4.5353">
        <ele>1235.4313964844</ele>
        <time>2010-08-15T11:00:58Z</time>
      </trkpt>
      <trkpt lat="45.37024" lon="4.53568">
        <ele>1232.5476074219</ele>
        <time>2010-08-15T11:01:02Z</time>
      </trkpt>
      <trkpt lat="45.3702" lon="4.53595">
        <ele>1232.0668945312</ele>
        <time>2010-08-15T11:01:05Z</time>
      </trkpt>
      <trkpt lat="45.37012" lon="4.53654">
        <ele>1232.0668945312</ele>
        <time>2010-08-15T11:01:11Z</time>
      </trkpt>
      <trkpt lat="45.37012" lon="4.53664">
        <ele>1232.0668945312</ele>
        <time>2010-08-15T11:01:12Z</time>
      </trkpt>
      <trkpt lat="45.37006" lon="4.537">
        <ele>1233.5087890625</ele>
        <time>2010-08-15T11:01:16Z</time>
      </trkpt>
      <trkpt lat="45.36999" lon="4.53751">
        <ele>1234.4702148438</ele>
        <time>2010-08-15T11:01:21Z</time>
      </trkpt>
      <trkpt lat="45.37001" lon="4.5383">
        <ele>1235.912109375</ele>
        <time>2010-08-15T11:01:29Z</time>
      </trkpt>
      <trkpt lat="45.37001" lon="4.53861">
        <ele>1237.8347167969</ele>
        <time>2010-08-15T11:01:32Z</time>
      </trkpt>
      <trkpt lat="45.37" lon="4.53881">
        <ele>1239.2766113281</ele>
        <time>2010-08-15T11:01:34Z</time>
      </trkpt>
      <trkpt lat="45.37002" lon="4.53931">
        <ele>1238.3154296875</ele>
        <time>2010-08-15T11:01:40Z</time>
      </trkpt>
      <trkpt lat="45.37004" lon="4.53973">
        <ele>1231.5861816406</ele>
        <time>2010-08-15T11:01:44Z</time>
      </trkpt>
      <trkpt lat="45.37003" lon="4.53994">
        <ele>1229.6635742188</ele>
        <time>2010-08-15T11:01:46Z</time>
      </trkpt>
      <trkpt lat="45.3699" lon="4.5405">
        <ele>1226.7795410156</ele>
        <time>2010-08-15T11:01:50Z</time>
      </trkpt>
      <trkpt lat="45.36989" lon="4.54075">
        <ele>1227.2602539062</ele>
        <time>2010-08-15T11:01:52Z</time>
      </trkpt>
      <trkpt lat="45.36997" lon="4.54128">
        <ele>1225.8181152344</ele>
        <time>2010-08-15T11:01:58Z</time>
      </trkpt>
      <trkpt lat="45.37002" lon="4.54183">
        <ele>1225.3374023438</ele>
        <time>2010-08-15T11:02:05Z</time>
      </trkpt>
      <trkpt lat="45.37003" lon="4.54208">
        <ele>1223.4150390625</ele>
        <time>2010-08-15T11:02:08Z</time>
      </trkpt>
      <trkpt lat="45.37006" lon="4.54235">
        <ele>1220.5310058594</ele>
        <time>2010-08-15T11:02:12Z</time>
      </trkpt>
      <trkpt lat="45.3701" lon="4.54258">
        <ele>1220.0502929688</ele>
        <time>2010-08-15T11:02:15Z</time>
      </trkpt>
      <trkpt lat="45.37007" lon="4.5428">
        <ele>1227.2602539062</ele>
        <time>2010-08-15T11:02:19Z</time>
      </trkpt>
      <trkpt lat="45.37006" lon="4.54296">
        <ele>1228.7023925781</ele>
        <time>2010-08-15T11:02:24Z</time>
      </trkpt>
      <trkpt lat="45.37011" lon="4.54326">
        <ele>1224.8569335938</ele>
        <time>2010-08-15T11:02:32Z</time>
      </trkpt>
      <trkpt lat="45.37016" lon="4.54347">
        <ele>1223.4150390625</ele>
        <time>2010-08-15T11:02:38Z</time>
      </trkpt>
      <trkpt lat="45.3702" lon="4.5436">
        <ele>1224.3762207031</ele>
        <time>2010-08-15T11:02:44Z</time>
      </trkpt>
      <trkpt lat="45.37027" lon="4.54378">
        <ele>1226.7795410156</ele>
        <time>2010-08-15T11:02:51Z</time>
      </trkpt>
      <trkpt lat="45.37036" lon="4.54392">
        <ele>1228.2216796875</ele>
        <time>2010-08-15T11:02:57Z</time>
      </trkpt>
      <trkpt lat="45.37045" lon="4.54401">
        <ele>1229.6635742188</ele>
        <time>2010-08-15T11:03:01Z</time>
      </trkpt>
      <trkpt lat="45.37057" lon="4.54412">
        <ele>1233.5087890625</ele>
        <time>2010-08-15T11:03:07Z</time>
      </trkpt>
      <trkpt lat="45.37073" lon="4.54426">
        <ele>1231.1057128906</ele>
        <time>2010-08-15T11:03:12Z</time>
      </trkpt>
      <trkpt lat="45.37089" lon="4.54448">
        <ele>1236.8732910156</ele>
        <time>2010-08-15T11:03:18Z</time>
      </trkpt>
      <trkpt lat="45.37096" lon="4.54462">
        <ele>1240.2380371094</ele>
        <time>2010-08-15T11:03:23Z</time>
      </trkpt>
      <trkpt lat="45.37103" lon="4.54475">
        <ele>1244.0834960938</ele>
        <time>2010-08-15T11:03:27Z</time>
      </trkpt>
      <trkpt lat="45.37114" lon="4.54487">
        <ele>1248.4091796875</ele>
        <time>2010-08-15T11:03:31Z</time>
      </trkpt>
      <trkpt lat="45.37135" lon="4.54501">
        <ele>1247.9287109375</ele>
        <time>2010-08-15T11:03:37Z</time>
      </trkpt>
      <trkpt lat="45.37156" lon="4.54509">
        <ele>1245.525390625</ele>
        <time>2010-08-15T11:03:42Z</time>
      </trkpt>
      <trkpt lat="45.37169" lon="4.54509">
        <ele>1251.2932128906</ele>
        <time>2010-08-15T11:03:44Z</time>
      </trkpt>
      <trkpt lat="45.37189" lon="4.54506">
        <ele>1253.2158203125</ele>
        <time>2010-08-15T11:03:49Z</time>
      </trkpt>
      <trkpt lat="45.37206" lon="4.545">
        <ele>1254.6577148438</ele>
        <time>2010-08-15T11:03:53Z</time>
      </trkpt>
      <trkpt lat="45.37228" lon="4.54495">
        <ele>1259.4643554688</ele>
        <time>2010-08-15T11:03:59Z</time>
      </trkpt>
      <trkpt lat="45.37239" lon="4.54488">
        <ele>1258.9836425781</ele>
        <time>2010-08-15T11:04:03Z</time>
      </trkpt>
      <trkpt lat="45.37252" lon="4.54483">
        <ele>1260.9064941406</ele>
        <time>2010-08-15T11:04:06Z</time>
      </trkpt>
      <trkpt lat="45.37274" lon="4.54478">
        <ele>1262.3483886719</ele>
        <time>2010-08-15T11:04:11Z</time>
      </trkpt>
      <trkpt lat="45.37301" lon="4.54479">
        <ele>1261.3872070312</ele>
        <time>2010-08-15T11:04:17Z</time>
      </trkpt>
      <trkpt lat="45.37326" lon="4.5448">
        <ele>1266.1936035156</ele>
        <time>2010-08-15T11:04:23Z</time>
      </trkpt>
      <trkpt lat="45.37346" lon="4.54482">
        <ele>1268.5969238281</ele>
        <time>2010-08-15T11:04:28Z</time>
      </trkpt>
      <trkpt lat="45.37365" lon="4.54488">
        <ele>1272.4421386719</ele>
        <time>2010-08-15T11:04:34Z</time>
      </trkpt>
      <trkpt lat="45.37376" lon="4.54496">
        <ele>1273.8840332031</ele>
        <time>2010-08-15T11:04:38Z</time>
      </trkpt>
      <trkpt lat="45.37389" lon="4.54506">
        <ele>1274.8454589844</ele>
        <time>2010-08-15T11:04:42Z</time>
      </trkpt>
      <trkpt lat="45.37413" lon="4.54518">
        <ele>1273.8840332031</ele>
        <time>2010-08-15T11:04:48Z</time>
      </trkpt>
      <trkpt lat="45.3742" lon="4.54526">
        <ele>1271.4807128906</ele>
        <time>2010-08-15T11:04:50Z</time>
      </trkpt>
      <trkpt lat="45.37427" lon="4.54536">
        <ele>1270.51953125</ele>
        <time>2010-08-15T11:04:53Z</time>
      </trkpt>
      <trkpt lat="45.37437" lon="4.54559">
        <ele>1269.0776367188</ele>
        <time>2010-08-15T11:04:58Z</time>
      </trkpt>
      <trkpt lat="45.37446" lon="4.5458">
        <ele>1267.1550292969</ele>
        <time>2010-08-15T11:05:02Z</time>
      </trkpt>
      <trkpt lat="45.37466" lon="4.54617">
        <ele>1258.0224609375</ele>
        <time>2010-08-15T11:05:07Z</time>
      </trkpt>
      <trkpt lat="45.37483" lon="4.54657">
        <ele>1249.3706054688</ele>
        <time>2010-08-15T11:05:12Z</time>
      </trkpt>
      <trkpt lat="45.37489" lon="4.54681">
        <ele>1248.8898925781</ele>
        <time>2010-08-15T11:05:15Z</time>
      </trkpt>
      <trkpt lat="45.3749" lon="4.54726">
        <ele>1245.525390625</ele>
        <time>2010-08-15T11:05:20Z</time>
      </trkpt>
      <trkpt lat="45.37486" lon="4.54741">
        <ele>1244.0834960938</ele>
        <time>2010-08-15T11:05:22Z</time>
      </trkpt>
      <trkpt lat="45.37471" lon="4.54794">
        <ele>1238.7961425781</ele>
        <time>2010-08-15T11:05:29Z</time>
      </trkpt>
      <trkpt lat="45.37466" lon="4.54807">
        <ele>1239.2766113281</ele>
        <time>2010-08-15T11:05:31Z</time>
      </trkpt>
      <trkpt lat="45.37454" lon="4.54835">
        <ele>1242.1606445312</ele>
        <time>2010-08-15T11:05:35Z</time>
      </trkpt>
      <trkpt lat="45.37439" lon="4.54857">
        <ele>1245.0446777344</ele>
        <time>2010-08-15T11:05:38Z</time>
      </trkpt>
      <trkpt lat="45.37411" lon="4.54906">
        <ele>1247.9287109375</ele>
        <time>2010-08-15T11:05:44Z</time>
      </trkpt>
      <trkpt lat="45.3738" lon="4.54958">
        <ele>1235.4313964844</ele>
        <time>2010-08-15T11:05:49Z</time>
      </trkpt>
      <trkpt lat="45.37348" lon="4.5505">
        <ele>1222.4536132812</ele>
        <time>2010-08-15T11:05:55Z</time>
      </trkpt>
      <trkpt lat="45.37342" lon="4.55064">
        <ele>1221.9729003906</ele>
        <time>2010-08-15T11:05:56Z</time>
      </trkpt>
      <trkpt lat="45.37325" lon="4.55112">
        <ele>1221.9729003906</ele>
        <time>2010-08-15T11:06:01Z</time>
      </trkpt>
      <trkpt lat="45.37318" lon="4.5513">
        <ele>1227.2602539062</ele>
        <time>2010-08-15T11:06:03Z</time>
      </trkpt>
      <trkpt lat="45.37304" lon="4.55178">
        <ele>1226.7795410156</ele>
        <time>2010-08-15T11:06:09Z</time>
      </trkpt>
      <trkpt lat="45.37302" lon="4.55186">
        <ele>1226.7795410156</ele>
        <time>2010-08-15T11:06:10Z</time>
      </trkpt>
      <trkpt lat="45.37299" lon="4.55213">
        <ele>1230.625</ele>
        <time>2010-08-15T11:06:13Z</time>
      </trkpt>
      <trkpt lat="45.373" lon="4.55238">
        <ele>1234.4702148438</ele>
        <time>2010-08-15T11:06:16Z</time>
      </trkpt>
      <trkpt lat="45.37303" lon="4.55252">
        <ele>1237.3540039062</ele>
        <time>2010-08-15T11:06:18Z</time>
      </trkpt>
      <trkpt lat="45.37315" lon="4.55297">
        <ele>1242.6413574219</ele>
        <time>2010-08-15T11:06:25Z</time>
      </trkpt>
      <trkpt lat="45.37338" lon="4.5534">
        <ele>1241.6799316406</ele>
        <time>2010-08-15T11:06:33Z</time>
      </trkpt>
      <trkpt lat="45.37357" lon="4.55377">
        <ele>1242.1606445312</ele>
        <time>2010-08-15T11:06:40Z</time>
      </trkpt>
      <trkpt lat="45.37362" lon="4.55389">
        <ele>1241.6799316406</ele>
        <time>2010-08-15T11:06:42Z</time>
      </trkpt>
      <trkpt lat="45.37368" lon="4.55409">
        <ele>1241.19921875</ele>
        <time>2010-08-15T11:06:45Z</time>
      </trkpt>
      <trkpt lat="45.37364" lon="4.55444">
        <ele>1238.3154296875</ele>
        <time>2010-08-15T11:06:50Z</time>
      </trkpt>
      <trkpt lat="45.37362" lon="4.5545">
        <ele>1237.8347167969</ele>
        <time>2010-08-15T11:06:51Z</time>
      </trkpt>
      <trkpt lat="45.3733" lon="4.55505">
        <ele>1231.1057128906</ele>
        <time>2010-08-15T11:06:58Z</time>
      </trkpt>
      <trkpt lat="45.37316" lon="4.55542">
        <ele>1230.1442871094</ele>
        <time>2010-08-15T11:07:02Z</time>
      </trkpt>
      <trkpt lat="45.37313" lon="4.55558">
        <ele>1233.9895019531</ele>
        <time>2010-08-15T11:07:04Z</time>
      </trkpt>
      <trkpt lat="45.37313" lon="4.55596">
        <ele>1237.3540039062</ele>
        <time>2010-08-15T11:07:09Z</time>
      </trkpt>
      <trkpt lat="45.3732" lon="4.55611">
        <ele>1238.7961425781</ele>
        <time>2010-08-15T11:07:11Z</time>
      </trkpt>
      <trkpt lat="45.37336" lon="4.55661">
        <ele>1241.6799316406</ele>
        <time>2010-08-15T11:07:18Z</time>
      </trkpt>
      <trkpt lat="45.37347" lon="4.55687">
        <ele>1242.1606445312</ele>
        <time>2010-08-15T11:07:22Z</time>
      </trkpt>
      <trkpt lat="45.37352" lon="4.557">
        <ele>1241.6799316406</ele>
        <time>2010-08-15T11:07:24Z</time>
      </trkpt>
      <trkpt lat="45.37373" lon="4.55748">
        <ele>1239.2766113281</ele>
        <time>2010-08-15T11:07:31Z</time>
      </trkpt>
      <trkpt lat="45.37379" lon="4.55762">
        <ele>1238.7961425781</ele>
        <time>2010-08-15T11:07:33Z</time>
      </trkpt>
      <trkpt lat="45.37385" lon="4.55795">
        <ele>1239.2766113281</ele>
        <time>2010-08-15T11:07:37Z</time>
      </trkpt>
      <trkpt lat="45.37389" lon="4.55812">
        <ele>1238.7961425781</ele>
        <time>2010-08-15T11:07:39Z</time>
      </trkpt>
      <trkpt lat="45.37403" lon="4.55836">
        <ele>1237.8347167969</ele>
        <time>2010-08-15T11:07:43Z</time>
      </trkpt>
      <trkpt lat="45.37415" lon="4.55832">
        <ele>1238.7961425781</ele>
        <time>2010-08-15T11:07:46Z</time>
      </trkpt>
      <trkpt lat="45.37442" lon="4.55785">
        <ele>1239.2766113281</ele>
        <time>2010-08-15T11:07:54Z</time>
      </trkpt>
      <trkpt lat="45.37462" lon="4.55748">
        <ele>1239.2766113281</ele>
        <time>2010-08-15T11:08:00Z</time>
      </trkpt>
      <trkpt lat="45.37477" lon="4.55727">
        <ele>1239.2766113281</ele>
        <time>2010-08-15T11:08:04Z</time>
      </trkpt>
      <trkpt lat="45.375" lon="4.55702">
        <ele>1240.7185058594</ele>
        <time>2010-08-15T11:08:09Z</time>
      </trkpt>
      <trkpt lat="45.37535" lon="4.55663">
        <ele>1242.6413574219</ele>
        <time>2010-08-15T11:08:17Z</time>
      </trkpt>
      <trkpt lat="45.37569" lon="4.5563">
        <ele>1241.6799316406</ele>
        <time>2010-08-15T11:08:24Z</time>
      </trkpt>
      <trkpt lat="45.37598" lon="4.55588">
        <ele>1244.0834960938</ele>
        <time>2010-08-15T11:08:31Z</time>
      </trkpt>
      <trkpt lat="45.37605" lon="4.55577">
        <ele>1245.0446777344</ele>
        <time>2010-08-15T11:08:33Z</time>
      </trkpt>
      <trkpt lat="45.37629" lon="4.5556">
        <ele>1246.4868164062</ele>
        <time>2010-08-15T11:08:38Z</time>
      </trkpt>
      <trkpt lat="45.37646" lon="4.55567">
        <ele>1244.5639648438</ele>
        <time>2010-08-15T11:08:41Z</time>
      </trkpt>
      <trkpt lat="45.37652" lon="4.55572">
        <ele>1244.5639648438</ele>
        <time>2010-08-15T11:08:42Z</time>
      </trkpt>
      <trkpt lat="45.37698" lon="4.55625">
        <ele>1241.6799316406</ele>
        <time>2010-08-15T11:08:50Z</time>
      </trkpt>
      <trkpt lat="45.37735" lon="4.55678">
        <ele>1235.4313964844</ele>
        <time>2010-08-15T11:08:57Z</time>
      </trkpt>
      <trkpt lat="45.37746" lon="4.55695">
        <ele>1233.5087890625</ele>
        <time>2010-08-15T11:08:59Z</time>
      </trkpt>
      <trkpt lat="45.3777" lon="4.55735">
        <ele>1230.1442871094</ele>
        <time>2010-08-15T11:09:04Z</time>
      </trkpt>
      <trkpt lat="45.37794" lon="4.55759">
        <ele>1229.6635742188</ele>
        <time>2010-08-15T11:09:08Z</time>
      </trkpt>
      <trkpt lat="45.37841" lon="4.55791">
        <ele>1229.6635742188</ele>
        <time>2010-08-15T11:09:15Z</time>
      </trkpt>
      <trkpt lat="45.37873" lon="4.55804">
        <ele>1229.1828613281</ele>
        <time>2010-08-15T11:09:20Z</time>
      </trkpt>
      <trkpt lat="45.37886" lon="4.55812">
        <ele>1226.298828125</ele>
        <time>2010-08-15T11:09:22Z</time>
      </trkpt>
      <trkpt lat="45.37925" lon="4.55824">
        <ele>1229.1828613281</ele>
        <time>2010-08-15T11:09:27Z</time>
      </trkpt>
      <trkpt lat="45.37967" lon="4.55857">
        <ele>1223.8955078125</ele>
        <time>2010-08-15T11:09:33Z</time>
      </trkpt>
      <trkpt lat="45.37998" lon="4.5588">
        <ele>1222.4536132812</ele>
        <time>2010-08-15T11:09:38Z</time>
      </trkpt>
      <trkpt lat="45.38008" lon="4.55888">
        <ele>1221.9729003906</ele>
        <time>2010-08-15T11:09:40Z</time>
      </trkpt>
      <trkpt lat="45.38029" lon="4.55901">
        <ele>1221.01171875</ele>
        <time>2010-08-15T11:09:44Z</time>
      </trkpt>
      <trkpt lat="45.38041" lon="4.55905">
        <ele>1220.5310058594</ele>
        <time>2010-08-15T11:09:46Z</time>
      </trkpt>
      <trkpt lat="45.38092" lon="4.55918">
        <ele>1219.0891113281</ele>
        <time>2010-08-15T11:09:54Z</time>
      </trkpt>
      <trkpt lat="45.38106" lon="4.55925">
        <ele>1218.1276855469</ele>
        <time>2010-08-15T11:09:56Z</time>
      </trkpt>
      <trkpt lat="45.38139" lon="4.55916">
        <ele>1215.724609375</ele>
        <time>2010-08-15T11:10:00Z</time>
      </trkpt>
      <trkpt lat="45.38161" lon="4.55906">
        <ele>1213.3212890625</ele>
        <time>2010-08-15T11:10:03Z</time>
      </trkpt>
      <trkpt lat="45.382" lon="4.55904">
        <ele>1210.4370117188</ele>
        <time>2010-08-15T11:10:08Z</time>
      </trkpt>
      <trkpt lat="45.3826" lon="4.55913">
        <ele>1204.6691894531</ele>
        <time>2010-08-15T11:10:15Z</time>
      </trkpt>
      <trkpt lat="45.38284" lon="4.55918">
        <ele>1203.2272949219</ele>
        <time>2010-08-15T11:10:18Z</time>
      </trkpt>
      <trkpt lat="45.38326" lon="4.55927">
        <ele>1199.3820800781</ele>
        <time>2010-08-15T11:10:23Z</time>
      </trkpt>
      <trkpt lat="45.38365" lon="4.55941">
        <ele>1199.3820800781</ele>
        <time>2010-08-15T11:10:28Z</time>
      </trkpt>
      <trkpt lat="45.38372" lon="4.55945">
        <ele>1199.3820800781</ele>
        <time>2010-08-15T11:10:29Z</time>
      </trkpt>
      <trkpt lat="45.38391" lon="4.55958">
        <ele>1198.4206542969</ele>
        <time>2010-08-15T11:10:32Z</time>
      </trkpt>
      <trkpt lat="45.38419" lon="4.5598">
        <ele>1197.4594726562</ele>
        <time>2010-08-15T11:10:37Z</time>
      </trkpt>
      <trkpt lat="45.38449" lon="4.56013">
        <ele>1196.4982910156</ele>
        <time>2010-08-15T11:10:43Z</time>
      </trkpt>
      <trkpt lat="45.38467" lon="4.56038">
        <ele>1196.4982910156</ele>
        <time>2010-08-15T11:10:47Z</time>
      </trkpt>
      <trkpt lat="45.38492" lon="4.56081">
        <ele>1194.5751953125</ele>
        <time>2010-08-15T11:10:53Z</time>
      </trkpt>
      <trkpt lat="45.38511" lon="4.56138">
        <ele>1189.2880859375</ele>
        <time>2010-08-15T11:10:59Z</time>
      </trkpt>
      <trkpt lat="45.38514" lon="4.56149">
        <ele>1187.8461914062</ele>
        <time>2010-08-15T11:11:00Z</time>
      </trkpt>
      <trkpt lat="45.38533" lon="4.56241">
        <ele>1182.0783691406</ele>
        <time>2010-08-15T11:11:08Z</time>
      </trkpt>
      <trkpt lat="45.38544" lon="4.56285">
        <ele>1180.1557617188</ele>
        <time>2010-08-15T11:11:12Z</time>
      </trkpt>
      <trkpt lat="45.38556" lon="4.56316">
        <ele>1179.1940917969</ele>
        <time>2010-08-15T11:11:15Z</time>
      </trkpt>
      <trkpt lat="45.38563" lon="4.56352">
        <ele>1177.7521972656</ele>
        <time>2010-08-15T11:11:19Z</time>
      </trkpt>
      <trkpt lat="45.38574" lon="4.56379">
        <ele>1177.7521972656</ele>
        <time>2010-08-15T11:11:24Z</time>
      </trkpt>
      <trkpt lat="45.38586" lon="4.56378">
        <ele>1178.2329101562</ele>
        <time>2010-08-15T11:11:26Z</time>
      </trkpt>
      <trkpt lat="45.38628" lon="4.56368">
        <ele>1178.7136230469</ele>
        <time>2010-08-15T11:11:33Z</time>
      </trkpt>
      <trkpt lat="45.38663" lon="4.5635">
        <ele>1178.7136230469</ele>
        <time>2010-08-15T11:11:38Z</time>
      </trkpt>
      <trkpt lat="45.38674" lon="4.56339">
        <ele>1178.7136230469</ele>
        <time>2010-08-15T11:11:40Z</time>
      </trkpt>
      <trkpt lat="45.38709" lon="4.56319">
        <ele>1176.791015625</ele>
        <time>2010-08-15T11:11:46Z</time>
      </trkpt>
      <trkpt lat="45.38737" lon="4.56323">
        <ele>1175.3488769531</ele>
        <time>2010-08-15T11:11:51Z</time>
      </trkpt>
      <trkpt lat="45.38761" lon="4.56345">
        <ele>1170.5424804688</ele>
        <time>2010-08-15T11:11:55Z</time>
      </trkpt>
      <trkpt lat="45.38803" lon="4.56377">
        <ele>1166.697265625</ele>
        <time>2010-08-15T11:12:02Z</time>
      </trkpt>
      <trkpt lat="45.38828" lon="4.56397">
        <ele>1167.6584472656</ele>
        <time>2010-08-15T11:12:06Z</time>
      </trkpt>
      <trkpt lat="45.38844" lon="4.56415">
        <ele>1168.1391601562</ele>
        <time>2010-08-15T11:12:09Z</time>
      </trkpt>
      <trkpt lat="45.38876" lon="4.56431">
        <ele>1170.5424804688</ele>
        <time>2010-08-15T11:12:14Z</time>
      </trkpt>
      <trkpt lat="45.38882" lon="4.56428">
        <ele>1171.0231933594</ele>
        <time>2010-08-15T11:12:15Z</time>
      </trkpt>
      <trkpt lat="45.38892" lon="4.56426">
        <ele>1170.5424804688</ele>
        <time>2010-08-15T11:12:17Z</time>
      </trkpt>
      <trkpt lat="45.38914" lon="4.56423">
        <ele>1171.0231933594</ele>
        <time>2010-08-15T11:12:22Z</time>
      </trkpt>
      <trkpt lat="45.38937" lon="4.56413">
        <ele>1174.3876953125</ele>
        <time>2010-08-15T11:12:28Z</time>
      </trkpt>
      <trkpt lat="45.38958" lon="4.56406">
        <ele>1175.8295898438</ele>
        <time>2010-08-15T11:12:34Z</time>
      </trkpt>
      <trkpt lat="45.38985" lon="4.56398">
        <ele>1181.1171875</ele>
        <time>2010-08-15T11:12:42Z</time>
      </trkpt>
      <trkpt lat="45.39011" lon="4.56392">
        <ele>1184.9624023438</ele>
        <time>2010-08-15T11:12:50Z</time>
      </trkpt>
      <trkpt lat="45.39034" lon="4.56389">
        <ele>1186.404296875</ele>
        <time>2010-08-15T11:12:57Z</time>
      </trkpt>
      <trkpt lat="45.39054" lon="4.56388">
        <ele>1188.8076171875</ele>
        <time>2010-08-15T11:13:02Z</time>
      </trkpt>
      <trkpt lat="45.39078" lon="4.56385">
        <ele>1191.69140625</ele>
        <time>2010-08-15T11:13:09Z</time>
      </trkpt>
      <trkpt lat="45.39095" lon="4.56384">
        <ele>1194.0947265625</ele>
        <time>2010-08-15T11:13:14Z</time>
      </trkpt>
      <trkpt lat="45.39121" lon="4.56385">
        <ele>1197.4594726562</ele>
        <time>2010-08-15T11:13:21Z</time>
      </trkpt>
      <trkpt lat="45.39139" lon="4.56386">
        <ele>1196.4982910156</ele>
        <time>2010-08-15T11:13:26Z</time>
      </trkpt>
      <trkpt lat="45.3916" lon="4.56391">
        <ele>1192.6528320312</ele>
        <time>2010-08-15T11:13:32Z</time>
      </trkpt>
      <trkpt lat="45.39183" lon="4.56392">
        <ele>1191.2106933594</ele>
        <time>2010-08-15T11:13:38Z</time>
      </trkpt>
      <trkpt lat="45.39203" lon="4.56392">
        <ele>1192.6528320312</ele>
        <time>2010-08-15T11:13:44Z</time>
      </trkpt>
      <trkpt lat="45.39227" lon="4.56394">
        <ele>1196.017578125</ele>
        <time>2010-08-15T11:13:51Z</time>
      </trkpt>
      <trkpt lat="45.39246" lon="4.56397">
        <ele>1199.8627929688</ele>
        <time>2010-08-15T11:13:57Z</time>
      </trkpt>
      <trkpt lat="45.39265" lon="4.56401">
        <ele>1205.6306152344</ele>
        <time>2010-08-15T11:14:03Z</time>
      </trkpt>
      <trkpt lat="45.39283" lon="4.56408">
        <ele>1207.0725097656</ele>
        <time>2010-08-15T11:14:09Z</time>
      </trkpt>
      <trkpt lat="45.39298" lon="4.56419">
        <ele>1207.0725097656</ele>
        <time>2010-08-15T11:14:15Z</time>
      </trkpt>
      <trkpt lat="45.39317" lon="4.56426">
        <ele>1201.7854003906</ele>
        <time>2010-08-15T11:14:20Z</time>
      </trkpt>
      <trkpt lat="45.39335" lon="4.56441">
        <ele>1196.017578125</ele>
        <time>2010-08-15T11:14:27Z</time>
      </trkpt>
      <trkpt lat="45.39351" lon="4.56456">
        <ele>1196.4982910156</ele>
        <time>2010-08-15T11:14:33Z</time>
      </trkpt>
      <trkpt lat="45.39361" lon="4.56478">
        <ele>1196.4982910156</ele>
        <time>2010-08-15T11:14:38Z</time>
      </trkpt>
      <trkpt lat="45.39366" lon="4.56512">
        <ele>1195.5366210938</ele>
        <time>2010-08-15T11:14:44Z</time>
      </trkpt>
      <trkpt lat="45.39368" lon="4.56556">
        <ele>1196.4982910156</ele>
        <time>2010-08-15T11:14:51Z</time>
      </trkpt>
      <trkpt lat="45.39368" lon="4.56562">
        <ele>1196.4982910156</ele>
        <time>2010-08-15T11:14:52Z</time>
      </trkpt>
      <trkpt lat="45.39367" lon="4.56585">
        <ele>1197.4594726562</ele>
        <time>2010-08-15T11:14:56Z</time>
      </trkpt>
      <trkpt lat="45.39361" lon="4.56632">
        <ele>1199.3820800781</ele>
        <time>2010-08-15T11:15:04Z</time>
      </trkpt>
      <trkpt lat="45.39354" lon="4.56668">
        <ele>1199.8627929688</ele>
        <time>2010-08-15T11:15:10Z</time>
      </trkpt>
      <trkpt lat="45.39346" lon="4.56689">
        <ele>1200.8239746094</ele>
        <time>2010-08-15T11:15:14Z</time>
      </trkpt>
      <trkpt lat="45.39339" lon="4.56701">
        <ele>1201.7854003906</ele>
        <time>2010-08-15T11:15:17Z</time>
      </trkpt>
      <trkpt lat="45.39328" lon="4.56725">
        <ele>1205.6306152344</ele>
        <time>2010-08-15T11:15:23Z</time>
      </trkpt>
      <trkpt lat="45.39323" lon="4.56749">
        <ele>1206.1110839844</ele>
        <time>2010-08-15T11:15:29Z</time>
      </trkpt>
      <trkpt lat="45.39322" lon="4.56761">
        <ele>1206.1110839844</ele>
        <time>2010-08-15T11:15:32Z</time>
      </trkpt>
      <trkpt lat="45.39331" lon="4.56773">
        <ele>1207.5532226562</ele>
        <time>2010-08-15T11:15:37Z</time>
      </trkpt>
      <trkpt lat="45.39352" lon="4.56778">
        <ele>1210.9177246094</ele>
        <time>2010-08-15T11:15:45Z</time>
      </trkpt>
      <trkpt lat="45.39378" lon="4.5678">
        <ele>1211.3984375</ele>
        <time>2010-08-15T11:15:53Z</time>
      </trkpt>
      <trkpt lat="45.39405" lon="4.56774">
        <ele>1211.3984375</ele>
        <time>2010-08-15T11:16:02Z</time>
      </trkpt>
      <trkpt lat="45.39412" lon="4.56773">
        <ele>1211.8791503906</ele>
        <time>2010-08-15T11:16:05Z</time>
      </trkpt>
      <trkpt lat="45.39415" lon="4.5678">
        <ele>1211.8791503906</ele>
        <time>2010-08-15T11:16:09Z</time>
      </trkpt>
      <trkpt lat="45.39413" lon="4.56782">
        <ele>1211.3984375</ele>
        <time>2010-08-15T11:16:10Z</time>
      </trkpt>
      <trkpt lat="45.39398" lon="4.56793">
        <ele>1211.3984375</ele>
        <time>2010-08-15T11:16:18Z</time>
      </trkpt>
      <trkpt lat="45.39391" lon="4.56798">
        <ele>1212.3598632812</ele>
        <time>2010-08-15T11:16:23Z</time>
      </trkpt>
      <trkpt lat="45.39379" lon="4.56806">
        <ele>1213.8017578125</ele>
        <time>2010-08-15T11:16:31Z</time>
      </trkpt>
      <trkpt lat="45.39371" lon="4.56812">
        <ele>1215.2438964844</ele>
        <time>2010-08-15T11:16:37Z</time>
      </trkpt>
      <trkpt lat="45.39366" lon="4.56817">
        <ele>1215.2438964844</ele>
        <time>2010-08-15T11:16:43Z</time>
      </trkpt>
      <trkpt lat="45.39366" lon="4.56818">
        <ele>1215.724609375</ele>
        <time>2010-08-15T11:16:49Z</time>
      </trkpt>
      <trkpt lat="45.39365" lon="4.56823">
        <ele>1216.205078125</ele>
        <time>2010-08-15T11:16:55Z</time>
      </trkpt>
      <trkpt lat="45.39365" lon="4.56823">
        <ele>1216.205078125</ele>
        <time>2010-08-15T11:16:59Z</time>
      </trkpt>
      <trkpt lat="45.39361" lon="4.5683">
        <ele>1217.1665039062</ele>
        <time>2010-08-15T11:17:07Z</time>
      </trkpt>
      <trkpt lat="45.39357" lon="4.56838">
        <ele>1219.0891113281</ele>
        <time>2010-08-15T11:17:17Z</time>
      </trkpt>
      <trkpt lat="45.39352" lon="4.56845">
        <ele>1221.01171875</ele>
        <time>2010-08-15T11:17:26Z</time>
      </trkpt>
      <trkpt lat="45.39347" lon="4.56853">
        <ele>1223.4150390625</ele>
        <time>2010-08-15T11:17:36Z</time>
      </trkpt>
      <trkpt lat="45.3934" lon="4.56863">
        <ele>1226.298828125</ele>
        <time>2010-08-15T11:17:48Z</time>
      </trkpt>
      <trkpt lat="45.39335" lon="4.5687">
        <ele>1227.7407226562</ele>
        <time>2010-08-15T11:17:56Z</time>
      </trkpt>
      <trkpt lat="45.3933" lon="4.56877">
        <ele>1230.1442871094</ele>
        <time>2010-08-15T11:18:06Z</time>
      </trkpt>
      <trkpt lat="45.39323" lon="4.56882">
        <ele>1232.5476074219</ele>
        <time>2010-08-15T11:18:15Z</time>
      </trkpt>
      <trkpt lat="45.3932" lon="4.56884">
        <ele>1233.5087890625</ele>
        <time>2010-08-15T11:18:22Z</time>
      </trkpt>
      <trkpt lat="45.39317" lon="4.56889">
        <ele>1233.9895019531</ele>
        <time>2010-08-15T11:18:27Z</time>
      </trkpt>
      <trkpt lat="45.3931" lon="4.56897">
        <ele>1234.9509277344</ele>
        <time>2010-08-15T11:18:35Z</time>
      </trkpt>
      <trkpt lat="45.39304" lon="4.56905">
        <ele>1236.8732910156</ele>
        <time>2010-08-15T11:18:42Z</time>
      </trkpt>
      <trkpt lat="45.39298" lon="4.56914">
        <ele>1238.7961425781</ele>
        <time>2010-08-15T11:18:49Z</time>
      </trkpt>
      <trkpt lat="45.39294" lon="4.56918">
        <ele>1240.7185058594</ele>
        <time>2010-08-15T11:18:54Z</time>
      </trkpt>
      <trkpt lat="45.39289" lon="4.56925">
        <ele>1240.7185058594</ele>
        <time>2010-08-15T11:19:01Z</time>
      </trkpt>
      <trkpt lat="45.39286" lon="4.56927">
        <ele>1242.6413574219</ele>
        <time>2010-08-15T11:19:09Z</time>
      </trkpt>
      <trkpt lat="45.39281" lon="4.56931">
        <ele>1244.5639648438</ele>
        <time>2010-08-15T11:19:15Z</time>
      </trkpt>
      <trkpt lat="45.39272" lon="4.5694">
        <ele>1247.4479980469</ele>
        <time>2010-08-15T11:19:24Z</time>
      </trkpt>
      <trkpt lat="45.3927" lon="4.56943">
        <ele>1249.3706054688</ele>
        <time>2010-08-15T11:19:28Z</time>
      </trkpt>
      <trkpt lat="45.39265" lon="4.56949">
        <ele>1253.6965332031</ele>
        <time>2010-08-15T11:19:38Z</time>
      </trkpt>
      <trkpt lat="45.39261" lon="4.56954">
        <ele>1256.5803222656</ele>
        <time>2010-08-15T11:19:45Z</time>
      </trkpt>
      <trkpt lat="45.39257" lon="4.56961">
        <ele>1258.0224609375</ele>
        <time>2010-08-15T11:19:52Z</time>
      </trkpt>
      <trkpt lat="45.39255" lon="4.56968">
        <ele>1258.9836425781</ele>
        <time>2010-08-15T11:19:59Z</time>
      </trkpt>
      <trkpt lat="45.39252" lon="4.56978">
        <ele>1258.9836425781</ele>
        <time>2010-08-15T11:20:06Z</time>
      </trkpt>
      <trkpt lat="45.39252" lon="4.56985">
        <ele>1258.9836425781</ele>
        <time>2010-08-15T11:20:11Z</time>
      </trkpt>
      <trkpt lat="45.39255" lon="4.5699">
        <ele>1261.8679199219</ele>
        <time>2010-08-15T11:20:19Z</time>
      </trkpt>
      <trkpt lat="45.39257" lon="4.56994">
        <ele>1263.3098144531</ele>
        <time>2010-08-15T11:20:26Z</time>
      </trkpt>
      <trkpt lat="45.39262" lon="4.57">
        <ele>1262.8291015625</ele>
        <time>2010-08-15T11:20:34Z</time>
      </trkpt>
      <trkpt lat="45.39264" lon="4.57002">
        <ele>1262.8291015625</ele>
        <time>2010-08-15T11:20:37Z</time>
      </trkpt>
      <trkpt lat="45.39268" lon="4.57006">
        <ele>1263.3098144531</ele>
        <time>2010-08-15T11:20:41Z</time>
      </trkpt>
      <trkpt lat="45.39274" lon="4.57014">
        <ele>1263.7902832031</ele>
        <time>2010-08-15T11:20:48Z</time>
      </trkpt>
      <trkpt lat="45.39283" lon="4.57019">
        <ele>1265.232421875</ele>
        <time>2010-08-15T11:20:55Z</time>
      </trkpt>
      <trkpt lat="45.39294" lon="4.57022">
        <ele>1268.1162109375</ele>
        <time>2010-08-15T11:21:03Z</time>
      </trkpt>
      <trkpt lat="45.39304" lon="4.57026">
        <ele>1271.4807128906</ele>
        <time>2010-08-15T11:21:10Z</time>
      </trkpt>
      <trkpt lat="45.39317" lon="4.57028">
        <ele>1271.9614257812</ele>
        <time>2010-08-15T11:21:18Z</time>
      </trkpt>
      <trkpt lat="45.39323" lon="4.57032">
        <ele>1271.9614257812</ele>
        <time>2010-08-15T11:21:22Z</time>
      </trkpt>
      <trkpt lat="45.39336" lon="4.57037">
        <ele>1274.3647460938</ele>
        <time>2010-08-15T11:21:30Z</time>
      </trkpt>
      <trkpt lat="45.39351" lon="4.57038">
        <ele>1275.3259277344</ele>
        <time>2010-08-15T11:21:37Z</time>
      </trkpt>
      <trkpt lat="45.39368" lon="4.57034">
        <ele>1274.8454589844</ele>
        <time>2010-08-15T11:21:42Z</time>
      </trkpt>
      <trkpt lat="45.39386" lon="4.57034">
        <ele>1275.806640625</ele>
        <time>2010-08-15T11:21:48Z</time>
      </trkpt>
      <trkpt lat="45.39398" lon="4.57037">
        <ele>1277.2490234375</ele>
        <time>2010-08-15T11:21:54Z</time>
      </trkpt>
      <trkpt lat="45.39409" lon="4.57039">
        <ele>1278.2102050781</ele>
        <time>2010-08-15T11:22:00Z</time>
      </trkpt>
      <trkpt lat="45.39418" lon="4.57039">
        <ele>1279.1713867188</ele>
        <time>2010-08-15T11:22:06Z</time>
      </trkpt>
      <trkpt lat="45.39432" lon="4.57035">
        <ele>1280.6135253906</ele>
        <time>2010-08-15T11:22:12Z</time>
      </trkpt>
      <trkpt lat="45.39448" lon="4.57031">
        <ele>1282.0554199219</ele>
        <time>2010-08-15T11:22:18Z</time>
      </trkpt>
      <trkpt lat="45.39462" lon="4.57027">
        <ele>1284.4587402344</ele>
        <time>2010-08-15T11:22:24Z</time>
      </trkpt>
      <trkpt lat="45.39477" lon="4.57024">
        <ele>1283.9780273438</ele>
        <time>2010-08-15T11:22:29Z</time>
      </trkpt>
      <trkpt lat="45.39499" lon="4.57025">
        <ele>1283.9780273438</ele>
        <time>2010-08-15T11:22:37Z</time>
      </trkpt>
      <trkpt lat="45.39513" lon="4.57034">
        <ele>1284.939453125</ele>
        <time>2010-08-15T11:22:44Z</time>
      </trkpt>
      <trkpt lat="45.39523" lon="4.57045">
        <ele>1285.9006347656</ele>
        <time>2010-08-15T11:22:50Z</time>
      </trkpt>
      <trkpt lat="45.39536" lon="4.57058">
        <ele>1284.4587402344</ele>
        <time>2010-08-15T11:22:58Z</time>
      </trkpt>
      <trkpt lat="45.39545" lon="4.57071">
        <ele>1283.0166015625</ele>
        <time>2010-08-15T11:23:03Z</time>
      </trkpt>
      <trkpt lat="45.39557" lon="4.5709">
        <ele>1286.3813476562</ele>
        <time>2010-08-15T11:23:09Z</time>
      </trkpt>
      <trkpt lat="45.39554" lon="4.57104">
        <ele>1286.8618164062</ele>
        <time>2010-08-15T11:23:13Z</time>
      </trkpt>
      <trkpt lat="45.39545" lon="4.57117">
        <ele>1288.3039550781</ele>
        <time>2010-08-15T11:23:18Z</time>
      </trkpt>
      <trkpt lat="45.39529" lon="4.57138">
        <ele>1287.3425292969</ele>
        <time>2010-08-15T11:23:25Z</time>
      </trkpt>
      <trkpt lat="45.39515" lon="4.57149">
        <ele>1287.3425292969</ele>
        <time>2010-08-15T11:23:30Z</time>
      </trkpt>
      <trkpt lat="45.39497" lon="4.57157">
        <ele>1287.3425292969</ele>
        <time>2010-08-15T11:23:36Z</time>
      </trkpt>
      <trkpt lat="45.39484" lon="4.57161">
        <ele>1285.419921875</ele>
        <time>2010-08-15T11:23:42Z</time>
      </trkpt>
      <trkpt lat="45.39471" lon="4.57163">
        <ele>1285.419921875</ele>
        <time>2010-08-15T11:23:48Z</time>
      </trkpt>
      <trkpt lat="45.39454" lon="4.57168">
        <ele>1287.3425292969</ele>
        <time>2010-08-15T11:23:55Z</time>
      </trkpt>
      <trkpt lat="45.39442" lon="4.57169">
        <ele>1290.2265625</ele>
        <time>2010-08-15T11:24:01Z</time>
      </trkpt>
      <trkpt lat="45.39427" lon="4.57173">
        <ele>1293.1105957031</ele>
        <time>2010-08-15T11:24:08Z</time>
      </trkpt>
      <trkpt lat="45.39412" lon="4.57183">
        <ele>1293.5913085938</ele>
        <time>2010-08-15T11:24:15Z</time>
      </trkpt>
      <trkpt lat="45.39398" lon="4.57196">
        <ele>1295.5139160156</ele>
        <time>2010-08-15T11:24:22Z</time>
      </trkpt>
      <trkpt lat="45.39386" lon="4.57205">
        <ele>1297.4365234375</ele>
        <time>2010-08-15T11:24:28Z</time>
      </trkpt>
      <trkpt lat="45.39373" lon="4.57215">
        <ele>1299.3591308594</ele>
        <time>2010-08-15T11:24:33Z</time>
      </trkpt>
      <trkpt lat="45.39353" lon="4.57227">
        <ele>1301.2817382812</ele>
        <time>2010-08-15T11:24:40Z</time>
      </trkpt>
      <trkpt lat="45.39333" lon="4.5724">
        <ele>1304.6462402344</ele>
        <time>2010-08-15T11:24:47Z</time>
      </trkpt>
      <trkpt lat="45.3931" lon="4.57252">
        <ele>1306.0881347656</ele>
        <time>2010-08-15T11:24:54Z</time>
      </trkpt>
      <trkpt lat="45.39281" lon="4.57269">
        <ele>1307.0495605469</ele>
        <time>2010-08-15T11:25:02Z</time>
      </trkpt>
      <trkpt lat="45.39253" lon="4.57286">
        <ele>1308.0112304688</ele>
        <time>2010-08-15T11:25:09Z</time>
      </trkpt>
      <trkpt lat="45.39243" lon="4.57293">
        <ele>1308.4916992188</ele>
        <time>2010-08-15T11:25:12Z</time>
      </trkpt>
      <trkpt lat="45.39211" lon="4.57314">
        <ele>1308.4916992188</ele>
        <time>2010-08-15T11:25:19Z</time>
      </trkpt>
      <trkpt lat="45.39191" lon="4.57327">
        <ele>1308.4916992188</ele>
        <time>2010-08-15T11:25:23Z</time>
      </trkpt>
      <trkpt lat="45.3916" lon="4.57345">
        <ele>1308.9724121094</ele>
        <time>2010-08-15T11:25:29Z</time>
      </trkpt>
      <trkpt lat="45.39117" lon="4.57369">
        <ele>1309.453125</ele>
        <time>2010-08-15T11:25:37Z</time>
      </trkpt>
      <trkpt lat="45.39087" lon="4.57389">
        <ele>1309.93359375</ele>
        <time>2010-08-15T11:25:43Z</time>
      </trkpt>
      <trkpt lat="45.39059" lon="4.57399">
        <ele>1309.453125</ele>
        <time>2010-08-15T11:25:48Z</time>
      </trkpt>
      <trkpt lat="45.39035" lon="4.57401">
        <ele>1308.4916992188</ele>
        <time>2010-08-15T11:25:53Z</time>
      </trkpt>
      <trkpt lat="45.39029" lon="4.57405">
        <ele>1308.0112304688</ele>
        <time>2010-08-15T11:25:57Z</time>
      </trkpt>
      <trkpt lat="45.39034" lon="4.57406">
        <ele>1308.0112304688</ele>
        <time>2010-08-15T11:26:00Z</time>
      </trkpt>
      <trkpt lat="45.39057" lon="4.57402">
        <ele>1309.93359375</ele>
        <time>2010-08-15T11:26:07Z</time>
      </trkpt>
      <trkpt lat="45.39081" lon="4.57398">
        <ele>1310.8950195312</ele>
        <time>2010-08-15T11:26:13Z</time>
      </trkpt>
      <trkpt lat="45.39094" lon="4.57393">
        <ele>1310.8950195312</ele>
        <time>2010-08-15T11:26:16Z</time>
      </trkpt>
      <trkpt lat="45.39114" lon="4.5739">
        <ele>1311.8564453125</ele>
        <time>2010-08-15T11:26:21Z</time>
      </trkpt>
      <trkpt lat="45.39148" lon="4.57398">
        <ele>1313.7788085938</ele>
        <time>2010-08-15T11:26:30Z</time>
      </trkpt>
      <trkpt lat="45.3918" lon="4.57413">
        <ele>1315.2209472656</ele>
        <time>2010-08-15T11:26:39Z</time>
      </trkpt>
      <trkpt lat="45.39194" lon="4.57436">
        <ele>1316.6628417969</ele>
        <time>2010-08-15T11:26:45Z</time>
      </trkpt>
      <trkpt lat="45.39204" lon="4.57468">
        <ele>1318.1047363281</ele>
        <time>2010-08-15T11:26:52Z</time>
      </trkpt>
      <trkpt lat="45.39211" lon="4.575">
        <ele>1319.546875</ele>
        <time>2010-08-15T11:26:59Z</time>
      </trkpt>
      <trkpt lat="45.39206" lon="4.57516">
        <ele>1320.9887695312</ele>
        <time>2010-08-15T11:27:03Z</time>
      </trkpt>
      <trkpt lat="45.39194" lon="4.57521">
        <ele>1321.9499511719</ele>
        <time>2010-08-15T11:27:07Z</time>
      </trkpt>
      <trkpt lat="45.39165" lon="4.57518">
        <ele>1324.353515625</ele>
        <time>2010-08-15T11:27:16Z</time>
      </trkpt>
      <trkpt lat="45.39143" lon="4.57522">
        <ele>1325.7954101562</ele>
        <time>2010-08-15T11:27:23Z</time>
      </trkpt>
      <trkpt lat="45.39111" lon="4.5753">
        <ele>1327.7180175781</ele>
        <time>2010-08-15T11:27:33Z</time>
      </trkpt>
      <trkpt lat="45.39086" lon="4.57541">
        <ele>1329.640625</ele>
        <time>2010-08-15T11:27:40Z</time>
      </trkpt>
      <trkpt lat="45.39062" lon="4.5755">
        <ele>1330.6020507812</ele>
        <time>2010-08-15T11:27:47Z</time>
      </trkpt>
      <trkpt lat="45.39034" lon="4.57559">
        <ele>1332.0439453125</ele>
        <time>2010-08-15T11:27:55Z</time>
      </trkpt>
      <trkpt lat="45.39" lon="4.5757">
        <ele>1333.4858398438</ele>
        <time>2010-08-15T11:28:05Z</time>
      </trkpt>
      <trkpt lat="45.38969" lon="4.57581">
        <ele>1334.9279785156</ele>
        <time>2010-08-15T11:28:14Z</time>
      </trkpt>
      <trkpt lat="45.3893" lon="4.57592">
        <ele>1337.8117675781</ele>
        <time>2010-08-15T11:28:25Z</time>
      </trkpt>
      <trkpt lat="45.38897" lon="4.57601">
        <ele>1340.2153320312</ele>
        <time>2010-08-15T11:28:34Z</time>
      </trkpt>
      <trkpt lat="45.38867" lon="4.57609">
        <ele>1342.1379394531</ele>
        <time>2010-08-15T11:28:42Z</time>
      </trkpt>
      <trkpt lat="45.38832" lon="4.57619">
        <ele>1343.5798339844</ele>
        <time>2010-08-15T11:28:51Z</time>
      </trkpt>
      <trkpt lat="45.38786" lon="4.57628">
        <ele>1345.9831542969</ele>
        <time>2010-08-15T11:29:03Z</time>
      </trkpt>
      <trkpt lat="45.38763" lon="4.57623">
        <ele>1347.4250488281</ele>
        <time>2010-08-15T11:29:09Z</time>
      </trkpt>
      <trkpt lat="45.38736" lon="4.57615">
        <ele>1348.8669433594</ele>
        <time>2010-08-15T11:29:17Z</time>
      </trkpt>
      <trkpt lat="45.38729" lon="4.57611">
        <ele>1349.34765625</ele>
        <time>2010-08-15T11:29:21Z</time>
      </trkpt>
      <trkpt lat="45.38725" lon="4.57609">
        <ele>1349.34765625</ele>
        <time>2010-08-15T11:29:25Z</time>
      </trkpt>
      <trkpt lat="45.38715" lon="4.57606">
        <ele>1350.3090820312</ele>
        <time>2010-08-15T11:29:32Z</time>
      </trkpt>
      <trkpt lat="45.38707" lon="4.576">
        <ele>1350.7895507812</ele>
        <time>2010-08-15T11:29:38Z</time>
      </trkpt>
      <trkpt lat="45.38693" lon="4.57588">
        <ele>1352.2314453125</ele>
        <time>2010-08-15T11:29:46Z</time>
      </trkpt>
      <trkpt lat="45.3867" lon="4.57565">
        <ele>1354.634765625</ele>
        <time>2010-08-15T11:29:58Z</time>
      </trkpt>
      <trkpt lat="45.38658" lon="4.57551">
        <ele>1356.0769042969</ele>
        <time>2010-08-15T11:30:04Z</time>
      </trkpt>
      <trkpt lat="45.38639" lon="4.57526">
        <ele>1358.4802246094</ele>
        <time>2010-08-15T11:30:13Z</time>
      </trkpt>
      <trkpt lat="45.38627" lon="4.57496">
        <ele>1360.8835449219</ele>
        <time>2010-08-15T11:30:21Z</time>
      </trkpt>
      <trkpt lat="45.38618" lon="4.57468">
        <ele>1363.2868652344</ele>
        <time>2010-08-15T11:30:27Z</time>
      </trkpt>
      <trkpt lat="45.38609" lon="4.57431">
        <ele>1365.2094726562</ele>
        <time>2010-08-15T11:30:33Z</time>
      </trkpt>
      <trkpt lat="45.38605" lon="4.57372">
        <ele>1366.1706542969</ele>
        <time>2010-08-15T11:30:42Z</time>
      </trkpt>
      <trkpt lat="45.38605" lon="4.57321">
        <ele>1367.1320800781</ele>
        <time>2010-08-15T11:30:50Z</time>
      </trkpt>
      <trkpt lat="45.38606" lon="4.57266">
        <ele>1368.0932617188</ele>
        <time>2010-08-15T11:30:59Z</time>
      </trkpt>
      <trkpt lat="45.38605" lon="4.572">
        <ele>1369.5354003906</ele>
        <time>2010-08-15T11:31:10Z</time>
      </trkpt>
      <trkpt lat="45.38605" lon="4.57147">
        <ele>1371.9384765625</ele>
        <time>2010-08-15T11:31:19Z</time>
      </trkpt>
      <trkpt lat="45.38604" lon="4.57099">
        <ele>1373.861328125</ele>
        <time>2010-08-15T11:31:28Z</time>
      </trkpt>
      <trkpt lat="45.38599" lon="4.57054">
        <ele>1375.3032226562</ele>
        <time>2010-08-15T11:31:36Z</time>
      </trkpt>
      <trkpt lat="45.38589" lon="4.57017">
        <ele>1376.7453613281</ele>
        <time>2010-08-15T11:31:43Z</time>
      </trkpt>
      <trkpt lat="45.38575" lon="4.56977">
        <ele>1378.1872558594</ele>
        <time>2010-08-15T11:31:51Z</time>
      </trkpt>
      <trkpt lat="45.38559" lon="4.56937">
        <ele>1379.1484375</ele>
        <time>2010-08-15T11:31:59Z</time>
      </trkpt>
      <trkpt lat="45.38539" lon="4.56885">
        <ele>1381.0712890625</ele>
        <time>2010-08-15T11:32:09Z</time>
      </trkpt>
      <trkpt lat="45.3852" lon="4.56839">
        <ele>1383.4743652344</ele>
        <time>2010-08-15T11:32:18Z</time>
      </trkpt>
      <trkpt lat="45.38498" lon="4.56818">
        <ele>1384.9165039062</ele>
        <time>2010-08-15T11:32:24Z</time>
      </trkpt>
      <trkpt lat="45.38489" lon="4.56815">
        <ele>1385.3969726562</ele>
        <time>2010-08-15T11:32:26Z</time>
      </trkpt>
      <trkpt lat="45.38442" lon="4.56811">
        <ele>1385.8776855469</ele>
        <time>2010-08-15T11:32:35Z</time>
      </trkpt>
      <trkpt lat="45.38409" lon="4.56818">
        <ele>1385.3969726562</ele>
        <time>2010-08-15T11:32:41Z</time>
      </trkpt>
      <trkpt lat="45.38391" lon="4.56824">
        <ele>1385.8776855469</ele>
        <time>2010-08-15T11:32:44Z</time>
      </trkpt>
      <trkpt lat="45.38353" lon="4.56827">
        <ele>1384.4357910156</ele>
        <time>2010-08-15T11:32:50Z</time>
      </trkpt>
      <trkpt lat="45.38326" lon="4.56815">
        <ele>1384.4357910156</ele>
        <time>2010-08-15T11:32:54Z</time>
      </trkpt>
      <trkpt lat="45.3832" lon="4.5681">
        <ele>1383.955078125</ele>
        <time>2010-08-15T11:32:55Z</time>
      </trkpt>
      <trkpt lat="45.38264" lon="4.56756">
        <ele>1383.4743652344</ele>
        <time>2010-08-15T11:33:04Z</time>
      </trkpt>
      <trkpt lat="45.38199" lon="4.56692">
        <ele>1382.5131835938</ele>
        <time>2010-08-15T11:33:14Z</time>
      </trkpt>
      <trkpt lat="45.38147" lon="4.56651">
        <ele>1379.6291503906</ele>
        <time>2010-08-15T11:33:21Z</time>
      </trkpt>
      <trkpt lat="45.38085" lon="4.56606">
        <ele>1375.3032226562</ele>
        <time>2010-08-15T11:33:28Z</time>
      </trkpt>
      <trkpt lat="45.38045" lon="4.56578">
        <ele>1371.4577636719</ele>
        <time>2010-08-15T11:33:32Z</time>
      </trkpt>
      <trkpt lat="45.38016" lon="4.56533">
        <ele>1368.0932617188</ele>
        <time>2010-08-15T11:33:36Z</time>
      </trkpt>
      <trkpt lat="45.38009" lon="4.56512">
        <ele>1367.1320800781</ele>
        <time>2010-08-15T11:33:38Z</time>
      </trkpt>
      <trkpt lat="45.37994" lon="4.56492">
        <ele>1365.2094726562</ele>
        <time>2010-08-15T11:33:42Z</time>
      </trkpt>
      <trkpt lat="45.37988" lon="4.56493">
        <ele>1365.2094726562</ele>
        <time>2010-08-15T11:33:45Z</time>
      </trkpt>
      <trkpt lat="45.37987" lon="4.56494">
        <ele>1365.6901855469</ele>
        <time>2010-08-15T11:33:55Z</time>
      </trkpt>
      <trkpt lat="45.37987" lon="4.56494">
        <ele>1366.1706542969</ele>
        <time>2010-08-15T11:34:00Z</time>
      </trkpt>
      <trkpt lat="45.37987" lon="4.56495">
        <ele>1366.6513671875</ele>
        <time>2010-08-15T11:34:06Z</time>
      </trkpt>
      <trkpt lat="45.37988" lon="4.56494">
        <ele>1367.1320800781</ele>
        <time>2010-08-15T11:34:14Z</time>
      </trkpt>
      <trkpt lat="45.3799" lon="4.56497">
        <ele>1367.1320800781</ele>
        <time>2010-08-15T11:34:19Z</time>
      </trkpt>
      <trkpt lat="45.37992" lon="4.56503">
        <ele>1367.6125488281</ele>
        <time>2010-08-15T11:34:24Z</time>
      </trkpt>
      <trkpt lat="45.37994" lon="4.56503">
        <ele>1368.0932617188</ele>
        <time>2010-08-15T11:34:30Z</time>
      </trkpt>
      <trkpt lat="45.37996" lon="4.56502">
        <ele>1369.5354003906</ele>
        <time>2010-08-15T11:34:35Z</time>
      </trkpt>
      <trkpt lat="45.37996" lon="4.56502">
        <ele>1369.0546875</ele>
        <time>2010-08-15T11:34:42Z</time>
      </trkpt>
      <trkpt lat="45.37997" lon="4.56502">
        <ele>1370.0158691406</ele>
        <time>2010-08-15T11:34:48Z</time>
      </trkpt>
      <trkpt lat="45.37997" lon="4.56502">
        <ele>1371.4577636719</ele>
        <time>2010-08-15T11:34:59Z</time>
      </trkpt>
      <trkpt lat="45.37998" lon="4.56502">
        <ele>1372.4194335938</ele>
        <time>2010-08-15T11:35:08Z</time>
      </trkpt>
      <trkpt lat="45.37998" lon="4.56503">
        <ele>1374.3420410156</ele>
        <time>2010-08-15T11:35:20Z</time>
      </trkpt>
      <trkpt lat="45.37997" lon="4.56501">
        <ele>1373.380859375</ele>
        <time>2010-08-15T11:35:38Z</time>
      </trkpt>
      <trkpt lat="45.37997" lon="4.56502">
        <ele>1372.4194335938</ele>
        <time>2010-08-15T11:35:46Z</time>
      </trkpt>
      <trkpt lat="45.37996" lon="4.56502">
        <ele>1370.4965820312</ele>
        <time>2010-08-15T11:36:01Z</time>
      </trkpt>
      <trkpt lat="45.37997" lon="4.56502">
        <ele>1370.4965820312</ele>
        <time>2010-08-15T11:36:11Z</time>
      </trkpt>
      <trkpt lat="45.37996" lon="4.56502">
        <ele>1371.4577636719</ele>
        <time>2010-08-15T11:36:22Z</time>
      </trkpt>
      <trkpt lat="45.37996" lon="4.56502">
        <ele>1372.9001464844</ele>
        <time>2010-08-15T11:36:35Z</time>
      </trkpt>
      <trkpt lat="45.37997" lon="4.56503">
        <ele>1371.9384765625</ele>
        <time>2010-08-15T11:36:46Z</time>
      </trkpt>
      <trkpt lat="45.37997" lon="4.56504">
        <ele>1372.4194335938</ele>
        <time>2010-08-15T11:36:48Z</time>
      </trkpt>
      <trkpt lat="45.37996" lon="4.56506">
        <ele>1374.3420410156</ele>
        <time>2010-08-15T11:36:55Z</time>
      </trkpt>
      <trkpt lat="45.37996" lon="4.56505">
        <ele>1372.9001464844</ele>
        <time>2010-08-15T11:37:01Z</time>
      </trkpt>
      <trkpt lat="45.37996" lon="4.56504">
        <ele>1370.9772949219</ele>
        <time>2010-08-15T11:37:10Z</time>
      </trkpt>
      <trkpt lat="45.37996" lon="4.56502">
        <ele>1371.4577636719</ele>
        <time>2010-08-15T11:37:21Z</time>
      </trkpt>
      <trkpt lat="45.37996" lon="4.56501">
        <ele>1371.4577636719</ele>
        <time>2010-08-15T11:37:45Z</time>
      </trkpt>
      <trkpt lat="45.37996" lon="4.56501">
        <ele>1371.4577636719</ele>
        <time>2010-08-15T11:37:59Z</time>
      </trkpt>
      <trkpt lat="45.37997" lon="4.56501">
        <ele>1371.4577636719</ele>
        <time>2010-08-15T11:38:11Z</time>
      </trkpt>
      <trkpt lat="45.37996" lon="4.56501">
        <ele>1370.4965820312</ele>
        <time>2010-08-15T11:38:21Z</time>
      </trkpt>
      <trkpt lat="45.37996" lon="4.56502">
        <ele>1370.0158691406</ele>
        <time>2010-08-15T11:38:42Z</time>
      </trkpt>
      <trkpt lat="45.37997" lon="4.56502">
        <ele>1369.5354003906</ele>
        <time>2010-08-15T11:38:49Z</time>
      </trkpt>
      <trkpt lat="45.37999" lon="4.565">
        <ele>1367.6125488281</ele>
        <time>2010-08-15T11:39:05Z</time>
      </trkpt>
      <trkpt lat="45.37998" lon="4.56501">
        <ele>1367.6125488281</ele>
        <time>2010-08-15T11:39:13Z</time>
      </trkpt>
      <trkpt lat="45.37999" lon="4.56501">
        <ele>1367.6125488281</ele>
        <time>2010-08-15T11:39:23Z</time>
      </trkpt>
      <trkpt lat="45.37998" lon="4.56501">
        <ele>1367.1320800781</ele>
        <time>2010-08-15T11:39:30Z</time>
      </trkpt>
      <trkpt lat="45.37994" lon="4.565">
        <ele>1367.1320800781</ele>
        <time>2010-08-15T11:39:35Z</time>
      </trkpt>
      <trkpt lat="45.37991" lon="4.56495">
        <ele>1366.6513671875</ele>
        <time>2010-08-15T11:39:42Z</time>
      </trkpt>
      <trkpt lat="45.37989" lon="4.56494">
        <ele>1366.1706542969</ele>
        <time>2010-08-15T11:39:48Z</time>
      </trkpt>
      <trkpt lat="45.37991" lon="4.5649">
        <ele>1366.6513671875</ele>
        <time>2010-08-15T11:39:54Z</time>
      </trkpt>
      <trkpt lat="45.37993" lon="4.56489">
        <ele>1366.6513671875</ele>
        <time>2010-08-15T11:39:58Z</time>
      </trkpt>
      <trkpt lat="45.37995" lon="4.56486">
        <ele>1367.6125488281</ele>
        <time>2010-08-15T11:40:06Z</time>
      </trkpt>
      <trkpt lat="45.37994" lon="4.56486">
        <ele>1369.0546875</ele>
        <time>2010-08-15T11:40:13Z</time>
      </trkpt>
      <trkpt lat="45.37994" lon="4.56488">
        <ele>1370.0158691406</ele>
        <time>2010-08-15T11:40:21Z</time>
      </trkpt>
      <trkpt lat="45.37994" lon="4.56488">
        <ele>1370.4965820312</ele>
        <time>2010-08-15T11:40:29Z</time>
      </trkpt>
      <trkpt lat="45.37995" lon="4.56486">
        <ele>1370.4965820312</ele>
        <time>2010-08-15T11:40:36Z</time>
      </trkpt>
      <trkpt lat="45.37995" lon="4.56483">
        <ele>1369.5354003906</ele>
        <time>2010-08-15T11:40:41Z</time>
      </trkpt>
      <trkpt lat="45.37996" lon="4.56481">
        <ele>1370.0158691406</ele>
        <time>2010-08-15T11:40:49Z</time>
      </trkpt>
      <trkpt lat="45.37996" lon="4.56481">
        <ele>1370.4965820312</ele>
        <time>2010-08-15T11:40:57Z</time>
      </trkpt>
      <trkpt lat="45.37997" lon="4.56482">
        <ele>1373.861328125</ele>
        <time>2010-08-15T11:41:17Z</time>
      </trkpt>
      <trkpt lat="45.37998" lon="4.56482">
        <ele>1372.9001464844</ele>
        <time>2010-08-15T11:41:34Z</time>
      </trkpt>
      <trkpt lat="45.37998" lon="4.56481">
        <ele>1372.9001464844</ele>
        <time>2010-08-15T11:41:39Z</time>
      </trkpt>
      <trkpt lat="45.37998" lon="4.56483">
        <ele>1372.9001464844</ele>
        <time>2010-08-15T11:41:46Z</time>
      </trkpt>
      <trkpt lat="45.37997" lon="4.56483">
        <ele>1372.9001464844</ele>
        <time>2010-08-15T11:41:54Z</time>
      </trkpt>
      <trkpt lat="45.37997" lon="4.56484">
        <ele>1373.380859375</ele>
        <time>2010-08-15T11:42:03Z</time>
      </trkpt>
      <trkpt lat="45.37997" lon="4.56484">
        <ele>1374.3420410156</ele>
        <time>2010-08-15T11:42:16Z</time>
      </trkpt>
      <trkpt lat="45.37995" lon="4.56482">
        <ele>1371.4577636719</ele>
        <time>2010-08-15T11:42:35Z</time>
      </trkpt>
      <trkpt lat="45.37993" lon="4.56481">
        <ele>1371.9384765625</ele>
        <time>2010-08-15T11:42:45Z</time>
      </trkpt>
      <trkpt lat="45.37992" lon="4.56482">
        <ele>1371.4577636719</ele>
        <time>2010-08-15T11:42:54Z</time>
      </trkpt>
      <trkpt lat="45.37992" lon="4.56478">
        <ele>1370.9772949219</ele>
        <time>2010-08-15T11:42:59Z</time>
      </trkpt>
      <trkpt lat="45.37993" lon="4.56475">
        <ele>1369.0546875</ele>
        <time>2010-08-15T11:43:05Z</time>
      </trkpt>
      <trkpt lat="45.37994" lon="4.56474">
        <ele>1369.0546875</ele>
        <time>2010-08-15T11:43:13Z</time>
      </trkpt>
      <trkpt lat="45.37995" lon="4.56473">
        <ele>1370.0158691406</ele>
        <time>2010-08-15T11:43:23Z</time>
      </trkpt>
      <trkpt lat="45.37996" lon="4.56472">
        <ele>1372.4194335938</ele>
        <time>2010-08-15T11:43:32Z</time>
      </trkpt>
      <trkpt lat="45.37997" lon="4.56471">
        <ele>1372.9001464844</ele>
        <time>2010-08-15T11:43:47Z</time>
      </trkpt>
      <trkpt lat="45.37996" lon="4.56472">
        <ele>1372.4194335938</ele>
        <time>2010-08-15T11:44:00Z</time>
      </trkpt>
      <trkpt lat="45.37997" lon="4.56472">
        <ele>1371.9384765625</ele>
        <time>2010-08-15T11:44:10Z</time>
      </trkpt>
      <trkpt lat="45.37997" lon="4.56472">
        <ele>1371.9384765625</ele>
        <time>2010-08-15T11:44:11Z</time>
      </trkpt>
    </trkseg>
  </trk>
</gpx>